Site Date LOGGERID PROGID AIRTEMP_MEAN_150_0_04 AIRTEMP_MEAN_250_0_03 AIRTEMP_MEAN_350_0_02 AIRTEMP_MEAN_450_0_01 AIRTEMP_MEAN_350_0_08 RELHUM_MEAN_150_0_04 RELHUM_MEAN_450_0_01 DEWPT_MEAN_150_0_04 DEWPT_MEAN_450_0_01 SOILTEMP_MEAN_0_10_01 SOILTEMP_MEAN_0_20_02 SOILTEMP_MEAN_0_50_03 SOILTEMP_MEAN_0_100_04 SOILWC_MEAN_0_10_01 SOILWC_MEAN_0_20_02 SOILWC_MEAN_0_50_03 SOILWC_MEAN_0_100_04 SOLAR_MEAN_850_0_01 SNOWDEP_MED_0_0_01 SWE_MED_0_0_01 WSPD_PRO_MEAN_1000_0_01 WDIR_PRO_MEAN_1000_0_01 WDIR_PRO_STDDEV_1000_0_01 AIRTEMP_150_DIAG AIRTEMP_250_DIAG SNOW_DIAG AIRTEMP_MAX_150_0_04 AIRTEMP_MAX_250_0_03 AIRTEMP_MAX_350_0_02 AIRTEMP_MAX_350_0_08 AIRTEMP_MAX_450_0_01 DEWPT_MAX_150_0_04 DEWPT_MAX_450_0_01 AIRTEMP_MIN_150_0_04 AIRTEMP_MIN_250_0_03 AIRTEMP_MIN_350_0_02 AIRTEMP_MIN_350_0_08 AIRTEMP_MIN_450_0_01 DEWPT_MIN_150_0_04 DEWPT_MIN_450_0_01 WSPD_PRO_MAX_1000_0_01 SATVP_MEAN_150_0_04 VAP_MEAN_150_0_04 VPD_MEAN_150_0_04 SATVP_MEAN_450_0_01 VAP_MEAN_450_0_01 VPD_MEAN_450_0_01
VANMET_231 2015-10-01 00:00:00 231 5603.0 9.120 9.370 9.790 9.780 10.020 69.820 61.660 3.904 2.782 15.210 14.280 12.220 10.920 0.202 0.228 0.269 0.533 0.00 0.00 0.00 0.2140 349.20 13.63 1 1 1 9.140 9.430 9.840 10.190 9.820 4.268 2.865 9.090 9.320 9.770 9.890 9.760 3.413 2.710 0.6340 11.573 8.077 3.493 12.099 7.461 4.639
VANMET_231 2015-09-30 23:55:00 231 5603.0 9.170 9.380 9.860 9.910 9.910 72.050 62.020 4.401 2.982 15.230 14.280 12.220 10.920 0.202 0.228 0.269 0.533 0.00 0.00 0.00 0.5790 15.86 7.34 1 1 1 9.220 9.470 9.970 10.090 9.990 5.016 3.370 9.100 9.280 9.770 9.760 9.810 3.583 2.797 0.8360 11.612 8.365 3.246 12.205 7.568 4.635
VANMET_231 2015-09-30 23:50:00 231 5603.0 9.260 9.510 10.000 10.000 10.250 69.580 60.920 3.991 2.811 15.250 14.280 12.220 10.920 0.202 0.228 0.269 0.533 0.00 0.00 0.00 0.5890 4.72 6.50 1 1 1 9.330 9.540 10.020 10.330 10.020 4.557 3.097 9.200 9.470 9.960 10.100 9.970 3.751 2.682 0.8560 11.683 8.127 3.554 12.279 7.476 4.799
VANMET_231 2015-09-30 23:45:00 231 5603.0 9.320 9.590 9.980 9.980 10.110 69.750 62.020 4.085 3.046 15.270 14.280 12.220 10.920 0.202 0.228 0.269 0.533 0.00 0.00 0.00 0.3170 3.33 19.17 1 1 1 9.350 9.620 10.010 10.210 10.000 4.355 3.367 9.300 9.540 9.940 10.030 9.940 3.668 2.838 0.5290 11.730 8.181 3.548 12.262 7.602 4.657
VANMET_231 2015-09-30 23:40:00 231 5603.0 9.390 9.630 10.010 10.010 10.200 69.410 62.320 4.081 3.146 15.280 14.270 12.220 10.920 0.202 0.228 0.269 0.533 0.00 0.00 0.00 0.4650 350.20 20.94 1 1 1 9.430 9.670 10.020 10.350 10.050 4.321 3.210 9.340 9.600 9.990 10.070 9.970 3.673 3.072 0.5750 11.786 8.179 3.605 12.287 7.656 4.630
VANMET_231 2015-09-30 23:35:00 231 5603.0 9.450 9.660 10.060 10.130 10.150 69.030 61.890 4.063 3.161 15.300 14.270 12.220 10.920 0.202 0.228 0.269 0.533 0.00 0.00 0.00 0.4300 34.11 10.88 1 1 1 9.540 9.670 10.080 10.230 10.180 4.982 3.341 9.410 9.640 10.030 10.030 10.070 3.684 3.052 0.5880 11.833 8.168 3.665 12.386 7.664 4.720
VANMET_231 2015-09-30 23:30:00 231 5603.0 9.510 9.830 10.220 10.260 10.330 68.780 62.160 4.064 3.350 15.320 14.270 12.220 10.920 0.202 0.228 0.269 0.533 0.00 0.00 0.00 0.2010 24.59 8.43 1 1 1 9.570 9.870 10.260 10.570 10.310 5.041 3.526 9.400 9.700 10.100 9.990 10.190 3.668 3.291 0.6270 11.881 8.169 3.709 12.494 7.768 4.728
VANMET_231 2015-09-30 23:25:00 231 5603.0 9.360 9.610 10.050 10.030 10.370 69.000 63.510 3.970 3.435 15.340 14.270 12.220 10.920 0.202 0.228 0.269 0.533 0.00 0.00 0.00 0.2030 285.30 33.05 1 1 1 9.400 9.800 10.230 10.600 10.220 4.523 3.747 9.320 9.520 9.950 10.020 9.940 3.573 3.266 0.8490 11.762 8.115 3.646 12.303 7.814 4.490
VANMET_231 2015-09-30 23:20:00 231 5603.0 9.420 9.580 9.950 9.980 10.180 71.130 64.270 4.458 3.552 15.360 14.260 12.220 10.920 0.202 0.228 0.269 0.533 0.00 0.00 0.00 0.5380 333.80 24.22 1 1 1 9.450 9.600 9.980 10.290 10.040 4.738 3.812 9.370 9.570 9.930 10.060 9.940 4.008 3.340 0.7190 11.810 8.398 3.409 12.262 7.879 4.381
VANMET_231 2015-09-30 23:15:00 231 5603.0 9.460 9.630 10.000 10.040 10.110 71.120 64.320 4.498 3.624 15.380 14.260 12.220 10.920 0.202 0.228 0.269 0.533 0.00 0.00 0.00 0.7380 3.68 7.00 1 1 1 9.480 9.640 10.030 10.230 10.110 5.068 3.804 9.440 9.610 9.990 10.040 9.990 4.047 3.430 0.9800 11.841 8.422 3.420 12.312 7.920 4.393
VANMET_231 2015-09-30 23:10:00 231 5603.0 9.530 9.700 10.090 10.170 10.160 70.520 63.700 4.445 3.602 15.400 14.260 12.220 10.920 0.202 0.228 0.269 0.533 0.00 0.00 0.00 0.7510 7.06 3.94 1 1 1 9.580 9.800 10.200 10.280 10.250 5.108 3.917 9.490 9.640 10.030 10.050 10.090 3.956 3.420 0.9870 11.897 8.390 3.507 12.419 7.907 4.508
VANMET_231 2015-09-30 23:05:00 231 5603.0 9.560 9.840 10.240 10.250 10.410 66.860 62.600 3.717 3.439 15.420 14.260 12.220 10.920 0.202 0.228 0.269 0.533 0.00 0.00 0.00 0.3820 30.25 13.48 1 1 1 9.590 9.870 10.260 10.490 10.300 4.072 3.565 9.530 9.800 10.210 10.260 10.210 3.426 3.375 0.7640 11.921 7.972 3.951 12.486 7.817 4.670
VANMET_231 2015-09-30 23:00:00 231 5603.0 9.500 9.710 10.120 10.120 10.390 66.010 62.440 3.472 3.276 15.430 14.250 12.220 10.920 0.202 0.228 0.269 0.533 0.00 0.00 0.00 0.0000 0.00 0.00 1 1 1 9.520 9.790 10.200 10.490 10.200 3.851 3.446 9.480 9.640 10.050 10.250 10.040 3.322 3.059 0.0000 11.873 7.835 4.036 12.378 7.727 4.649
VANMET_231 2015-09-30 22:55:00 231 5603.0 9.560 9.720 10.100 10.100 10.160 69.210 61.520 4.201 3.051 15.450 14.250 12.220 10.920 0.202 0.228 0.269 0.533 0.00 0.00 0.00 0.3300 5.47 3.09 1 1 1 9.580 9.800 10.180 10.220 10.180 4.915 3.273 9.510 9.650 10.040 10.100 10.040 3.652 2.935 0.7510 11.921 8.248 3.671 12.361 7.605 4.757
VANMET_231 2015-09-30 22:50:00 231 5603.0 9.580 9.810 10.240 10.240 10.400 68.740 62.000 4.123 3.294 15.470 14.250 12.220 10.920 0.202 0.228 0.269 0.533 0.00 0.00 0.00 0.5950 4.90 4.64 1 1 1 9.610 9.840 10.270 10.510 10.280 4.368 3.439 9.550 9.790 10.190 10.240 10.180 3.797 2.986 0.7510 11.937 8.203 3.732 12.478 7.737 4.741
VANMET_231 2015-09-30 22:45:00 231 5603.0 9.630 9.910 10.310 10.340 10.400 69.170 62.570 4.267 3.514 15.490 14.240 12.220 10.920 0.202 0.228 0.269 0.533 0.00 0.00 0.00 0.4370 13.20 6.86 1 1 1 9.660 9.960 10.390 10.520 10.430 4.490 3.760 9.590 9.840 10.260 10.310 10.270 4.041 3.259 0.6930 11.978 8.286 3.693 12.561 7.858 4.702
VANMET_231 2015-09-30 22:40:00 231 5603.0 9.620 9.940 10.390 10.420 10.570 68.240 61.630 4.064 3.379 15.510 14.240 12.220 10.920 0.202 0.228 0.269 0.533 0.00 0.00 0.00 0.2680 16.03 12.63 1 1 1 9.640 9.970 10.410 10.710 10.450 4.612 3.458 9.590 9.910 10.380 10.490 10.390 3.683 3.286 0.5810 11.970 8.169 3.802 12.629 7.784 4.846
VANMET_231 2015-09-30 22:35:00 231 5603.0 9.580 9.900 10.310 10.310 10.620 67.320 60.880 3.828 3.099 15.520 14.230 12.220 10.920 0.202 0.228 0.269 0.533 0.00 0.00 0.00 0.4580 335.80 23.93 1 1 1 9.610 9.960 10.380 10.700 10.370 4.111 3.221 9.550 9.870 10.280 10.460 10.290 3.590 2.994 0.6530 11.937 8.034 3.901 12.536 7.631 4.904
VANMET_231 2015-09-30 22:30:00 231 5603.0 9.620 9.910 10.310 10.320 10.500 68.680 60.890 4.152 3.113 15.540 14.230 12.220 10.920 0.202 0.228 0.269 0.533 0.00 0.00 0.00 0.3950 339.40 27.33 1 1 1 9.640 9.930 10.320 10.570 10.340 4.443 3.230 9.600 9.890 10.290 10.460 10.300 3.855 3.021 0.7120 11.970 8.220 3.749 12.545 7.638 4.906
VANMET_231 2015-09-30 22:25:00 231 5603.0 9.590 9.860 10.280 10.280 10.470 68.050 60.430 3.991 2.967 15.560 14.230 12.220 10.920 0.202 0.228 0.269 0.533 0.00 0.00 0.00 0.6490 8.78 13.46 1 1 1 9.610 9.910 10.320 10.590 10.330 4.622 3.154 9.570 9.800 10.220 10.350 10.250 3.513 2.845 0.8490 11.945 8.127 3.817 12.511 7.560 4.951
VANMET_231 2015-09-30 22:20:00 231 5603.0 9.600 9.830 10.240 10.260 10.390 69.780 61.410 4.354 3.176 15.580 14.220 12.220 10.920 0.202 0.228 0.269 0.533 0.00 0.00 0.00 0.6560 357.50 8.27 1 1 1 9.620 9.870 10.260 10.500 10.290 4.967 3.399 9.580 9.800 10.220 10.320 10.230 3.639 2.957 0.8750 11.953 8.337 3.612 12.494 7.672 4.822
VANMET_231 2015-09-30 22:15:00 231 5603.0 9.610 9.840 10.270 10.340 10.340 68.360 60.800 4.078 3.107 15.590 14.220 12.220 10.920 0.202 0.228 0.269 0.533 0.00 0.00 0.00 0.7110 3.05 6.21 1 1 1 9.660 9.930 10.390 10.520 10.420 4.749 3.313 9.570 9.810 10.220 10.250 10.280 3.695 2.972 0.9210 11.962 8.177 3.785 12.561 7.635 4.924
VANMET_231 2015-09-30 22:10:00 231 5603.0 9.660 10.000 10.410 10.420 10.580 67.380 59.180 3.914 2.803 15.610 14.210 12.220 10.920 0.202 0.228 0.269 0.533 0.00 0.00 0.00 0.5170 1.04 9.79 1 1 1 9.700 10.030 10.420 10.670 10.440 4.618 2.947 9.630 9.940 10.400 10.500 10.390 3.437 2.680 0.7250 12.002 8.083 3.915 12.629 7.472 5.155
VANMET_231 2015-09-30 22:05:00 231 5603.0 9.630 9.980 10.410 10.440 10.670 66.860 58.950 3.778 2.766 15.630 14.200 12.220 10.920 0.202 0.228 0.269 0.533 0.00 0.00 0.00 0.6190 1.40 8.86 1 1 1 9.650 10.030 10.440 10.810 10.460 4.007 2.976 9.600 9.920 10.370 10.520 10.420 3.481 2.607 0.7710 11.978 8.006 3.969 12.645 7.452 5.191
VANMET_231 2015-09-30 22:00:00 231 5603.0 9.600 9.940 10.400 10.420 10.520 67.240 58.930 3.833 2.744 15.640 14.200 12.220 10.920 0.202 0.228 0.269 0.533 0.00 0.00 0.00 0.6840 21.02 6.69 1 1 1 9.640 9.960 10.410 10.590 10.450 4.589 2.812 9.540 9.930 10.370 10.460 10.390 3.432 2.705 0.8690 11.953 8.037 3.916 12.629 7.441 5.187
VANMET_231 2015-09-30 21:55:00 231 5603.0 9.550 9.900 10.380 10.350 10.700 67.350 59.420 3.811 2.799 15.660 14.190 12.220 10.920 0.202 0.228 0.269 0.533 0.00 0.00 0.00 0.5940 3.57 11.04 1 1 1 9.590 9.950 10.410 10.800 10.390 4.003 2.887 9.520 9.860 10.350 10.580 10.320 3.443 2.739 0.7970 11.913 8.025 3.890 12.570 7.470 5.101
VANMET_231 2015-09-30 21:50:00 231 5603.0 9.610 9.860 10.310 10.290 10.530 67.670 59.500 3.930 2.753 15.680 14.190 12.220 10.920 0.202 0.228 0.269 0.533 0.00 0.00 0.00 0.5350 358.80 4.33 1 1 1 9.630 9.880 10.350 10.680 10.330 4.116 2.815 9.570 9.850 10.290 10.410 10.260 3.640 2.646 0.6400 11.962 8.092 3.867 12.519 7.446 5.070
VANMET_231 2015-09-30 21:45:00 231 5603.0 9.560 9.870 10.290 10.260 10.460 66.200 59.500 3.569 2.724 15.690 14.180 12.220 10.920 0.202 0.228 0.269 0.533 0.00 0.00 0.00 0.6250 8.20 4.97 1 1 1 9.620 9.910 10.320 10.520 10.300 3.837 2.839 9.480 9.800 10.250 10.390 10.200 3.365 2.625 0.8170 11.921 7.889 4.029 12.494 7.430 5.060
VANMET_231 2015-09-30 21:40:00 231 5603.0 9.450 9.720 10.220 10.160 10.510 67.130 59.860 3.662 2.717 15.710 14.180 12.220 10.920 0.202 0.228 0.269 0.533 0.00 0.00 0.00 0.5640 0.59 13.07 1 1 1 9.490 9.790 10.260 10.680 10.220 4.167 2.907 9.410 9.620 10.120 10.380 10.060 3.214 2.597 0.8490 11.833 7.941 3.890 12.411 7.426 4.982
VANMET_231 2015-09-30 21:35:00 231 5603.0 9.490 9.610 10.050 10.050 10.370 68.550 60.460 4.005 2.759 15.720 14.170 12.220 10.920 0.202 0.228 0.269 0.533 0.00 0.00 0.00 0.6610 357.80 5.60 1 1 1 9.550 9.660 10.110 10.510 10.080 4.194 2.842 9.450 9.560 10.010 10.220 10.030 3.800 2.651 0.7710 11.865 8.135 3.732 12.320 7.449 4.871
VANMET_231 2015-09-30 21:30:00 231 5603.0 9.540 9.680 10.010 10.030 10.120 68.190 61.780 3.978 3.038 15.740 14.160 12.220 10.920 0.202 0.228 0.269 0.533 0.00 0.00 0.00 0.6900 5.27 2.75 1 1 1 9.560 9.700 10.030 10.310 10.040 4.301 3.315 9.520 9.660 10.000 10.050 10.010 3.600 2.755 0.8750 11.905 8.120 3.787 12.303 7.598 4.702
VANMET_231 2015-09-30 21:25:00 231 5603.0 9.610 9.700 10.060 10.080 10.180 69.730 63.340 4.359 3.438 15.750 14.160 12.220 10.920 0.202 0.228 0.269 0.533 0.00 0.00 0.00 0.7790 2.67 2.82 1 1 1 9.680 9.750 10.090 10.310 10.100 4.517 3.599 9.550 9.660 10.020 10.090 10.030 4.149 3.115 0.9280 11.962 8.340 3.621 12.345 7.816 4.526
VANMET_231 2015-09-30 21:20:00 231 5603.0 9.690 9.800 10.130 10.160 10.200 68.580 62.880 4.196 3.410 15.770 14.150 12.220 10.920 0.202 0.228 0.269 0.533 0.00 0.00 0.00 0.7300 4.60 1.74 1 1 1 9.710 9.820 10.170 10.230 10.210 4.544 3.603 9.670 9.750 10.080 10.150 10.110 3.909 3.232 0.8890 12.026 8.245 3.779 12.411 7.801 4.607
VANMET_231 2015-09-30 21:15:00 231 5603.0 9.730 9.880 10.260 10.290 10.270 68.670 61.060 4.258 3.124 15.780 14.140 12.220 10.920 0.202 0.228 0.269 0.533 0.00 0.00 0.00 0.6500 11.38 5.93 1 1 1 9.780 9.960 10.370 10.340 10.400 4.923 3.292 9.690 9.810 10.170 10.210 10.210 3.882 2.949 0.8230 12.058 8.281 3.778 12.519 7.644 4.875
VANMET_231 2015-09-30 21:10:00 231 5603.0 9.820 10.050 10.490 10.510 10.480 69.580 59.930 4.520 3.065 15.790 14.130 12.220 10.920 0.202 0.228 0.269 0.533 0.00 0.00 0.00 0.7240 12.07 5.78 1 1 1 9.840 10.120 10.620 10.680 10.620 4.953 3.208 9.790 9.970 10.380 10.360 10.390 3.604 2.911 0.8490 12.131 8.435 3.690 12.705 7.612 5.091
VANMET_231 2015-09-30 21:05:00 231 5603.0 9.860 10.140 10.620 10.620 10.950 66.620 58.940 3.949 2.929 15.810 14.130 12.220 10.920 0.202 0.228 0.269 0.533 0.00 0.00 0.00 0.2900 348.90 14.98 1 1 1 9.910 10.160 10.690 11.090 10.650 4.084 3.322 9.790 10.110 10.540 10.730 10.560 3.706 2.819 0.6270 12.164 8.103 4.060 12.798 7.539 5.255
VANMET_231 2015-09-30 21:00:00 231 5603.0 9.960 10.140 10.550 10.600 10.660 67.570 58.910 4.241 2.911 15.820 14.120 12.220 10.920 0.202 0.228 0.269 0.533 0.00 0.00 0.00 0.5710 10.86 5.62 1 1 1 10.030 10.200 10.590 10.760 10.670 4.957 3.036 9.910 10.110 10.520 10.610 10.550 3.737 2.788 0.6990 12.246 8.271 3.971 12.781 7.530 5.252
VANMET_231 2015-09-30 20:55:00 231 5603.0 10.040 10.310 10.680 10.730 10.760 64.550 57.990 3.670 2.811 15.830 14.110 12.220 10.920 0.202 0.228 0.269 0.533 0.00 0.00 0.00 0.5100 7.58 3.65 1 1 1 10.090 10.370 10.740 10.780 10.820 4.350 2.899 10.000 10.220 10.600 10.690 10.660 3.311 2.782 0.6140 12.312 7.945 4.364 12.892 7.476 5.416
VANMET_231 2015-09-30 20:50:00 231 5603.0 10.100 10.450 10.880 10.990 10.890 63.330 56.400 3.457 2.657 15.840 14.100 12.220 10.920 0.202 0.228 0.269 0.533 0.00 0.00 0.00 0.5670 6.65 6.03 1 1 1 10.130 10.550 11.040 10.970 11.160 3.702 2.802 10.070 10.370 10.750 10.770 10.840 3.267 2.546 0.7510 12.361 7.827 4.533 13.117 7.395 5.719
VANMET_231 2015-09-30 20:45:00 231 5603.0 10.050 10.620 11.210 11.270 11.440 61.290 54.260 2.949 2.376 15.850 14.090 12.220 10.920 0.202 0.228 0.269 0.533 0.00 0.00 0.00 0.3880 1.07 4.47 1 1 1 10.110 10.630 11.280 11.990 11.340 3.365 2.546 10.010 10.570 11.060 11.000 11.160 2.649 2.238 0.6470 12.320 7.550 4.769 13.364 7.248 6.112
VANMET_231 2015-09-30 20:40:00 231 5603.0 9.930 10.460 11.000 10.970 11.680 60.730 54.590 2.701 2.182 15.860 14.080 12.220 10.920 0.202 0.228 0.269 0.533 0.00 0.00 0.00 0.2130 242.20 20.07 1 1 1 10.010 10.590 11.200 11.960 11.170 3.270 2.335 9.860 10.280 10.800 10.920 10.780 2.358 2.034 0.6660 12.221 7.418 4.799 13.100 7.149 5.949
VANMET_231 2015-09-30 20:35:00 231 5603.0 9.830 10.270 10.800 10.760 11.070 60.200 53.550 2.487 1.717 15.870 14.070 12.220 10.920 0.202 0.228 0.269 0.533 0.00 0.00 0.00 0.5000 309.90 39.37 1 1 1 9.860 10.320 10.820 11.240 10.790 2.861 2.135 9.790 10.220 10.760 10.790 10.720 2.284 1.522 0.6990 12.140 7.306 4.832 12.918 6.914 6.001
VANMET_231 2015-09-30 20:30:00 231 5603.0 9.850 10.180 10.670 10.670 11.010 59.270 52.240 2.286 1.291 15.880 14.070 12.220 10.920 0.202 0.228 0.269 0.533 0.00 0.00 0.00 0.6130 329.60 10.59 1 1 1 9.870 10.210 10.750 11.160 10.720 2.631 1.602 9.820 10.140 10.620 10.840 10.640 1.959 1.025 0.7580 12.156 7.202 4.951 12.841 6.706 6.133
VANMET_231 2015-09-30 20:25:00 231 5603.0 9.830 10.150 10.620 10.630 10.840 58.780 51.000 2.156 0.918 15.890 14.060 12.220 10.920 0.202 0.228 0.269 0.533 0.00 0.00 0.00 0.6660 346.20 9.16 1 1 1 9.870 10.190 10.640 10.930 10.640 2.606 1.076 9.820 10.130 10.610 10.730 10.610 1.784 0.795 0.7910 12.140 7.135 5.004 12.807 6.528 6.275
VANMET_231 2015-09-30 20:20:00 231 5603.0 9.800 10.090 10.630 10.640 10.850 60.920 51.990 2.621 1.197 15.900 14.050 12.220 10.920 0.202 0.228 0.269 0.533 0.00 0.00 0.00 0.7710 356.90 9.58 1 1 1 9.830 10.160 10.640 11.000 10.670 3.077 1.432 9.770 10.040 10.620 10.730 10.630 2.075 0.846 1.0190 12.115 7.376 4.735 12.815 6.661 6.153
VANMET_231 2015-09-30 20:15:00 231 5603.0 9.880 10.080 10.530 10.590 10.840 64.230 52.690 3.441 1.334 15.910 14.040 12.220 10.920 0.202 0.228 0.269 0.533 0.00 0.00 0.00 0.7290 1.03 8.28 1 1 1 9.920 10.110 10.620 11.000 10.630 4.504 2.163 9.840 10.050 10.460 10.590 10.570 2.837 1.157 0.8890 12.180 7.818 4.357 12.773 6.727 6.043
VANMET_231 2015-09-30 20:10:00 231 5603.0 9.960 10.090 10.510 10.640 10.660 64.960 54.010 3.679 1.724 15.920 14.030 12.220 10.920 0.202 0.228 0.269 0.533 0.00 0.00 0.00 0.7830 3.17 10.15 1 1 1 10.030 10.160 10.580 10.790 10.720 4.403 2.296 9.910 10.050 10.460 10.520 10.590 2.258 1.245 0.9600 12.246 7.950 4.291 12.815 6.918 5.894
VANMET_231 2015-09-30 20:05:00 231 5603.0 10.040 10.230 10.660 10.780 10.760 63.390 53.430 3.407 1.704 15.920 14.020 12.220 10.920 0.202 0.228 0.269 0.533 0.00 0.00 0.00 0.7200 7.29 10.19 1 1 1 10.070 10.260 10.690 10.820 10.850 4.419 2.282 10.000 10.180 10.600 10.660 10.710 2.783 1.417 1.0260 12.312 7.799 4.507 12.935 6.908 6.024
VANMET_231 2015-09-30 20:00:00 231 5603.0 10.130 10.340 10.790 10.960 10.920 63.890 52.770 3.600 1.693 15.930 14.010 12.220 10.920 0.202 0.228 0.269 0.533 0.00 0.00 0.00 0.7190 8.83 15.51 1 1 1 10.180 10.430 10.870 11.030 11.050 4.454 2.186 10.080 10.240 10.700 10.680 10.870 2.669 1.507 0.9730 12.386 7.906 4.473 13.091 6.903 6.183
VANMET_231 2015-09-30 19:55:00 231 5603.0 10.180 10.480 10.940 11.070 11.130 60.920 51.100 2.975 1.349 15.930 14.000 12.220 10.920 0.202 0.228 0.269 0.533 0.00 0.00 0.00 0.6840 6.50 19.09 1 1 1 10.210 10.540 11.010 11.380 11.110 3.911 1.633 10.150 10.430 10.880 10.950 11.030 2.114 1.084 0.9600 12.428 7.564 4.857 13.187 6.734 6.449
VANMET_231 2015-09-30 19:50:00 231 5603.0 10.180 10.480 10.950 11.010 11.320 57.780 50.240 2.235 1.064 15.940 13.990 12.220 10.920 0.202 0.228 0.269 0.533 0.00 0.00 0.00 0.5590 10.14 11.37 1 1 1 10.200 10.540 11.010 11.440 11.090 2.860 1.274 10.140 10.380 10.840 11.150 10.910 1.737 0.766 0.7190 12.428 7.176 5.247 13.135 6.597 6.536
VANMET_231 2015-09-30 19:45:00 231 5603.0 10.170 10.360 10.790 10.820 10.980 61.720 50.630 3.143 0.987 15.940 13.980 12.220 10.920 0.202 0.228 0.269 0.533 0.00 0.00 0.00 0.8260 9.55 17.45 1 1 1 10.210 10.420 10.860 11.250 10.900 4.397 1.882 10.120 10.340 10.730 10.880 10.760 1.718 0.650 1.1240 12.419 7.655 4.754 12.970 6.561 6.403
VANMET_231 2015-09-30 19:40:00 231 5603.0 10.290 10.420 10.760 10.790 10.870 63.080 52.810 3.578 1.554 15.940 13.970 12.210 10.920 0.202 0.228 0.269 0.533 0.00 0.00 0.00 0.8330 1.92 6.93 1 1 1 10.360 10.520 10.830 10.990 10.850 4.350 1.949 10.210 10.330 10.730 10.780 10.750 3.108 1.033 1.0450 12.519 7.894 4.622 12.944 6.834 6.108
VANMET_231 2015-09-30 19:35:00 231 5603.0 10.350 10.580 10.850 10.850 10.980 62.390 54.830 3.473 2.130 15.950 13.960 12.210 10.920 0.202 0.228 0.269 0.533 0.00 0.00 0.00 0.8660 8.18 3.11 1 1 1 10.390 10.620 10.870 11.020 10.870 4.717 2.523 10.310 10.520 10.820 10.870 10.820 2.755 1.488 1.1760 12.570 7.835 4.727 12.996 7.122 5.870
VANMET_231 2015-09-30 19:30:00 231 5603.0 10.270 10.450 10.720 10.770 10.870 60.300 55.590 2.929 2.249 15.950 13.950 12.210 10.920 0.202 0.228 0.269 0.533 0.00 0.00 0.00 0.8540 1.26 3.30 1 1 1 10.320 10.550 10.810 11.010 10.820 3.115 2.429 10.250 10.380 10.640 10.690 10.730 2.799 2.148 1.0980 12.503 7.539 4.964 12.927 7.183 5.741
VANMET_231 2015-09-30 19:25:00 231 5603.0 10.340 10.460 10.750 10.800 10.740 60.020 53.740 2.920 1.803 15.950 13.940 12.210 10.920 0.202 0.228 0.269 0.533 0.00 0.00 0.00 0.9370 359.90 5.74 1 1 1 10.390 10.590 10.850 10.940 10.840 3.268 2.179 10.280 10.380 10.650 10.660 10.740 2.050 1.143 1.1170 12.561 7.534 5.022 12.953 6.957 5.992
VANMET_231 2015-09-30 19:20:00 231 5603.0 10.370 10.560 10.820 10.800 10.980 56.530 50.330 2.103 0.889 15.950 13.930 12.210 10.920 0.202 0.228 0.269 0.533 0.00 0.00 0.00 0.9010 9.24 1.21 1 1 1 10.400 10.610 10.850 11.020 10.840 3.070 1.060 10.340 10.510 10.760 10.910 10.750 1.782 0.787 1.0650 12.586 7.108 5.471 12.953 6.514 6.434
VANMET_231 2015-09-30 19:15:00 231 5603.0 10.420 10.520 10.780 10.800 10.780 58.530 52.540 2.644 1.493 15.940 13.920 12.210 10.920 0.202 0.228 0.269 0.533 0.00 0.00 0.00 0.8160 5.76 2.43 1 1 1 10.480 10.570 10.860 10.870 10.890 2.990 1.850 10.350 10.470 10.720 10.720 10.750 2.114 0.997 1.0260 12.629 7.388 5.237 12.953 6.804 6.147
VANMET_231 2015-09-30 19:10:00 231 5603.0 10.490 10.620 10.910 10.920 11.020 56.380 50.760 2.181 1.116 15.940 13.910 12.210 10.920 0.202 0.228 0.269 0.533 0.00 0.00 0.00 0.9000 8.01 4.14 1 1 1 10.500 10.650 10.930 11.080 10.940 2.857 1.827 10.460 10.580 10.870 10.900 10.880 1.933 0.844 1.0980 12.688 7.148 5.534 13.056 6.622 6.429
VANMET_231 2015-09-30 19:05:00 231 5603.0 10.440 10.650 10.940 10.930 11.040 56.230 51.050 2.102 1.211 15.940 13.890 12.210 10.920 0.202 0.228 0.269 0.533 0.00 0.00 0.00 1.0220 9.97 3.89 1 1 1 10.480 10.660 10.950 11.080 10.960 2.543 1.498 10.390 10.640 10.920 10.990 10.910 1.652 0.837 1.2610 12.645 7.108 5.535 13.065 6.668 6.395
VANMET_231 2015-09-30 19:00:00 231 5603.0 10.380 10.660 10.980 10.990 11.010 57.210 51.670 2.283 1.433 15.930 13.880 12.210 10.920 0.202 0.228 0.269 0.533 0.00 0.00 0.00 0.8750 7.78 3.23 1 1 1 10.400 10.660 11.030 11.070 11.030 2.674 1.700 10.340 10.650 10.930 10.910 10.960 1.965 1.280 1.1500 12.595 7.200 5.389 13.117 6.775 6.340
VANMET_231 2015-09-30 18:55:00 231 5603.0 10.310 10.650 11.070 11.030 11.210 57.440 50.250 2.281 1.078 15.930 13.870 12.210 10.920 0.202 0.228 0.269 0.533 0.00 0.00 0.00 0.7260 7.62 2.81 1 1 1 10.350 10.670 11.100 11.410 11.050 2.878 1.389 10.290 10.590 11.050 11.050 10.980 1.980 0.788 0.9930 12.536 7.199 5.335 13.152 6.604 6.543
VANMET_231 2015-09-30 18:50:00 231 5603.0 10.370 10.520 10.920 10.900 11.140 59.330 49.700 2.789 0.806 15.920 13.860 12.210 10.920 0.202 0.228 0.269 0.533 0.00 0.00 0.00 0.5800 345.20 10.39 1 1 1 10.430 10.580 11.030 11.410 10.960 3.304 1.377 10.310 10.460 10.860 10.930 10.860 2.051 0.628 0.9470 12.586 7.465 5.119 13.039 6.475 6.559
VANMET_231 2015-09-30 18:45:00 231 5603.0 10.450 10.580 10.880 10.880 11.000 57.350 49.920 2.379 0.855 15.910 13.850 12.210 10.920 0.202 0.228 0.269 0.533 0.00 0.00 0.00 0.8120 14.46 9.15 1 1 1 10.470 10.610 10.890 11.080 10.910 3.445 1.276 10.420 10.550 10.870 10.950 10.860 1.803 0.529 1.0320 12.654 7.250 5.397 13.022 6.498 6.521
VANMET_231 2015-09-30 18:40:00 231 5603.0 10.480 10.590 10.870 10.880 11.010 57.290 49.470 2.388 0.723 15.900 13.840 12.210 10.920 0.202 0.228 0.269 0.533 0.00 0.00 0.00 0.9060 16.02 10.25 1 1 1 10.510 10.600 10.890 11.050 10.910 3.589 1.070 10.450 10.570 10.860 10.970 10.850 1.580 0.481 1.1890 12.679 7.254 5.415 13.022 6.437 6.580
VANMET_231 2015-09-30 18:35:00 231 5603.0 10.530 10.590 10.890 10.930 11.020 63.890 52.890 3.987 1.703 15.890 13.830 12.210 10.920 0.202 0.228 0.269 0.533 0.00 0.00 0.00 0.8590 2.29 2.31 1 1 1 10.560 10.600 10.910 11.100 10.960 4.469 2.137 10.500 10.580 10.860 10.970 10.910 3.269 1.305 0.9870 12.722 8.125 4.594 13.065 6.908 6.155
VANMET_231 2015-09-30 18:30:00 231 5603.0 10.610 10.620 10.970 11.010 10.990 62.610 53.540 3.777 1.952 15.880 13.820 12.210 10.920 0.202 0.228 0.269 0.533 0.00 0.00 0.00 0.9190 6.43 2.08 1 1 1 10.690 10.700 11.040 11.080 11.070 4.303 2.136 10.540 10.580 10.920 10.930 10.960 2.940 1.617 1.1960 12.790 8.005 4.782 13.135 7.032 6.102
VANMET_231 2015-09-30 18:25:00 231 5603.0 10.770 10.780 11.090 11.080 11.220 63.590 54.350 4.151 2.221 15.860 13.810 12.210 10.920 0.202 0.228 0.269 0.533 0.00 0.00 0.00 0.8830 11.41 2.89 1 1 1 10.830 10.860 11.110 11.380 11.110 4.665 2.933 10.680 10.700 11.040 11.070 11.060 3.284 1.463 1.0710 12.927 8.219 4.707 13.196 7.169 6.024
VANMET_231 2015-09-30 18:20:00 231 5603.0 10.870 10.910 11.180 11.180 11.280 60.020 54.930 3.422 2.465 15.850 13.800 12.210 10.920 0.202 0.228 0.269 0.533 0.00 0.00 0.00 0.8800 16.14 9.07 1 1 1 10.900 10.940 11.220 11.320 11.240 4.248 3.008 10.830 10.870 11.120 11.200 11.110 2.986 2.214 1.1240 13.013 7.807 5.203 13.284 7.294 5.987
VANMET_231 2015-09-30 18:15:00 231 5603.0 10.970 10.950 11.240 11.280 11.340 59.960 54.150 3.502 2.353 15.830 13.790 12.210 10.920 0.202 0.228 0.269 0.533 0.00 0.00 0.00 0.8420 13.78 7.21 1 1 1 11.030 10.990 11.270 11.440 11.330 4.231 2.715 10.900 10.930 11.210 11.260 11.220 2.853 1.919 1.0190 13.100 7.852 5.245 13.372 7.236 6.131
VANMET_231 2015-09-30 18:10:00 231 5603.0 11.110 11.040 11.310 11.420 11.330 62.160 55.790 4.144 2.905 15.820 13.780 12.210 10.920 0.202 0.228 0.269 0.533 0.00 0.00 0.00 0.8420 8.40 6.06 1 1 1 11.210 11.150 11.440 11.440 11.550 4.831 3.845 11.010 10.970 11.250 11.240 11.340 3.087 2.230 0.9800 13.222 8.215 5.003 13.497 7.526 5.967
VANMET_231 2015-09-30 18:05:00 231 5603.0 11.260 11.310 11.620 11.750 11.660 60.660 55.050 3.934 3.016 15.800 13.770 12.210 10.920 0.202 0.228 0.269 0.533 0.00 0.00 0.00 0.7570 15.59 17.62 1 1 1 11.300 11.420 11.770 11.850 11.880 4.745 3.639 11.190 11.170 11.460 11.410 11.580 3.423 1.889 0.9410 13.355 8.095 5.254 13.795 7.586 6.201
VANMET_231 2015-09-30 18:00:00 231 5603.0 11.380 11.470 11.900 12.040 11.920 59.280 51.800 3.724 2.439 15.780 13.760 12.210 10.920 0.202 0.228 0.269 0.533 0.00 0.00 0.00 0.6690 358.50 15.85 1 1 1 11.470 11.540 12.000 12.010 12.180 4.287 2.711 11.290 11.420 11.770 11.820 11.890 3.204 2.169 1.0780 13.461 7.976 5.481 14.062 7.281 6.778
VANMET_231 2015-09-30 17:55:00 231 5603.0 11.570 11.670 12.150 12.320 12.180 60.710 52.250 4.250 2.816 15.750 13.750 12.210 10.920 0.202 0.228 0.269 0.533 0.00 0.00 0.00 0.6160 337.40 13.33 1 1 1 11.670 11.760 12.270 12.350 12.430 4.762 3.455 11.490 11.550 12.010 11.990 12.200 3.425 2.177 0.8620 13.632 8.276 5.356 14.323 7.479 6.839
VANMET_231 2015-09-30 17:50:00 231 5603.0 11.770 11.810 12.290 12.450 12.470 60.850 51.170 4.469 2.640 15.730 13.740 12.210 10.920 0.202 0.228 0.269 0.533 0.68 0.00 0.00 0.4490 301.50 23.06 1 1 1 11.900 11.860 12.350 12.790 12.530 4.862 3.607 11.670 11.770 12.250 12.230 12.390 3.831 1.488 0.7380 13.813 8.405 5.408 14.446 7.386 7.054
VANMET_231 2015-09-30 17:45:00 231 5603.0 12.030 12.010 12.470 12.730 12.440 60.860 53.650 4.718 3.568 15.710 13.730 12.210 10.920 0.202 0.228 0.269 0.533 3.05 0.00 0.00 0.6260 353.00 11.07 1 1 1 12.140 12.100 12.630 12.600 12.930 5.044 3.918 11.920 11.880 12.300 12.250 12.530 4.200 3.112 0.8820 14.052 8.552 5.500 14.714 7.888 6.820
VANMET_231 2015-09-30 17:40:00 231 5603.0 12.300 12.270 12.790 13.120 12.760 61.990 51.820 5.237 3.443 15.680 13.720 12.210 10.920 0.202 0.228 0.269 0.533 4.86 0.00 0.00 0.5630 329.40 15.90 1 1 1 12.410 12.420 12.920 12.870 13.300 5.762 3.890 12.150 12.110 12.650 12.640 12.950 4.668 2.955 0.6860 14.304 8.868 5.437 15.094 7.819 7.272
VANMET_231 2015-09-30 17:35:00 231 5603.0 12.530 12.610 13.130 13.480 13.110 61.350 51.250 5.301 3.612 15.660 13.710 12.210 10.920 0.202 0.228 0.269 0.533 6.81 0.00 0.00 0.2740 56.23 41.36 1 1 1 12.650 12.740 13.260 13.480 13.610 5.784 4.181 12.430 12.440 12.940 12.810 13.290 4.679 2.718 0.7510 14.522 8.908 5.613 15.453 7.913 7.533
VANMET_231 2015-09-30 17:30:00 231 5603.0 12.760 12.830 13.360 13.790 13.330 58.990 48.910 4.950 3.244 15.630 13.700 12.200 10.920 0.202 0.228 0.269 0.533 9.01 0.00 0.00 0.3850 46.23 47.09 1 1 1 12.870 12.970 13.500 13.470 14.000 5.617 3.675 12.640 12.710 13.250 13.120 13.610 4.432 2.688 0.6400 14.743 8.692 6.046 15.768 7.710 8.056
VANMET_231 2015-09-30 17:25:00 231 5603.0 13.040 13.160 13.700 14.250 13.610 58.330 47.840 5.062 3.353 15.600 13.690 12.200 10.920 0.202 0.228 0.269 0.533 11.89 0.00 0.00 0.1880 354.50 62.28 1 1 1 13.180 13.340 13.920 13.780 14.470 5.477 3.751 12.900 12.980 13.510 13.440 14.020 4.574 2.666 0.4640 15.016 8.760 6.257 16.246 7.769 8.474
VANMET_231 2015-09-30 17:20:00 231 5603.0 13.320 13.520 14.070 14.610 14.050 56.910 46.180 4.965 3.187 15.570 13.680 12.200 10.920 0.202 0.228 0.269 0.533 17.92 0.00 0.00 0.3510 254.40 19.81 1 1 1 13.480 13.710 14.210 14.410 14.740 5.393 3.848 13.190 13.360 13.940 13.870 14.490 4.648 2.713 0.4900 15.293 8.701 6.590 16.628 7.678 8.949
VANMET_231 2015-09-30 17:15:00 231 5603.0 13.630 13.810 14.300 14.900 14.330 55.740 45.920 4.964 3.368 15.540 13.670 12.200 10.920 0.202 0.228 0.269 0.533 48.91 0.00 0.00 0.0560 312.60 49.23 1 1 1 13.780 13.960 14.410 14.580 15.040 5.297 3.818 13.490 13.700 14.210 14.110 14.750 4.646 2.889 0.3010 15.605 8.701 6.907 16.942 7.778 9.162
VANMET_231 2015-09-30 17:10:00 231 5603.0 13.970 14.200 14.630 15.180 14.480 53.320 46.160 4.640 3.702 15.500 13.660 12.200 10.920 0.202 0.228 0.268 0.533 68.94 0.00 0.00 0.0750 195.60 12.28 1 1 1 14.120 14.360 14.780 14.750 15.280 4.892 3.824 13.820 13.970 14.430 14.070 15.040 4.410 3.525 0.4180 15.954 8.506 7.447 17.250 7.963 9.288
VANMET_231 2015-09-30 17:05:00 231 5603.0 14.370 14.480 14.940 15.420 14.690 52.240 45.680 4.716 3.775 15.470 13.650 12.200 10.920 0.202 0.228 0.268 0.533 99.80 0.00 0.00 0.4080 262.50 24.42 1 1 1 14.590 14.760 15.220 14.950 15.600 5.440 4.324 14.140 14.340 14.780 14.540 15.270 4.183 3.220 1.1040 16.372 8.551 7.819 17.518 8.004 9.516
VANMET_231 2015-09-30 17:00:00 231 5603.0 14.760 15.060 15.400 15.790 15.120 49.660 42.490 4.347 3.070 15.440 13.640 12.200 10.920 0.202 0.228 0.268 0.533 116.20 0.00 0.00 0.5240 248.20 47.05 1 1 1 14.870 15.270 15.560 15.530 15.940 5.183 3.679 14.580 14.820 15.240 14.870 15.610 3.589 2.210 1.7380 16.790 8.333 8.452 17.939 7.615 10.317
VANMET_231 2015-09-30 16:55:00 231 5603.0 14.940 15.260 15.610 16.100 15.540 47.280 40.550 3.791 2.683 15.400 13.640 12.200 10.920 0.202 0.228 0.268 0.533 130.60 0.00 0.00 0.7190 299.80 37.24 1 1 1 15.170 15.330 15.670 15.800 16.280 5.026 3.804 14.820 15.200 15.560 15.300 15.950 2.127 1.383 1.2020 16.986 8.013 8.955 18.298 7.409 10.878
VANMET_231 2015-09-30 16:50:00 231 5603.0 15.450 15.690 15.950 16.580 15.460 47.650 38.470 4.399 2.377 15.370 13.630 12.200 10.920 0.202 0.228 0.268 0.533 145.20 0.00 0.00 0.3790 235.40 69.39 1 1 1 15.710 16.110 16.230 15.700 16.870 5.006 3.604 15.170 15.370 15.710 15.250 16.330 3.558 1.601 0.9470 17.552 8.363 9.189 18.866 7.249 11.608
VANMET_231 2015-09-30 16:45:00 231 5603.0 16.120 16.610 16.550 17.290 15.830 45.750 37.680 4.424 2.709 15.330 13.620 12.200 10.920 0.202 0.228 0.268 0.533 159.60 0.00 0.00 0.4360 280.90 55.16 1 1 1 16.520 17.230 16.990 16.040 17.690 5.277 4.934 15.760 16.140 16.240 15.610 16.890 3.270 0.910 0.7120 18.321 8.378 9.939 19.734 7.422 12.298
VANMET_231 2015-09-30 16:40:00 231 5603.0 16.690 18.010 17.300 17.730 16.370 40.040 33.430 3.013 1.442 15.290 13.610 12.200 10.920 0.202 0.228 0.268 0.533 176.60 0.00 0.00 0.6750 241.10 49.91 1 1 1 16.840 18.320 17.390 16.600 17.810 4.812 2.537 16.540 17.350 17.080 15.900 17.660 1.127 0.671 1.5880 18.998 7.584 11.391 20.290 6.779 13.507
VANMET_231 2015-09-30 16:35:00 231 5603.0 16.980 18.240 17.460 17.580 16.290 36.420 32.800 1.973 1.052 15.260 13.610 12.200 10.920 0.202 0.228 0.268 0.533 191.90 0.00 0.00 0.6400 284.80 40.85 1 1 1 17.030 18.430 17.520 16.470 17.690 2.651 1.527 16.870 17.890 17.370 16.170 17.500 1.239 0.464 0.8890 19.351 7.043 12.303 20.099 6.592 13.507
VANMET_231 2015-09-30 16:30:00 231 5603.0 17.090 17.710 17.360 17.490 16.320 36.520 33.370 2.105 1.208 15.220 13.600 12.200 10.920 0.202 0.228 0.268 0.533 208.10 0.00 0.00 0.6390 261.50 34.36 1 1 1 17.210 17.870 17.410 16.510 17.520 3.245 1.931 17.010 17.600 17.340 16.100 17.460 1.145 0.645 1.0710 19.486 7.109 12.370 19.985 6.666 13.316
VANMET_231 2015-09-30 16:25:00 231 5603.0 17.460 18.000 17.740 17.770 16.720 35.970 33.340 2.208 1.429 15.180 13.590 12.200 10.920 0.202 0.228 0.268 0.533 219.50 0.00 0.00 1.1780 280.70 34.43 1 1 1 17.730 18.180 18.030 16.840 18.060 3.688 2.972 17.220 17.700 17.450 16.580 17.540 0.631 0.293 2.5090 19.947 7.162 12.772 20.341 6.773 13.559
VANMET_231 2015-09-30 16:20:00 231 5603.0 18.070 18.540 18.220 18.170 16.850 35.090 33.470 2.404 1.841 15.140 13.580 12.200 10.920 0.202 0.228 0.268 0.533 216.20 0.00 0.00 0.7810 257.80 33.91 1 1 1 18.450 18.940 18.400 17.040 18.230 3.348 2.862 17.740 18.100 18.010 16.610 18.110 1.115 0.931 1.4630 20.729 7.263 13.455 20.859 6.976 13.878
VANMET_231 2015-09-30 16:15:00 231 5603.0 18.770 18.950 18.250 18.030 17.210 31.800 32.170 1.646 1.162 15.100 13.580 12.200 10.920 0.202 0.228 0.268 0.533 256.00 0.00 0.00 1.0330 265.20 40.40 1 1 1 19.090 19.060 18.440 17.520 18.180 2.970 1.880 18.500 18.770 18.050 16.990 17.900 0.476 -0.043 2.4300 21.658 6.879 14.771 20.677 6.644 14.025
VANMET_231 2015-09-30 16:10:00 231 5603.0 19.440 19.460 18.620 18.340 17.540 32.920 32.510 2.689 1.556 15.060 13.570 12.200 10.920 0.202 0.228 0.268 0.533 272.60 0.00 0.00 1.7730 241.10 24.25 1 1 1 19.620 19.730 18.790 17.790 18.440 4.985 3.642 19.170 19.100 18.370 17.350 18.180 1.202 0.241 3.1950 22.582 7.412 15.148 21.083 6.835 14.229
VANMET_231 2015-09-30 16:05:00 231 5603.0 19.530 19.720 18.850 18.490 17.790 33.840 33.260 3.173 2.015 15.030 13.570 12.200 10.920 0.202 0.228 0.268 0.533 287.80 0.00 0.00 1.4110 224.60 26.58 1 1 1 19.580 19.830 18.930 17.970 18.550 6.253 3.617 19.500 19.590 18.800 17.550 18.430 1.691 0.759 3.2800 22.709 7.671 15.024 21.282 7.064 14.204
VANMET_231 2015-09-30 16:00:00 231 5603.0 19.510 19.580 18.810 18.500 17.860 32.730 33.210 2.681 2.015 14.990 13.560 12.200 10.920 0.202 0.228 0.268 0.533 304.20 0.00 0.00 1.2810 242.30 30.02 1 1 1 19.610 19.730 18.900 18.010 18.570 5.487 3.388 19.440 19.450 18.720 17.680 18.470 1.241 0.766 2.2800 22.680 7.407 15.257 21.296 7.064 14.223
VANMET_231 2015-09-30 15:55:00 231 5603.0 19.750 19.650 18.820 18.570 18.040 31.040 31.430 2.148 1.305 14.940 13.550 12.200 10.920 0.202 0.228 0.268 0.533 320.70 0.00 0.00 1.7890 240.70 21.10 1 1 1 19.960 20.050 19.210 18.360 18.890 3.580 2.285 19.560 19.330 18.510 17.790 18.370 0.484 0.118 4.4170 23.021 7.131 15.875 21.389 6.713 14.666
VANMET_231 2015-09-30 15:50:00 231 5603.0 20.170 20.290 19.470 19.190 18.210 32.310 32.740 3.085 2.417 14.900 13.550 12.200 10.920 0.202 0.228 0.268 0.533 334.20 0.00 0.00 1.5620 241.80 25.52 1 1 1 20.450 20.840 19.940 18.360 19.520 4.858 3.899 19.910 19.930 19.170 18.070 18.910 1.811 1.280 3.1160 23.627 7.623 15.993 22.233 7.269 14.954
VANMET_231 2015-09-30 15:45:00 231 5603.0 20.450 20.560 19.680 19.360 18.230 33.770 34.790 3.932 3.419 14.860 13.540 12.200 10.920 0.202 0.228 0.268 0.533 348.90 0.00 0.00 0.8380 228.60 31.50 1 1 1 20.640 20.780 19.890 18.550 19.460 6.634 5.291 20.390 20.370 19.550 18.060 19.270 2.350 2.336 1.4110 24.039 8.093 15.921 22.470 7.806 14.653
VANMET_231 2015-09-30 15:40:00 231 5603.0 20.680 20.740 19.850 19.310 18.580 34.460 35.780 4.442 3.772 14.820 13.540 12.200 10.920 0.202 0.228 0.268 0.533 364.10 0.00 0.00 1.0100 218.80 39.17 1 1 1 20.740 20.970 19.990 18.840 19.390 5.730 5.203 20.610 20.500 19.710 18.420 19.230 2.815 1.825 2.4500 24.383 8.389 15.980 22.400 8.003 14.385
VANMET_231 2015-09-30 15:35:00 231 5603.0 20.880 20.780 19.940 19.480 18.760 31.750 32.190 3.456 2.436 14.780 13.540 12.200 10.920 0.203 0.228 0.268 0.533 380.90 0.00 0.00 1.7040 216.80 33.19 1 1 1 21.050 21.190 20.270 19.340 19.760 5.859 3.938 20.640 20.540 19.790 18.430 19.360 2.267 1.349 2.5740 24.685 7.826 16.847 22.638 7.279 15.351
VANMET_231 2015-09-30 15:30:00 231 5603.0 20.900 20.880 20.110 19.660 19.190 35.390 35.650 5.004 4.018 14.740 13.530 12.200 10.920 0.203 0.228 0.268 0.533 394.70 0.00 0.00 1.2190 232.70 29.24 1 1 1 21.070 21.190 20.360 19.490 19.790 7.158 6.038 20.760 20.560 19.860 18.910 19.550 2.694 2.066 2.5020 24.715 8.725 15.968 22.893 8.143 14.731
VANMET_231 2015-09-30 15:25:00 231 5603.0 21.090 21.020 20.190 19.830 19.020 33.330 33.450 4.322 3.281 14.700 13.530 12.200 10.920 0.203 0.228 0.268 0.533 409.10 0.00 0.00 1.2140 236.40 33.56 1 1 1 21.170 21.180 20.370 19.280 19.970 6.509 5.388 20.980 20.870 20.000 18.760 19.650 2.714 1.972 2.4570 25.005 8.318 16.671 23.135 7.730 15.397
VANMET_231 2015-09-30 15:20:00 231 5603.0 21.110 21.180 20.260 19.790 19.090 29.990 31.240 2.868 2.294 14.650 13.520 12.200 10.920 0.203 0.228 0.269 0.533 423.90 0.00 0.00 0.9950 239.90 49.09 1 1 1 21.250 21.410 20.390 19.270 19.860 4.333 3.478 21.000 20.950 20.110 18.920 19.740 1.880 0.904 2.6660 25.036 7.507 17.528 23.078 7.206 15.868
VANMET_231 2015-09-30 15:15:00 231 5603.0 21.290 21.130 20.330 20.040 19.200 30.820 30.880 3.360 2.332 14.610 13.520 12.200 10.920 0.203 0.228 0.269 0.533 437.20 0.00 0.00 1.2820 213.90 45.28 1 1 1 21.580 21.600 20.820 19.820 20.320 5.670 4.842 21.050 20.870 20.020 18.900 19.750 1.401 1.045 2.5280 25.314 7.773 17.512 23.438 7.226 16.200
VANMET_231 2015-09-30 15:10:00 231 5603.0 21.310 21.380 20.710 20.160 19.590 32.880 33.160 4.314 3.445 14.570 13.520 12.200 10.920 0.203 0.229 0.269 0.533 450.20 0.00 0.00 1.0610 219.70 34.81 1 1 1 21.460 21.520 20.870 19.830 20.290 7.021 5.112 21.200 21.250 20.560 19.360 19.990 2.586 2.122 1.6010 25.345 8.314 17.011 23.613 7.820 15.783
VANMET_231 2015-09-30 15:05:00 231 5603.0 21.400 21.190 20.430 19.890 19.330 29.800 31.150 3.016 2.339 14.520 13.520 12.200 10.920 0.203 0.229 0.269 0.533 463.10 0.00 0.00 0.9450 251.90 26.73 1 1 1 21.460 21.380 20.590 19.530 20.010 4.752 3.510 21.310 20.890 20.150 18.960 19.700 1.772 1.622 1.4900 25.485 7.586 17.890 23.222 7.229 15.988
VANMET_231 2015-09-30 15:00:00 231 5603.0 21.490 20.940 20.230 19.840 19.380 28.950 30.420 2.655 1.919 14.480 13.510 12.190 10.920 0.203 0.229 0.269 0.533 477.60 0.00 0.00 1.3240 207.80 35.28 1 1 1 21.610 21.120 20.370 19.820 20.040 5.191 4.413 21.380 20.770 20.070 18.960 19.720 1.042 0.522 2.7570 25.626 7.394 18.207 23.150 7.015 16.108
VANMET_231 2015-09-30 14:55:00 231 5603.0 22.030 21.400 20.780 20.430 19.760 29.460 30.440 3.362 2.463 14.440 13.510 12.190 10.920 0.203 0.229 0.269 0.533 489.90 0.00 0.00 1.5800 236.90 39.00 1 1 1 22.290 21.770 21.250 20.110 20.720 6.644 4.038 21.650 20.930 20.340 19.370 20.100 0.955 0.981 2.4110 26.485 7.774 18.682 24.010 7.293 16.701
VANMET_231 2015-09-30 14:50:00 231 5603.0 22.120 21.880 21.290 20.630 20.130 33.140 33.390 5.140 3.954 14.390 13.510 12.190 10.920 0.203 0.229 0.269 0.533 500.70 0.00 0.00 1.1500 233.50 42.83 1 1 1 22.300 22.050 21.490 20.360 20.780 8.300 5.239 21.990 21.790 21.150 19.910 20.360 3.449 2.381 2.1360 26.630 8.808 17.805 24.308 8.106 16.191
VANMET_231 2015-09-30 14:45:00 231 5603.0 21.690 21.340 20.720 20.050 19.970 34.110 35.690 5.193 4.392 14.350 13.510 12.190 10.920 0.203 0.229 0.269 0.533 513.20 0.00 0.00 1.1210 206.70 34.34 1 1 1 21.950 21.760 21.080 20.190 20.320 7.456 6.155 21.360 21.030 20.460 19.700 19.850 4.095 2.960 2.3650 25.941 8.841 17.092 23.453 8.359 15.082
VANMET_231 2015-09-30 14:40:00 231 5603.0 21.240 20.750 20.290 19.830 19.290 31.140 32.450 3.494 2.860 14.310 13.510 12.190 10.920 0.203 0.229 0.269 0.533 526.70 0.00 0.00 1.2300 242.30 25.73 1 1 1 21.400 20.960 20.400 19.720 19.940 5.055 4.151 21.170 20.590 20.180 19.050 19.740 1.685 1.808 2.3390 25.236 7.847 17.378 23.135 7.502 15.628
VANMET_231 2015-09-30 14:35:00 231 5603.0 21.620 21.080 20.600 20.150 19.700 33.150 34.950 4.720 4.181 14.270 13.510 12.190 10.920 0.203 0.229 0.269 0.533 536.30 0.00 0.00 1.5020 242.20 26.48 1 1 1 21.750 21.290 20.780 19.990 20.280 6.214 5.856 21.420 20.810 20.370 19.420 19.940 2.717 2.756 3.2800 25.830 8.554 17.267 23.598 8.236 15.351
VANMET_231 2015-09-30 14:30:00 231 5603.0 21.900 21.170 20.640 20.360 19.610 34.680 37.800 5.604 5.491 14.220 13.510 12.190 10.920 0.203 0.229 0.269 0.533 546.90 0.00 0.00 1.7300 234.80 39.95 1 1 1 22.350 21.970 21.350 20.230 20.880 7.690 6.611 21.660 20.870 20.270 19.220 20.040 4.529 4.358 2.6850 26.276 9.097 17.163 23.906 9.026 14.870
VANMET_231 2015-09-30 14:25:00 231 5603.0 22.160 21.880 21.270 20.690 20.460 36.530 37.940 6.518 5.777 14.180 13.510 12.190 10.920 0.203 0.229 0.269 0.533 554.70 0.00 0.00 1.1450 230.30 24.27 1 1 1 22.360 22.100 21.490 20.880 20.890 8.650 8.400 21.840 21.490 20.890 19.980 20.310 3.107 2.592 1.7770 26.695 9.691 16.943 24.398 9.207 15.141
VANMET_231 2015-09-30 14:20:00 231 5603.0 21.920 21.320 20.750 20.330 19.870 36.290 38.150 6.291 5.605 14.140 13.510 12.190 10.920 0.203 0.229 0.269 0.533 565.40 0.00 0.00 1.3150 222.90 43.55 1 1 1 22.200 21.680 21.020 20.130 20.510 7.909 6.565 21.670 21.030 20.460 19.570 20.140 4.643 4.640 3.0250 26.308 9.541 16.761 23.862 9.098 14.759
VANMET_231 2015-09-30 14:15:00 231 5603.0 21.970 21.520 21.030 20.510 20.140 35.900 37.190 6.157 5.398 14.100 13.510 12.190 10.920 0.203 0.229 0.269 0.533 575.30 0.00 0.00 1.3710 215.90 38.37 1 1 1 22.130 21.690 21.240 20.560 20.620 7.956 6.537 21.780 21.400 20.910 19.450 20.410 4.427 3.934 2.1690 26.388 9.453 16.915 24.129 8.968 15.155
VANMET_231 2015-09-30 14:10:00 231 5603.0 21.600 21.130 20.670 20.200 20.040 36.440 37.810 6.049 5.359 14.060 13.510 12.190 10.920 0.203 0.229 0.269 0.533 585.20 0.00 0.00 1.1850 193.80 47.64 1 1 1 21.770 21.410 20.950 20.390 20.470 7.521 6.585 21.420 20.800 20.310 19.480 19.960 4.180 3.652 2.2470 25.799 9.382 16.398 23.671 8.944 14.721
VANMET_231 2015-09-30 14:05:00 231 5603.0 21.630 21.170 20.700 20.290 20.170 32.630 34.250 4.492 4.028 14.020 13.510 12.190 10.920 0.203 0.229 0.269 0.533 596.40 0.00 0.00 1.4980 229.60 32.17 1 1 1 21.820 21.480 20.980 20.790 20.400 6.351 5.221 21.400 20.790 20.390 19.510 20.150 2.564 2.832 2.6850 25.846 8.418 17.412 23.803 8.148 15.651
VANMET_231 2015-09-30 14:00:00 231 5603.0 21.690 21.070 20.610 20.340 19.940 32.850 33.980 4.647 3.958 13.980 13.510 12.190 10.920 0.203 0.229 0.269 0.533 606.50 0.00 0.00 1.5750 221.50 20.49 1 1 1 22.040 21.310 20.870 20.410 20.690 6.325 5.084 21.470 20.820 20.390 19.610 20.150 3.437 3.125 2.4570 25.941 8.510 17.419 23.877 8.108 15.763
VANMET_231 2015-09-30 13:55:00 231 5603.0 22.220 21.800 21.350 20.910 20.060 31.600 33.460 4.553 4.230 13.940 13.510 12.190 10.920 0.203 0.229 0.269 0.533 614.80 0.00 0.00 1.0250 231.60 53.61 1 1 1 22.290 22.010 21.530 20.750 21.000 6.745 5.912 22.070 21.390 20.910 19.430 20.730 3.177 3.105 2.2020 26.793 8.454 18.326 24.730 8.265 16.455
VANMET_231 2015-09-30 13:50:00 231 5603.0 22.200 21.720 21.340 20.790 20.730 33.260 35.590 5.282 5.004 13.910 13.510 12.190 10.920 0.203 0.229 0.269 0.533 624.70 0.00 0.00 1.0960 244.00 40.26 1 1 1 22.280 22.010 21.560 21.220 20.960 6.958 6.331 22.140 21.420 21.030 20.200 20.640 3.911 3.587 2.3000 26.760 8.896 17.860 24.548 8.725 15.812
VANMET_231 2015-09-30 13:45:00 231 5603.0 22.390 21.760 21.400 20.890 20.350 32.750 34.300 5.206 4.556 13.870 13.520 12.190 10.920 0.203 0.229 0.269 0.533 631.50 0.00 0.00 1.2870 222.80 35.61 1 1 1 22.530 22.010 21.600 20.860 20.970 7.155 6.335 22.280 21.330 20.980 19.690 20.760 3.305 3.030 2.5480 27.071 8.849 18.205 24.700 8.456 16.228
VANMET_231 2015-09-30 13:40:00 231 5603.0 22.320 21.830 21.420 21.030 20.440 32.360 32.760 4.982 4.039 13.830 13.520 12.190 10.920 0.203 0.229 0.269 0.533 640.10 0.00 0.00 1.1020 238.30 33.40 1 1 1 22.380 22.040 21.600 20.880 21.130 6.949 5.812 22.250 21.640 21.210 19.990 20.870 3.177 2.702 1.7310 26.956 8.712 18.233 24.913 8.155 16.752
VANMET_231 2015-09-30 13:35:00 231 5603.0 22.100 21.770 21.400 20.870 20.590 35.020 35.810 5.924 5.166 13.800 13.520 12.190 10.920 0.203 0.229 0.269 0.533 641.60 0.00 0.00 1.0440 213.00 22.63 1 1 1 22.280 21.990 21.670 21.160 21.130 7.384 6.909 21.940 21.580 21.180 19.720 20.680 4.216 3.883 2.0710 26.598 9.301 17.283 24.669 8.824 15.835
VANMET_231 2015-09-30 13:30:00 231 5603.0 21.770 21.360 20.960 20.520 19.910 33.140 34.770 4.829 4.434 13.760 13.520 12.190 10.920 0.203 0.229 0.269 0.533 655.80 0.00 0.00 1.1050 201.20 44.23 1 1 1 21.910 21.690 21.250 20.670 20.710 7.737 6.414 21.710 21.110 20.760 19.260 20.390 3.325 3.169 1.9930 26.068 8.619 17.429 24.143 8.384 15.749
VANMET_231 2015-09-30 13:25:00 231 5603.0 21.730 21.440 21.100 20.680 20.090 31.900 32.610 4.256 3.661 13.730 13.530 12.190 10.920 0.203 0.229 0.269 0.533 669.90 0.00 0.00 1.1240 206.30 39.20 1 1 1 21.850 21.610 21.250 20.660 20.730 6.624 5.863 21.620 21.240 20.900 19.610 20.530 2.750 2.869 2.1890 26.004 8.280 17.709 24.383 7.940 16.431
VANMET_231 2015-09-30 13:20:00 231 5603.0 21.280 21.180 20.840 20.180 20.350 34.480 36.160 4.986 4.690 13.700 13.530 12.190 10.920 0.203 0.229 0.269 0.533 685.50 0.00 0.00 1.0930 204.10 25.27 1 1 1 21.610 21.660 21.390 21.110 20.730 6.076 6.048 20.940 20.600 20.220 19.700 19.660 2.943 2.939 1.7640 25.298 8.714 16.575 23.642 8.536 15.093
VANMET_231 2015-09-30 13:15:00 231 5603.0 20.860 20.330 20.010 19.650 19.150 33.080 34.410 4.034 3.533 13.670 13.530 12.190 10.920 0.203 0.229 0.269 0.533 652.80 0.00 0.00 1.2480 199.80 49.11 1 1 1 20.920 20.550 20.140 19.480 19.790 5.193 4.459 20.840 20.230 19.860 18.870 19.560 2.922 2.842 2.1890 24.654 8.152 16.499 22.878 7.869 15.006
VANMET_231 2015-09-30 13:10:00 231 5603.0 21.120 20.490 20.230 19.930 19.240 32.250 34.160 3.900 3.676 13.640 13.540 12.190 10.920 0.203 0.229 0.269 0.533 670.50 0.00 0.00 1.1430 211.10 35.52 1 1 1 21.200 20.670 20.370 19.560 20.040 5.088 5.361 20.870 20.120 19.920 18.820 19.820 2.639 2.539 2.6530 25.051 8.075 16.972 23.279 7.949 15.327
VANMET_231 2015-09-30 13:05:00 231 5603.0 21.420 20.920 20.730 20.450 19.670 32.640 32.880 4.310 3.583 13.610 13.540 12.190 10.920 0.203 0.229 0.269 0.533 613.90 0.00 0.00 1.2640 202.70 30.79 1 1 1 21.610 21.250 21.070 20.270 20.660 7.681 4.552 21.150 20.560 20.260 19.290 20.040 2.748 2.362 2.0780 25.516 8.311 17.188 24.039 7.897 16.135
VANMET_231 2015-09-30 13:00:00 231 5603.0 21.450 21.290 21.120 20.690 20.240 33.700 35.450 4.800 4.845 13.580 13.550 12.190 10.920 0.203 0.229 0.269 0.533 693.10 0.00 0.00 1.1730 209.20 40.09 1 1 1 21.540 21.490 21.290 20.540 20.790 6.444 7.065 21.360 21.160 20.910 19.950 20.570 2.777 3.167 2.1430 25.563 8.602 16.948 24.398 8.629 15.749
VANMET_231 2015-09-30 12:55:00 231 5603.0 21.270 21.140 20.840 20.410 19.940 33.530 34.440 4.583 4.210 13.550 13.550 12.190 10.920 0.203 0.229 0.269 0.533 693.30 0.00 0.00 0.8350 240.80 44.92 1 1 1 21.410 21.360 21.100 20.400 20.620 6.186 5.587 21.040 20.820 20.470 19.040 20.090 3.376 2.937 1.3650 25.283 8.472 16.805 23.980 8.253 15.721
VANMET_231 2015-09-30 12:50:00 231 5603.0 20.810 20.560 20.330 19.950 19.430 34.790 35.430 4.680 4.196 13.520 13.560 12.190 10.920 0.203 0.229 0.269 0.533 716.40 0.00 0.00 0.9570 213.60 26.77 1 1 1 21.020 20.780 20.510 19.830 20.100 6.877 5.931 20.570 20.240 20.080 18.870 19.740 2.939 2.538 1.3260 24.578 8.530 16.028 23.308 8.245 15.050
VANMET_231 2015-09-30 12:45:00 231 5603.0 20.530 20.220 20.050 19.690 19.470 35.750 36.860 4.808 4.514 13.490 13.560 12.190 10.920 0.203 0.229 0.269 0.533 695.40 0.00 0.00 1.2380 227.20 37.40 1 1 1 20.630 20.390 20.230 19.920 19.840 6.983 6.456 20.360 19.980 19.780 18.840 19.390 2.996 2.787 2.2210 24.158 8.606 15.522 22.935 8.431 14.481
VANMET_231 2015-09-30 12:40:00 231 5603.0 20.390 19.820 19.630 19.430 18.950 36.060 37.050 4.835 4.373 13.470 13.570 12.190 10.920 0.203 0.229 0.269 0.533 645.70 0.00 0.00 1.2760 210.00 30.50 1 1 1 20.540 19.950 19.750 19.310 19.500 6.307 5.571 20.200 19.550 19.370 18.590 19.310 3.389 2.888 2.3320 23.951 8.623 15.314 22.568 8.348 14.207
VANMET_231 2015-09-30 12:35:00 231 5603.0 20.750 20.150 19.930 19.690 19.060 33.150 35.240 3.964 3.908 13.440 13.570 12.190 10.920 0.203 0.229 0.269 0.533 609.00 0.00 0.00 1.0800 245.90 46.74 1 1 1 21.050 20.750 20.490 19.910 19.910 6.121 5.653 20.500 19.890 19.650 18.430 19.470 2.996 3.133 1.7050 24.488 8.112 16.370 22.935 8.080 14.853
VANMET_231 2015-09-30 12:30:00 231 5603.0 20.810 20.460 20.290 19.820 18.910 34.550 35.840 4.598 4.239 13.420 13.580 12.190 10.920 0.203 0.229 0.269 0.533 705.70 0.00 0.00 0.9310 212.20 26.72 1 1 1 21.020 20.700 20.480 19.940 19.950 6.742 6.327 20.600 20.180 20.080 18.140 19.710 3.241 2.812 2.1630 24.578 8.481 16.087 23.121 8.270 14.834
VANMET_231 2015-09-30 12:25:00 231 5603.0 20.580 20.210 19.920 19.550 18.960 34.940 35.790 4.537 3.972 13.400 13.580 12.190 10.920 0.203 0.229 0.269 0.533 732.30 0.00 0.00 1.0460 195.30 48.45 1 1 1 20.740 20.470 20.130 19.630 19.730 6.674 6.422 20.390 19.990 19.740 18.610 19.330 2.816 2.399 2.4630 24.233 8.445 15.766 22.737 8.116 14.599
VANMET_231 2015-09-30 12:20:00 231 5603.0 20.030 19.650 19.340 18.960 18.530 35.510 36.790 4.296 3.852 13.380 13.590 12.190 10.920 0.203 0.229 0.269 0.533 697.10 0.00 0.00 0.6540 176.80 36.45 1 1 1 20.360 20.060 19.770 18.960 19.340 6.090 5.793 19.770 19.270 18.980 17.980 18.700 1.971 1.960 1.1830 23.424 8.303 15.106 21.917 8.048 13.854
VANMET_231 2015-09-30 12:15:00 231 5603.0 19.650 19.270 19.020 18.700 18.180 36.450 37.540 4.326 3.906 13.360 13.590 12.190 10.920 0.203 0.229 0.269 0.533 601.30 0.00 0.00 0.8950 179.00 25.78 1 1 1 19.780 19.360 19.130 18.450 18.760 5.869 5.535 19.540 19.170 18.890 17.780 18.580 2.450 2.554 2.0120 22.878 8.321 14.539 21.564 8.079 13.469
VANMET_231 2015-09-30 12:10:00 231 5603.0 19.520 19.120 18.990 18.680 17.920 34.700 35.720 3.513 3.195 13.340 13.600 12.190 10.920 0.203 0.229 0.269 0.533 564.00 0.00 0.00 0.7500 177.70 25.61 1 1 1 19.670 19.420 19.290 18.730 18.880 6.727 5.092 19.430 18.970 18.810 17.460 18.500 2.583 1.973 1.3200 22.695 7.858 14.820 21.537 7.683 13.844
VANMET_231 2015-09-30 12:05:00 231 5603.0 19.250 18.910 18.670 18.260 17.850 37.780 38.740 4.499 3.970 13.320 13.610 12.190 10.920 0.204 0.229 0.269 0.533 737.20 0.00 0.00 0.7380 183.30 31.89 1 1 1 19.610 19.410 19.200 18.700 18.730 6.273 5.851 19.000 18.450 18.270 17.110 17.980 3.007 2.777 1.5220 22.317 8.422 13.885 20.978 8.115 12.851
VANMET_231 2015-09-30 12:00:00 231 5603.0 18.550 18.290 18.160 17.820 17.350 37.740 38.980 3.850 3.663 13.300 13.610 12.190 10.920 0.203 0.229 0.269 0.533 682.90 0.00 0.00 0.7620 156.30 34.96 1 1 1 18.950 18.620 18.440 17.590 18.050 6.432 5.484 18.220 17.830 17.760 17.030 17.620 2.291 2.436 1.6990 21.362 8.047 13.300 20.405 7.941 12.451
VANMET_231 2015-09-30 11:55:00 231 5603.0 18.470 18.090 18.040 17.840 17.530 37.570 38.440 3.730 3.482 13.290 13.620 12.190 10.920 0.203 0.229 0.269 0.533 562.00 0.00 0.00 1.3500 227.60 23.15 1 1 1 18.640 18.440 18.350 17.950 18.030 5.287 4.974 18.260 17.820 17.740 17.160 17.670 2.388 2.066 2.0450 21.256 7.979 13.270 20.431 7.840 12.577
VANMET_231 2015-09-30 11:50:00 231 5603.0 18.470 18.310 18.180 17.870 17.860 41.130 41.440 5.025 4.589 13.270 13.630 12.190 10.920 0.203 0.229 0.269 0.533 597.00 0.00 0.00 1.0800 236.10 34.63 1 1 1 18.650 18.580 18.450 18.160 18.070 6.003 5.711 18.350 18.010 17.950 17.530 17.730 3.791 3.370 2.0650 21.256 8.738 12.513 20.470 8.476 11.987
VANMET_231 2015-09-30 11:45:00 231 5603.0 18.400 18.140 17.980 17.760 17.490 40.660 40.870 4.799 4.297 13.260 13.630 12.190 10.920 0.203 0.229 0.269 0.533 470.00 0.00 0.00 1.1170 240.00 23.13 1 1 1 18.450 18.220 18.090 17.680 17.830 6.013 5.418 18.370 18.090 17.890 17.320 17.700 3.531 2.957 1.6990 21.163 8.601 12.558 20.328 8.304 12.020
VANMET_231 2015-09-30 11:40:00 231 5603.0 18.370 18.140 18.050 17.770 17.610 41.180 41.500 4.940 4.523 13.250 13.640 12.190 10.920 0.203 0.229 0.269 0.533 576.30 0.00 0.00 1.3290 222.00 20.50 1 1 1 18.440 18.220 18.110 17.740 17.860 6.354 6.068 18.280 18.090 17.960 17.450 17.720 3.809 3.317 2.0320 21.123 8.686 12.424 20.341 8.436 11.900
VANMET_231 2015-09-30 11:35:00 231 5603.0 18.280 18.090 18.020 17.690 17.570 43.090 43.140 5.510 4.997 13.240 13.650 12.190 10.920 0.203 0.229 0.269 0.533 561.10 0.00 0.00 1.0910 221.90 31.39 1 1 1 18.430 18.270 18.190 17.710 17.860 7.029 6.574 18.140 17.800 17.720 17.360 17.420 3.942 2.937 1.8230 21.004 9.038 11.953 20.239 8.721 11.508
VANMET_231 2015-09-30 11:30:00 231 5603.0 18.410 17.960 17.890 17.610 17.270 37.620 38.550 3.673 3.308 13.230 13.650 12.190 10.920 0.204 0.229 0.269 0.533 533.60 0.00 0.00 1.4770 217.30 26.73 1 1 1 18.610 18.290 18.210 17.800 17.810 5.900 5.299 18.110 17.660 17.590 16.980 17.370 2.443 2.036 2.0910 21.176 7.947 13.209 20.137 7.745 12.374
VANMET_231 2015-09-30 11:25:00 231 5603.0 18.200 17.910 17.850 17.580 17.320 38.730 39.150 3.926 3.527 13.220 13.660 12.190 10.920 0.204 0.229 0.269 0.533 708.80 0.00 0.00 1.2580 222.00 34.63 1 1 1 18.420 18.200 18.140 17.630 17.810 5.132 4.340 18.010 17.580 17.490 16.990 17.370 2.938 2.751 2.2670 20.899 8.090 12.805 20.099 7.865 12.230
VANMET_231 2015-09-30 11:20:00 231 5603.0 18.100 17.630 17.620 17.480 16.980 40.010 40.740 4.290 3.991 13.210 13.670 12.190 10.920 0.204 0.229 0.269 0.533 531.90 0.00 0.00 1.2590 213.70 38.18 1 1 1 18.440 18.040 17.910 17.200 17.730 5.514 5.218 17.980 17.460 17.510 16.710 17.380 3.358 2.552 1.7770 20.768 8.300 12.459 19.973 8.127 11.836
VANMET_231 2015-09-30 11:15:00 231 5603.0 18.250 18.110 17.990 17.580 17.350 41.420 42.050 4.927 4.545 13.210 13.670 12.190 10.920 0.204 0.229 0.269 0.533 641.90 0.00 0.00 0.9240 208.80 27.72 1 1 1 18.500 18.380 18.270 17.820 17.820 6.141 5.686 17.850 17.640 17.530 16.630 17.190 3.647 3.205 2.2800 20.964 8.678 12.281 20.099 8.449 11.647
VANMET_231 2015-09-30 11:10:00 231 5603.0 17.890 17.530 17.490 17.240 16.960 39.340 39.960 3.861 3.505 13.200 13.680 12.190 10.920 0.204 0.229 0.269 0.533 669.40 0.00 0.00 1.2410 218.80 30.44 1 1 1 17.950 17.700 17.690 17.340 17.330 5.217 5.100 17.810 17.390 17.330 16.610 17.150 2.459 2.438 2.3780 20.495 8.053 12.433 19.672 7.853 11.811
VANMET_231 2015-09-30 11:05:00 231 5603.0 17.950 17.480 17.400 17.220 16.970 39.390 40.410 3.936 3.643 13.200 13.690 12.190 10.920 0.204 0.229 0.269 0.533 637.40 0.00 0.00 1.3850 224.50 20.17 1 1 1 18.160 17.760 17.640 17.320 17.410 5.309 5.160 17.870 17.320 17.280 16.760 17.150 2.760 2.360 1.9010 20.573 8.096 12.469 19.647 7.930 11.708
VANMET_231 2015-09-30 11:00:00 231 5603.0 18.260 17.910 17.840 17.480 17.070 42.040 43.220 5.149 4.835 13.200 13.700 12.190 10.920 0.204 0.229 0.269 0.533 615.70 0.00 0.00 1.2030 212.00 26.92 1 1 1 18.380 18.060 18.040 17.300 17.620 6.071 5.659 18.050 17.740 17.650 16.610 17.220 3.669 2.937 1.9140 20.978 8.814 12.159 19.973 8.623 11.340
VANMET_231 2015-09-30 10:55:00 231 5603.0 17.780 17.400 17.410 17.060 16.390 40.800 41.950 4.288 4.036 13.200 13.700 12.190 10.920 0.204 0.229 0.269 0.533 611.30 0.00 0.00 0.8010 169.90 31.74 1 1 1 18.020 17.680 17.620 16.570 17.220 5.668 5.704 17.670 17.200 17.250 16.120 16.920 3.339 3.247 1.2740 20.354 8.299 12.050 19.449 8.153 11.290
VANMET_231 2015-09-30 10:50:00 231 5603.0 17.730 17.230 17.250 16.960 16.450 41.250 42.920 4.397 4.267 13.200 13.710 12.190 10.920 0.204 0.229 0.269 0.533 623.10 0.00 0.00 1.1100 182.90 33.90 1 1 1 17.960 17.560 17.510 16.760 17.110 5.672 5.395 17.520 16.890 16.970 16.100 16.850 2.854 3.203 2.1300 20.290 8.362 11.920 19.326 8.286 11.031
VANMET_231 2015-09-30 10:45:00 231 5603.0 18.000 17.180 17.200 17.000 16.440 37.900 40.510 3.420 3.477 13.200 13.720 12.190 10.920 0.204 0.229 0.269 0.533 659.50 0.00 0.00 1.2350 214.00 30.48 1 1 1 18.390 17.520 17.400 16.820 17.140 5.024 5.025 17.580 16.840 16.960 15.950 16.870 1.585 2.067 2.1630 20.638 7.806 12.816 19.375 7.838 11.526
VANMET_231 2015-09-30 10:40:00 231 5603.0 18.420 17.730 17.480 17.050 16.510 40.880 43.950 4.890 4.689 13.200 13.730 12.190 10.920 0.204 0.229 0.269 0.533 656.20 0.00 0.00 0.9940 179.00 43.61 1 1 1 18.610 17.990 17.740 16.610 17.230 5.610 5.489 18.150 17.400 17.170 16.350 16.790 3.522 2.738 1.8360 21.189 8.656 12.527 19.437 8.535 10.894
VANMET_231 2015-09-30 10:35:00 231 5603.0 18.330 17.360 17.170 16.820 16.120 41.280 43.990 4.950 4.504 13.200 13.730 12.190 10.920 0.204 0.229 0.269 0.533 647.90 0.00 0.00 1.0740 188.20 35.82 1 1 1 18.470 17.510 17.270 16.620 16.870 6.183 5.505 18.150 17.150 16.990 15.910 16.760 3.728 3.656 1.7570 21.070 8.692 12.372 19.155 8.425 10.729
VANMET_231 2015-09-30 10:30:00 231 5603.0 18.450 17.540 17.360 16.920 16.100 42.240 45.530 5.387 5.083 13.210 13.740 12.190 10.920 0.204 0.229 0.269 0.533 614.40 0.00 0.00 0.7900 185.40 21.12 1 1 1 18.590 17.840 17.530 16.370 17.010 6.699 6.152 18.200 17.190 17.140 15.800 16.850 4.655 4.441 1.9140 21.229 8.961 12.262 19.277 8.773 10.500
VANMET_231 2015-09-30 10:25:00 231 5603.0 18.060 17.520 17.250 16.670 15.960 42.330 45.260 5.063 4.772 13.220 13.750 12.190 10.920 0.204 0.229 0.269 0.533 633.40 0.00 0.00 1.0080 184.30 17.49 1 1 1 18.420 17.860 17.500 16.180 16.850 6.394 5.746 17.680 17.230 17.090 15.740 16.600 3.996 3.914 1.4700 20.716 8.761 11.947 18.974 8.585 10.386
VANMET_231 2015-09-30 10:20:00 231 5603.0 17.660 17.280 17.090 16.650 16.060 45.910 47.330 5.860 5.385 13.220 13.760 12.190 10.920 0.204 0.229 0.269 0.533 620.50 0.00 0.00 0.7810 179.80 25.76 1 1 1 17.840 17.540 17.260 16.210 16.820 7.072 6.820 17.320 16.980 16.860 15.820 16.370 3.814 3.876 1.7640 20.201 9.260 10.927 18.950 8.960 9.981
VANMET_231 2015-09-30 10:15:00 231 5603.0 17.130 16.730 16.530 16.140 15.830 46.600 48.570 5.617 5.307 13.230 13.760 12.190 10.920 0.204 0.229 0.269 0.533 620.40 0.00 0.00 1.0990 217.00 31.62 1 1 1 17.320 16.980 16.790 16.130 16.320 6.560 5.929 16.950 16.450 16.310 15.490 16.000 4.559 4.470 1.8230 19.536 9.106 10.432 18.344 8.911 9.434
VANMET_231 2015-09-30 10:10:00 231 5603.0 16.910 16.510 16.360 16.060 15.670 47.510 48.630 5.687 5.249 13.240 13.770 12.190 10.920 0.204 0.229 0.269 0.533 610.10 0.00 0.00 1.0520 200.60 21.79 1 1 1 17.000 16.680 16.530 15.950 16.230 7.056 5.919 16.840 16.320 16.160 15.560 15.920 5.002 4.807 2.1760 19.265 9.150 10.112 18.251 8.875 9.375
VANMET_231 2015-09-30 10:05:00 231 5603.0 16.950 16.440 16.250 15.950 15.390 45.440 47.910 5.084 4.930 13.250 13.780 12.190 10.920 0.204 0.229 0.269 0.533 601.80 0.00 0.00 0.9680 216.30 14.86 1 1 1 17.000 16.700 16.480 15.590 16.060 5.680 5.611 16.910 16.310 16.130 15.240 15.860 4.468 4.376 1.5290 19.314 8.774 10.538 18.123 8.680 9.440
VANMET_231 2015-09-30 10:00:00 231 5603.0 16.640 16.440 16.240 15.810 15.340 45.660 47.150 4.874 4.572 13.260 13.790 12.190 10.920 0.204 0.229 0.269 0.533 591.00 0.00 0.00 0.7370 197.40 28.72 1 1 1 16.980 16.780 16.560 15.570 16.050 5.715 5.292 16.480 16.170 15.990 15.100 15.680 4.006 3.902 1.4310 18.938 8.646 10.291 17.962 8.465 9.493
VANMET_231 2015-09-30 09:55:00 231 5603.0 16.360 16.120 15.910 15.540 15.260 46.470 48.120 4.873 4.617 13.270 13.790 12.190 10.920 0.204 0.229 0.269 0.533 565.00 0.00 0.00 0.9010 203.50 15.10 1 1 1 16.460 16.340 16.160 15.530 15.700 6.313 5.264 16.290 15.960 15.730 15.150 15.420 4.372 4.024 1.1830 18.603 8.646 9.958 17.654 8.492 9.159
VANMET_231 2015-09-30 09:50:00 231 5603.0 16.300 15.760 15.620 15.390 15.000 46.780 48.130 4.908 4.488 13.280 13.800 12.190 10.920 0.204 0.229 0.269 0.533 571.00 0.00 0.00 0.9080 215.00 11.33 1 1 1 16.370 15.900 15.700 15.070 15.430 6.127 5.291 16.250 15.650 15.540 14.850 15.370 4.222 4.076 1.2020 18.532 8.667 9.863 17.485 8.416 9.069
VANMET_231 2015-09-30 09:45:00 231 5603.0 16.310 15.700 15.580 15.350 15.030 47.560 49.090 5.160 4.732 13.290 13.810 12.190 10.920 0.204 0.229 0.269 0.533 563.10 0.00 0.00 1.0580 209.20 19.06 1 1 1 16.370 15.750 15.610 15.100 15.380 6.146 5.036 16.220 15.640 15.540 14.940 15.260 4.703 4.288 1.5220 18.544 8.821 9.725 17.440 8.561 8.879
VANMET_231 2015-09-30 09:40:00 231 5603.0 16.050 15.600 15.510 15.300 14.820 48.410 49.500 5.177 4.802 13.310 13.820 12.190 10.930 0.204 0.229 0.269 0.533 552.20 0.00 0.00 1.0890 205.00 13.21 1 1 1 16.180 15.680 15.630 14.980 15.380 5.795 5.703 15.940 15.510 15.400 14.730 15.220 4.431 4.211 1.4700 18.239 8.831 9.410 17.384 8.603 8.779
VANMET_231 2015-09-30 09:35:00 231 5603.0 15.800 15.450 15.580 15.440 14.750 48.820 48.420 5.064 4.618 13.320 13.820 12.180 10.920 0.204 0.229 0.269 0.533 540.00 0.00 0.00 0.9130 218.60 15.79 1 1 1 15.930 15.550 15.660 14.920 15.590 5.886 4.959 15.720 15.360 15.500 14.530 15.350 4.413 4.286 1.2670 17.950 8.762 9.187 17.541 8.493 9.048
VANMET_231 2015-09-30 09:30:00 231 5603.0 15.530 15.350 15.610 15.410 14.730 51.780 50.320 5.662 5.137 13.330 13.830 12.180 10.930 0.204 0.229 0.269 0.533 527.10 0.00 0.00 0.4610 198.00 44.76 1 1 1 15.820 15.620 15.920 14.910 15.660 6.602 5.985 15.180 15.030 15.180 14.510 15.120 4.856 4.157 1.0780 17.642 9.134 8.507 17.507 8.806 8.698
VANMET_231 2015-09-30 09:25:00 231 5603.0 15.080 14.940 15.140 15.140 14.550 50.790 49.090 4.972 4.541 13.350 13.840 12.180 10.930 0.204 0.230 0.269 0.533 517.40 0.00 0.00 0.9430 222.80 17.40 1 1 1 15.150 15.030 15.220 14.690 15.190 5.580 5.330 15.040 14.820 15.090 14.380 15.090 4.661 4.114 1.2940 17.140 8.706 8.435 17.206 8.447 8.760
VANMET_231 2015-09-30 09:20:00 231 5603.0 15.200 14.890 15.210 15.190 14.370 50.660 49.300 5.045 4.642 13.360 13.850 12.190 10.920 0.204 0.230 0.269 0.533 504.30 0.00 0.00 0.6460 229.10 28.30 1 1 1 15.320 14.980 15.300 14.620 15.210 5.960 5.176 15.130 14.780 15.120 14.100 15.160 4.394 4.100 1.1690 17.273 8.750 8.522 17.262 8.507 8.752
VANMET_231 2015-09-30 09:15:00 231 5603.0 15.200 14.870 15.120 14.980 14.170 52.470 51.200 5.544 4.993 13.380 13.850 12.180 10.930 0.204 0.230 0.269 0.533 491.10 0.00 0.00 0.6530 194.50 27.16 1 1 1 15.300 14.950 15.250 14.280 15.160 6.318 5.542 15.020 14.790 14.910 13.990 14.730 4.679 4.492 1.4440 17.273 9.059 8.210 17.030 8.718 8.311
VANMET_231 2015-09-30 09:10:00 231 5603.0 14.950 14.900 15.000 14.910 14.120 51.550 50.360 5.065 4.697 13.390 13.860 12.180 10.930 0.204 0.230 0.269 0.533 479.80 0.00 0.00 0.8570 209.40 21.84 1 1 1 15.020 15.040 15.120 14.200 15.010 5.834 5.267 14.820 14.770 14.870 14.020 14.780 4.550 4.353 1.3790 16.997 8.762 8.235 16.953 8.540 8.416
VANMET_231 2015-09-30 09:05:00 231 5603.0 14.870 14.810 15.020 15.030 13.850 52.380 50.130 5.220 4.740 13.410 13.870 12.180 10.930 0.204 0.230 0.269 0.533 467.60 0.00 0.00 0.8240 196.50 21.23 1 1 1 15.010 15.240 15.440 13.970 15.210 5.952 5.166 14.780 14.640 14.850 13.760 14.890 4.648 4.330 1.4570 16.910 8.857 8.052 17.085 8.566 8.520
VANMET_231 2015-09-30 09:00:00 231 5603.0 15.010 15.180 15.420 15.250 13.760 52.900 50.030 5.491 4.909 13.430 13.880 12.180 10.930 0.204 0.230 0.269 0.533 453.50 0.00 0.00 0.5110 181.20 25.52 1 1 1 15.100 15.430 15.690 13.920 15.410 6.496 5.394 14.960 15.040 15.300 13.620 15.140 4.830 4.289 0.9080 17.063 9.026 8.037 17.328 8.667 8.659
VANMET_231 2015-09-30 08:55:00 231 5603.0 14.850 15.100 15.450 15.170 13.830 53.410 51.120 5.481 5.144 13.440 13.890 12.180 10.930 0.204 0.230 0.269 0.533 442.00 0.00 0.00 0.3790 190.70 54.78 1 1 1 15.070 15.480 15.700 13.960 15.390 6.200 6.164 14.600 14.740 15.250 13.650 14.930 4.807 4.345 0.7320 16.888 9.020 7.868 17.239 8.811 8.427
VANMET_231 2015-09-30 08:50:00 231 5603.0 14.500 14.310 14.790 14.620 13.680 54.010 52.510 5.311 5.022 13.460 13.890 12.180 10.930 0.204 0.230 0.269 0.533 429.80 0.00 0.00 0.6340 168.30 30.55 1 1 1 14.750 14.720 15.230 13.850 14.880 6.119 5.805 14.400 14.120 14.550 13.580 14.510 4.485 4.353 0.9210 16.511 8.914 7.593 16.639 8.736 7.902
VANMET_231 2015-09-30 08:45:00 231 5603.0 15.040 14.460 14.850 14.710 13.820 52.200 51.550 5.325 4.844 13.470 13.900 12.180 10.930 0.204 0.230 0.269 0.533 415.60 0.00 0.00 0.6570 220.80 25.17 1 1 1 15.160 14.540 14.940 14.060 14.770 6.333 5.706 14.780 14.260 14.650 13.530 14.610 4.902 4.313 1.2350 17.096 8.923 8.172 16.736 8.628 8.109
VANMET_231 2015-09-30 08:40:00 231 5603.0 15.630 14.640 14.820 15.010 13.550 50.070 50.070 5.267 4.694 13.490 13.910 12.180 10.930 0.204 0.230 0.269 0.533 403.60 0.00 0.00 0.8190 210.30 21.28 1 1 1 16.300 15.110 15.180 13.740 15.540 6.579 5.197 15.160 14.370 14.680 13.430 14.680 4.862 4.334 1.4440 17.756 8.887 8.866 17.063 8.538 8.519
VANMET_231 2015-09-30 08:35:00 231 5603.0 17.090 16.340 16.340 16.440 13.790 46.300 46.280 5.479 4.882 13.510 13.910 12.180 10.930 0.204 0.230 0.269 0.533 387.00 0.00 0.00 0.7520 224.50 18.14 1 1 1 17.360 17.090 17.030 13.860 16.850 6.984 6.195 16.380 15.240 15.280 13.730 15.620 4.448 4.161 1.2540 19.486 9.019 10.464 18.698 8.651 10.045
VANMET_231 2015-09-30 08:30:00 231 5603.0 17.140 17.160 17.040 16.650 13.660 47.550 46.890 5.902 5.261 13.520 13.920 12.180 10.930 0.204 0.230 0.269 0.533 372.10 0.00 0.00 0.2320 207.20 13.05 1 1 1 17.290 17.430 17.240 13.880 16.770 7.228 6.092 16.890 16.940 16.860 13.400 16.440 4.892 4.695 0.8360 19.548 9.287 10.253 18.950 8.883 10.064
VANMET_231 2015-09-30 08:25:00 231 5603.0 16.450 16.930 16.780 16.270 13.550 49.540 46.980 5.868 4.947 13.540 13.930 12.180 10.930 0.204 0.230 0.269 0.533 357.30 0.00 0.00 0.1750 195.90 38.77 1 1 1 16.840 17.180 16.980 13.890 16.430 6.496 5.391 16.030 16.540 16.430 13.330 16.010 5.494 4.308 0.4180 18.710 9.265 9.441 18.497 8.690 9.807
VANMET_231 2015-09-30 08:20:00 231 5603.0 15.720 16.090 16.100 15.750 13.390 52.790 49.260 6.114 5.152 13.560 13.940 12.180 10.930 0.204 0.230 0.269 0.533 343.40 0.00 0.00 0.1600 182.70 22.10 1 1 1 16.000 16.460 16.360 13.670 15.980 6.875 5.927 15.440 15.860 15.790 13.110 15.640 5.105 4.475 0.4640 17.859 9.425 8.431 17.893 8.816 9.079
VANMET_231 2015-09-30 08:15:00 231 5603.0 15.160 15.990 15.870 15.930 13.350 56.570 49.190 6.597 5.285 13.570 13.940 12.180 10.930 0.204 0.230 0.269 0.533 329.00 0.00 0.00 0.2730 220.60 21.29 1 1 1 15.400 16.260 16.100 13.460 16.010 7.141 6.842 14.860 15.790 15.590 13.240 15.810 5.864 4.372 0.7060 17.228 9.744 7.482 18.100 8.898 9.197
VANMET_231 2015-09-30 08:10:00 231 5603.0 14.540 15.500 15.550 15.990 13.090 58.500 49.360 6.512 5.399 13.590 13.950 12.180 10.930 0.204 0.230 0.269 0.533 313.30 0.00 0.00 0.0350 173.30 16.26 1 1 1 14.820 15.680 15.590 13.420 16.040 7.208 6.427 14.200 15.380 15.470 12.940 15.940 5.947 5.041 0.3200 16.553 9.687 6.870 18.170 8.969 9.201
VANMET_231 2015-09-30 08:05:00 231 5603.0 13.780 15.280 15.600 15.920 12.950 61.800 48.810 6.580 5.177 13.610 13.960 12.180 10.930 0.204 0.230 0.269 0.533 298.90 0.00 0.00 0.0370 143.10 4.92 1 1 1 14.150 15.360 15.620 13.100 16.000 7.198 5.398 13.460 15.120 15.550 12.790 15.890 5.853 4.979 0.3920 15.758 9.733 6.020 18.088 8.831 9.259
VANMET_231 2015-09-30 08:00:00 231 5603.0 13.060 14.900 15.480 15.740 12.990 65.210 47.990 6.683 4.770 13.630 13.960 12.180 10.930 0.204 0.230 0.269 0.533 284.50 0.00 0.00 0.0860 134.30 11.62 1 1 1 13.390 15.080 15.610 13.130 15.980 7.215 4.998 12.700 14.650 15.310 12.780 15.370 5.767 4.492 0.3920 15.035 9.802 5.231 17.881 8.584 9.300
VANMET_231 2015-09-30 07:55:00 231 5603.0 12.360 14.350 15.040 14.770 12.660 66.670 51.030 6.339 4.753 13.640 13.970 12.180 10.930 0.204 0.230 0.269 0.533 263.30 0.00 0.00 0.0000 0.00 0.00 1 1 1 12.670 14.600 15.280 12.810 15.310 6.888 5.060 12.030 14.000 14.560 12.250 14.140 5.768 4.607 0.0000 14.361 9.572 4.786 16.801 8.573 8.227
VANMET_231 2015-09-30 07:50:00 231 5603.0 11.580 13.450 14.030 13.590 12.360 68.120 55.860 5.913 4.952 13.660 13.980 12.180 10.930 0.204 0.230 0.269 0.533 255.30 0.00 0.00 0.3330 212.30 6.86 1 1 1 11.980 13.940 14.490 12.600 14.040 6.411 5.252 11.160 12.960 13.570 12.160 13.320 5.272 4.580 0.6990 13.641 9.294 4.349 15.564 8.693 6.870
VANMET_231 2015-09-30 07:45:00 231 5603.0 10.840 12.360 13.070 12.960 12.450 70.730 56.150 5.739 4.437 13.680 13.990 12.180 10.930 0.204 0.230 0.269 0.533 197.20 0.00 0.00 0.2070 213.50 4.11 1 1 1 11.130 12.890 13.520 12.580 13.280 5.866 5.206 10.610 11.860 12.710 12.330 12.620 5.550 4.097 0.7250 12.987 9.183 3.801 14.937 8.386 6.550
VANMET_231 2015-09-30 07:40:00 231 5603.0 10.440 11.710 12.390 12.550 12.090 72.470 57.770 5.709 4.458 13.700 13.990 12.180 10.930 0.204 0.230 0.269 0.533 52.34 0.00 0.00 0.0000 0.00 0.00 1 1 1 10.600 11.830 12.670 12.360 12.590 5.846 4.747 10.240 11.610 12.210 11.970 12.490 5.602 4.087 0.0000 12.645 9.164 3.481 14.541 8.398 6.141
VANMET_231 2015-09-30 07:35:00 231 5603.0 10.130 11.410 12.220 12.320 11.980 73.160 58.890 5.554 4.519 13.720 14.000 12.180 10.930 0.204 0.230 0.269 0.533 107.00 0.00 0.00 0.0000 0.00 0.00 1 1 1 10.220 11.580 12.230 12.050 12.480 5.622 4.712 10.060 11.330 12.210 11.910 12.130 5.465 4.213 0.0000 12.386 9.066 3.324 14.323 8.434 5.888
VANMET_231 2015-09-30 07:30:00 231 5603.0 10.130 11.410 12.240 12.190 11.750 70.890 59.180 5.096 4.471 13.730 14.010 12.180 10.930 0.204 0.230 0.269 0.533 169.30 0.00 0.00 0.0000 0.00 0.00 1 1 1 10.180 11.570 12.300 11.920 12.270 5.460 4.994 10.090 11.320 12.090 11.640 12.120 4.815 4.305 0.0000 12.386 8.781 3.606 14.201 8.406 5.797
VANMET_231 2015-09-30 07:25:00 231 5603.0 9.850 11.060 11.570 11.630 11.500 69.440 61.790 4.533 4.554 13.750 14.010 12.180 10.930 0.204 0.230 0.269 0.533 97.90 0.00 0.00 0.0640 222.20 6.63 1 1 1 10.100 11.520 12.040 11.830 12.050 4.806 4.919 9.640 10.680 11.270 11.060 11.340 4.190 4.033 0.4120 12.156 8.442 3.715 13.686 8.455 5.229
VANMET_231 2015-09-30 07:20:00 231 5603.0 9.510 10.490 11.010 11.030 11.040 68.890 65.600 4.091 4.843 13.770 14.020 12.180 10.930 0.204 0.230 0.269 0.533 153.40 0.00 0.00 0.1870 248.30 18.67 1 1 1 9.660 10.690 11.260 11.230 11.310 4.262 4.922 9.310 10.110 10.660 10.760 10.600 3.913 4.707 0.3140 11.881 8.184 3.696 13.152 8.628 4.524
VANMET_231 2015-09-30 07:15:00 231 5603.0 9.160 9.720 10.270 10.200 10.500 69.360 67.920 3.851 4.548 13.790 14.030 12.180 10.930 0.204 0.230 0.269 0.533 133.30 0.00 0.00 0.3700 301.70 24.21 1 1 1 9.300 10.060 10.620 10.750 10.540 3.897 4.767 9.050 9.440 9.930 10.190 9.890 3.817 4.314 0.4440 11.604 8.047 3.556 12.444 8.451 3.992
VANMET_231 2015-09-30 07:10:00 231 5603.0 8.980 9.330 9.790 9.780 9.960 69.820 67.840 3.778 4.133 13.810 14.030 12.180 10.930 0.204 0.230 0.269 0.533 70.92 0.00 0.00 0.2280 353.30 6.83 1 1 1 9.040 9.420 9.890 10.130 9.870 3.928 4.411 8.960 9.300 9.750 9.900 9.710 3.561 3.926 0.2740 11.464 8.006 3.460 12.099 8.209 3.891
VANMET_231 2015-09-30 07:05:00 231 5603.0 8.970 9.300 9.680 9.680 9.850 67.930 67.770 3.380 4.020 13.820 14.040 12.180 10.930 0.204 0.230 0.269 0.533 23.51 0.00 0.00 0.4080 9.83 3.10 1 1 1 9.000 9.320 9.740 9.970 9.720 3.553 4.270 8.950 9.290 9.650 9.750 9.630 3.240 3.621 0.5950 11.457 7.784 3.674 12.018 8.144 3.873
VANMET_231 2015-09-30 07:00:00 231 5603.0 8.900 9.310 9.680 9.660 9.780 66.380 64.900 2.982 3.389 13.840 14.050 12.180 10.930 0.204 0.230 0.269 0.533 21.33 0.00 0.00 0.0560 31.30 6.24 1 1 1 8.970 9.330 9.680 9.820 9.690 3.194 3.788 8.840 9.270 9.670 9.740 9.630 2.788 3.177 0.3010 11.402 7.568 3.834 12.002 7.789 4.213
VANMET_231 2015-09-30 06:55:00 231 5603.0 8.800 9.290 9.720 9.670 9.810 65.850 60.810 2.773 2.481 13.860 14.050 12.180 10.930 0.204 0.230 0.269 0.533 19.84 0.00 0.00 0.3870 353.10 16.07 1 1 1 8.850 9.310 9.730 9.880 9.700 3.120 3.155 8.750 9.220 9.690 9.750 9.650 2.681 2.287 0.5160 11.326 7.456 3.868 12.010 7.303 4.707
VANMET_231 2015-09-30 06:50:00 231 5603.0 8.760 9.140 9.650 9.610 9.940 66.720 61.150 2.917 2.504 13.880 14.060 12.180 10.930 0.204 0.230 0.269 0.533 18.21 0.00 0.00 0.6720 355.30 8.58 1 1 1 8.790 9.200 9.730 10.090 9.680 3.024 2.854 8.720 9.100 9.600 9.810 9.560 2.722 2.349 0.7840 11.295 7.533 3.759 11.962 7.315 4.647
VANMET_231 2015-09-30 06:45:00 231 5603.0 8.830 9.100 9.550 9.520 9.750 67.150 60.890 3.075 2.356 13.900 14.070 12.180 10.930 0.204 0.230 0.269 0.533 16.35 0.00 0.00 0.7580 0.22 4.83 1 1 1 8.870 9.110 9.600 9.820 9.580 3.163 2.409 8.780 9.090 9.520 9.630 9.490 2.970 2.314 0.7970 11.349 7.618 3.728 11.889 7.238 4.650
VANMET_231 2015-09-30 06:40:00 231 5603.0 8.860 9.120 9.530 9.520 9.600 66.600 60.450 2.989 2.257 13.910 14.070 12.180 10.930 0.204 0.230 0.269 0.533 14.58 0.00 0.00 0.7430 0.75 1.00 1 1 1 8.880 9.160 9.560 9.630 9.560 3.167 2.355 8.840 9.110 9.520 9.580 9.490 2.910 2.069 0.8360 11.372 7.571 3.798 11.889 7.187 4.702
VANMET_231 2015-09-30 06:35:00 231 5603.0 8.870 9.250 9.630 9.600 9.690 64.330 58.730 2.511 1.929 13.930 14.080 12.180 10.930 0.204 0.230 0.269 0.533 12.73 0.00 0.00 0.7840 10.64 4.44 1 1 1 8.900 9.290 9.660 9.780 9.640 2.865 2.035 8.840 9.170 9.560 9.580 9.560 2.151 1.809 0.8890 11.379 7.318 4.059 11.953 7.020 4.933
VANMET_231 2015-09-30 06:30:00 231 5603.0 8.830 9.250 9.610 9.550 9.740 64.210 57.980 2.444 1.701 13.950 14.080 12.180 10.930 0.204 0.230 0.269 0.533 10.70 0.00 0.00 0.7120 8.68 7.28 1 1 1 8.850 9.290 9.650 9.800 9.590 2.716 1.924 8.790 9.180 9.570 9.700 9.510 2.119 1.604 0.8950 11.349 7.283 4.062 11.913 6.907 5.006
VANMET_231 2015-09-30 06:25:00 231 5603.0 8.800 9.090 9.540 9.510 9.670 67.520 58.590 3.121 1.801 13.970 14.090 12.180 10.930 0.204 0.230 0.269 0.533 8.58 0.00 0.00 0.6050 359.80 5.57 1 1 1 8.820 9.160 9.560 9.710 9.540 3.412 1.962 8.760 9.060 9.520 9.640 9.480 2.612 1.638 0.6930 11.326 7.643 3.679 11.881 6.956 4.920
VANMET_231 2015-09-30 06:20:00 231 5603.0 8.860 9.030 9.490 9.470 9.620 70.130 61.610 3.725 2.465 13.990 14.100 12.180 10.930 0.204 0.230 0.269 0.533 6.33 0.00 0.00 0.6580 2.26 7.94 1 1 1 8.930 9.060 9.520 9.670 9.490 3.945 2.854 8.800 9.010 9.470 9.550 9.450 3.291 1.903 0.7190 11.372 7.976 3.397 11.849 7.294 4.549
VANMET_231 2015-09-30 06:15:00 231 5603.0 8.960 9.100 9.520 9.490 9.600 69.600 63.100 3.713 2.825 14.010 14.100 12.180 10.930 0.204 0.230 0.269 0.533 3.99 0.00 0.00 0.7080 1.88 1.43 1 1 1 8.990 9.120 9.540 9.630 9.500 3.876 2.849 8.930 9.060 9.500 9.540 9.470 3.551 2.787 0.8040 11.449 7.969 3.480 11.865 7.484 4.378
VANMET_231 2015-09-30 06:10:00 231 5603.0 9.030 9.150 9.540 9.470 9.600 69.810 63.730 3.819 2.955 14.030 14.110 12.180 10.930 0.204 0.230 0.269 0.533 2.10 0.00 0.00 0.7100 1.90 2.63 1 1 1 9.050 9.190 9.550 9.650 9.500 3.950 3.005 8.990 9.090 9.510 9.540 9.440 3.648 2.868 0.8820 11.503 8.029 3.473 11.849 7.553 4.298
VANMET_231 2015-09-30 06:05:00 231 5603.0 9.020 9.180 9.520 9.460 9.630 69.590 65.210 3.761 3.259 14.040 14.110 12.180 10.930 0.204 0.230 0.269 0.533 0.35 0.00 0.00 0.8930 8.36 1.82 1 1 1 9.050 9.190 9.550 9.680 9.480 3.867 3.416 8.970 9.160 9.480 9.610 9.430 3.664 3.005 1.0520 11.495 7.996 3.496 11.841 7.718 4.120
VANMET_231 2015-09-30 06:00:00 231 5603.0 8.960 9.110 9.420 9.440 9.560 69.270 65.620 3.644 3.339 14.060 14.120 12.180 10.930 0.204 0.230 0.269 0.533 0.00 0.00 0.00 0.7980 6.77 4.58 1 1 1 8.990 9.150 9.470 9.610 9.460 3.786 3.411 8.930 9.060 9.360 9.500 9.430 3.422 3.220 0.9540 11.449 7.931 3.518 11.826 7.762 4.066
VANMET_231 2015-09-30 05:55:00 231 5603.0 8.930 9.060 9.400 9.460 9.520 67.360 64.010 3.216 3.001 14.080 14.130 12.180 10.930 0.204 0.230 0.269 0.533 0.00 0.00 0.00 0.7270 9.52 0.61 1 1 1 8.950 9.070 9.440 9.580 9.480 3.352 3.205 8.900 9.040 9.360 9.470 9.420 3.138 2.758 1.0000 11.426 7.694 3.729 11.841 7.578 4.262
VANMET_231 2015-09-30 05:50:00 231 5603.0 8.880 9.090 9.470 9.480 9.600 67.740 62.880 3.248 2.767 14.100 14.130 12.180 10.930 0.204 0.230 0.269 0.533 0.00 0.00 0.00 0.6720 9.25 2.99 1 1 1 8.910 9.110 9.500 9.640 9.510 3.326 2.838 8.830 9.070 9.440 9.580 9.460 3.134 2.721 0.7840 11.387 7.712 3.673 11.857 7.453 4.401
VANMET_231 2015-09-30 05:45:00 231 5603.0 8.880 9.100 9.530 9.560 9.630 69.640 62.750 3.643 2.811 14.120 14.140 12.180 10.930 0.204 0.230 0.269 0.533 0.00 0.00 0.00 0.6420 359.70 3.57 1 1 1 8.940 9.190 9.610 9.700 9.620 3.985 2.905 8.840 9.050 9.500 9.590 9.490 3.243 2.664 0.7840 11.387 7.930 3.457 11.921 7.476 4.441
VANMET_231 2015-09-30 05:40:00 231 5603.0 8.930 9.210 9.640 9.650 9.810 67.360 61.920 3.218 2.717 14.140 14.140 12.180 10.930 0.204 0.230 0.269 0.533 0.00 0.00 0.00 0.6960 9.54 9.36 1 1 1 8.950 9.220 9.660 9.850 9.670 3.476 2.789 8.890 9.190 9.610 9.690 9.630 3.125 2.650 0.7710 11.426 7.695 3.729 11.994 7.426 4.567
VANMET_231 2015-09-30 05:35:00 231 5603.0 8.830 9.160 9.620 9.600 9.800 68.010 62.210 3.263 2.729 14.160 14.150 12.180 10.930 0.204 0.230 0.269 0.533 0.00 0.00 0.00 0.7670 15.43 3.89 1 1 1 8.910 9.190 9.650 9.840 9.640 3.346 2.804 8.760 9.120 9.590 9.740 9.560 3.199 2.655 0.9210 11.349 7.720 3.630 11.953 7.433 4.517
VANMET_231 2015-09-30 05:30:00 231 5603.0 8.780 9.070 9.600 9.590 9.760 70.920 63.260 3.803 2.964 14.180 14.150 12.180 10.930 0.204 0.230 0.269 0.533 0.00 0.00 0.00 0.5900 4.01 3.02 1 1 1 8.830 9.100 9.650 9.820 9.650 3.995 3.053 8.750 9.050 9.570 9.730 9.550 3.307 2.813 0.7710 11.310 8.020 3.289 11.945 7.558 4.389
VANMET_231 2015-09-30 05:25:00 231 5603.0 8.860 9.090 9.680 9.640 9.960 71.100 63.000 3.916 2.949 14.200 14.160 12.180 10.930 0.204 0.230 0.269 0.533 0.00 0.00 0.00 0.6850 2.35 6.13 1 1 1 8.920 9.120 9.720 10.180 9.670 4.080 2.998 8.810 9.080 9.640 9.830 9.610 3.705 2.894 0.8300 11.372 8.084 3.286 11.986 7.550 4.435
VANMET_231 2015-09-30 05:20:00 231 5603.0 9.020 9.170 9.610 9.590 9.780 71.840 63.420 4.219 2.992 14.210 14.170 12.180 10.930 0.204 0.230 0.269 0.533 0.00 0.00 0.00 0.6620 12.60 6.99 1 1 1 9.090 9.240 9.630 9.970 9.610 4.390 3.236 8.940 9.100 9.600 9.680 9.560 4.047 2.915 0.8430 11.495 8.258 3.237 11.945 7.573 4.370
VANMET_231 2015-09-30 05:15:00 231 5603.0 9.120 9.240 9.620 9.580 9.770 71.840 65.910 4.311 3.534 14.230 14.170 12.180 10.930 0.204 0.230 0.269 0.533 0.00 0.00 0.00 0.6890 354.20 8.46 1 1 1 9.190 9.280 9.640 9.870 9.610 4.578 3.816 9.070 9.230 9.580 9.680 9.550 3.869 3.290 0.8490 11.573 8.312 3.259 11.937 7.869 4.069
VANMET_231 2015-09-30 05:10:00 231 5603.0 9.200 9.300 9.610 9.580 9.730 71.860 67.270 4.393 3.820 14.250 14.180 12.180 10.930 0.204 0.230 0.269 0.533 0.00 0.00 0.00 0.7430 3.24 3.06 1 1 1 9.220 9.330 9.620 9.780 9.600 4.534 3.932 9.180 9.280 9.590 9.660 9.560 4.196 3.611 0.9020 11.636 8.360 3.274 11.937 8.030 3.907
VANMET_231 2015-09-30 05:05:00 231 5603.0 9.200 9.320 9.620 9.570 9.750 70.770 67.210 4.179 3.797 14.270 14.180 12.180 10.930 0.204 0.230 0.269 0.533 0.00 0.00 0.00 0.8600 8.79 2.09 1 1 1 9.220 9.340 9.630 9.780 9.590 4.221 3.822 9.190 9.280 9.610 9.720 9.550 4.127 3.765 1.1500 11.636 8.235 3.401 11.929 8.017 3.912
VANMET_231 2015-09-30 05:00:00 231 5603.0 9.200 9.260 9.580 9.560 9.640 70.790 67.260 4.183 3.803 14.290 14.190 12.180 10.930 0.204 0.230 0.269 0.533 0.00 0.00 0.00 0.7460 6.45 1.48 1 1 1 9.210 9.270 9.610 9.710 9.590 4.249 3.831 9.180 9.240 9.550 9.590 9.540 4.147 3.770 0.9540 11.636 8.238 3.399 11.921 8.020 3.903
VANMET_231 2015-09-30 04:55:00 231 5603.0 9.200 9.260 9.560 9.560 9.590 71.670 67.570 4.359 3.860 14.310 14.190 12.180 10.930 0.204 0.230 0.269 0.533 0.00 0.00 0.00 0.7190 5.18 2.16 1 1 1 9.220 9.270 9.570 9.620 9.570 4.535 4.056 9.190 9.240 9.540 9.560 9.540 4.197 3.758 0.8490 11.636 8.340 3.296 11.921 8.052 3.866
VANMET_231 2015-09-30 04:50:00 231 5603.0 9.210 9.290 9.600 9.560 9.640 72.820 68.820 4.599 4.122 14.330 14.200 12.180 10.930 0.204 0.230 0.269 0.533 0.00 0.00 0.00 0.7110 4.57 2.30 1 1 1 9.240 9.320 9.630 9.710 9.570 4.795 4.227 9.200 9.260 9.560 9.570 9.540 4.478 3.971 0.9280 11.644 8.481 3.165 11.921 8.202 3.717
VANMET_231 2015-09-30 04:45:00 231 5603.0 9.200 9.280 9.600 9.550 9.650 73.150 69.620 4.654 4.284 14.350 14.200 12.180 10.930 0.204 0.230 0.269 0.533 0.00 0.00 0.00 0.8310 7.41 0.71 1 1 1 9.220 9.300 9.610 9.680 9.570 4.726 4.344 9.180 9.260 9.590 9.620 9.540 4.552 4.141 0.9930 11.636 8.514 3.124 11.913 8.296 3.619
VANMET_231 2015-09-30 04:40:00 231 5603.0 9.190 9.250 9.590 9.550 9.640 73.490 69.970 4.711 4.350 14.370 14.210 12.180 10.930 0.204 0.230 0.269 0.533 0.00 0.00 0.00 0.7620 5.56 2.62 1 1 1 9.210 9.260 9.600 9.680 9.560 4.808 4.376 9.170 9.240 9.570 9.610 9.520 4.666 4.331 0.9080 11.628 8.548 3.083 11.913 8.335 3.578
VANMET_231 2015-09-30 04:35:00 231 5603.0 9.190 9.240 9.540 9.520 9.630 73.560 70.020 4.725 4.337 14.390 14.210 12.180 10.930 0.204 0.230 0.269 0.533 0.00 0.00 0.00 0.7090 5.42 1.58 1 1 1 9.210 9.270 9.580 9.710 9.540 4.876 4.388 9.170 9.210 9.520 9.590 9.500 4.634 4.298 0.8750 11.628 8.557 3.074 11.889 8.327 3.564
VANMET_231 2015-09-30 04:30:00 231 5603.0 9.170 9.310 9.550 9.490 9.580 73.860 70.590 4.762 4.420 14.410 14.220 12.180 10.930 0.204 0.230 0.269 0.533 0.00 0.00 0.00 0.6760 2.64 1.06 1 1 1 9.200 9.320 9.560 9.610 9.520 4.803 4.495 9.140 9.270 9.530 9.560 9.450 4.722 4.353 0.7640 11.612 8.579 3.035 11.865 8.376 3.490
VANMET_231 2015-09-30 04:25:00 231 5603.0 9.110 9.290 9.560 9.470 9.610 74.210 71.120 4.774 4.511 14.430 14.220 12.170 10.930 0.204 0.230 0.269 0.533 0.00 0.00 0.00 0.7110 5.74 1.12 1 1 1 9.150 9.300 9.570 9.630 9.500 4.852 4.562 9.060 9.290 9.550 9.580 9.450 4.713 4.460 0.7580 11.565 8.586 2.983 11.849 8.429 3.422
VANMET_231 2015-09-30 04:20:00 231 5603.0 9.070 9.280 9.550 9.500 9.660 75.170 70.240 4.909 4.363 14.450 14.230 12.170 10.930 0.204 0.230 0.269 0.533 0.00 0.00 0.00 0.8440 8.68 1.68 1 1 1 9.110 9.290 9.560 9.680 9.520 5.299 4.439 9.040 9.260 9.550 9.630 9.480 4.706 4.316 1.0190 11.534 8.667 2.864 11.873 8.342 3.534
VANMET_231 2015-09-30 04:15:00 231 5603.0 9.170 9.320 9.550 9.530 9.670 75.990 70.010 5.164 4.343 14.470 14.230 12.170 10.930 0.204 0.230 0.269 0.533 0.00 0.00 0.00 0.8930 7.35 3.69 1 1 1 9.210 9.340 9.560 9.700 9.570 5.355 4.428 9.110 9.270 9.550 9.650 9.500 4.830 4.295 1.1240 11.612 8.823 2.788 11.897 8.331 3.568
VANMET_231 2015-09-30 04:10:00 231 5603.0 9.250 9.350 9.580 9.580 9.670 74.170 70.080 4.896 4.401 14.490 14.230 12.170 10.930 0.204 0.230 0.269 0.533 0.00 0.00 0.00 0.8290 0.93 0.68 1 1 1 9.270 9.370 9.610 9.710 9.600 5.229 4.468 9.220 9.340 9.560 9.650 9.550 4.691 4.263 0.9540 11.675 8.660 3.016 11.937 8.365 3.572
VANMET_231 2015-09-30 04:05:00 231 5603.0 9.250 9.360 9.660 9.620 9.780 72.580 69.190 4.586 4.254 14.510 14.240 12.170 10.930 0.204 0.230 0.269 0.533 0.00 0.00 0.00 0.7270 6.98 2.57 1 1 1 9.270 9.370 9.690 9.850 9.640 4.710 4.311 9.220 9.340 9.610 9.720 9.580 4.512 4.226 1.0190 11.675 8.474 3.201 11.970 8.279 3.688
VANMET_231 2015-09-30 04:00:00 231 5603.0 9.180 9.320 9.680 9.620 9.840 72.420 68.970 4.486 4.217 14.530 14.240 12.170 10.930 0.204 0.230 0.269 0.533 0.00 0.00 0.00 0.7300 8.57 0.85 1 1 1 9.230 9.340 9.700 9.860 9.640 4.530 4.239 9.130 9.300 9.670 9.800 9.610 4.450 4.196 0.8820 11.620 8.415 3.205 11.970 8.257 3.714
VANMET_231 2015-09-30 03:55:00 231 5603.0 9.080 9.230 9.630 9.590 9.760 73.110 69.020 4.525 4.191 14.550 14.250 12.170 10.930 0.204 0.230 0.269 0.533 0.00 0.00 0.00 0.6390 4.14 2.34 1 1 1 9.130 9.300 9.670 9.840 9.610 4.722 4.215 9.040 9.180 9.600 9.720 9.560 4.440 4.174 0.8300 11.542 8.438 3.104 11.945 8.242 3.701
VANMET_231 2015-09-30 03:50:00 231 5603.0 9.050 9.150 9.580 9.560 9.740 74.140 68.860 4.700 4.138 14.570 14.250 12.170 10.930 0.204 0.230 0.269 0.533 0.00 0.00 0.00 0.6220 1.48 0.96 1 1 1 9.090 9.180 9.600 9.790 9.580 4.882 4.195 9.030 9.120 9.560 9.720 9.550 4.576 4.074 0.7910 11.519 8.542 2.979 11.921 8.212 3.712
VANMET_231 2015-09-30 03:45:00 231 5603.0 9.160 9.160 9.560 9.570 9.770 73.820 68.400 4.743 4.048 14.590 14.250 12.170 10.930 0.204 0.230 0.269 0.533 0.00 0.00 0.00 0.6810 1.44 1.73 1 1 1 9.240 9.200 9.560 9.810 9.590 4.816 4.087 9.090 9.120 9.550 9.730 9.550 4.670 4.015 0.8100 11.604 8.567 3.038 11.929 8.160 3.770
VANMET_231 2015-09-30 03:40:00 231 5603.0 9.320 9.300 9.590 9.620 9.710 72.450 68.310 4.625 4.073 14.610 14.260 12.170 10.930 0.204 0.230 0.269 0.533 0.00 0.00 0.00 0.7690 0.20 0.38 1 1 1 9.370 9.390 9.650 9.750 9.660 4.692 4.152 9.240 9.210 9.550 9.680 9.580 4.520 4.018 0.8750 11.730 8.497 3.232 11.970 8.174 3.793
VANMET_231 2015-09-30 03:35:00 231 5603.0 9.400 9.430 9.710 9.700 9.810 70.870 67.820 4.388 4.050 14.630 14.260 12.170 10.930 0.204 0.230 0.269 0.533 0.00 0.00 0.00 0.6580 5.96 2.76 1 1 1 9.420 9.450 9.730 9.900 9.730 4.578 4.172 9.370 9.400 9.650 9.680 9.660 4.259 3.964 0.7910 11.794 8.357 3.436 12.034 8.161 3.873
VANMET_231 2015-09-30 03:30:00 231 5603.0 9.400 9.480 9.770 9.730 9.910 70.250 67.190 4.268 3.942 14.650 14.270 12.170 10.930 0.204 0.230 0.269 0.533 0.00 0.00 0.00 0.8140 9.74 0.68 1 1 1 9.430 9.500 9.800 9.930 9.740 4.300 3.962 9.390 9.460 9.730 9.880 9.710 4.248 3.915 0.9670 11.794 8.287 3.509 12.058 8.099 3.956
VANMET_231 2015-09-30 03:25:00 231 5603.0 9.390 9.510 9.830 9.750 9.940 70.440 67.240 4.293 3.975 14.670 14.270 12.170 10.930 0.204 0.230 0.269 0.533 0.00 0.00 0.00 0.7920 8.04 1.28 1 1 1 9.410 9.520 9.840 9.960 9.770 4.360 4.014 9.370 9.500 9.810 9.910 9.710 4.260 3.910 0.9080 11.786 8.301 3.484 12.075 8.118 3.956
VANMET_231 2015-09-30 03:20:00 231 5603.0 9.380 9.510 9.840 9.770 9.960 70.890 67.460 4.377 4.039 14.690 14.270 12.170 10.930 0.204 0.230 0.269 0.533 0.00 0.00 0.00 0.8130 7.16 1.07 1 1 1 9.400 9.520 9.840 9.990 9.790 4.461 4.097 9.360 9.510 9.830 9.940 9.750 4.320 4.013 0.9280 11.778 8.351 3.429 12.091 8.155 3.934
VANMET_231 2015-09-30 03:15:00 231 5603.0 9.390 9.520 9.850 9.780 9.920 72.450 68.150 4.692 4.198 14.710 14.280 12.170 10.930 0.204 0.230 0.269 0.533 0.00 0.00 0.00 0.6710 2.74 5.39 1 1 1 9.420 9.550 9.870 9.960 9.810 4.795 4.261 9.360 9.500 9.830 9.890 9.760 4.478 4.109 0.8620 11.786 8.537 3.247 12.099 8.246 3.853
VANMET_231 2015-09-30 03:10:00 231 5603.0 9.420 9.540 9.870 9.790 9.960 71.720 68.070 4.577 4.190 14.730 14.280 12.170 10.930 0.204 0.230 0.269 0.533 0.00 0.00 0.00 0.6410 2.55 1.84 1 1 1 9.440 9.560 9.870 9.980 9.800 4.710 4.220 9.390 9.520 9.850 9.940 9.760 4.470 4.144 0.7510 11.810 8.468 3.340 12.107 8.242 3.866
VANMET_231 2015-09-30 03:05:00 231 5603.0 9.420 9.510 9.830 9.770 9.970 70.680 67.670 4.369 4.082 14.750 14.280 12.170 10.930 0.204 0.230 0.269 0.533 0.00 0.00 0.00 0.6620 4.86 1.69 1 1 1 9.440 9.530 9.860 9.980 9.800 4.500 4.161 9.400 9.470 9.800 9.950 9.730 4.296 3.997 0.8360 11.810 8.346 3.463 12.091 8.179 3.909
VANMET_231 2015-09-30 03:00:00 231 5603.0 9.420 9.470 9.790 9.750 9.850 71.060 67.550 4.446 4.036 14.770 14.290 12.170 10.930 0.204 0.230 0.269 0.533 0.00 0.00 0.00 0.6820 5.16 1.01 1 1 1 9.450 9.500 9.810 9.930 9.770 4.605 4.075 9.390 9.450 9.770 9.810 9.720 4.311 4.003 0.7710 11.810 8.391 3.418 12.075 8.153 3.918
VANMET_231 2015-09-30 02:55:00 231 5603.0 9.420 9.510 9.820 9.760 9.940 70.640 67.520 4.362 4.047 14.790 14.290 12.170 10.930 0.204 0.230 0.269 0.533 0.00 0.00 0.00 0.7470 8.67 3.70 1 1 1 9.440 9.520 9.820 9.990 9.780 4.477 4.082 9.410 9.500 9.810 9.870 9.740 4.257 4.007 0.9020 11.810 8.342 3.467 12.083 8.159 3.924
VANMET_231 2015-09-30 02:50:00 231 5603.0 9.430 9.510 9.810 9.790 9.960 69.850 66.930 4.215 3.948 14.810 14.290 12.170 10.930 0.204 0.230 0.269 0.533 0.00 0.00 0.00 0.6770 7.42 1.94 1 1 1 9.460 9.530 9.810 9.970 9.820 4.276 4.004 9.420 9.500 9.800 9.930 9.760 4.166 3.873 0.8560 11.818 8.256 3.563 12.107 8.102 4.004
VANMET_231 2015-09-30 02:45:00 231 5603.0 9.450 9.580 9.890 9.870 10.000 69.860 66.440 4.234 3.918 14.830 14.290 12.170 10.930 0.204 0.230 0.269 0.533 0.00 0.00 0.00 0.6880 6.74 1.35 1 1 1 9.470 9.620 9.940 10.090 9.910 4.319 3.963 9.440 9.530 9.820 9.910 9.810 4.179 3.857 0.8750 11.833 8.267 3.567 12.172 8.085 4.085
VANMET_231 2015-09-30 02:40:00 231 5603.0 9.450 9.620 9.940 9.900 10.070 70.490 66.540 4.364 3.974 14.850 14.300 12.170 10.930 0.204 0.230 0.269 0.533 0.00 0.00 0.00 0.1370 343.90 8.36 1 1 1 9.480 9.640 9.960 10.140 9.930 4.597 4.024 9.430 9.610 9.930 9.970 9.880 4.240 3.935 0.5420 11.833 8.343 3.492 12.197 8.117 4.081
VANMET_231 2015-09-30 02:35:00 231 5603.0 9.470 9.690 10.010 9.960 10.150 70.500 66.380 4.384 3.991 14.880 14.300 12.170 10.930 0.204 0.230 0.269 0.533 0.00 0.00 0.00 0.4710 3.36 6.21 1 1 1 9.490 9.700 10.030 10.200 9.970 4.456 4.045 9.450 9.650 9.970 10.030 9.940 4.261 3.960 0.6530 11.849 8.355 3.496 12.246 8.127 4.117
VANMET_231 2015-09-30 02:30:00 231 5603.0 9.430 9.650 10.020 9.950 10.200 70.360 66.340 4.320 3.976 14.900 14.300 12.170 10.930 0.204 0.230 0.269 0.533 0.00 0.00 0.00 0.5260 5.09 1.50 1 1 1 9.470 9.690 10.030 10.210 9.970 4.484 3.992 9.400 9.580 9.990 10.190 9.940 4.250 3.957 0.6860 11.818 8.317 3.503 12.238 8.118 4.119
VANMET_231 2015-09-30 02:25:00 231 5603.0 9.480 9.570 9.970 9.940 10.170 71.360 66.310 4.564 3.959 14.920 14.300 12.170 10.930 0.204 0.230 0.269 0.533 0.00 0.00 0.00 0.5830 359.70 9.74 1 1 1 9.530 9.590 9.990 10.230 9.960 4.683 3.988 9.420 9.560 9.960 10.100 9.920 4.452 3.913 0.6990 11.857 8.461 3.396 12.229 8.109 4.120
VANMET_231 2015-09-30 02:20:00 231 5603.0 9.570 9.650 10.010 9.990 10.110 70.750 65.960 4.534 3.932 14.940 14.310 12.170 10.930 0.204 0.230 0.269 0.533 0.00 0.00 0.00 0.5420 2.85 4.75 1 1 1 9.610 9.710 10.050 10.180 10.030 4.750 3.975 9.530 9.590 9.970 10.090 9.930 4.327 3.891 0.7250 11.929 8.443 3.489 12.271 8.093 4.177
VANMET_231 2015-09-30 02:15:00 231 5603.0 9.600 9.790 10.100 10.070 10.190 69.200 65.620 4.239 3.933 14.960 14.310 12.170 10.930 0.204 0.230 0.269 0.533 0.00 0.00 0.00 0.6360 7.37 2.96 1 1 1 9.610 9.820 10.130 10.240 10.100 4.488 3.979 9.570 9.720 10.050 10.100 10.030 4.103 3.865 0.7710 11.953 8.270 3.682 12.336 8.094 4.241
VANMET_231 2015-09-30 02:10:00 231 5603.0 9.560 9.840 10.160 10.110 10.290 68.410 64.800 4.043 3.796 14.980 14.310 12.170 10.930 0.204 0.230 0.269 0.533 0.00 0.00 0.00 0.6190 8.71 1.25 1 1 1 9.590 9.850 10.180 10.320 10.150 4.137 3.843 9.530 9.820 10.130 10.230 10.080 3.949 3.754 0.8040 11.921 8.157 3.766 12.370 8.016 4.354
VANMET_231 2015-09-30 02:05:00 231 5603.0 9.500 9.770 10.150 10.090 10.350 68.550 64.590 4.008 3.728 15.000 14.310 12.170 10.930 0.204 0.230 0.269 0.533 0.00 0.00 0.00 0.4020 346.40 14.17 1 1 1 9.550 9.840 10.180 10.380 10.140 4.205 3.845 9.460 9.710 10.120 10.320 10.040 3.871 3.610 0.6730 11.873 8.137 3.734 12.353 7.978 4.374
VANMET_231 2015-09-30 02:00:00 231 5603.0 9.490 9.680 10.070 10.030 10.270 68.090 63.960 3.908 3.530 15.020 14.310 12.170 10.930 0.204 0.230 0.269 0.533 0.00 0.00 0.00 0.4430 351.90 14.72 1 1 1 9.520 9.720 10.130 10.450 10.060 3.991 3.766 9.460 9.660 10.050 10.190 10.000 3.823 3.340 0.6210 11.865 8.080 3.786 12.303 7.867 4.434
VANMET_231 2015-09-30 01:55:00 231 5603.0 9.580 9.680 10.080 10.070 10.250 67.810 62.700 3.938 3.290 15.040 14.310 12.170 10.930 0.204 0.230 0.269 0.533 0.00 0.00 0.00 0.5900 7.10 7.43 1 1 1 9.680 9.740 10.120 10.320 10.110 4.128 3.348 9.530 9.650 10.060 10.190 10.050 3.860 3.224 0.7250 11.937 8.097 3.843 12.336 7.735 4.601
VANMET_231 2015-09-30 01:50:00 231 5603.0 9.680 9.810 10.180 10.150 10.320 66.140 61.860 3.669 3.178 15.060 14.320 12.170 10.930 0.204 0.230 0.269 0.533 0.00 0.00 0.00 0.5040 0.79 0.56 1 1 1 9.700 9.820 10.230 10.410 10.200 4.162 3.257 9.650 9.750 10.120 10.250 10.100 3.406 3.102 0.6470 12.018 7.945 4.069 12.403 7.674 4.730
VANMET_231 2015-09-30 01:45:00 231 5603.0 9.720 9.850 10.240 10.200 10.420 66.030 61.570 3.693 3.155 15.080 14.320 12.170 10.940 0.204 0.230 0.269 0.533 0.00 0.00 0.00 0.4310 342.70 12.42 1 1 1 9.760 9.910 10.250 10.460 10.230 3.764 3.220 9.680 9.820 10.220 10.350 10.180 3.536 3.057 0.6210 12.050 7.958 4.093 12.444 7.661 4.782
VANMET_231 2015-09-30 01:40:00 231 5603.0 9.750 9.920 10.270 10.260 10.380 64.790 60.650 3.450 2.995 15.110 14.320 12.170 10.930 0.204 0.230 0.269 0.533 0.00 0.00 0.00 0.3320 342.70 7.07 1 1 1 9.760 9.940 10.320 10.450 10.300 3.665 3.069 9.730 9.910 10.230 10.340 10.200 3.353 2.936 0.4510 12.075 7.823 4.251 12.494 7.575 4.917
VANMET_231 2015-09-30 01:35:00 231 5603.0 9.710 9.950 10.330 10.330 10.510 64.990 59.940 3.458 2.894 15.130 14.320 12.170 10.940 0.204 0.230 0.269 0.533 0.00 0.00 0.00 0.3930 351.10 2.45 1 1 1 9.750 9.960 10.350 10.550 10.360 3.671 2.931 9.690 9.930 10.320 10.480 10.300 3.203 2.860 0.4640 12.042 7.827 4.216 12.553 7.521 5.029
VANMET_231 2015-09-30 01:30:00 231 5603.0 9.780 9.930 10.410 10.430 10.480 68.380 59.740 4.237 2.947 15.150 14.320 12.170 10.930 0.204 0.230 0.269 0.533 0.00 0.00 0.00 0.0380 3.06 4.49 1 1 1 9.920 9.980 10.490 10.520 10.540 4.939 3.048 9.670 9.900 10.350 10.460 10.360 3.313 2.858 0.3790 12.099 8.269 3.826 12.637 7.549 5.088
VANMET_231 2015-09-30 01:25:00 231 5603.0 10.000 10.170 10.580 10.570 10.690 65.960 59.370 3.930 2.990 15.170 14.320 12.170 10.930 0.204 0.230 0.269 0.532 0.00 0.00 0.00 0.2160 18.13 13.08 1 1 1 10.040 10.260 10.620 10.820 10.610 4.881 3.081 9.930 9.990 10.500 10.520 10.550 3.320 2.914 0.5290 12.279 8.092 4.180 12.756 7.572 5.183
VANMET_231 2015-09-30 01:20:00 231 5603.0 10.030 10.280 10.680 10.650 10.860 64.070 58.870 3.554 2.945 15.190 14.320 12.170 10.940 0.204 0.230 0.269 0.532 0.00 0.00 0.00 0.4490 1.36 7.30 1 1 1 10.040 10.310 10.700 10.950 10.670 3.642 2.983 10.020 10.260 10.630 10.740 10.620 3.478 2.905 0.5290 12.303 7.880 4.421 12.824 7.548 5.274
VANMET_231 2015-09-30 01:15:00 231 5603.0 9.970 10.290 10.700 10.640 11.000 64.210 59.120 3.527 3.000 15.210 14.320 12.170 10.930 0.204 0.230 0.269 0.532 0.00 0.00 0.00 0.2380 5.39 2.77 1 1 1 10.020 10.310 10.740 11.130 10.690 3.729 3.036 9.920 10.210 10.600 10.880 10.600 3.405 2.957 0.5160 12.254 7.865 4.386 12.815 7.577 5.239
VANMET_231 2015-09-30 01:10:00 231 5603.0 9.940 10.200 10.630 10.650 10.840 65.550 59.340 3.792 3.055 15.230 14.320 12.170 10.940 0.204 0.230 0.269 0.532 0.00 0.00 0.00 0.3910 350.90 8.00 1 1 1 9.960 10.220 10.660 10.960 10.670 4.015 3.143 9.910 10.180 10.590 10.680 10.600 3.443 2.982 0.7320 12.229 8.014 4.213 12.824 7.607 5.214
VANMET_231 2015-09-30 01:05:00 231 5603.0 9.920 10.150 10.610 10.620 10.830 64.420 58.660 3.529 2.866 15.250 14.320 12.170 10.940 0.204 0.230 0.269 0.532 0.00 0.00 0.00 0.6080 2.07 1.52 1 1 1 9.950 10.210 10.650 10.930 10.660 3.741 2.990 9.890 10.110 10.580 10.780 10.580 3.325 2.688 0.6930 12.213 7.867 4.345 12.798 7.506 5.291
VANMET_231 2015-09-30 01:00:00 231 5603.0 9.940 10.180 10.620 10.590 10.770 61.830 56.910 2.964 2.416 15.280 14.320 12.170 10.940 0.204 0.230 0.269 0.532 0.00 0.00 0.00 0.7090 0.50 0.79 1 1 1 9.990 10.280 10.660 10.850 10.620 3.293 2.680 9.890 10.110 10.570 10.720 10.580 2.636 2.243 0.8360 12.229 7.558 4.668 12.773 7.269 5.504
VANMET_231 2015-09-30 00:55:00 231 5603.0 9.960 10.310 10.680 10.600 10.860 58.550 55.360 2.219 2.031 15.300 14.320 12.170 10.940 0.204 0.230 0.269 0.532 0.00 0.00 0.00 0.5690 2.53 1.52 1 1 1 9.990 10.340 10.690 10.910 10.630 2.600 2.207 9.930 10.250 10.640 10.820 10.560 1.784 1.916 0.6860 12.246 7.167 5.076 12.781 7.072 5.706
VANMET_231 2015-09-30 00:50:00 231 5603.0 9.880 10.110 10.530 10.480 10.760 56.280 53.390 1.589 1.410 15.320 14.320 12.170 10.940 0.204 0.230 0.269 0.532 0.00 0.00 0.00 0.5340 3.72 1.67 1 1 1 9.920 10.240 10.640 10.880 10.560 1.768 1.901 9.840 10.000 10.450 10.650 10.430 1.512 0.890 0.6660 12.180 6.851 5.325 12.679 6.764 5.910
VANMET_231 2015-09-30 00:45:00 231 5603.0 9.900 9.970 10.370 10.410 10.540 55.130 50.380 1.317 0.541 15.340 14.320 12.170 10.940 0.204 0.230 0.269 0.532 0.00 0.00 0.00 0.5750 2.10 1.00 1 1 1 9.930 10.000 10.440 10.640 10.440 1.502 0.855 9.850 9.950 10.330 10.450 10.380 1.190 0.395 0.6930 12.197 6.719 5.473 12.620 6.352 6.262
VANMET_231 2015-09-30 00:40:00 231 5603.0 9.980 10.070 10.400 10.420 10.450 55.300 50.510 1.445 0.588 15.360 14.320 12.170 10.940 0.204 0.230 0.269 0.532 0.00 0.00 0.00 0.6080 3.10 1.29 1 1 1 10.020 10.110 10.460 10.500 10.460 1.708 0.854 9.930 9.990 10.340 10.420 10.370 1.332 0.398 0.6930 12.262 6.781 5.481 12.629 6.374 6.250
VANMET_231 2015-09-30 00:35:00 231 5603.0 10.030 10.150 10.490 10.450 10.630 56.250 51.510 1.726 0.891 15.380 14.320 12.170 10.940 0.204 0.230 0.269 0.532 0.00 0.00 0.00 0.6580 2.71 2.57 1 1 1 10.060 10.160 10.520 10.690 10.480 1.848 1.050 10.020 10.120 10.470 10.520 10.420 1.479 0.685 0.7710 12.303 6.919 5.383 12.654 6.515 6.136
VANMET_231 2015-09-30 00:30:00 231 5603.0 10.070 10.160 10.480 10.440 10.590 58.700 53.940 2.352 1.514 15.400 14.320 12.170 10.940 0.204 0.230 0.269 0.532 0.00 0.00 0.00 0.6900 5.20 3.56 1 1 1 10.100 10.180 10.490 10.630 10.450 2.738 1.890 10.030 10.150 10.470 10.540 10.410 1.797 1.037 0.8430 12.336 7.236 5.095 12.645 6.814 5.825
VANMET_231 2015-09-30 00:25:00 231 5603.0 10.120 10.190 10.490 10.450 10.650 61.130 55.840 2.978 2.009 15.420 14.320 12.170 10.940 0.204 0.230 0.269 0.532 0.00 0.00 0.00 0.7570 7.22 2.36 1 1 1 10.150 10.200 10.500 10.660 10.470 3.453 2.408 10.100 10.170 10.480 10.630 10.430 2.557 1.817 0.9150 12.378 7.565 4.811 12.654 7.061 5.588
VANMET_231 2015-09-30 00:20:00 231 5603.0 10.150 10.200 10.490 10.460 10.600 65.140 60.840 3.900 3.226 15.450 14.310 12.170 10.940 0.204 0.230 0.269 0.532 0.00 0.00 0.00 0.7750 8.15 0.62 1 1 1 10.170 10.220 10.500 10.670 10.480 4.235 3.786 10.130 10.200 10.470 10.530 10.440 3.445 2.442 0.9410 12.403 8.075 4.324 12.662 7.700 4.959
VANMET_231 2015-09-30 00:15:00 231 5603.0 10.160 10.190 10.450 10.460 10.550 66.930 63.810 4.305 3.911 15.470 14.310 12.170 10.940 0.204 0.230 0.269 0.532 0.00 0.00 0.00 0.7340 6.35 1.07 1 1 1 10.190 10.220 10.480 10.610 10.480 4.395 3.993 10.140 10.160 10.430 10.500 10.440 4.175 3.741 0.8820 12.411 8.308 4.104 12.662 8.081 4.583
VANMET_231 2015-09-30 00:10:00 231 5603.0 10.180 10.220 10.530 10.480 10.630 66.450 63.630 4.220 3.890 15.490 14.310 12.170 10.940 0.204 0.230 0.269 0.532 0.00 0.00 0.00 0.6880 5.74 2.19 1 1 1 10.200 10.260 10.570 10.740 10.500 4.427 3.979 10.170 10.170 10.460 10.530 10.460 4.041 3.812 0.9730 12.428 8.259 4.169 12.679 8.069 4.611
VANMET_231 2015-09-30 00:05:00 231 5603.0 10.170 10.230 10.540 10.470 10.710 65.200 62.910 3.936 3.714 15.510 14.310 12.170 10.940 0.204 0.230 0.269 0.532 0.00 0.00 0.00 0.7530 8.94 0.55 1 1 1 10.190 10.240 10.560 10.730 10.490 4.063 3.805 10.130 10.210 10.530 10.680 10.450 3.780 3.587 0.8750 12.419 8.096 4.322 12.671 7.970 4.700
VANMET_231 2015-09-30 00:00:00 231 5603.0 10.170 10.210 10.520 10.490 10.670 63.870 61.620 3.642 3.439 15.530 14.310 12.170 10.940 0.204 0.230 0.269 0.532 0.00 0.00 0.00 0.8480 10.28 0.29 1 1 1 10.180 10.220 10.530 10.690 10.510 3.753 3.601 10.140 10.200 10.500 10.650 10.470 3.556 3.283 0.9600 12.419 7.930 4.487 12.688 7.817 4.870
VANMET_231 2015-09-29 23:55:00 231 5603.0 10.170 10.220 10.530 10.550 10.660 64.050 61.010 3.685 3.352 15.550 14.300 12.170 10.940 0.204 0.230 0.269 0.532 0.00 0.00 0.00 0.8770 10.99 1.13 1 1 1 10.180 10.250 10.580 10.730 10.590 3.809 3.444 10.150 10.200 10.500 10.630 10.510 3.567 3.272 1.0190 12.419 7.954 4.465 12.739 7.769 4.967
VANMET_231 2015-09-29 23:50:00 231 5603.0 10.190 10.260 10.600 10.620 10.740 63.350 61.090 3.545 3.438 15.570 14.300 12.170 10.940 0.204 0.230 0.269 0.532 0.00 0.00 0.00 0.8160 14.57 2.80 1 1 1 10.200 10.280 10.620 10.790 10.640 3.630 3.547 10.160 10.250 10.580 10.710 10.580 3.425 3.291 0.9410 12.436 7.875 4.558 12.798 7.816 4.980
VANMET_231 2015-09-29 23:45:00 231 5603.0 10.160 10.270 10.620 10.600 10.770 61.780 61.360 3.169 3.485 15.590 14.300 12.170 10.940 0.204 0.230 0.269 0.532 0.00 0.00 0.00 0.8490 15.70 0.91 1 1 1 10.190 10.280 10.630 10.790 10.630 3.517 3.654 10.150 10.260 10.610 10.750 10.580 3.038 3.230 0.9540 12.411 7.669 4.743 12.781 7.842 4.939
VANMET_231 2015-09-29 23:40:00 231 5603.0 10.190 10.260 10.620 10.580 10.780 60.490 59.630 2.895 3.059 15.610 14.290 12.170 10.940 0.204 0.230 0.269 0.532 0.00 0.00 0.00 0.8160 11.18 2.26 1 1 1 10.240 10.280 10.640 10.810 10.610 3.101 3.283 10.160 10.250 10.610 10.730 10.550 2.730 2.801 1.0000 12.436 7.521 4.913 12.764 7.609 5.153
VANMET_231 2015-09-29 23:35:00 231 5603.0 10.300 10.320 10.640 10.620 10.760 59.170 57.680 2.682 2.630 15.630 14.290 12.170 10.940 0.204 0.230 0.269 0.532 0.00 0.00 0.00 0.7830 8.77 0.88 1 1 1 10.330 10.350 10.670 10.780 10.660 3.065 2.906 10.250 10.260 10.620 10.730 10.580 2.344 2.471 0.9410 12.528 7.408 5.115 12.798 7.381 5.416
VANMET_231 2015-09-29 23:30:00 231 5603.0 10.280 10.360 10.670 10.650 10.800 58.140 57.120 2.423 2.523 15.650 14.290 12.170 10.940 0.204 0.230 0.269 0.532 0.00 0.00 0.00 0.8670 10.87 1.96 1 1 1 10.310 10.380 10.690 10.810 10.670 2.465 2.823 10.240 10.340 10.660 10.780 10.640 2.384 2.330 0.9800 12.511 7.273 5.237 12.824 7.325 5.499
VANMET_231 2015-09-29 23:25:00 231 5603.0 10.220 10.350 10.680 10.650 10.750 57.120 56.070 2.118 2.255 15.670 14.280 12.170 10.940 0.204 0.230 0.269 0.532 0.00 0.00 0.00 0.7310 7.49 1.82 1 1 1 10.260 10.370 10.700 10.850 10.660 2.502 2.479 10.200 10.330 10.660 10.710 10.620 1.800 1.979 0.9600 12.461 7.116 5.343 12.824 7.186 5.634
VANMET_231 2015-09-29 23:20:00 231 5603.0 10.210 10.340 10.670 10.620 10.840 54.500 54.080 1.448 1.726 15.690 14.280 12.170 10.940 0.204 0.230 0.269 0.532 0.00 0.00 0.00 0.8010 9.51 2.57 1 1 1 10.230 10.360 10.700 10.860 10.640 1.719 2.014 10.180 10.320 10.660 10.810 10.600 1.079 1.293 0.9540 12.453 6.782 5.666 12.798 6.919 5.877
VANMET_231 2015-09-29 23:15:00 231 5603.0 10.240 10.340 10.660 10.620 10.800 51.600 50.400 0.717 0.743 15.710 14.280 12.170 10.940 0.204 0.230 0.269 0.532 0.00 0.00 0.00 0.8030 8.96 1.97 1 1 1 10.260 10.350 10.670 10.820 10.640 1.036 1.278 10.210 10.320 10.650 10.760 10.590 0.611 0.426 0.9730 12.478 6.434 6.039 12.798 6.446 6.348
VANMET_231 2015-09-29 23:10:00 231 5603.0 10.270 10.380 10.690 10.690 10.720 51.350 48.770 0.679 0.350 15.730 14.270 12.170 10.940 0.204 0.230 0.269 0.532 0.00 0.00 0.00 0.7100 7.32 1.31 1 1 1 10.290 10.430 10.750 10.830 10.740 0.870 0.558 10.250 10.330 10.650 10.670 10.630 0.585 0.169 0.9280 12.503 6.416 6.083 12.858 6.265 6.587
VANMET_231 2015-09-29 23:05:00 231 5603.0 10.280 10.450 10.800 10.800 10.900 51.130 50.160 0.634 0.844 15.750 14.270 12.170 10.940 0.204 0.230 0.269 0.532 0.00 0.00 0.00 0.8230 8.81 1.31 1 1 1 10.310 10.460 10.840 10.970 10.840 0.771 1.096 10.260 10.440 10.760 10.850 10.740 0.427 0.624 0.9870 12.511 6.395 6.114 12.953 6.493 6.456
VANMET_231 2015-09-29 23:00:00 231 5603.0 10.310 10.450 10.830 10.810 11.020 49.020 52.410 0.075 1.452 15.770 14.260 12.170 10.940 0.204 0.230 0.269 0.532 0.00 0.00 0.00 0.6410 4.58 11.16 1 1 1 10.340 10.470 10.850 11.060 10.860 0.428 2.344 10.290 10.430 10.780 10.990 10.720 -0.166 0.620 0.8820 12.536 6.141 6.391 12.961 6.784 6.168
VANMET_231 2015-09-29 22:55:00 231 5603.0 10.290 10.390 10.720 10.690 10.860 48.220 48.550 -0.166 0.259 15.790 14.260 12.170 10.940 0.204 0.230 0.269 0.532 0.00 0.00 0.00 0.5430 358.40 15.57 1 1 1 10.310 10.420 10.770 10.970 10.740 0.324 2.130 10.270 10.350 10.690 10.760 10.660 -0.388 -0.690 0.7320 12.519 6.034 6.483 12.858 6.224 6.615
VANMET_231 2015-09-29 22:50:00 231 5603.0 10.350 10.440 10.760 10.740 10.880 47.720 44.760 -0.259 -0.783 15.810 14.250 12.170 10.940 0.204 0.230 0.269 0.532 0.00 0.00 0.00 0.6190 4.74 2.52 1 1 1 10.380 10.470 10.790 10.950 10.760 0.197 -0.487 10.310 10.390 10.730 10.800 10.710 -0.568 -1.031 0.7120 12.570 5.994 6.571 12.901 5.768 7.127
VANMET_231 2015-09-29 22:45:00 231 5603.0 10.370 10.470 10.780 10.800 10.910 47.360 43.690 -0.342 -1.053 15.830 14.250 12.170 10.940 0.204 0.230 0.269 0.532 0.00 0.00 0.00 0.7860 8.15 0.92 1 1 1 10.400 10.470 10.780 10.940 10.850 -0.178 -1.005 10.350 10.460 10.770 10.820 10.740 -0.453 -1.123 0.9540 12.586 5.957 6.626 12.953 5.655 7.294
VANMET_231 2015-09-29 22:40:00 231 5603.0 10.440 10.570 10.910 10.940 10.950 47.380 42.760 -0.274 -1.221 15.850 14.240 12.170 10.940 0.204 0.230 0.269 0.532 0.00 0.00 0.00 0.6190 5.92 2.19 1 1 1 10.490 10.650 11.000 11.110 11.030 0.140 -0.994 10.410 10.470 10.780 10.830 10.870 -0.809 -1.472 0.7450 12.645 5.987 6.654 13.074 5.586 7.483
VANMET_231 2015-09-29 22:35:00 231 5603.0 10.460 10.690 11.060 11.050 11.180 45.240 41.870 -0.889 -1.409 15.870 14.240 12.170 10.940 0.204 0.230 0.269 0.532 0.00 0.00 0.00 0.7860 11.02 3.14 1 1 1 10.480 10.720 11.090 11.240 11.070 -0.737 -0.829 10.440 10.650 11.010 11.120 11.010 -1.056 -1.568 0.9150 12.662 5.724 6.934 13.170 5.509 7.656
VANMET_231 2015-09-29 22:30:00 231 5603.0 10.430 10.740 11.090 11.090 11.280 46.380 42.340 -0.580 -1.220 15.890 14.230 12.170 10.940 0.204 0.230 0.269 0.532 0.00 0.00 0.00 0.4360 339.50 27.74 1 1 1 10.450 10.760 11.110 11.370 11.120 -0.221 -0.737 10.410 10.720 11.070 11.220 11.050 -1.091 -1.527 0.6010 12.637 5.855 6.776 13.205 5.586 7.614
VANMET_231 2015-09-29 22:25:00 231 5603.0 10.400 10.730 11.110 11.100 11.350 46.410 42.120 -0.599 -1.290 15.910 14.220 12.170 10.940 0.204 0.230 0.269 0.532 0.00 0.00 0.00 0.2830 330.50 3.93 1 1 1 10.460 10.760 11.120 11.410 11.130 -0.300 -0.541 10.350 10.680 11.100 11.290 11.060 -0.923 -1.704 0.4510 12.612 5.847 6.759 13.214 5.558 7.648
VANMET_231 2015-09-29 22:20:00 231 5603.0 10.350 10.630 11.040 11.010 11.360 50.180 41.720 0.435 -1.491 15.920 14.220 12.170 10.940 0.204 0.230 0.269 0.532 0.00 0.00 0.00 0.4050 321.50 8.32 1 1 1 10.370 10.670 11.090 11.420 11.060 0.976 -1.135 10.340 10.590 10.990 11.250 10.970 -0.088 -1.679 0.5490 12.570 6.304 6.262 13.135 5.476 7.655
VANMET_231 2015-09-29 22:15:00 231 5603.0 10.420 10.580 10.980 10.980 11.240 52.190 43.850 1.039 -0.842 15.940 14.210 12.170 10.940 0.204 0.230 0.269 0.532 0.00 0.00 0.00 0.4680 351.80 9.06 1 1 1 10.490 10.590 10.990 11.350 11.010 1.868 -0.443 10.370 10.560 10.970 11.170 10.950 0.625 -1.489 0.6270 12.629 6.585 6.038 13.109 5.744 7.361
VANMET_231 2015-09-29 22:10:00 231 5603.0 10.580 10.700 11.050 11.080 11.130 53.630 43.670 1.561 -0.809 15.960 14.200 12.170 10.940 0.204 0.230 0.269 0.532 0.00 0.00 0.00 0.6780 7.12 7.71 1 1 1 10.640 10.790 11.130 11.240 11.160 2.209 -0.181 10.510 10.600 10.980 11.010 11.010 0.556 -1.243 0.8170 12.764 6.838 5.919 13.196 5.757 7.433
VANMET_231 2015-09-29 22:05:00 231 5603.0 10.660 10.770 11.150 11.200 11.230 51.560 43.250 1.085 -0.836 15.980 14.200 12.170 10.940 0.204 0.230 0.269 0.532 0.00 0.00 0.00 0.8100 9.02 6.76 1 1 1 10.730 10.790 11.200 11.280 11.270 2.632 0.010 10.630 10.750 11.130 11.160 11.160 -0.207 -1.345 0.9540 12.832 6.607 6.216 13.302 5.746 7.549
VANMET_231 2015-09-29 22:00:00 231 5603.0 10.800 10.920 11.310 11.340 11.390 49.300 40.840 0.588 -1.491 15.990 14.190 12.170 10.940 0.204 0.230 0.269 0.532 0.00 0.00 0.00 0.7620 7.61 4.53 1 1 1 10.850 11.000 11.380 11.500 11.430 1.393 -0.941 10.730 10.790 11.210 11.280 11.260 -0.678 -1.882 0.8820 12.953 6.374 6.567 13.426 5.476 7.943
VANMET_231 2015-09-29 21:55:00 231 5603.0 10.840 11.070 11.480 11.510 11.560 46.010 39.960 -0.315 -1.631 16.010 14.180 12.170 10.940 0.204 0.230 0.269 0.532 0.00 0.00 0.00 0.4040 17.23 4.55 1 1 1 10.850 11.150 11.590 11.650 11.610 0.132 -1.548 10.820 11.010 11.390 11.490 11.420 -0.512 -1.729 0.7060 12.987 5.969 7.012 13.578 5.420 8.152
VANMET_231 2015-09-29 21:50:00 231 5603.0 10.830 11.220 11.710 11.720 11.840 46.740 38.490 -0.102 -1.947 16.030 14.170 12.170 10.940 0.204 0.230 0.269 0.532 0.00 0.00 0.00 0.4080 6.17 11.70 1 1 1 10.860 11.270 11.810 12.080 11.800 0.504 -1.714 10.820 11.160 11.600 11.670 11.620 -0.726 -2.182 0.5420 12.979 6.063 6.912 13.768 5.295 8.468
VANMET_231 2015-09-29 21:45:00 231 5603.0 10.930 11.330 11.780 11.790 12.060 48.470 37.870 0.486 -2.109 16.040 14.160 12.170 10.940 0.204 0.230 0.269 0.532 0.00 0.00 0.00 0.3910 353.90 13.61 1 1 1 10.990 11.370 11.810 12.200 11.810 1.164 -1.428 10.870 11.280 11.740 11.850 11.760 -0.222 -2.372 0.5880 13.065 6.327 6.732 13.831 5.232 8.594
VANMET_231 2015-09-29 21:40:00 231 5603.0 11.060 11.430 11.820 11.850 12.050 46.800 37.190 0.115 -2.299 16.060 14.160 12.170 10.940 0.204 0.230 0.269 0.532 0.00 0.00 0.00 0.4460 337.50 18.97 1 1 1 11.140 11.440 11.860 12.170 11.900 1.018 -1.581 10.980 11.380 11.780 11.900 11.820 -0.963 -2.630 0.6790 13.179 6.159 7.011 13.886 5.158 8.722
VANMET_231 2015-09-29 21:35:00 231 5603.0 11.140 11.490 11.940 11.960 12.080 45.420 37.550 -0.213 -2.072 16.080 14.150 12.170 10.940 0.204 0.230 0.269 0.532 0.00 0.00 0.00 0.6090 4.63 3.79 1 1 1 11.160 11.500 12.000 12.180 12.000 0.047 -1.842 11.120 11.450 11.870 11.960 11.890 -0.520 -2.228 0.7710 13.249 6.014 7.231 13.988 5.246 8.735
VANMET_231 2015-09-29 21:30:00 231 5603.0 11.170 11.500 12.030 12.000 12.240 44.460 35.520 -0.487 -2.789 16.090 14.140 12.170 10.940 0.204 0.230 0.269 0.532 0.00 0.00 0.00 0.4790 353.60 13.53 1 1 1 11.200 11.540 12.060 12.370 12.030 0.111 -2.237 11.130 11.460 12.010 12.100 11.970 -1.856 -3.279 0.6340 13.275 5.895 7.373 14.025 4.974 9.043
VANMET_231 2015-09-29 21:25:00 231 5603.0 11.150 11.490 12.000 11.950 12.220 40.010 33.900 -1.944 -3.458 16.110 14.130 12.170 10.940 0.204 0.230 0.269 0.532 0.00 0.00 0.00 0.1310 339.70 13.06 1 1 1 11.180 11.530 12.050 12.350 11.980 -1.064 -3.264 11.120 11.410 11.960 12.120 11.930 -2.610 -3.592 0.5290 13.258 5.296 7.953 13.978 4.731 9.240
VANMET_231 2015-09-29 21:20:00 231 5603.0 11.170 11.500 11.970 11.950 12.200 44.040 33.170 -0.608 -3.749 16.120 14.120 12.170 10.940 0.204 0.230 0.269 0.532 0.00 0.00 0.00 0.3970 4.07 20.32 1 1 1 11.190 11.550 11.990 12.310 11.970 -0.064 -3.373 11.150 11.410 11.950 12.080 11.930 -0.993 -4.003 0.7120 13.275 5.843 7.429 13.978 4.629 9.342
VANMET_231 2015-09-29 21:15:00 231 5603.0 11.180 11.490 11.920 11.900 12.120 43.940 34.680 -0.632 -3.197 16.140 14.110 12.170 10.940 0.204 0.230 0.269 0.532 0.00 0.00 0.00 0.7000 5.63 5.47 1 1 1 11.230 11.540 11.960 12.180 11.940 0.094 -2.793 11.150 11.440 11.880 12.010 11.870 -1.262 -3.421 0.8170 13.284 5.833 7.447 13.932 4.825 9.101
VANMET_231 2015-09-29 21:10:00 231 5603.0 11.290 11.490 11.890 11.910 12.090 45.900 36.460 0.063 -2.518 16.150 14.100 12.170 10.940 0.204 0.230 0.269 0.532 0.00 0.00 0.00 0.6640 3.68 2.36 1 1 1 11.350 11.530 11.900 12.190 11.940 0.441 -2.023 11.210 11.440 11.880 12.010 11.870 -0.937 -3.056 0.8230 13.381 6.136 7.239 13.941 5.075 8.858
VANMET_231 2015-09-29 21:05:00 231 5603.0 11.410 11.580 11.910 11.990 12.030 45.800 37.150 0.144 -2.187 16.160 14.090 12.170 10.940 0.204 0.230 0.269 0.532 0.00 0.00 0.00 0.7080 3.97 2.12 1 1 1 11.440 11.630 11.990 12.090 12.060 0.475 -1.904 11.360 11.530 11.870 11.980 11.930 -0.418 -2.873 0.8360 13.488 6.172 7.311 14.015 5.201 8.809
VANMET_231 2015-09-29 21:00:00 231 5603.0 11.450 11.660 12.030 12.110 12.100 45.210 36.760 -0.006 -2.220 16.180 14.080 12.170 10.940 0.204 0.230 0.269 0.532 0.00 0.00 0.00 0.7410 6.68 3.20 1 1 1 11.480 11.670 12.100 12.210 12.180 1.329 -1.816 11.410 11.640 12.000 12.040 12.060 -0.613 -2.482 0.9930 13.524 6.105 7.410 14.127 5.189 8.934
VANMET_231 2015-09-29 20:55:00 231 5603.0 11.540 11.720 12.170 12.270 12.270 48.330 38.070 1.004 -1.612 16.190 14.070 12.170 10.940 0.204 0.230 0.269 0.532 0.00 0.00 0.00 0.7410 6.27 4.47 1 1 1 11.590 11.840 12.250 12.370 12.340 1.496 -1.317 11.470 11.660 12.110 12.200 12.200 0.082 -2.334 0.8170 13.605 6.569 7.030 14.276 5.427 8.841
VANMET_231 2015-09-29 20:50:00 231 5603.0 11.590 11.900 12.290 12.390 12.430 45.620 37.330 0.253 -1.762 16.200 14.060 12.170 10.940 0.204 0.230 0.269 0.532 0.00 0.00 0.00 0.7180 17.40 5.70 1 1 1 11.610 11.950 12.330 12.470 12.420 0.882 -1.458 11.570 11.850 12.260 12.360 12.360 -0.599 -1.921 0.9540 13.650 6.221 7.423 14.389 5.368 9.018
VANMET_231 2015-09-29 20:45:00 231 5603.0 11.660 11.990 12.430 12.500 12.500 45.700 37.600 0.331 -1.569 16.210 14.050 12.170 10.940 0.204 0.230 0.269 0.532 0.00 0.00 0.00 0.5980 357.40 15.43 1 1 1 11.730 12.060 12.500 12.710 12.570 1.841 -1.355 11.610 11.940 12.340 12.350 12.420 -0.654 -1.802 1.0190 13.713 6.256 7.446 14.494 5.445 9.044
VANMET_231 2015-09-29 20:40:00 231 5603.0 11.740 12.040 12.460 12.500 12.740 43.230 36.620 -0.355 -1.929 16.220 14.040 12.170 10.940 0.204 0.230 0.269 0.532 0.00 0.00 0.00 0.4830 342.50 29.13 1 1 1 11.760 12.110 12.540 12.980 12.560 0.621 -1.663 11.720 11.990 12.400 12.510 12.470 -0.990 -2.161 0.8360 13.786 5.952 7.826 14.494 5.302 9.186
VANMET_231 2015-09-29 20:35:00 231 5603.0 11.720 12.040 12.440 12.510 12.530 40.600 34.820 -1.230 -2.604 16.230 14.030 12.170 10.940 0.204 0.230 0.269 0.532 0.00 0.00 0.00 0.7730 3.10 5.47 1 1 1 11.740 12.100 12.520 12.630 12.550 -0.473 -2.192 11.680 12.010 12.400 12.430 12.460 -1.968 -2.964 0.9280 13.768 5.582 8.178 14.503 5.043 9.453
VANMET_231 2015-09-29 20:30:00 231 5603.0 11.620 11.970 12.410 12.410 12.660 37.910 33.470 -2.246 -3.224 16.240 14.020 12.170 10.940 0.204 0.230 0.269 0.532 0.00 0.00 0.00 0.7710 4.56 8.26 1 1 1 11.680 12.080 12.520 12.850 12.520 -1.736 -2.980 11.560 11.840 12.260 12.450 12.300 -2.835 -3.740 1.0130 13.677 5.179 8.492 14.408 4.815 9.586
VANMET_231 2015-09-29 20:25:00 231 5603.0 11.480 11.740 12.170 12.280 12.290 37.400 31.790 -2.556 -4.029 16.250 14.010 12.170 10.940 0.204 0.230 0.269 0.532 0.00 0.00 0.00 0.7930 2.95 9.15 1 1 1 11.540 11.830 12.250 12.440 12.320 -1.887 -3.749 11.420 11.690 12.130 12.170 12.240 -3.236 -4.174 1.0060 13.551 5.061 8.483 14.286 4.533 9.744
VANMET_231 2015-09-29 20:20:00 231 5603.0 11.490 11.700 12.160 12.290 12.340 37.260 29.520 -2.599 -5.003 16.260 13.990 12.170 10.940 0.204 0.230 0.269 0.532 0.00 0.00 0.00 0.8960 1.25 4.47 1 1 1 11.570 11.800 12.200 12.520 12.330 -2.198 -4.121 11.410 11.650 12.110 12.150 12.230 -3.120 -5.443 1.0580 13.560 5.045 8.507 14.295 4.211 10.075
VANMET_231 2015-09-29 20:15:00 231 5603.0 11.580 11.850 12.220 12.340 12.290 32.220 27.430 -4.459 -5.930 16.270 13.980 12.170 10.940 0.204 0.230 0.269 0.532 0.00 0.00 0.00 0.8210 6.46 4.17 1 1 1 11.600 11.890 12.260 12.390 12.430 -3.686 -5.351 11.560 11.810 12.160 12.170 12.270 -4.965 -6.386 1.1110 13.641 4.388 9.246 14.342 3.923 10.408
VANMET_231 2015-09-29 20:10:00 231 5603.0 11.550 11.950 12.330 12.530 12.420 30.780 25.230 -5.101 -6.851 16.270 13.970 12.170 10.940 0.204 0.230 0.269 0.532 0.00 0.00 0.00 1.0550 16.45 3.12 1 1 1 11.600 12.000 12.360 12.470 12.580 -4.538 -6.422 11.480 11.900 12.270 12.360 12.430 -5.835 -7.226 1.1300 13.614 4.180 9.423 14.522 3.655 10.858
VANMET_231 2015-09-29 20:05:00 231 5603.0 11.470 12.000 12.350 12.580 12.410 33.250 23.480 -4.197 -7.739 16.280 13.960 12.170 10.940 0.204 0.230 0.269 0.532 0.00 0.00 0.00 0.9620 24.33 2.93 1 1 1 11.510 12.020 12.360 12.440 12.610 -1.601 -7.289 11.430 11.970 12.340 12.370 12.550 -6.095 -8.120 1.1370 13.542 4.476 9.039 14.570 3.412 11.149
VANMET_231 2015-09-29 20:00:00 231 5603.0 11.500 11.900 12.280 12.510 12.350 34.500 22.160 -3.694 -8.540 16.280 13.950 12.170 10.940 0.204 0.230 0.269 0.532 0.00 0.00 0.00 1.0880 22.87 3.12 1 1 1 11.520 11.960 12.330 12.430 12.560 -1.350 -8.160 11.470 11.880 12.260 12.280 12.480 -6.044 -8.830 1.2670 13.569 4.648 8.888 14.503 3.206 11.289
VANMET_231 2015-09-29 19:55:00 231 5603.0 11.490 11.860 12.290 12.500 12.400 35.320 21.110 -3.436 -9.170 16.290 13.930 12.170 10.940 0.204 0.230 0.269 0.532 0.00 0.00 0.00 1.1440 19.28 1.91 1 1 1 11.540 11.900 12.310 12.460 12.540 -0.277 -8.830 11.460 11.810 12.250 12.310 12.470 -5.793 -9.410 1.2150 13.560 4.739 8.770 14.494 3.051 11.434
VANMET_231 2015-09-29 19:50:00 231 5603.0 11.530 11.800 12.270 12.490 12.440 33.900 20.700 -3.903 -9.430 16.290 13.920 12.170 10.940 0.204 0.230 0.269 0.532 0.00 0.00 0.00 0.8140 26.98 7.05 1 1 1 11.550 11.820 12.300 12.490 12.510 -0.192 -9.190 11.500 11.780 12.240 12.390 12.470 -5.567 -9.630 1.2150 13.596 4.576 8.987 14.484 2.989 11.486
VANMET_231 2015-09-29 19:45:00 231 5603.0 11.570 11.830 12.320 12.500 12.480 34.840 21.050 -3.502 -9.210 16.300 13.910 12.170 10.940 0.204 0.230 0.269 0.532 0.00 0.00 0.00 0.7370 31.01 5.89 1 1 1 11.620 11.840 12.330 12.510 12.530 -0.294 -8.910 11.520 11.810 12.300 12.440 12.460 -5.452 -9.450 0.8950 13.632 4.716 8.882 14.494 3.041 11.443
VANMET_231 2015-09-29 19:40:00 231 5603.0 11.680 11.890 12.310 12.420 12.430 33.990 22.510 -3.733 -8.420 16.300 13.900 12.170 10.940 0.204 0.230 0.269 0.532 0.00 0.00 0.00 0.9020 20.41 7.65 1 1 1 11.720 11.940 12.340 12.520 12.480 -0.760 -7.440 11.630 11.840 12.290 12.360 12.390 -5.886 -9.260 1.1240 13.731 4.635 9.064 14.418 3.236 11.172
VANMET_231 2015-09-29 19:35:00 231 5603.0 11.790 11.970 12.380 12.480 12.500 36.660 25.350 -2.586 -6.834 16.300 13.880 12.170 10.940 0.204 0.230 0.269 0.532 0.00 0.00 0.00 0.8260 11.23 5.05 1 1 1 11.850 12.010 12.430 12.560 12.540 -0.409 -6.105 11.720 11.920 12.320 12.420 12.420 -4.618 -7.471 1.0000 13.831 5.050 8.761 14.475 3.660 10.805
VANMET_231 2015-09-29 19:30:00 231 5603.0 11.910 12.060 12.480 12.600 12.590 41.980 29.150 -0.637 -4.915 16.300 13.870 12.170 10.940 0.204 0.230 0.269 0.532 0.00 0.00 0.00 0.9550 14.84 5.89 1 1 1 11.950 12.110 12.530 12.650 12.690 1.370 -3.513 11.850 12.010 12.430 12.510 12.520 -2.115 -6.719 1.1830 13.941 5.830 8.089 14.589 4.239 10.336
VANMET_231 2015-09-29 19:25:00 231 5603.0 12.010 12.180 12.630 12.830 12.710 42.150 30.850 -0.488 -3.954 16.300 13.860 12.170 10.940 0.204 0.230 0.269 0.532 0.00 0.00 0.00 0.8690 19.53 7.90 1 1 1 12.070 12.250 12.720 12.850 12.950 1.466 -2.908 11.940 12.120 12.540 12.600 12.710 -2.060 -5.522 1.1500 14.034 5.894 8.119 14.811 4.558 10.242
VANMET_231 2015-09-29 19:20:00 231 5603.0 12.110 12.320 12.830 13.060 12.920 45.480 30.890 0.663 -3.730 16.300 13.840 12.170 10.940 0.204 0.230 0.269 0.532 0.00 0.00 0.00 0.7920 22.23 9.58 1 1 1 12.140 12.370 12.890 13.060 13.140 2.800 -2.686 12.060 12.240 12.730 12.770 12.980 -1.377 -4.753 1.0650 14.127 6.409 7.702 15.035 4.636 10.391
VANMET_231 2015-09-29 19:15:00 231 5603.0 12.170 12.390 12.950 13.220 13.000 47.140 30.270 1.219 -3.875 16.300 13.830 12.170 10.940 0.204 0.230 0.269 0.532 0.00 0.00 0.00 0.5560 36.00 16.06 1 1 1 12.220 12.440 13.020 13.140 13.330 2.728 -2.704 12.140 12.360 12.900 12.900 13.150 -0.327 -6.062 0.7190 14.182 6.671 7.497 15.193 4.585 10.594
VANMET_231 2015-09-29 19:10:00 231 5603.0 12.260 12.520 13.080 13.290 13.210 45.310 27.780 0.746 -4.995 16.290 13.820 12.170 10.940 0.204 0.230 0.269 0.532 0.00 0.00 0.00 0.5630 24.00 29.28 1 1 1 12.300 12.560 13.140 13.530 13.350 2.469 -2.714 12.200 12.450 13.010 12.990 13.220 -1.215 -7.196 0.9150 14.267 6.447 7.802 15.263 4.213 11.023
VANMET_231 2015-09-29 19:05:00 231 5603.0 12.290 12.540 13.040 13.220 13.320 42.060 30.020 -0.290 -4.050 16.290 13.800 12.170 10.940 0.204 0.230 0.269 0.532 0.00 0.00 0.00 0.6440 21.68 23.10 1 1 1 12.350 12.590 13.110 13.720 13.300 1.928 -1.576 12.260 12.450 12.910 12.970 13.110 -4.149 -8.380 1.0130 14.295 5.980 8.282 15.193 4.525 10.632
VANMET_231 2015-09-29 19:00:00 231 5603.0 12.410 12.600 13.040 13.210 13.130 46.410 33.390 1.217 -2.573 16.280 13.790 12.170 10.940 0.204 0.230 0.269 0.532 0.00 0.00 0.00 0.5490 19.53 21.29 1 1 1 12.470 12.700 13.130 13.280 13.280 2.336 -0.928 12.350 12.520 12.980 13.010 13.170 -0.884 -4.249 0.9540 14.408 6.670 7.721 15.183 5.054 10.114
VANMET_231 2015-09-29 18:55:00 231 5603.0 12.570 12.700 13.120 13.270 13.300 46.250 34.370 1.306 -2.128 16.270 13.780 12.170 10.940 0.204 0.230 0.269 0.532 0.00 0.00 0.00 0.6790 12.68 31.14 1 1 1 12.670 12.760 13.190 13.670 13.310 3.050 -0.316 12.470 12.630 13.090 13.120 13.250 -1.296 -3.410 0.9540 14.560 6.713 7.826 15.243 5.224 10.004
VANMET_231 2015-09-29 18:50:00 231 5603.0 12.770 12.810 13.170 13.320 13.300 46.740 37.340 1.655 -0.961 16.270 13.760 12.170 10.940 0.204 0.230 0.269 0.532 0.00 0.00 0.00 0.5840 22.33 32.41 1 1 1 12.860 12.890 13.240 13.490 13.400 2.836 0.774 12.680 12.740 13.140 13.130 13.270 -0.130 -3.106 0.9410 14.753 6.884 7.857 15.293 5.694 9.582
VANMET_231 2015-09-29 18:45:00 231 5603.0 13.000 13.010 13.340 13.470 13.440 46.040 38.130 1.646 -0.549 16.260 13.750 12.170 10.940 0.204 0.230 0.269 0.532 0.00 0.00 0.00 0.6200 8.73 26.32 1 1 1 13.110 13.140 13.470 13.910 13.560 3.223 1.295 12.870 12.910 13.250 13.240 13.370 0.045 -2.493 1.0520 14.976 6.879 8.081 15.443 5.868 9.555
VANMET_231 2015-09-29 18:40:00 231 5603.0 13.260 13.250 13.560 13.700 13.560 46.970 40.980 2.173 0.641 16.240 13.740 12.170 10.940 0.204 0.230 0.269 0.532 0.00 0.00 0.00 0.5250 3.50 29.45 1 1 1 13.400 13.420 13.760 13.840 13.910 3.443 2.464 13.120 13.110 13.400 13.340 13.520 0.767 -1.838 0.7120 15.233 7.144 8.078 15.676 6.399 9.252
VANMET_231 2015-09-29 18:35:00 231 5603.0 13.490 13.600 13.960 14.090 14.040 45.050 38.640 1.787 0.179 16.230 13.720 12.170 10.940 0.204 0.230 0.269 0.532 0.00 0.00 0.00 0.6700 3.89 34.95 1 1 1 13.600 13.720 14.090 14.490 14.190 3.449 1.653 13.400 13.430 13.770 13.670 13.960 -1.165 -3.194 1.5220 15.463 6.949 8.497 16.078 6.188 9.866
VANMET_231 2015-09-29 18:30:00 231 5603.0 13.680 13.870 14.230 14.330 14.460 37.930 31.430 -0.454 -2.443 16.220 13.710 12.170 10.940 0.204 0.230 0.269 0.532 0.00 0.00 0.00 0.5090 9.97 37.53 1 1 1 13.740 13.970 14.310 14.840 14.390 1.598 0.687 13.590 13.730 14.090 14.080 14.220 -3.058 -4.013 0.7250 15.656 5.909 9.718 16.330 5.104 11.198
VANMET_231 2015-09-29 18:25:00 231 5603.0 13.780 13.950 14.270 14.390 14.510 40.640 32.190 0.596 -2.057 16.200 13.690 12.170 10.940 0.204 0.230 0.269 0.532 0.00 0.00 0.00 0.7590 352.00 41.77 1 1 1 13.840 14.030 14.340 14.860 14.490 2.372 -0.027 13.730 13.880 14.230 14.330 14.340 -2.403 -4.600 1.1960 15.758 6.378 9.354 16.394 5.252 11.117
VANMET_231 2015-09-29 18:20:00 231 5603.0 13.860 14.060 14.390 14.510 14.670 39.030 32.450 0.132 -1.809 16.190 13.680 12.170 10.940 0.204 0.230 0.269 0.532 0.00 0.00 0.00 0.6480 352.00 50.93 1 1 1 13.910 14.130 14.450 14.900 14.530 1.946 0.224 13.810 14.020 14.350 14.530 14.480 -1.815 -2.727 1.0260 15.840 6.167 9.658 16.521 5.349 11.160
VANMET_231 2015-09-29 18:15:00 231 5603.0 13.900 14.060 14.380 14.470 14.720 40.210 33.900 0.571 -1.241 16.170 13.670 12.170 10.940 0.204 0.230 0.269 0.532 0.00 0.00 0.00 0.6820 358.90 53.29 1 1 1 13.930 14.090 14.420 14.920 14.510 1.944 0.569 13.860 14.000 14.320 14.600 14.430 -1.474 -2.436 1.4370 15.881 6.366 9.495 16.479 5.578 10.892
VANMET_231 2015-09-29 18:10:00 231 5603.0 13.950 14.070 14.400 14.520 14.580 42.990 35.760 1.571 -0.479 16.150 13.650 12.170 10.940 0.204 0.230 0.269 0.532 0.00 0.00 0.00 0.6220 354.40 36.58 1 1 1 14.030 14.170 14.520 14.720 14.600 2.541 1.194 13.890 14.020 14.330 14.450 14.450 0.437 -1.569 1.1240 15.933 6.842 9.083 16.532 5.898 10.620
VANMET_231 2015-09-29 18:05:00 231 5603.0 14.110 14.280 14.610 14.710 14.790 45.030 37.300 2.364 0.269 16.130 13.640 12.170 10.940 0.204 0.230 0.269 0.532 0.00 0.00 0.00 0.8600 349.30 23.85 1 1 1 14.150 14.370 14.690 15.030 14.800 3.296 2.328 14.040 14.170 14.520 14.500 14.610 1.267 -1.085 1.8230 16.099 7.242 8.850 16.736 6.228 10.494
VANMET_231 2015-09-29 18:00:00 231 5603.0 14.200 14.370 14.740 14.840 14.910 46.260 39.530 2.820 1.197 16.110 13.630 12.170 10.940 0.205 0.230 0.269 0.532 0.00 0.00 0.00 0.9420 351.10 26.31 1 1 1 14.260 14.430 14.820 15.160 14.930 3.846 2.738 14.130 14.290 14.640 14.710 14.760 0.237 -1.000 1.9990 16.193 7.481 8.702 16.877 6.661 10.206
VANMET_231 2015-09-29 17:55:00 231 5603.0 14.370 14.440 14.800 14.930 14.930 46.820 39.640 3.144 1.316 16.080 13.620 12.170 10.940 0.205 0.230 0.269 0.532 0.07 0.00 0.00 0.6880 0.57 33.97 1 1 1 14.520 14.540 14.870 15.150 15.030 4.298 2.503 14.250 14.340 14.690 14.690 14.850 1.732 -0.425 1.4630 16.372 7.655 8.707 16.975 6.718 10.246
VANMET_231 2015-09-29 17:50:00 231 5603.0 14.610 14.700 15.010 15.190 15.140 47.020 40.350 3.432 1.809 16.060 13.600 12.170 10.940 0.205 0.230 0.269 0.532 1.55 0.00 0.00 0.7090 335.10 28.72 1 1 1 14.750 14.810 15.140 15.430 15.330 4.263 2.844 14.530 14.560 14.890 14.940 15.040 1.103 0.987 1.4110 16.628 7.813 8.810 17.262 6.960 10.297
VANMET_231 2015-09-29 17:45:00 231 5603.0 14.880 14.960 15.310 15.510 15.390 46.240 40.160 3.439 2.024 16.030 13.590 12.170 10.930 0.205 0.230 0.269 0.532 3.98 0.00 0.00 0.5060 10.29 46.85 1 1 1 15.030 15.090 15.450 15.700 15.670 4.261 2.736 14.730 14.820 15.150 15.200 15.340 1.741 0.975 1.2940 16.921 7.817 9.097 17.620 7.068 10.544
VANMET_231 2015-09-29 17:40:00 231 5603.0 15.190 15.260 15.620 15.830 15.670 45.380 39.030 3.451 1.908 16.000 13.580 12.170 10.930 0.205 0.230 0.269 0.532 6.53 0.00 0.00 0.6260 311.00 38.03 1 1 1 15.320 15.400 15.770 15.920 15.960 4.638 3.472 15.050 15.100 15.460 15.310 15.690 1.674 0.696 1.3200 17.262 7.823 9.428 17.985 7.010 10.965
VANMET_231 2015-09-29 17:35:00 231 5603.0 15.460 15.630 15.950 16.100 16.040 43.560 37.750 3.118 1.694 15.980 13.560 12.170 10.930 0.205 0.230 0.269 0.532 8.77 0.00 0.00 0.6570 336.70 33.11 1 1 1 15.530 15.770 16.070 16.490 16.180 4.458 2.517 15.340 15.420 15.760 15.610 15.970 1.713 0.757 1.5550 17.563 7.641 9.913 18.298 6.903 11.390
VANMET_231 2015-09-29 17:30:00 231 5603.0 15.620 15.760 16.090 16.260 16.140 44.980 38.330 3.711 2.040 15.950 13.550 12.170 10.930 0.205 0.230 0.269 0.532 10.80 0.00 0.00 0.7410 338.40 54.69 1 1 1 15.730 15.850 16.190 16.440 16.370 5.300 3.148 15.520 15.670 16.010 15.840 16.170 2.166 1.139 1.8880 17.745 7.968 9.763 18.485 7.076 11.400
VANMET_231 2015-09-29 17:25:00 231 5603.0 15.820 15.960 16.310 16.500 16.390 44.390 37.890 3.711 2.101 15.910 13.540 12.170 10.930 0.205 0.230 0.269 0.532 12.51 0.00 0.00 0.3410 319.20 48.84 1 1 1 15.940 16.040 16.420 16.600 16.620 5.139 2.860 15.740 15.860 16.200 16.210 16.380 2.031 1.287 0.7710 17.973 7.968 9.995 18.770 7.107 11.658
VANMET_231 2015-09-29 17:20:00 231 5603.0 16.040 16.220 16.580 16.800 16.440 45.960 38.600 4.395 2.619 15.880 13.530 12.170 10.930 0.205 0.230 0.269 0.532 22.02 0.00 0.00 0.5270 300.70 54.72 1 1 1 16.130 16.390 16.750 16.740 16.960 5.686 4.166 15.920 16.070 16.440 16.260 16.620 1.957 1.344 1.3590 18.228 8.361 9.850 19.131 7.375 11.747
VANMET_231 2015-09-29 17:15:00 231 5603.0 16.170 16.500 16.870 17.160 16.940 41.830 35.620 3.186 1.823 15.850 13.510 12.170 10.930 0.205 0.230 0.269 0.532 29.80 0.00 0.00 0.6750 295.00 55.22 1 1 1 16.210 16.630 17.000 17.390 17.340 4.092 2.878 16.130 16.400 16.760 16.650 17.000 1.878 0.989 1.7250 18.379 7.678 10.691 19.573 6.967 12.601
VANMET_231 2015-09-29 17:10:00 231 5603.0 16.260 16.600 17.010 17.410 17.140 42.810 35.130 3.584 1.848 15.810 13.500 12.170 10.930 0.205 0.230 0.269 0.532 64.56 0.00 0.00 0.7100 302.70 49.47 1 1 1 16.320 16.680 17.100 17.450 17.480 5.265 3.417 16.190 16.540 16.950 16.940 17.330 1.764 0.954 1.1890 18.485 7.897 10.572 19.885 6.980 12.899
VANMET_231 2015-09-29 17:05:00 231 5603.0 16.410 16.720 17.170 17.610 17.110 44.720 37.420 4.369 2.912 15.770 13.490 12.170 10.930 0.205 0.230 0.269 0.532 100.90 0.00 0.00 0.4490 298.20 39.29 1 1 1 16.560 16.880 17.280 17.400 17.760 4.810 3.723 16.300 16.630 17.080 16.880 17.480 3.835 1.626 0.7910 18.663 8.346 10.317 20.137 7.530 12.602
VANMET_231 2015-09-29 17:00:00 231 5603.0 16.730 17.020 17.420 17.920 17.310 44.230 36.800 4.495 2.958 15.740 13.480 12.170 10.930 0.205 0.230 0.269 0.532 116.70 0.00 0.00 0.4600 247.90 48.22 1 1 1 16.910 17.190 17.530 17.500 18.000 5.846 3.590 16.560 16.890 17.290 17.160 17.790 3.855 2.572 0.7910 19.046 8.420 10.622 20.534 7.555 12.978
VANMET_231 2015-09-29 16:55:00 231 5603.0 17.140 17.420 17.730 18.290 17.370 44.350 37.360 4.906 3.482 15.700 13.470 12.170 10.930 0.205 0.230 0.269 0.532 132.10 0.00 0.00 0.4970 277.70 41.86 1 1 1 17.380 17.770 18.070 17.920 18.660 5.559 4.713 16.910 17.220 17.550 17.090 18.000 2.943 1.748 0.9870 19.548 8.666 10.878 21.017 7.840 13.165
VANMET_231 2015-09-29 16:50:00 231 5603.0 17.700 18.160 18.370 19.040 17.900 39.790 32.700 3.860 2.267 15.660 13.460 12.170 10.930 0.205 0.230 0.269 0.532 147.10 0.00 0.00 0.4510 266.60 66.68 1 1 1 17.890 18.590 18.660 18.070 19.450 4.981 3.770 17.420 17.760 18.060 17.760 18.700 2.677 1.154 1.0390 20.252 8.052 12.194 22.026 7.192 14.824
VANMET_231 2015-09-29 16:45:00 231 5603.0 18.220 19.350 19.040 19.850 18.240 36.990 30.040 3.272 1.791 15.620 13.440 12.170 10.930 0.205 0.230 0.269 0.532 161.90 0.00 0.00 0.3310 303.30 11.39 1 1 1 18.550 20.240 19.400 18.480 20.100 4.551 2.792 17.930 18.650 18.690 17.990 19.510 0.768 0.418 1.1370 20.925 7.725 13.185 23.164 6.951 16.206
VANMET_231 2015-09-29 16:40:00 231 5603.0 18.860 20.810 19.630 20.110 18.800 36.400 30.660 3.619 2.315 15.580 13.430 12.170 10.930 0.205 0.230 0.269 0.532 179.60 0.00 0.00 0.1260 324.20 52.65 1 1 1 19.030 21.010 19.770 19.050 20.170 4.967 2.999 18.610 20.330 19.420 18.420 20.070 2.195 1.686 0.7710 21.780 7.917 13.852 23.540 7.217 16.323
VANMET_231 2015-09-29 16:35:00 231 5603.0 19.300 20.620 19.930 20.020 18.800 37.840 33.980 4.580 3.677 15.540 13.420 12.170 10.930 0.205 0.230 0.269 0.532 196.50 0.00 0.00 0.5840 292.40 28.51 1 1 1 19.510 20.890 20.040 18.980 20.060 5.521 4.759 19.040 20.430 19.790 18.610 20.000 3.524 2.421 1.4240 22.386 8.470 13.915 23.409 7.949 15.455
VANMET_231 2015-09-29 16:30:00 231 5603.0 19.880 20.370 20.040 20.010 19.050 39.490 35.300 5.690 4.186 15.500 13.410 12.170 10.930 0.205 0.230 0.269 0.532 212.70 0.00 0.00 1.2940 241.60 42.56 1 1 1 20.120 20.470 20.090 19.410 20.070 6.813 5.983 19.530 20.300 20.000 18.730 19.970 3.454 2.655 2.5940 23.207 9.152 14.043 23.395 8.239 15.136
VANMET_231 2015-09-29 16:25:00 231 5603.0 20.350 20.630 20.310 20.220 19.240 37.280 34.190 5.284 3.926 15.460 13.400 12.170 10.930 0.205 0.230 0.269 0.532 227.10 0.00 0.00 1.4500 229.10 35.67 1 1 1 20.570 21.020 20.610 19.460 20.470 6.628 6.207 20.150 20.410 20.140 19.030 20.070 3.903 2.720 2.0250 23.892 8.897 14.985 23.701 8.090 15.597
VANMET_231 2015-09-29 16:20:00 231 5603.0 20.700 21.150 20.570 20.430 19.310 37.510 34.670 5.689 4.316 15.410 13.390 12.170 10.930 0.205 0.230 0.269 0.532 221.80 0.00 0.00 0.8700 223.90 41.62 1 1 1 20.940 21.300 20.670 19.460 20.460 6.314 5.697 20.560 21.050 20.510 19.260 20.400 4.107 3.063 1.6790 24.413 9.151 15.255 24.010 8.315 15.686
VANMET_231 2015-09-29 16:15:00 231 5603.0 21.220 21.550 20.850 20.660 19.730 33.990 32.980 4.718 3.800 15.370 13.380 12.170 10.930 0.205 0.230 0.269 0.532 258.60 0.00 0.00 1.4230 209.60 38.95 1 1 1 21.560 22.060 21.230 19.950 20.900 6.399 5.262 20.910 21.110 20.490 19.230 20.410 2.855 2.162 3.4370 25.205 8.552 16.638 24.353 8.018 16.321
VANMET_231 2015-09-29 16:10:00 231 5603.0 21.710 21.920 21.070 20.810 20.010 33.250 32.880 4.857 3.901 15.320 13.370 12.170 10.930 0.205 0.230 0.269 0.532 273.70 0.00 0.00 1.2010 252.50 25.94 1 1 1 21.850 22.110 21.230 20.330 20.890 5.664 4.909 21.580 21.790 20.990 19.660 20.750 4.090 2.945 1.7840 25.973 8.636 17.337 24.578 8.076 16.497
VANMET_231 2015-09-29 16:05:00 231 5603.0 21.870 22.100 21.210 20.980 20.240 32.280 31.860 4.568 3.598 15.280 13.370 12.170 10.930 0.205 0.230 0.269 0.532 288.90 0.00 0.00 1.4010 214.20 34.28 1 1 1 21.930 22.330 21.410 20.350 21.130 5.976 5.427 21.800 21.920 20.980 20.040 20.740 3.605 2.630 2.8420 26.227 8.463 17.761 24.837 7.905 16.924
VANMET_231 2015-09-29 16:00:00 231 5603.0 22.060 22.300 21.500 21.310 20.380 33.590 33.430 5.283 4.568 15.230 13.360 12.170 10.930 0.205 0.230 0.269 0.532 304.10 0.00 0.00 1.3400 231.40 24.74 1 1 1 22.170 22.530 21.760 20.520 21.530 7.049 6.381 21.920 22.010 21.210 20.080 21.070 3.960 3.602 2.6460 26.533 8.896 17.621 25.345 8.463 16.872
VANMET_231 2015-09-29 15:55:00 231 5603.0 22.190 22.690 21.930 21.650 20.460 33.360 32.620 5.313 4.523 15.190 13.350 12.170 10.930 0.205 0.230 0.269 0.532 318.20 0.00 0.00 1.2020 260.40 43.77 1 1 1 22.250 22.830 22.020 20.650 21.730 6.575 5.640 22.140 22.470 21.790 20.290 21.540 4.019 3.308 2.0970 26.744 8.915 17.822 25.877 8.436 17.436
VANMET_231 2015-09-29 15:50:00 231 5603.0 22.260 22.440 21.650 21.320 20.510 34.350 34.430 5.802 5.012 15.140 13.340 12.170 10.930 0.205 0.230 0.269 0.532 334.10 0.00 0.00 0.5810 254.30 76.34 1 1 1 22.380 22.750 21.890 20.710 21.550 7.317 6.532 22.170 22.080 21.420 20.310 21.140 4.969 4.018 1.7900 26.858 9.223 17.632 25.360 8.730 16.629
VANMET_231 2015-09-29 15:45:00 231 5603.0 22.460 22.310 21.610 21.320 20.830 33.520 34.080 5.609 4.861 15.090 13.330 12.170 10.930 0.205 0.230 0.269 0.532 350.20 0.00 0.00 1.6910 205.70 47.23 1 1 1 22.760 22.870 21.970 21.060 21.570 7.173 6.598 22.250 22.010 21.390 20.620 21.140 4.256 3.962 3.5800 27.187 9.100 18.074 25.360 8.638 16.717
VANMET_231 2015-09-29 15:40:00 231 5603.0 22.810 22.760 21.870 21.550 20.920 34.740 34.700 6.428 5.310 15.040 13.330 12.170 10.930 0.205 0.230 0.269 0.532 363.30 0.00 0.00 1.6670 226.90 46.37 1 1 1 22.960 22.990 22.050 21.140 21.650 7.917 7.438 22.650 22.540 21.740 20.600 21.470 4.741 4.001 2.9400 27.770 9.631 18.123 25.720 8.913 16.795
VANMET_231 2015-09-29 15:35:00 231 5603.0 22.630 22.540 21.710 21.430 20.870 33.550 34.220 5.777 5.016 15.000 13.320 12.170 10.930 0.205 0.230 0.269 0.532 378.20 0.00 0.00 1.2210 247.40 56.81 1 1 1 22.850 22.780 21.850 21.120 21.600 7.724 6.017 22.520 22.360 21.590 20.620 21.370 4.660 3.979 2.4890 27.468 9.207 18.253 25.532 8.732 16.795
VANMET_231 2015-09-29 15:30:00 231 5603.0 23.020 22.960 22.070 21.680 21.150 32.890 33.790 5.824 5.055 14.950 13.310 12.170 10.930 0.205 0.230 0.269 0.532 392.50 0.00 0.00 1.2170 241.40 47.62 1 1 1 23.130 23.250 22.230 21.420 21.760 7.548 6.813 22.900 22.800 21.950 20.910 21.630 4.573 4.332 2.7900 28.125 9.237 18.875 25.925 8.756 17.165
VANMET_231 2015-09-29 15:25:00 231 5603.0 23.250 23.120 22.360 22.010 21.470 33.670 33.460 6.365 5.210 14.900 13.310 12.170 10.930 0.205 0.230 0.269 0.532 406.70 0.00 0.00 1.6470 233.00 18.58 1 1 1 23.490 23.680 22.770 21.720 22.230 8.290 6.307 23.060 22.750 22.020 21.250 21.690 4.956 4.504 2.7830 28.519 9.589 18.916 26.452 8.851 17.601
VANMET_231 2015-09-29 15:20:00 231 5603.0 23.300 23.410 22.570 22.040 21.680 33.530 34.740 6.358 5.776 14.850 13.300 12.170 10.930 0.205 0.230 0.269 0.532 419.90 0.00 0.00 1.0450 247.20 38.27 1 1 1 23.500 23.900 22.950 21.860 22.260 7.601 6.814 23.150 22.930 22.210 21.480 21.880 5.009 4.548 2.8810 28.605 9.585 19.014 26.501 9.207 17.294
VANMET_231 2015-09-29 15:15:00 231 5603.0 23.290 23.200 22.480 22.100 21.800 34.410 34.910 6.718 5.883 14.800 13.290 12.170 10.930 0.205 0.230 0.269 0.532 433.50 0.00 0.00 1.4480 254.40 37.51 1 1 1 23.410 23.360 22.650 22.040 22.190 8.540 7.611 23.220 23.040 22.310 21.540 22.010 5.187 4.747 2.3910 28.587 9.826 18.751 26.598 9.275 17.312
VANMET_231 2015-09-29 15:10:00 231 5603.0 23.410 23.430 22.650 22.210 21.950 33.010 34.310 6.230 5.742 14.750 13.290 12.170 10.930 0.205 0.230 0.269 0.532 446.70 0.00 0.00 1.4130 261.60 38.74 1 1 1 23.530 23.800 22.970 22.160 22.410 7.907 7.274 23.300 23.020 22.350 21.650 21.990 5.035 4.659 3.6850 28.795 9.500 19.290 26.776 9.185 17.589
VANMET_231 2015-09-29 15:05:00 231 5603.0 23.340 23.100 22.440 22.150 21.980 34.260 34.420 6.710 5.731 14.700 13.280 12.170 10.930 0.205 0.230 0.269 0.532 460.90 0.00 0.00 1.9200 245.10 57.52 1 1 1 23.410 23.310 22.650 22.120 22.310 8.440 6.944 23.290 22.940 22.220 21.760 21.950 5.275 4.560 4.8800 28.674 9.820 18.850 26.679 9.178 17.496
VANMET_231 2015-09-29 15:00:00 231 5603.0 23.410 23.070 22.550 22.310 22.070 33.500 33.910 6.437 5.662 14.650 13.280 12.170 10.930 0.205 0.230 0.269 0.532 474.10 0.00 0.00 1.7720 254.60 44.26 1 1 1 23.510 23.240 22.750 22.460 22.410 8.260 6.995 23.300 22.910 22.320 21.620 22.160 5.006 4.782 5.4290 28.795 9.637 19.149 26.940 9.134 17.805
VANMET_231 2015-09-29 14:55:00 231 5603.0 23.970 23.400 22.930 22.780 22.280 31.060 32.130 5.831 5.294 14.600 13.270 12.170 10.930 0.205 0.230 0.269 0.532 487.90 0.00 0.00 2.0070 242.80 32.91 1 1 1 24.440 24.100 23.540 22.990 23.190 7.225 6.242 23.500 22.990 22.540 21.740 22.350 4.584 4.385 3.5350 29.782 9.242 20.532 27.719 8.903 18.813
VANMET_231 2015-09-29 14:50:00 231 5603.0 24.510 24.000 23.450 23.130 22.950 32.580 32.870 6.991 5.933 14.550 13.270 12.170 10.930 0.205 0.230 0.269 0.532 500.10 0.00 0.00 2.0820 239.40 42.30 1 1 1 24.590 24.140 23.580 23.160 23.180 8.540 7.000 24.410 23.790 23.280 22.630 23.070 5.406 5.050 4.6910 30.761 10.012 20.739 28.313 9.307 19.006
VANMET_231 2015-09-29 14:45:00 231 5603.0 24.470 24.100 23.440 23.020 22.900 32.350 33.530 6.848 6.112 14.500 13.270 12.170 10.930 0.205 0.230 0.269 0.532 510.70 0.00 0.00 1.5430 225.40 30.39 1 1 1 24.560 24.320 23.690 23.360 23.190 9.210 8.130 24.400 23.890 23.240 22.620 22.910 5.028 4.592 2.9070 30.688 9.914 20.760 28.125 9.423 18.695
VANMET_231 2015-09-29 14:40:00 231 5603.0 24.390 23.790 23.220 22.920 22.680 30.830 31.870 6.079 5.283 14.440 13.260 12.160 10.930 0.205 0.230 0.269 0.532 523.80 0.00 0.00 1.7880 239.00 46.45 1 1 1 24.480 23.950 23.390 23.060 23.050 8.240 7.762 24.330 23.650 23.100 22.350 22.830 4.398 3.867 3.6850 30.541 9.402 21.125 27.955 8.896 19.046
VANMET_231 2015-09-29 14:35:00 231 5603.0 24.620 23.940 23.370 23.230 22.860 29.730 30.790 5.767 5.073 14.390 13.260 12.170 10.930 0.205 0.230 0.269 0.532 534.90 0.00 0.00 2.0850 220.00 32.62 1 1 1 25.000 24.410 23.890 23.170 23.600 6.917 6.257 24.410 23.720 23.140 22.690 22.970 4.725 4.154 3.5610 30.964 9.201 21.758 28.484 8.767 19.714
VANMET_231 2015-09-29 14:30:00 231 5603.0 25.060 24.320 23.910 23.610 23.190 30.520 31.390 6.505 5.675 14.340 13.260 12.170 10.930 0.205 0.230 0.269 0.532 544.80 0.00 0.00 1.1530 211.20 23.78 1 1 1 25.160 24.560 24.140 23.730 23.740 9.590 7.555 24.980 24.090 23.710 22.810 23.470 4.793 4.545 2.6460 31.787 9.683 22.086 29.144 9.142 19.996
VANMET_231 2015-09-29 14:25:00 231 5603.0 25.480 24.800 24.310 23.930 23.480 28.710 29.870 6.006 5.242 14.290 13.250 12.170 10.930 0.205 0.230 0.269 0.532 556.20 0.00 0.00 1.9170 221.70 26.31 1 1 1 25.750 25.280 24.630 23.660 24.060 7.611 7.348 25.090 24.320 23.960 23.270 23.720 5.173 4.295 3.7240 32.591 9.354 23.234 29.710 8.871 20.836
VANMET_231 2015-09-29 14:20:00 231 5603.0 25.370 25.140 24.580 23.940 23.950 30.320 30.520 6.691 5.535 14.240 13.250 12.170 10.930 0.205 0.230 0.269 0.533 565.80 0.00 0.00 1.3150 210.00 33.33 1 1 1 25.650 25.300 24.790 24.240 24.130 8.020 8.030 25.080 24.810 24.210 23.230 23.560 4.701 4.198 3.0180 32.378 9.807 22.561 29.728 9.054 20.655
VANMET_231 2015-09-29 14:15:00 231 5603.0 24.910 24.250 23.670 23.270 23.260 29.080 30.110 5.678 4.781 14.190 13.250 12.170 10.930 0.205 0.230 0.269 0.533 578.70 0.00 0.00 1.4610 234.20 54.56 1 1 1 25.150 24.750 24.130 23.830 23.520 7.272 6.637 24.740 24.000 23.450 22.890 23.140 3.483 3.673 2.9920 31.504 9.144 22.343 28.553 8.590 19.956
VANMET_231 2015-09-29 14:10:00 231 5603.0 25.550 24.800 24.230 23.870 23.400 27.980 28.680 5.648 4.591 14.140 13.250 12.170 10.930 0.206 0.231 0.269 0.533 588.80 0.00 0.00 1.8940 233.50 31.17 1 1 1 25.810 25.300 24.720 24.030 24.150 8.610 6.528 25.140 24.200 23.610 22.750 23.370 3.352 3.162 3.1560 32.726 9.125 23.569 29.603 8.477 21.113
VANMET_231 2015-09-29 14:05:00 231 5603.0 25.630 25.130 24.600 24.080 23.690 29.010 29.910 6.276 5.377 14.090 13.250 12.170 10.930 0.206 0.231 0.269 0.533 597.00 0.00 0.00 1.2490 222.50 38.40 1 1 1 25.760 25.280 24.760 24.040 24.160 7.698 6.926 25.500 24.970 24.460 23.390 24.020 4.782 3.680 2.0580 32.882 9.531 23.343 29.979 8.955 21.012
VANMET_231 2015-09-29 14:00:00 231 5603.0 25.320 24.870 24.420 23.990 23.490 29.900 30.030 6.443 5.364 14.050 13.250 12.170 10.930 0.206 0.231 0.269 0.533 606.10 0.00 0.00 1.1120 218.90 51.40 1 1 1 25.480 25.270 24.730 24.130 24.170 8.710 6.735 25.240 24.680 24.280 23.070 23.880 4.636 4.332 2.0840 32.282 9.641 22.630 29.818 8.947 20.863
VANMET_231 2015-09-29 13:55:00 231 5603.0 25.420 24.970 24.570 24.090 23.760 30.760 31.400 6.920 6.074 14.000 13.250 12.170 10.930 0.206 0.231 0.269 0.533 615.60 0.00 0.00 1.4030 205.40 22.56 1 1 1 25.530 25.210 24.860 24.430 24.260 9.480 8.080 25.240 24.600 24.290 23.120 23.830 3.693 3.955 2.5940 32.475 9.963 22.486 29.997 9.399 20.578
VANMET_231 2015-09-29 13:50:00 231 5603.0 25.110 24.520 24.090 23.770 23.420 29.470 30.160 6.062 5.241 13.950 13.250 12.170 10.930 0.206 0.231 0.269 0.533 624.40 0.00 0.00 1.2240 217.30 36.19 1 1 1 25.210 24.690 24.270 23.620 23.830 7.263 6.504 25.040 24.410 23.960 23.220 23.700 4.307 4.034 2.3650 31.882 9.391 22.486 29.426 8.870 20.551
VANMET_231 2015-09-29 13:45:00 231 5603.0 25.290 24.600 24.150 23.800 23.420 28.550 30.250 5.740 5.301 13.910 13.250 12.170 10.930 0.206 0.231 0.269 0.533 631.20 0.00 0.00 1.1920 235.00 27.04 1 1 1 25.410 24.950 24.500 23.920 23.900 7.984 7.130 25.170 24.430 23.980 22.980 23.720 4.044 3.916 2.0190 32.225 9.184 23.025 29.479 8.908 20.562
VANMET_231 2015-09-29 13:40:00 231 5603.0 25.310 24.620 24.200 23.710 23.180 27.800 29.130 5.390 4.690 13.860 13.250 12.170 10.930 0.206 0.231 0.269 0.533 638.10 0.00 0.00 1.0280 192.90 32.31 1 1 1 25.390 24.880 24.350 23.780 23.760 7.317 6.094 25.190 24.480 24.110 22.880 23.670 4.250 3.538 1.7570 32.263 8.963 23.294 29.320 8.536 20.779
VANMET_231 2015-09-29 13:35:00 231 5603.0 25.270 24.720 24.190 23.770 23.360 28.410 29.170 5.663 4.764 13.820 13.250 12.170 10.930 0.206 0.231 0.269 0.533 646.30 0.00 0.00 1.3640 199.50 29.06 1 1 1 25.350 24.970 24.380 23.770 23.860 7.955 6.122 25.120 24.490 24.000 22.940 23.690 4.321 3.685 2.5810 32.187 9.135 23.042 29.426 8.580 20.842
VANMET_231 2015-09-29 13:30:00 231 5603.0 25.090 24.750 24.220 23.890 23.580 29.220 29.450 5.902 4.994 13.780 13.250 12.170 10.930 0.206 0.231 0.269 0.533 652.80 0.00 0.00 1.3580 233.40 25.82 1 1 1 25.200 24.950 24.400 24.080 23.960 7.744 6.093 24.870 24.540 24.060 23.060 23.760 4.317 3.690 2.1100 31.844 9.287 22.539 29.639 8.719 20.910
VANMET_231 2015-09-29 13:25:00 231 5603.0 24.950 24.480 24.040 23.900 23.270 27.480 28.460 4.918 4.517 13.730 13.250 12.170 10.930 0.206 0.231 0.269 0.533 659.70 0.00 0.00 1.1010 230.70 39.74 1 1 1 25.140 24.860 24.470 24.110 24.180 6.924 5.773 24.790 24.250 23.760 22.680 23.670 3.939 3.345 2.4240 31.580 8.673 22.901 29.657 8.433 21.217
VANMET_231 2015-09-29 13:20:00 231 5603.0 25.020 24.740 24.400 24.150 23.610 28.610 29.010 5.552 5.000 13.690 13.250 12.170 10.930 0.206 0.231 0.269 0.533 664.80 0.00 0.00 1.0340 189.40 37.27 1 1 1 25.110 24.880 24.570 24.120 24.240 7.118 6.690 24.910 24.610 24.230 23.160 24.050 4.131 3.391 2.2150 31.711 9.064 22.639 30.105 8.723 21.372
VANMET_231 2015-09-29 13:15:00 231 5603.0 24.860 24.690 24.400 24.030 23.760 28.140 28.490 5.179 4.652 13.650 13.250 12.170 10.930 0.206 0.231 0.269 0.533 670.90 0.00 0.00 1.2700 192.70 38.61 1 1 1 24.910 24.860 24.500 24.290 24.140 6.644 6.259 24.750 24.590 24.270 23.220 23.870 3.307 2.795 2.6260 31.411 8.832 22.572 29.889 8.513 21.374
VANMET_231 2015-09-29 13:10:00 231 5603.0 24.760 24.250 23.980 23.640 23.100 26.750 28.370 4.363 4.248 13.610 13.250 12.170 10.930 0.206 0.231 0.269 0.533 677.30 0.00 0.00 1.0140 183.50 33.67 1 1 1 24.870 24.500 24.180 23.610 23.810 6.205 5.753 24.670 24.050 23.730 22.560 23.490 3.173 2.926 2.0510 31.224 8.342 22.871 29.197 8.275 20.914
VANMET_231 2015-09-29 13:05:00 231 5603.0 24.650 24.080 23.850 23.630 22.820 26.790 27.500 4.282 3.789 13.580 13.260 12.170 10.930 0.206 0.231 0.269 0.533 682.30 0.00 0.00 0.9580 184.10 42.85 1 1 1 24.820 24.260 23.970 23.270 23.800 6.499 5.980 24.570 23.940 23.730 22.240 23.510 2.742 2.333 2.3720 31.019 8.295 22.709 29.179 8.012 21.155
VANMET_231 2015-09-29 13:00:00 231 5603.0 24.730 24.320 24.050 23.780 23.240 25.780 26.720 3.820 3.518 13.540 13.260 12.170 10.930 0.206 0.231 0.269 0.533 685.90 0.00 0.00 1.2100 224.50 25.74 1 1 1 24.810 24.450 24.180 23.550 23.860 5.181 5.105 24.650 24.140 23.890 22.830 23.600 2.652 2.346 2.1890 31.168 8.030 23.133 29.444 7.860 21.576
VANMET_231 2015-09-29 12:55:00 231 5603.0 24.680 24.210 23.950 23.530 22.750 22.600 23.310 1.915 1.388 13.500 13.260 12.170 10.930 0.206 0.231 0.269 0.533 690.60 0.00 0.00 0.9370 189.20 43.81 1 1 1 24.710 24.290 23.990 23.270 23.590 3.331 2.287 24.600 24.130 23.930 22.530 23.470 0.075 -0.356 1.5090 31.075 7.013 24.052 29.004 6.753 22.243
VANMET_231 2015-09-29 12:50:00 231 5603.0 24.520 23.910 23.630 23.310 22.810 25.530 27.210 3.499 3.364 13.470 13.260 12.170 10.930 0.206 0.231 0.269 0.533 694.80 0.00 0.00 0.9120 188.40 46.83 1 1 1 24.610 24.210 23.940 23.490 23.510 5.146 4.884 24.460 23.770 23.480 22.380 23.200 2.129 1.591 1.4900 30.779 7.850 22.921 28.622 7.775 20.834
VANMET_231 2015-09-29 12:45:00 231 5603.0 24.570 24.010 23.760 23.550 23.080 26.660 26.750 4.146 3.333 13.440 13.270 12.170 10.930 0.206 0.231 0.269 0.533 700.70 0.00 0.00 1.4880 227.20 26.38 1 1 1 24.700 24.370 24.170 23.330 23.750 5.815 5.029 24.450 23.760 23.480 22.740 23.360 2.580 2.136 2.5020 30.872 8.216 22.641 29.039 7.758 21.271
VANMET_231 2015-09-29 12:40:00 231 5603.0 24.410 24.080 23.810 23.410 23.080 25.980 27.420 3.663 3.578 13.400 13.270 12.170 10.930 0.206 0.231 0.269 0.533 702.50 0.00 0.00 0.7060 218.30 54.00 1 1 1 24.670 24.490 24.260 23.450 23.720 4.553 4.818 24.230 23.800 23.480 22.730 23.260 2.533 2.358 1.5350 30.578 7.941 22.634 28.795 7.894 20.900
VANMET_231 2015-09-29 12:35:00 231 5603.0 24.290 23.770 23.590 23.260 23.170 26.300 27.010 3.723 3.222 13.370 13.270 12.170 10.930 0.206 0.231 0.269 0.533 707.70 0.00 0.00 1.3590 239.20 24.54 1 1 1 24.460 24.060 23.920 23.860 23.380 5.380 5.348 24.200 23.610 23.430 22.910 23.150 2.237 1.441 2.6260 30.359 7.975 22.374 28.536 7.698 20.828
VANMET_231 2015-09-29 12:30:00 231 5603.0 24.320 23.570 23.350 23.090 22.640 25.700 27.160 3.393 3.134 13.340 13.280 12.170 10.930 0.206 0.231 0.269 0.533 710.50 0.00 0.00 1.1410 235.30 43.14 1 1 1 24.450 23.930 23.730 23.500 23.310 5.604 5.723 24.240 23.340 23.080 22.190 22.960 1.245 1.051 2.3130 30.413 7.791 22.597 28.244 7.650 20.573
VANMET_231 2015-09-29 12:25:00 231 5603.0 24.690 24.110 23.760 23.530 23.050 26.430 27.160 4.085 3.502 13.320 13.280 12.170 10.930 0.206 0.231 0.269 0.533 711.50 0.00 0.00 1.3960 248.00 28.65 1 1 1 24.770 24.280 23.950 23.500 23.650 6.365 5.592 24.490 23.760 23.420 22.680 23.370 1.158 0.665 2.5740 31.094 8.181 22.876 29.004 7.852 21.127
VANMET_231 2015-09-29 12:20:00 231 5603.0 24.530 23.940 23.600 23.280 22.770 27.060 27.670 4.343 3.587 13.290 13.280 12.170 10.930 0.206 0.231 0.269 0.533 712.00 0.00 0.00 1.0720 191.10 38.88 1 1 1 24.690 24.200 23.840 22.970 23.420 5.649 5.223 24.390 23.710 23.400 22.570 23.180 2.857 1.992 2.4500 30.798 8.331 22.464 28.570 7.899 20.665
VANMET_231 2015-09-29 12:15:00 231 5603.0 24.410 24.010 23.720 23.350 22.930 28.030 27.990 4.709 3.802 13.260 13.290 12.170 10.930 0.206 0.231 0.269 0.533 714.90 0.00 0.00 1.0430 200.80 36.39 1 1 1 24.670 24.140 23.800 23.370 23.430 6.807 5.891 24.110 23.800 23.570 22.530 23.210 2.651 2.097 2.1690 30.578 8.547 22.007 28.691 8.020 20.660
VANMET_231 2015-09-29 12:10:00 231 5603.0 24.020 23.580 23.350 23.140 22.900 27.210 27.470 3.981 3.346 13.240 13.290 12.170 10.930 0.206 0.231 0.269 0.533 716.70 0.00 0.00 1.1390 221.20 29.86 1 1 1 24.070 23.770 23.520 23.430 23.180 4.988 6.236 23.920 23.450 23.170 22.470 23.070 2.598 1.919 1.7180 29.871 8.121 21.743 28.330 7.765 20.548
VANMET_231 2015-09-29 12:05:00 231 5603.0 24.010 23.440 23.340 23.220 22.720 26.490 26.610 3.573 2.977 13.220 13.300 12.170 10.930 0.206 0.231 0.269 0.533 718.00 0.00 0.00 1.4660 211.40 23.60 1 1 1 24.310 23.940 23.780 23.190 23.450 5.898 5.078 23.830 23.250 23.140 22.390 23.050 2.095 1.716 2.1040 29.853 7.891 21.945 28.467 7.565 20.892
VANMET_231 2015-09-29 12:00:00 231 5603.0 23.830 23.490 23.260 22.930 22.720 27.150 27.400 3.759 3.148 13.190 13.300 12.170 10.930 0.206 0.231 0.269 0.533 716.20 0.00 0.00 0.8340 199.40 36.84 1 1 1 24.260 23.950 23.750 23.120 23.340 6.113 4.984 23.580 22.980 22.820 22.360 22.690 1.452 1.841 1.4700 29.532 7.995 21.514 27.972 7.657 20.308
VANMET_231 2015-09-29 11:55:00 231 5603.0 23.670 23.120 23.000 22.900 22.420 24.170 24.200 1.999 1.360 13.170 13.310 12.170 10.930 0.206 0.231 0.269 0.533 716.50 0.00 0.00 1.7070 227.40 25.17 1 1 1 23.750 23.250 23.150 22.640 23.020 3.444 3.974 23.580 23.000 22.870 22.190 22.710 -0.538 0.121 2.5610 29.250 7.056 22.180 27.922 6.739 21.165
VANMET_231 2015-09-29 11:50:00 231 5603.0 23.760 23.100 23.050 22.940 22.360 22.890 23.040 1.278 0.666 13.150 13.310 12.170 10.930 0.206 0.231 0.269 0.533 713.90 0.00 0.00 1.2790 204.90 18.49 1 1 1 23.850 23.250 23.240 22.800 23.030 3.742 3.287 23.680 22.940 22.920 21.900 22.860 -1.107 -1.882 2.2210 29.408 6.700 22.677 27.989 6.410 21.540
VANMET_231 2015-09-29 11:45:00 231 5603.0 24.170 23.470 23.340 23.200 22.380 25.840 24.660 3.277 1.844 13.140 13.320 12.170 10.930 0.206 0.231 0.269 0.533 711.30 0.00 0.00 1.1900 206.40 28.34 1 1 1 24.290 23.700 23.550 22.590 23.320 7.016 4.965 23.850 22.900 22.900 22.050 22.910 -0.274 -0.577 2.1360 30.141 7.728 22.353 28.433 6.978 21.421
VANMET_231 2015-09-29 11:40:00 231 5603.0 23.620 23.230 23.130 22.870 22.370 29.030 29.980 4.548 4.351 13.120 13.320 12.170 10.930 0.206 0.231 0.269 0.533 708.50 0.00 0.00 0.7900 190.50 20.86 1 1 1 23.990 23.590 23.460 22.490 23.220 6.588 6.224 23.280 22.820 22.770 22.240 22.510 2.435 2.406 1.6270 29.162 8.451 20.696 27.871 8.335 19.515
VANMET_231 2015-09-29 11:35:00 231 5603.0 23.340 22.540 22.490 22.300 21.930 23.610 24.950 1.364 1.249 13.110 13.330 12.170 10.940 0.206 0.231 0.269 0.533 709.10 0.00 0.00 1.0990 203.60 28.58 1 1 1 23.610 22.790 22.730 22.320 22.470 3.621 3.695 23.220 22.430 22.380 21.600 22.250 -1.517 -1.745 2.0380 28.674 6.741 21.904 26.923 6.686 20.206
VANMET_231 2015-09-29 11:30:00 231 5603.0 23.960 22.930 22.680 22.290 21.780 23.510 24.920 1.853 1.239 13.090 13.330 12.170 10.940 0.206 0.231 0.269 0.533 707.00 0.00 0.00 0.8900 171.00 39.86 1 1 1 24.050 23.190 22.950 22.090 22.450 3.137 4.876 23.660 22.580 22.460 21.530 22.210 0.142 -0.283 1.5940 29.764 6.982 22.766 26.907 6.681 20.202
VANMET_231 2015-09-29 11:25:00 231 5603.0 23.920 23.020 22.840 22.610 22.020 26.930 28.020 3.699 3.101 13.080 13.340 12.170 10.940 0.206 0.231 0.269 0.533 705.10 0.00 0.00 1.4070 204.40 47.85 1 1 1 24.240 23.280 23.190 22.270 22.960 6.273 5.967 23.740 22.760 22.580 21.660 22.450 1.358 -0.030 2.5870 29.693 7.962 21.696 27.435 7.632 19.748
VANMET_231 2015-09-29 11:20:00 231 5603.0 24.170 23.380 23.230 22.870 22.080 30.310 31.370 5.654 5.031 13.070 13.340 12.170 10.940 0.206 0.231 0.269 0.533 697.80 0.00 0.00 0.6220 186.90 37.80 1 1 1 24.300 23.600 23.390 22.340 22.980 6.905 5.985 23.900 23.160 23.000 21.770 22.680 3.849 3.478 1.3460 30.141 9.129 21.005 27.871 8.742 19.128
VANMET_231 2015-09-29 11:15:00 231 5603.0 23.690 22.970 22.800 22.500 21.780 26.370 26.880 3.234 2.490 13.060 13.350 12.170 10.940 0.206 0.231 0.269 0.533 695.40 0.00 0.00 0.7830 171.90 38.01 1 1 1 23.850 23.160 23.020 22.050 22.700 4.801 4.699 23.490 22.610 22.390 21.390 22.170 1.117 0.800 1.8420 29.285 7.704 21.562 27.253 7.307 19.927
VANMET_231 2015-09-29 11:10:00 231 5603.0 23.430 22.590 22.380 22.090 21.530 26.890 27.940 3.277 2.699 13.050 13.360 12.170 10.940 0.206 0.231 0.269 0.533 690.70 0.00 0.00 0.9470 141.70 33.12 1 1 1 23.510 22.650 22.440 21.770 22.190 5.253 3.775 23.270 22.500 22.300 21.250 22.040 1.191 0.830 1.6270 28.830 7.728 21.078 26.582 7.417 19.155
VANMET_231 2015-09-29 11:05:00 231 5603.0 23.220 22.340 22.220 21.930 21.180 25.920 26.750 2.603 1.957 13.040 13.360 12.170 10.940 0.206 0.231 0.269 0.533 686.40 0.00 0.00 0.7680 173.20 33.69 1 1 1 23.270 22.470 22.370 21.550 22.090 4.106 3.146 23.140 22.130 22.080 20.970 21.830 1.092 0.314 1.1170 28.467 7.366 21.088 26.324 7.034 19.282
VANMET_231 2015-09-29 11:00:00 231 5603.0 23.090 22.250 22.180 21.810 21.270 25.980 27.160 2.529 2.059 13.040 13.370 12.170 10.940 0.206 0.231 0.269 0.533 681.70 0.00 0.00 0.7720 172.50 41.38 1 1 1 23.210 22.410 22.300 21.630 21.870 4.009 3.951 22.910 22.080 22.050 21.060 21.720 1.280 0.673 1.5610 28.244 7.328 20.906 26.132 7.086 19.034
VANMET_231 2015-09-29 10:55:00 231 5603.0 22.900 22.130 22.030 21.710 21.150 27.150 27.080 2.969 1.936 13.030 13.370 12.170 10.940 0.206 0.231 0.269 0.533 676.30 0.00 0.00 0.9300 177.50 43.79 1 1 1 23.020 22.240 22.110 21.590 21.810 5.875 4.398 22.770 22.040 21.950 20.860 21.630 0.831 0.429 2.3450 27.922 7.561 20.341 25.973 7.024 18.939
VANMET_231 2015-09-29 10:50:00 231 5603.0 22.560 21.720 21.650 21.490 20.830 29.430 29.850 3.744 3.039 13.030 13.380 12.170 10.940 0.206 0.231 0.269 0.533 672.00 0.00 0.00 0.9600 184.40 42.16 1 1 1 22.790 22.120 22.010 21.070 21.660 5.997 5.726 22.440 21.500 21.470 20.620 21.380 0.364 -0.169 1.8160 27.352 7.987 19.302 25.626 7.598 17.976
VANMET_231 2015-09-29 10:45:00 231 5603.0 23.070 22.250 21.990 21.680 20.740 26.170 26.670 2.590 1.689 13.020 13.380 12.170 10.940 0.206 0.231 0.269 0.533 666.60 0.00 0.00 0.9760 209.80 45.03 1 1 1 23.230 22.470 22.150 20.990 21.770 5.472 3.961 22.860 21.820 21.740 20.590 21.590 0.769 0.060 1.9530 28.210 7.360 20.828 25.925 6.901 19.011
VANMET_231 2015-09-29 10:40:00 231 5603.0 22.530 22.090 21.840 21.440 20.650 30.320 30.090 4.229 3.157 13.020 13.390 12.170 10.940 0.206 0.231 0.269 0.533 659.40 0.00 0.00 0.6500 173.10 55.38 1 1 1 22.870 22.330 22.050 20.790 21.620 5.574 5.778 22.210 21.650 21.500 20.460 21.270 3.132 1.331 1.0980 27.302 8.264 19.024 25.547 7.662 17.860
VANMET_231 2015-09-29 10:35:00 231 5603.0 21.910 21.590 21.410 21.090 20.560 30.020 30.800 3.536 3.184 13.020 13.400 12.170 10.940 0.206 0.231 0.269 0.533 653.20 0.00 0.00 0.9310 199.80 25.18 1 1 1 22.210 21.870 21.670 20.740 21.290 5.768 5.273 21.660 21.390 21.240 20.460 20.950 1.411 0.943 1.9340 26.292 7.870 18.399 25.005 7.677 17.303
VANMET_231 2015-09-29 10:30:00 231 5603.0 21.460 21.170 21.060 20.790 20.570 31.280 31.860 3.754 3.427 13.020 13.400 12.170 10.940 0.206 0.231 0.269 0.533 646.50 0.00 0.00 0.9940 227.20 36.94 1 1 1 21.630 21.460 21.260 20.760 20.940 5.399 5.554 21.300 21.020 20.910 20.410 20.580 2.541 1.904 1.5420 25.579 7.992 17.578 24.548 7.810 16.727
VANMET_231 2015-09-29 10:25:00 231 5603.0 21.190 20.810 20.690 20.460 20.250 30.190 31.110 3.013 2.796 13.030 13.410 12.170 10.940 0.206 0.231 0.269 0.533 639.20 0.00 0.00 1.0410 232.20 32.18 1 1 1 21.280 21.020 20.890 20.450 20.540 4.983 5.190 21.120 20.740 20.570 19.990 20.400 1.659 1.785 2.0190 25.159 7.584 17.563 24.054 7.468 16.571
VANMET_231 2015-09-29 10:20:00 231 5603.0 21.270 20.790 20.680 20.490 20.250 30.290 30.880 3.131 2.733 13.030 13.410 12.170 10.940 0.206 0.231 0.269 0.533 631.70 0.00 0.00 1.3710 233.30 19.25 1 1 1 21.430 20.940 20.780 20.420 20.550 4.560 3.746 21.150 20.700 20.580 20.030 20.430 1.810 1.450 2.2540 25.283 7.648 17.625 24.099 7.435 16.657
VANMET_231 2015-09-29 10:15:00 231 5603.0 21.390 21.030 20.810 20.540 20.140 31.740 32.040 3.906 3.300 13.030 13.420 12.170 10.940 0.206 0.231 0.269 0.533 622.10 0.00 0.00 1.0720 216.40 26.56 1 1 1 21.520 21.210 20.970 20.210 20.670 5.519 4.245 21.130 20.830 20.590 20.020 20.290 2.888 1.981 2.0120 25.469 8.079 17.385 24.173 7.740 16.428
VANMET_231 2015-09-29 10:10:00 231 5603.0 21.120 20.580 20.440 20.300 20.010 32.200 33.000 3.875 3.512 13.040 13.420 12.170 10.940 0.206 0.231 0.269 0.533 615.00 0.00 0.00 1.2050 229.60 31.39 1 1 1 21.190 20.740 20.570 20.320 20.370 5.262 4.398 21.050 20.460 20.310 19.820 20.210 2.787 2.447 1.8230 25.051 8.061 16.985 23.818 7.857 15.958
VANMET_231 2015-09-29 10:05:00 231 5603.0 21.420 20.680 20.510 20.360 20.070 31.550 33.340 3.847 3.701 13.040 13.430 12.170 10.940 0.207 0.231 0.269 0.533 606.00 0.00 0.00 1.2740 241.10 20.35 1 1 1 21.730 20.890 20.620 20.270 20.420 4.813 5.231 21.180 20.580 20.390 19.800 20.300 2.772 2.623 2.0190 25.516 8.045 17.466 23.906 7.963 15.936
VANMET_231 2015-09-29 10:00:00 231 5603.0 22.100 21.170 20.890 20.740 20.020 30.840 32.030 4.109 3.471 13.050 13.440 12.170 10.940 0.207 0.231 0.269 0.533 595.90 0.00 0.00 1.3830 224.30 15.06 1 1 1 22.380 21.460 21.200 20.260 21.040 6.090 4.522 21.750 20.840 20.570 19.850 20.380 2.712 2.254 1.9600 26.598 8.195 18.395 24.473 7.834 16.634
VANMET_231 2015-09-29 09:55:00 231 5603.0 22.200 21.510 21.270 20.890 19.790 32.350 32.730 4.888 3.917 13.060 13.440 12.170 10.940 0.207 0.231 0.269 0.533 584.20 0.00 0.00 0.6310 191.20 23.63 1 1 1 22.440 21.740 21.380 19.960 21.060 6.584 5.163 21.910 21.290 21.140 19.620 20.750 4.079 3.274 1.1630 26.760 8.655 18.103 24.700 8.085 16.615
VANMET_231 2015-09-29 09:50:00 231 5603.0 21.620 21.170 20.950 20.600 19.650 33.010 33.550 4.667 3.996 13.070 13.450 12.170 10.940 0.207 0.231 0.269 0.533 574.90 0.00 0.00 0.7300 183.70 23.89 1 1 1 21.870 21.390 21.150 19.820 20.740 5.884 5.538 21.400 20.840 20.630 19.460 20.390 3.731 2.939 1.6200 25.830 8.522 17.304 24.263 8.130 16.123
VANMET_231 2015-09-29 09:45:00 231 5603.0 21.380 20.660 20.480 20.290 19.740 33.120 34.180 4.512 3.996 13.070 13.450 12.170 10.940 0.207 0.231 0.269 0.532 565.50 0.00 0.00 0.8050 199.70 22.65 1 1 1 21.480 20.850 20.640 20.080 20.380 5.596 5.230 21.320 20.490 20.380 19.590 20.230 3.605 2.671 1.6530 25.454 8.430 17.023 23.803 8.130 15.667
VANMET_231 2015-09-29 09:40:00 231 5603.0 21.590 20.920 20.760 20.500 19.480 33.280 33.370 4.730 3.829 13.080 13.460 12.170 10.940 0.207 0.231 0.269 0.532 553.70 0.00 0.00 1.0510 202.10 28.51 1 1 1 21.710 21.170 21.000 19.650 20.680 6.816 5.796 21.430 20.610 20.430 19.170 20.290 2.833 2.482 1.5420 25.783 8.560 17.202 24.114 8.035 16.067
VANMET_231 2015-09-29 09:35:00 231 5603.0 21.270 20.800 20.740 20.480 19.330 36.300 36.200 5.698 4.970 13.090 13.470 12.170 10.940 0.207 0.231 0.269 0.532 542.80 0.00 0.00 0.7260 195.00 27.57 1 1 1 21.410 20.920 20.890 19.480 20.570 7.468 6.584 21.050 20.700 20.640 19.120 20.380 3.563 2.956 1.3520 25.283 9.157 16.105 24.084 8.704 15.366
VANMET_231 2015-09-29 09:30:00 231 5603.0 20.760 20.300 20.410 20.430 19.400 36.290 34.720 5.275 4.339 13.100 13.470 12.170 10.940 0.207 0.231 0.269 0.532 531.80 0.00 0.00 0.8490 200.50 20.11 1 1 1 20.990 20.690 20.690 19.570 20.700 6.333 5.380 20.660 20.110 20.250 19.140 20.290 4.329 3.376 1.2480 24.503 8.892 15.611 24.010 8.328 15.674
VANMET_231 2015-09-29 09:25:00 231 5603.0 20.720 20.410 20.580 20.680 19.500 34.610 32.530 4.526 3.597 13.110 13.480 12.170 10.940 0.207 0.231 0.269 0.533 519.30 0.00 0.00 0.7080 199.50 21.27 1 1 1 20.760 20.470 20.640 19.720 20.770 6.451 5.953 20.700 20.320 20.510 19.300 20.590 2.649 1.040 1.2940 24.443 8.438 15.983 24.383 7.904 16.451
VANMET_231 2015-09-29 09:20:00 231 5603.0 20.770 20.580 20.850 20.710 19.740 30.920 28.880 2.976 1.981 13.130 13.480 12.170 10.940 0.207 0.231 0.269 0.532 507.60 0.00 0.00 0.6760 203.60 19.55 1 1 1 20.820 20.720 20.970 19.940 20.780 4.571 3.821 20.710 20.370 20.630 19.420 20.610 1.378 0.920 1.3130 24.518 7.564 16.937 24.428 7.047 17.373
VANMET_231 2015-09-29 09:15:00 231 5603.0 20.680 20.750 20.870 20.620 19.840 29.620 27.020 2.302 0.982 13.140 13.490 12.170 10.940 0.207 0.231 0.269 0.532 496.30 0.00 0.00 0.7800 210.70 15.69 1 1 1 20.780 20.900 21.080 20.020 20.730 3.993 2.169 20.540 20.610 20.730 19.760 20.540 1.280 0.170 1.3720 24.383 7.210 17.161 24.293 6.558 17.729
VANMET_231 2015-09-29 09:10:00 231 5603.0 20.180 20.600 20.690 20.550 19.700 32.970 29.280 3.297 2.012 13.150 13.500 12.170 10.940 0.207 0.231 0.269 0.532 483.50 0.00 0.00 0.6560 207.70 14.73 1 1 1 20.510 20.790 20.820 19.850 20.600 6.890 4.225 19.940 20.440 20.590 19.440 20.490 1.260 0.325 1.1830 23.642 7.739 15.847 24.188 7.062 17.106
VANMET_231 2015-09-29 09:05:00 231 5603.0 19.880 20.460 20.650 20.590 19.620 32.510 28.920 2.907 1.893 13.160 13.500 12.170 10.940 0.207 0.231 0.269 0.532 470.30 0.00 0.00 0.6510 215.90 9.37 1 1 1 19.960 20.500 20.710 19.750 20.660 4.785 3.216 19.770 20.400 20.580 19.430 20.490 0.734 0.484 0.9210 23.207 7.527 15.662 24.248 7.002 17.235
VANMET_231 2015-09-29 09:00:00 231 5603.0 19.480 20.460 20.730 20.820 19.220 46.400 34.350 7.602 4.460 13.170 13.510 12.170 10.940 0.207 0.231 0.269 0.532 456.00 0.00 0.00 0.6380 215.40 11.32 1 1 1 19.770 20.600 20.830 19.360 20.850 9.510 7.340 19.160 20.200 20.590 19.050 20.710 3.033 0.788 0.8560 22.638 10.440 12.134 24.594 8.399 16.146
VANMET_231 2015-09-29 08:55:00 231 5603.0 18.810 19.710 20.280 20.660 18.910 53.580 37.770 9.210 5.665 13.190 13.510 12.180 10.940 0.207 0.231 0.269 0.532 440.20 0.00 0.00 0.1260 206.90 8.77 1 1 1 19.110 20.140 20.520 19.140 20.840 9.770 8.330 18.550 19.340 20.090 18.830 20.500 8.720 1.611 0.5950 21.713 11.644 10.079 24.353 9.136 15.155
VANMET_231 2015-09-29 08:50:00 231 5603.0 18.430 19.320 20.110 20.620 18.540 54.820 38.950 9.200 6.123 13.200 13.520 12.180 10.940 0.207 0.231 0.269 0.532 427.50 0.00 0.00 0.0000 0.00 0.00 1 1 1 18.540 19.420 20.150 18.980 20.660 9.720 8.070 18.360 19.270 20.070 18.240 20.550 8.850 2.839 0.0000 21.202 11.636 9.579 24.293 9.430 14.831
VANMET_231 2015-09-29 08:45:00 231 5603.0 18.330 19.450 20.060 20.410 18.320 52.550 37.280 8.450 5.319 13.210 13.530 12.180 10.940 0.207 0.231 0.269 0.532 414.80 0.00 0.00 0.0900 97.90 11.17 1 1 1 18.400 19.630 20.210 18.510 20.590 9.440 7.722 18.220 19.320 19.920 18.150 20.150 6.983 4.065 0.4180 21.070 11.060 9.998 23.980 8.919 15.040
VANMET_231 2015-09-29 08:40:00 231 5603.0 18.210 19.240 19.770 19.920 18.080 49.030 34.320 7.291 3.739 13.220 13.530 12.180 10.940 0.207 0.231 0.269 0.532 401.40 0.00 0.00 0.1360 93.50 19.02 1 1 1 18.240 19.340 19.910 18.330 20.140 9.030 4.513 18.160 19.150 19.520 17.930 19.600 4.869 3.208 0.4970 20.912 10.220 10.659 23.265 7.984 15.280
VANMET_231 2015-09-29 08:35:00 231 5603.0 18.310 19.100 19.470 19.410 17.630 49.310 36.210 7.510 4.039 13.240 13.540 12.180 10.940 0.207 0.231 0.269 0.532 388.20 0.00 0.00 0.0700 123.90 34.79 1 1 1 18.400 19.200 19.590 18.010 19.540 8.470 6.272 18.210 18.960 19.350 17.310 19.260 5.791 3.185 0.2870 21.043 10.374 10.667 22.540 8.155 14.378
VANMET_231 2015-09-29 08:30:00 231 5603.0 18.290 19.320 19.410 19.270 17.290 50.920 40.870 7.956 5.620 13.250 13.540 12.180 10.940 0.207 0.231 0.269 0.532 374.90 0.00 0.00 0.3430 222.80 11.64 1 1 1 18.390 19.530 19.560 17.530 19.330 9.230 8.010 18.180 19.100 19.270 17.150 19.190 6.200 3.444 0.5680 21.017 10.695 10.315 22.344 9.107 13.212
VANMET_231 2015-09-29 08:25:00 231 5603.0 17.910 18.980 19.010 19.220 17.120 52.330 40.640 8.020 5.506 13.260 13.550 12.180 10.940 0.207 0.231 0.269 0.532 361.60 0.00 0.00 0.3520 220.90 15.61 1 1 1 18.160 19.300 19.250 17.300 19.290 9.070 7.155 17.620 18.630 18.780 16.570 19.160 6.368 3.303 0.7250 20.521 10.742 9.782 22.275 9.036 13.222
VANMET_231 2015-09-29 08:20:00 231 5603.0 17.390 18.260 18.580 19.090 16.560 54.430 42.490 8.120 6.039 13.280 13.550 12.180 10.940 0.207 0.231 0.269 0.532 346.50 0.00 0.00 0.2480 209.60 18.06 1 1 1 17.610 18.590 18.760 16.810 19.240 8.590 7.632 17.140 17.930 18.490 16.340 18.970 7.665 3.777 0.6210 19.859 10.815 9.050 22.095 9.376 12.707
VANMET_231 2015-09-29 08:15:00 231 5603.0 16.890 17.800 18.460 18.800 16.780 56.450 38.760 8.180 4.445 13.290 13.560 12.180 10.940 0.207 0.231 0.269 0.532 331.90 0.00 0.00 0.0000 0.00 0.00 1 1 1 17.120 17.910 18.490 17.060 18.940 8.660 6.417 16.660 17.670 18.370 16.420 18.730 7.626 2.995 0.0000 19.241 10.859 8.379 21.699 8.390 13.288
VANMET_231 2015-09-29 08:10:00 231 5603.0 16.520 17.820 18.310 18.600 16.860 54.040 39.200 7.205 4.447 13.300 13.560 12.180 10.940 0.207 0.231 0.269 0.532 316.90 0.00 0.00 0.0000 0.00 0.00 1 1 1 16.670 17.940 18.390 17.070 18.790 8.360 5.600 16.370 17.690 18.240 16.710 18.420 6.576 3.135 0.0000 18.794 10.160 8.638 21.429 8.392 13.029
VANMET_231 2015-09-29 08:05:00 231 5603.0 16.170 17.890 18.450 18.590 16.810 54.890 36.100 7.108 3.279 13.320 13.570 12.180 10.940 0.207 0.231 0.269 0.532 301.20 0.00 0.00 0.0000 0.00 0.00 1 1 1 16.340 17.990 18.530 17.040 18.680 7.396 3.932 15.930 17.660 18.260 16.650 18.460 6.612 2.510 0.0000 18.379 10.093 8.291 21.416 7.729 13.685
VANMET_231 2015-09-29 08:00:00 231 5603.0 15.640 17.590 18.200 18.160 16.810 55.750 36.270 6.834 2.958 13.330 13.580 12.180 10.940 0.207 0.231 0.269 0.532 287.00 0.00 0.00 0.0000 0.00 0.00 1 1 1 15.890 17.850 18.420 17.030 18.430 7.249 3.882 15.380 17.300 17.960 16.550 17.960 6.131 2.012 0.0000 17.767 9.904 7.862 20.846 7.555 13.285
VANMET_231 2015-09-29 07:55:00 231 5603.0 15.230 17.170 17.910 17.950 16.410 57.480 37.570 6.899 3.274 13.350 13.580 12.180 10.940 0.207 0.232 0.269 0.532 241.60 0.00 0.00 0.0000 0.00 0.00 1 1 1 15.390 17.270 18.020 16.660 18.050 7.256 4.139 15.060 17.070 17.800 16.250 17.830 6.496 2.600 0.0000 17.306 9.949 7.359 20.573 7.726 12.844
VANMET_231 2015-09-29 07:50:00 231 5603.0 14.760 16.790 17.340 17.270 16.310 55.880 38.310 6.048 2.949 13.360 13.590 12.180 10.940 0.207 0.232 0.269 0.532 255.30 0.00 0.00 0.0000 0.00 0.00 1 1 1 15.050 17.140 17.780 16.420 17.760 6.899 3.409 14.460 16.380 16.830 16.130 16.780 5.569 2.613 0.0000 16.790 9.382 7.408 19.709 7.550 12.159
VANMET_231 2015-09-29 07:45:00 231 5603.0 14.170 16.020 16.540 16.540 16.180 56.850 39.190 5.748 2.615 13.370 13.590 12.180 10.940 0.207 0.232 0.269 0.532 111.70 0.00 0.00 0.0000 0.00 0.00 1 1 1 14.420 16.340 16.790 16.320 16.770 6.086 3.061 14.010 15.690 16.430 16.040 16.330 5.255 2.221 0.0000 16.162 9.189 6.974 18.818 7.373 11.443
VANMET_231 2015-09-29 07:40:00 231 5603.0 13.900 15.670 16.410 16.380 16.070 58.440 40.670 5.899 2.992 13.390 13.600 12.180 10.940 0.207 0.232 0.269 0.532 63.62 0.00 0.00 0.0000 0.00 0.00 1 1 1 14.020 15.720 16.430 16.200 16.520 6.121 3.903 13.790 15.610 16.390 15.950 16.300 5.608 2.453 0.0000 15.881 9.285 6.600 18.627 7.573 11.051
VANMET_231 2015-09-29 07:35:00 231 5603.0 13.780 15.790 16.670 16.590 16.010 58.120 39.430 5.700 2.747 13.400 13.600 12.180 10.940 0.207 0.232 0.269 0.532 126.00 0.00 0.00 0.0000 0.00 0.00 1 1 1 13.820 15.890 16.810 16.100 16.610 6.144 3.217 13.750 15.710 16.440 15.900 16.540 5.471 2.438 0.0000 15.758 9.158 6.599 18.878 7.442 11.434
VANMET_231 2015-09-29 07:30:00 231 5603.0 13.860 15.740 16.560 16.540 16.060 56.800 41.460 5.445 3.414 13.420 13.610 12.180 10.940 0.207 0.232 0.269 0.532 165.70 0.00 0.00 0.0000 0.00 0.00 1 1 1 13.890 15.900 16.810 16.110 16.580 5.877 3.710 13.810 15.450 16.250 15.980 16.480 5.104 3.277 0.0000 15.840 8.997 6.843 18.818 7.803 11.016
VANMET_231 2015-09-29 07:25:00 231 5603.0 13.670 15.230 16.010 16.270 15.900 56.290 42.220 5.138 3.429 13.430 13.610 12.180 10.940 0.207 0.232 0.269 0.532 113.20 0.00 0.00 0.0000 0.00 0.00 1 1 1 13.800 15.420 16.220 16.110 16.460 5.305 3.673 13.590 15.150 15.880 15.670 16.170 4.998 3.091 0.0000 15.646 8.807 6.839 18.497 7.811 10.688
VANMET_231 2015-09-29 07:20:00 231 5603.0 13.490 14.830 15.540 15.930 15.640 55.440 41.840 4.752 2.988 13.450 13.620 12.180 10.940 0.207 0.232 0.269 0.532 144.40 0.00 0.00 0.0000 0.00 0.00 1 1 1 13.630 15.160 15.880 15.880 16.190 5.142 3.526 13.310 14.440 15.200 15.400 15.630 4.476 2.584 0.0000 15.463 8.573 6.890 18.100 7.571 10.527
VANMET_231 2015-09-29 07:15:00 231 5603.0 13.170 14.060 14.860 15.230 15.230 56.570 44.080 4.739 3.091 13.460 13.620 12.180 10.940 0.207 0.232 0.269 0.532 150.10 0.00 0.00 0.0810 87.80 13.19 1 1 1 13.290 14.410 15.160 15.480 15.600 5.030 3.429 13.070 13.790 14.550 14.910 14.780 4.587 2.627 0.2220 15.144 8.565 6.577 17.306 7.626 9.678
VANMET_231 2015-09-29 07:10:00 231 5603.0 13.090 13.720 14.410 14.470 14.680 57.460 47.040 4.893 3.324 13.480 13.630 12.180 10.940 0.207 0.232 0.269 0.532 92.40 0.00 0.00 0.2500 359.90 45.86 1 1 1 13.140 13.790 14.500 14.840 14.710 5.836 3.665 13.040 13.680 14.300 14.440 14.300 4.472 3.096 0.4570 15.065 8.658 6.409 16.479 7.753 8.727
VANMET_231 2015-09-29 07:05:00 231 5603.0 13.060 13.590 14.260 14.290 14.470 56.670 46.950 4.669 3.130 13.490 13.630 12.180 10.950 0.207 0.232 0.269 0.532 22.87 0.00 0.00 0.4600 337.20 17.33 1 1 1 13.100 13.660 14.300 14.690 14.330 4.844 3.302 13.030 13.550 14.220 14.300 14.230 4.495 2.961 0.7450 15.035 8.523 6.515 16.288 7.648 8.641
VANMET_231 2015-09-29 07:00:00 231 5603.0 13.100 13.500 14.130 14.200 14.350 54.710 47.120 4.202 3.099 13.500 13.640 12.180 10.950 0.207 0.232 0.269 0.532 20.45 0.00 0.00 0.1630 353.40 8.45 1 1 1 13.130 13.580 14.190 14.530 14.240 4.470 3.247 13.070 13.430 14.080 14.190 14.180 3.972 2.795 0.6010 15.075 8.249 6.827 16.193 7.631 8.563
VANMET_231 2015-09-29 06:55:00 231 5603.0 13.150 13.530 14.070 14.170 14.310 53.590 46.240 3.952 2.801 13.520 13.640 12.180 10.950 0.207 0.232 0.269 0.532 19.16 0.00 0.00 0.0700 31.13 6.91 1 1 1 13.190 13.600 14.140 14.460 14.230 4.344 3.078 13.120 13.460 13.990 14.130 14.110 3.618 2.237 0.6340 15.124 8.105 7.019 16.162 7.471 8.689
VANMET_231 2015-09-29 06:50:00 231 5603.0 13.230 13.630 14.130 14.260 14.210 52.600 46.110 3.761 2.849 13.530 13.650 12.180 10.950 0.207 0.232 0.269 0.532 17.37 0.00 0.00 0.6640 11.40 8.48 1 1 1 13.270 13.780 14.260 14.370 14.370 4.023 3.070 13.190 13.490 14.000 14.120 14.160 3.614 2.698 0.9670 15.203 7.996 7.206 16.256 7.497 8.761
VANMET_231 2015-09-29 06:45:00 231 5603.0 13.250 13.810 14.350 14.410 14.550 52.090 44.570 3.644 2.503 13.550 13.650 12.180 10.950 0.207 0.232 0.269 0.532 15.48 0.00 0.00 0.3490 13.32 8.28 1 1 1 13.270 13.830 14.390 14.760 14.440 3.772 2.750 13.230 13.760 14.270 14.380 14.360 3.478 2.232 0.6530 15.223 7.931 7.293 16.415 7.314 9.099
VANMET_231 2015-09-29 06:40:00 231 5603.0 13.360 13.830 14.300 14.360 14.500 51.620 44.050 3.608 2.296 13.560 13.660 12.180 10.940 0.207 0.232 0.269 0.532 14.17 0.00 0.00 0.1200 1.95 7.09 1 1 1 13.430 13.890 14.350 14.720 14.440 4.065 2.463 13.260 13.760 14.250 14.270 14.320 3.172 1.984 0.5950 15.333 7.911 7.418 16.362 7.207 9.154
VANMET_231 2015-09-29 06:35:00 231 5603.0 13.430 13.980 14.450 14.490 14.630 50.190 43.170 3.283 2.129 13.580 13.660 12.180 10.950 0.207 0.232 0.269 0.532 12.54 0.00 0.00 0.4880 355.90 20.72 1 1 1 13.460 14.030 14.480 14.930 14.520 3.808 2.362 13.410 13.920 14.370 14.390 14.440 2.957 1.949 0.7060 15.403 7.731 7.672 16.500 7.122 9.377
VANMET_231 2015-09-29 06:30:00 231 5603.0 13.460 13.900 14.360 14.440 14.620 50.560 42.750 3.409 1.943 13.590 13.670 12.180 10.950 0.207 0.232 0.269 0.532 10.46 0.00 0.00 0.5620 349.20 22.59 1 1 1 13.500 13.930 14.450 14.980 14.490 3.711 2.121 13.400 13.860 14.320 14.470 14.400 3.114 1.831 0.8620 15.433 7.800 7.630 16.447 7.027 9.416
VANMET_231 2015-09-29 06:25:00 231 5603.0 13.440 13.920 14.350 14.420 14.550 49.010 42.500 2.956 1.843 13.610 13.670 12.180 10.950 0.207 0.232 0.269 0.532 8.36 0.00 0.00 0.6700 359.80 7.76 1 1 1 13.490 13.960 14.380 14.660 14.460 3.371 1.937 13.410 13.880 14.310 14.450 14.380 2.696 1.719 1.0320 15.413 7.554 7.859 16.426 6.977 9.445
VANMET_231 2015-09-29 06:20:00 231 5603.0 13.420 13.970 14.380 14.440 14.500 49.980 42.510 3.213 1.863 13.620 13.680 12.180 10.950 0.207 0.232 0.269 0.532 6.19 0.00 0.00 0.7350 4.63 4.70 1 1 1 13.440 13.990 14.400 14.560 14.470 3.461 2.006 13.400 13.930 14.340 14.430 14.400 2.980 1.752 1.0130 15.393 7.693 7.700 16.447 6.987 9.455
VANMET_231 2015-09-29 06:15:00 231 5603.0 13.430 13.950 14.430 14.490 14.580 49.770 41.910 3.165 1.712 13.640 13.680 12.180 10.950 0.207 0.232 0.269 0.532 4.16 0.00 0.00 0.6810 5.50 5.29 1 1 1 13.460 13.980 14.450 14.670 14.510 3.669 1.944 13.400 13.910 14.380 14.410 14.460 2.774 1.475 0.8620 15.403 7.667 7.737 16.500 6.912 9.585
VANMET_231 2015-09-29 06:10:00 231 5603.0 13.390 13.920 14.380 14.460 14.500 49.630 41.910 3.086 1.687 13.650 13.690 12.180 10.950 0.207 0.232 0.269 0.532 2.18 0.00 0.00 0.7150 7.23 3.98 1 1 1 13.420 14.030 14.440 14.570 14.500 3.444 1.817 13.370 13.890 14.350 14.440 14.430 2.729 1.462 0.9670 15.363 7.624 7.738 16.468 6.900 9.566
VANMET_231 2015-09-29 06:05:00 231 5603.0 13.370 14.070 14.500 14.530 14.660 49.490 41.800 3.023 1.716 13.670 13.690 12.180 10.950 0.207 0.232 0.269 0.532 0.36 0.00 0.00 0.6980 6.70 3.34 1 1 1 13.420 14.100 14.530 14.760 14.560 3.326 1.785 13.280 14.030 14.450 14.530 14.510 2.641 1.646 0.8750 15.343 7.590 7.750 16.543 6.914 9.628
VANMET_231 2015-09-29 06:00:00 231 5603.0 13.230 13.930 14.450 14.530 14.630 50.760 41.780 3.253 1.710 13.680 13.700 12.180 10.950 0.207 0.232 0.269 0.532 0.00 0.00 0.00 0.7100 6.52 5.76 1 1 1 13.280 14.020 14.480 14.700 14.590 3.669 1.789 13.200 13.870 14.430 14.580 14.510 2.988 1.589 0.8750 15.203 7.714 7.486 16.543 6.911 9.631
VANMET_231 2015-09-29 05:55:00 231 5603.0 13.170 13.850 14.450 14.540 14.750 51.560 41.780 3.421 1.715 13.700 13.700 12.180 10.950 0.207 0.232 0.269 0.532 0.00 0.00 0.00 0.7000 3.66 4.78 1 1 1 13.220 13.900 14.510 14.970 14.580 3.637 1.851 13.080 13.730 14.400 14.540 14.510 3.011 1.536 1.0060 15.144 7.807 7.336 16.553 6.914 9.637
VANMET_231 2015-09-29 05:50:00 231 5603.0 13.120 13.710 14.450 14.560 14.840 52.610 41.930 3.660 1.782 13.710 13.700 12.180 10.950 0.207 0.232 0.269 0.532 0.00 0.00 0.00 0.7940 3.19 5.58 1 1 1 13.210 13.720 14.480 15.050 14.590 3.940 2.004 13.070 13.690 14.400 14.550 14.510 3.343 1.533 1.0190 15.094 7.940 7.153 16.575 6.947 9.625
VANMET_231 2015-09-29 05:45:00 231 5603.0 13.340 13.670 14.300 14.450 14.630 51.940 42.050 3.678 1.724 13.730 13.710 12.180 10.950 0.207 0.232 0.269 0.532 0.00 0.00 0.00 0.7990 2.89 4.29 1 1 1 13.410 13.750 14.390 14.960 14.490 4.002 2.041 13.200 13.630 14.250 14.370 14.410 3.287 1.493 0.9730 15.313 7.950 7.359 16.457 6.918 9.537
VANMET_231 2015-09-29 05:40:00 231 5603.0 13.410 13.820 14.350 14.440 14.570 49.370 41.880 3.023 1.662 13.740 13.710 12.180 10.950 0.207 0.232 0.269 0.532 0.00 0.00 0.00 0.8010 5.20 2.71 1 1 1 13.440 13.900 14.400 14.630 14.490 3.577 1.805 13.340 13.720 14.260 14.470 14.370 2.608 1.539 1.0190 15.383 7.590 7.788 16.447 6.887 9.559
VANMET_231 2015-09-29 05:35:00 231 5603.0 13.270 13.600 14.150 14.290 14.300 49.340 42.460 2.892 1.716 13.760 13.720 12.180 10.950 0.207 0.232 0.269 0.532 0.00 0.00 0.00 0.7880 4.45 3.36 1 1 1 13.340 13.690 14.250 14.520 14.350 3.028 1.866 13.210 13.560 14.110 14.170 14.260 2.690 1.557 1.0450 15.243 7.519 7.722 16.288 6.914 9.372
VANMET_231 2015-09-29 05:30:00 231 5603.0 13.230 13.600 14.150 14.330 14.280 49.260 41.830 2.828 1.539 13.770 13.720 12.180 10.950 0.207 0.232 0.269 0.532 0.00 0.00 0.00 0.7460 8.12 2.78 1 1 1 13.240 13.620 14.170 14.380 14.360 3.064 1.873 13.200 13.570 14.130 14.190 14.300 2.632 1.310 1.0450 15.203 7.485 7.714 16.330 6.827 9.499
VANMET_231 2015-09-29 05:25:00 231 5603.0 13.300 13.790 14.300 14.470 14.350 48.910 41.450 2.797 1.543 13.790 13.730 12.180 10.950 0.207 0.232 0.269 0.532 0.00 0.00 0.00 0.6450 12.66 4.96 1 1 1 13.350 13.950 14.430 14.620 14.560 2.950 1.616 13.260 13.630 14.130 14.180 14.340 2.616 1.426 0.8360 15.273 7.469 7.803 16.479 6.829 9.648
VANMET_231 2015-09-29 05:20:00 231 5603.0 13.290 13.920 14.420 14.520 14.630 47.800 40.430 2.466 1.244 13.800 13.730 12.180 10.950 0.207 0.232 0.269 0.532 0.00 0.00 0.00 0.4080 29.59 9.97 1 1 1 13.330 13.950 14.430 14.680 14.560 2.679 1.367 13.250 13.880 14.390 14.600 14.490 2.336 1.160 0.7580 15.263 7.295 7.967 16.532 6.683 9.848
VANMET_231 2015-09-29 05:15:00 231 5603.0 13.190 13.890 14.420 14.530 14.630 47.760 40.020 2.355 1.106 13.820 13.730 12.180 10.950 0.207 0.232 0.269 0.532 0.00 0.00 0.00 0.1040 27.63 8.02 1 1 1 13.260 13.950 14.460 14.730 14.580 2.687 1.237 13.090 13.800 14.380 14.510 14.470 1.811 0.926 0.4050 15.164 7.237 7.921 16.543 6.617 9.922
VANMET_231 2015-09-29 05:10:00 231 5603.0 13.030 13.730 14.310 14.370 14.730 48.300 39.970 2.367 0.946 13.840 13.740 12.180 10.950 0.207 0.232 0.269 0.532 0.00 0.00 0.00 0.1070 27.22 6.28 1 1 1 13.090 13.800 14.420 15.030 14.510 2.709 1.132 12.940 13.520 14.070 14.340 14.170 1.940 0.686 0.6470 15.006 7.244 7.758 16.372 6.541 9.828
VANMET_231 2015-09-29 05:05:00 231 5603.0 12.940 13.510 14.070 14.180 14.270 49.390 40.480 2.595 0.952 13.850 13.740 12.180 10.950 0.207 0.232 0.269 0.532 0.00 0.00 0.00 0.6980 4.63 5.85 1 1 1 12.980 13.550 14.090 14.390 14.210 3.110 1.121 12.900 13.460 14.060 14.190 14.160 2.107 0.765 1.0390 14.918 7.362 7.550 16.172 6.544 9.626
VANMET_231 2015-09-29 05:00:00 231 5603.0 12.990 13.530 14.230 14.310 14.380 50.590 39.670 2.985 0.788 13.870 13.750 12.180 10.950 0.207 0.232 0.269 0.532 0.00 0.00 0.00 0.8440 9.53 6.14 1 1 1 13.070 13.640 14.350 14.620 14.370 3.382 1.142 12.910 13.430 14.080 14.090 14.220 2.533 0.525 1.0980 14.967 7.569 7.395 16.309 6.467 9.839
VANMET_231 2015-09-29 04:55:00 231 5603.0 13.210 13.680 14.290 14.340 14.650 47.800 38.080 2.381 0.248 13.880 13.750 12.180 10.950 0.207 0.232 0.269 0.532 0.00 0.00 0.00 0.4550 15.44 13.81 1 1 1 13.270 13.720 14.350 14.750 14.360 2.907 0.477 13.100 13.650 14.200 14.490 14.310 1.710 0.084 0.6140 15.183 7.251 7.926 16.341 6.219 10.118
VANMET_231 2015-09-29 04:50:00 231 5603.0 13.320 13.760 14.210 14.320 14.360 44.210 37.580 1.395 0.049 13.900 13.750 12.180 10.950 0.207 0.232 0.269 0.532 0.00 0.00 0.00 0.5220 45.46 16.35 1 1 1 13.370 13.770 14.240 14.470 14.360 1.659 0.102 13.270 13.730 14.190 14.310 14.290 1.196 -0.029 0.6660 15.293 6.756 8.532 16.320 6.130 10.187
VANMET_231 2015-09-29 04:45:00 231 5603.0 13.390 13.830 14.300 14.400 14.450 44.290 36.970 1.482 -0.103 13.910 13.760 12.180 10.950 0.207 0.232 0.269 0.532 0.00 0.00 0.00 0.4780 28.11 7.90 1 1 1 13.410 13.910 14.320 14.500 14.420 1.730 0.072 13.340 13.760 14.250 14.370 14.360 1.103 -0.289 0.6080 15.363 6.799 8.559 16.404 6.062 10.340
VANMET_231 2015-09-29 04:40:00 231 5603.0 13.290 13.830 14.320 14.460 14.520 43.760 36.690 1.225 -0.157 13.930 13.760 12.180 10.950 0.207 0.232 0.269 0.532 0.00 0.00 0.00 0.3970 47.62 15.88 1 1 1 13.360 13.910 14.350 14.650 14.520 1.720 0.048 13.240 13.770 14.310 14.460 14.410 0.927 -0.308 0.4830 15.263 6.674 8.584 16.468 6.038 10.426
VANMET_231 2015-09-29 04:35:00 231 5603.0 13.260 13.730 14.270 14.450 14.590 46.050 36.580 1.906 -0.211 13.950 13.760 12.180 10.950 0.207 0.232 0.269 0.532 0.00 0.00 0.00 0.3840 39.20 7.03 1 1 1 13.290 13.820 14.370 14.870 14.520 3.717 0.069 13.230 13.620 14.200 14.290 14.400 1.334 -0.524 0.5750 15.233 7.009 8.218 16.457 6.015 10.437
VANMET_231 2015-09-29 04:30:00 231 5603.0 13.360 13.800 14.340 14.480 14.460 46.320 37.280 2.079 0.083 13.960 13.770 12.180 10.950 0.207 0.232 0.269 0.532 0.00 0.00 0.00 0.6560 9.28 5.26 1 1 1 13.390 13.870 14.400 14.560 14.530 3.923 0.226 13.310 13.670 14.230 14.260 14.420 1.332 -0.163 0.9020 15.333 7.096 8.231 16.489 6.145 10.342
VANMET_231 2015-09-29 04:25:00 231 5603.0 13.330 13.880 14.440 14.550 14.610 44.260 36.590 1.422 -0.118 13.980 13.770 12.180 10.950 0.207 0.232 0.269 0.532 0.00 0.00 0.00 0.6990 7.71 4.44 1 1 1 13.410 13.920 14.470 14.710 14.580 2.290 0.221 13.250 13.840 14.410 14.520 14.500 0.997 -0.474 0.8300 15.303 6.770 8.530 16.564 6.056 10.503
VANMET_231 2015-09-29 04:20:00 231 5603.0 13.160 13.780 14.350 14.490 14.570 45.020 36.300 1.501 -0.278 13.990 13.770 12.190 10.950 0.207 0.232 0.269 0.532 0.00 0.00 0.00 0.8120 9.81 6.10 1 1 1 13.240 13.840 14.400 14.670 14.510 2.437 -0.040 13.100 13.740 14.320 14.480 14.470 0.984 -0.462 1.1430 15.134 6.808 8.321 16.500 5.985 10.511
VANMET_231 2015-09-29 04:15:00 231 5603.0 13.090 13.710 14.330 14.500 14.620 46.400 35.980 1.850 -0.394 14.010 13.780 12.190 10.950 0.207 0.232 0.269 0.532 0.00 0.00 0.00 0.7390 11.26 6.38 1 1 1 13.110 13.750 14.340 14.790 14.520 3.250 -0.198 13.060 13.640 14.290 14.520 14.450 1.003 -0.680 0.8620 15.065 6.981 8.075 16.511 5.935 10.570
VANMET_231 2015-09-29 04:10:00 231 5603.0 13.150 13.700 14.270 14.450 14.480 47.000 35.870 2.084 -0.480 14.030 13.780 12.190 10.950 0.207 0.232 0.269 0.532 0.00 0.00 0.00 0.6890 6.60 9.93 1 1 1 13.180 13.760 14.310 14.640 14.470 3.177 -0.186 13.100 13.590 14.250 14.330 14.420 1.038 -0.869 0.9730 15.124 7.099 8.016 16.457 5.898 10.554
VANMET_231 2015-09-29 04:05:00 231 5603.0 13.050 13.660 14.230 14.410 14.500 45.280 35.610 1.478 -0.615 14.040 13.780 12.190 10.950 0.207 0.232 0.269 0.532 0.00 0.00 0.00 0.8160 9.15 7.92 1 1 1 13.130 13.750 14.310 14.610 14.470 3.127 -0.420 13.000 13.580 14.160 14.350 14.340 0.948 -0.898 1.1830 15.025 6.797 8.222 16.415 5.840 10.570
VANMET_231 2015-09-29 04:00:00 231 5603.0 13.100 13.660 14.220 14.410 14.350 44.790 35.080 1.370 -0.816 14.060 13.790 12.190 10.950 0.207 0.232 0.269 0.532 0.00 0.00 0.00 0.8390 16.04 12.06 1 1 1 13.130 13.730 14.310 14.520 14.500 2.569 -0.583 13.050 13.590 14.150 14.230 14.330 0.438 -1.171 1.0910 15.075 6.744 8.323 16.415 5.754 10.657
VANMET_231 2015-09-29 03:55:00 231 5603.0 13.060 13.750 14.360 14.520 14.670 44.140 34.170 1.130 -1.081 14.080 13.790 12.190 10.950 0.207 0.232 0.269 0.532 0.00 0.00 0.00 0.5960 37.09 17.29 1 1 1 13.120 13.820 14.410 14.830 14.570 2.729 -0.784 13.000 13.630 14.270 14.410 14.440 0.217 -1.252 0.7840 15.035 6.629 8.399 16.532 5.644 10.883
VANMET_231 2015-09-29 03:50:00 231 5603.0 13.050 13.590 14.210 14.380 14.420 46.620 35.200 1.884 -0.800 14.090 13.790 12.190 10.950 0.207 0.232 0.269 0.532 0.00 0.00 0.00 0.5950 21.70 23.27 1 1 1 13.120 13.700 14.280 14.700 14.420 3.395 -0.241 12.990 13.540 14.160 14.200 14.360 0.804 -1.266 1.0060 15.025 6.998 8.021 16.383 5.761 10.616
VANMET_231 2015-09-29 03:45:00 231 5603.0 13.080 13.640 14.220 14.360 14.430 44.650 35.300 1.312 -0.775 14.110 13.790 12.190 10.950 0.207 0.232 0.269 0.532 0.00 0.00 0.00 0.8880 7.44 6.32 1 1 1 13.150 13.710 14.280 14.610 14.400 2.354 -0.445 13.030 13.560 14.180 14.310 14.340 0.515 -1.143 1.0260 15.055 6.716 8.333 16.362 5.772 10.586
VANMET_231 2015-09-29 03:40:00 231 5603.0 13.080 13.550 14.160 14.310 14.410 45.880 35.480 1.683 -0.751 14.130 13.800 12.190 10.950 0.207 0.232 0.269 0.532 0.00 0.00 0.00 0.9170 13.22 13.92 1 1 1 13.150 13.590 14.220 14.600 14.350 2.830 -0.225 13.020 13.510 14.100 14.150 14.270 0.712 -1.105 1.1760 15.055 6.898 8.148 16.309 5.782 10.523
VANMET_231 2015-09-29 03:35:00 231 5603.0 13.130 13.580 14.150 14.270 14.380 44.850 36.090 1.406 -0.550 14.140 13.800 12.190 10.950 0.207 0.232 0.269 0.532 0.00 0.00 0.00 0.9360 7.76 8.19 1 1 1 13.180 13.640 14.210 14.520 14.330 3.336 -0.118 13.050 13.480 14.040 14.250 14.170 0.630 -0.906 1.1890 15.104 6.762 8.330 16.267 5.868 10.396
VANMET_231 2015-09-29 03:30:00 231 5603.0 13.050 13.440 13.950 14.140 14.110 44.780 36.820 1.315 -0.403 14.160 13.800 12.190 10.950 0.207 0.232 0.269 0.532 0.00 0.00 0.00 0.8160 21.34 15.15 1 1 1 13.080 13.490 14.040 14.320 14.160 2.959 0.511 13.030 13.370 13.870 13.880 14.100 0.709 -0.830 1.0910 15.025 6.718 8.297 16.130 5.931 10.191
VANMET_231 2015-09-29 03:25:00 231 5603.0 13.070 13.540 14.060 14.290 14.130 45.000 36.530 1.403 -0.371 14.170 13.800 12.190 10.950 0.207 0.232 0.269 0.532 0.00 0.00 0.00 0.7870 23.51 12.20 1 1 1 13.110 13.640 14.200 14.340 14.430 2.999 -0.195 13.040 13.450 13.960 13.980 14.170 0.720 -0.545 1.0650 15.045 6.760 8.275 16.288 5.945 10.338
VANMET_231 2015-09-29 03:20:00 231 5603.0 12.990 13.620 14.230 14.490 14.500 44.010 35.560 1.031 -0.561 14.190 13.810 12.190 10.950 0.207 0.232 0.269 0.532 0.00 0.00 0.00 0.7320 39.81 17.81 1 1 1 13.070 13.670 14.250 14.710 14.520 2.029 -0.441 12.940 13.560 14.190 14.290 14.430 0.528 -0.735 0.9870 14.967 6.582 8.380 16.500 5.863 10.633
VANMET_231 2015-09-29 03:15:00 231 5603.0 12.900 13.430 14.060 14.360 14.380 45.260 35.750 1.335 -0.602 14.210 13.810 12.190 10.950 0.207 0.232 0.269 0.532 0.00 0.00 0.00 0.9190 44.49 17.35 1 1 1 12.990 13.550 14.170 14.650 14.450 2.608 -0.418 12.850 13.320 13.990 14.140 14.300 0.495 -1.083 1.4700 14.879 6.727 8.145 16.362 5.845 10.513
VANMET_231 2015-09-29 03:10:00 231 5603.0 13.030 13.460 14.080 14.360 14.280 47.190 35.920 2.007 -0.541 14.220 13.810 12.190 10.950 0.207 0.232 0.269 0.532 0.00 0.00 0.00 0.9370 42.21 24.81 1 1 1 13.080 13.530 14.140 14.490 14.390 4.106 -0.102 12.940 13.330 13.990 14.010 14.310 0.765 -0.688 1.2740 15.006 7.060 7.925 16.362 5.871 10.485
VANMET_231 2015-09-29 03:05:00 231 5603.0 13.160 13.590 14.190 14.530 14.290 45.070 35.580 1.500 -0.519 14.240 13.810 12.190 10.950 0.207 0.232 0.269 0.532 0.00 0.00 0.00 0.7470 31.17 16.83 1 1 1 13.180 13.680 14.320 14.410 14.650 3.353 0.010 13.080 13.460 14.060 14.030 14.370 0.775 -0.750 0.9930 15.134 6.808 8.313 16.543 5.881 10.657
VANMET_231 2015-09-29 03:00:00 231 5603.0 13.200 13.790 14.470 14.810 14.560 45.480 35.320 1.671 -0.372 14.260 13.810 12.190 10.950 0.207 0.232 0.269 0.532 0.00 0.00 0.00 0.7090 31.84 11.24 1 1 1 13.230 13.880 14.600 14.820 14.940 3.278 -0.287 13.150 13.690 14.330 14.350 14.660 0.924 -0.477 1.0520 15.173 6.892 8.273 16.844 5.944 10.895
VANMET_231 2015-09-29 02:55:00 231 5603.0 13.070 13.790 14.490 14.820 14.920 44.880 35.070 1.367 -0.463 14.270 13.810 12.190 10.950 0.207 0.232 0.269 0.532 0.00 0.00 0.00 0.5630 53.87 13.92 1 1 1 13.140 13.880 14.600 15.150 14.940 3.106 -0.233 13.020 13.640 14.350 14.580 14.610 0.545 -0.873 1.1170 15.045 6.743 8.293 16.855 5.905 10.944
VANMET_231 2015-09-29 02:50:00 231 5603.0 13.020 13.650 14.310 14.560 14.540 45.030 35.070 1.366 -0.693 14.290 13.820 12.190 10.950 0.207 0.232 0.269 0.532 0.00 0.00 0.00 0.6710 41.48 15.10 1 1 1 13.050 13.690 14.350 14.960 14.590 2.956 -0.554 12.950 13.620 14.270 14.340 14.520 0.690 -0.854 1.1960 14.996 6.742 8.243 16.575 5.807 10.762
VANMET_231 2015-09-29 02:45:00 231 5603.0 12.910 13.510 14.230 14.500 14.500 46.320 35.260 1.649 -0.670 14.310 13.820 12.190 10.950 0.207 0.232 0.269 0.532 0.00 0.00 0.00 0.7200 38.47 16.32 1 1 1 12.930 13.630 14.340 14.700 14.570 3.765 -0.200 12.880 13.430 14.180 14.160 14.440 0.488 -0.824 1.5030 14.889 6.881 7.992 16.511 5.816 10.689
VANMET_231 2015-09-29 02:40:00 231 5603.0 12.910 13.470 14.120 14.340 14.350 47.800 35.560 2.082 -0.692 14.330 13.820 12.190 10.950 0.207 0.232 0.269 0.532 0.00 0.00 0.00 0.9190 37.75 14.27 1 1 1 12.930 13.540 14.230 14.660 14.440 3.872 -0.129 12.870 13.410 14.050 14.120 14.290 0.864 -1.115 1.4900 14.889 7.098 7.772 16.341 5.807 10.530
VANMET_231 2015-09-29 02:35:00 231 5603.0 12.930 13.490 14.090 14.290 14.390 47.750 36.080 2.087 -0.542 14.340 13.820 12.190 10.950 0.207 0.232 0.269 0.532 0.00 0.00 0.00 0.8960 25.43 18.87 1 1 1 12.970 13.550 14.160 14.780 14.370 3.873 0.269 12.880 13.400 13.990 14.030 14.170 0.601 -0.847 1.2610 14.908 7.100 7.789 16.288 5.871 10.411
VANMET_231 2015-09-29 02:30:00 231 5603.0 12.830 13.460 14.040 14.220 14.260 46.230 36.110 1.558 -0.590 14.360 13.820 12.190 10.950 0.207 0.232 0.269 0.532 0.00 0.00 0.00 0.8840 23.88 6.74 1 1 1 12.920 13.520 14.070 14.380 14.230 3.813 -0.361 12.730 13.390 14.010 14.140 14.200 0.802 -0.776 1.1240 14.811 6.836 7.964 16.214 5.850 10.359
VANMET_231 2015-09-29 02:25:00 231 5603.0 12.700 13.350 14.010 14.200 14.260 49.590 36.450 2.422 -0.479 14.380 13.820 12.190 10.950 0.207 0.232 0.269 0.532 0.00 0.00 0.00 1.0040 18.13 10.76 1 1 1 12.750 13.410 14.040 14.490 14.230 3.727 0.030 12.660 13.260 13.980 14.070 14.180 1.451 -0.782 1.1960 14.685 7.272 7.403 16.193 5.898 10.291
VANMET_231 2015-09-29 02:20:00 231 5603.0 12.630 13.300 13.960 14.140 14.240 49.920 36.570 2.437 -0.490 14.390 13.820 12.190 10.950 0.207 0.232 0.269 0.532 0.00 0.00 0.00 1.0420 15.07 9.43 1 1 1 12.650 13.350 14.030 14.460 14.160 4.080 -0.187 12.600 13.240 13.910 14.030 14.120 0.948 -0.796 1.2350 14.618 7.280 7.321 16.130 5.893 10.232
VANMET_231 2015-09-29 02:15:00 231 5603.0 12.700 13.290 13.920 14.110 14.160 52.560 37.520 3.236 -0.168 14.410 13.820 12.190 10.950 0.207 0.232 0.269 0.532 0.00 0.00 0.00 0.6550 13.37 14.43 1 1 1 12.800 13.370 13.970 14.460 14.150 4.663 0.552 12.610 13.180 13.810 13.750 14.050 1.690 -0.846 0.9410 14.685 7.705 6.967 16.099 6.034 10.059
VANMET_231 2015-09-29 02:10:00 231 5603.0 12.780 13.320 13.940 14.100 14.220 50.510 37.890 2.752 -0.036 14.430 13.830 12.190 10.950 0.207 0.232 0.269 0.532 0.00 0.00 0.00 0.7680 8.41 14.15 1 1 1 12.800 13.360 13.980 14.420 14.150 4.251 0.882 12.750 13.250 13.890 14.040 14.070 1.675 -0.572 1.0850 14.762 7.445 7.306 16.089 6.092 9.993
VANMET_231 2015-09-29 02:05:00 231 5603.0 12.710 13.280 13.890 14.070 14.130 48.990 37.800 2.261 -0.099 14.450 13.830 12.190 10.950 0.207 0.232 0.269 0.532 0.00 0.00 0.00 0.8260 10.35 11.93 1 1 1 12.750 13.370 13.940 14.250 14.100 3.679 0.398 12.690 13.210 13.830 13.880 14.030 1.253 -0.640 0.9730 14.695 7.189 7.496 16.057 6.064 9.988
VANMET_231 2015-09-29 02:00:00 231 5603.0 12.740 13.310 13.910 14.090 14.180 50.510 37.280 2.711 -0.266 14.460 13.830 12.190 10.950 0.207 0.232 0.269 0.532 0.00 0.00 0.00 0.8130 11.76 12.65 1 1 1 12.760 13.380 13.950 14.520 14.130 4.139 0.269 12.710 13.250 13.860 13.940 14.060 1.281 -0.901 1.0060 14.724 7.423 7.287 16.078 5.991 10.084
VANMET_231 2015-09-29 01:55:00 231 5603.0 12.710 13.330 13.880 14.070 14.130 49.210 37.200 2.321 -0.314 14.480 13.830 12.190 10.950 0.207 0.232 0.269 0.532 0.00 0.00 0.00 0.7920 11.40 7.91 1 1 1 12.730 13.380 13.930 14.320 14.100 3.877 0.139 12.690 13.270 13.860 13.920 14.050 1.328 -0.718 1.1240 14.695 7.220 7.463 16.057 5.970 10.084
VANMET_231 2015-09-29 01:50:00 231 5603.0 12.760 13.370 13.950 14.150 14.060 51.650 37.700 3.030 -0.058 14.500 13.830 12.190 10.950 0.207 0.232 0.269 0.532 0.00 0.00 0.00 0.8710 9.30 12.71 1 1 1 12.860 13.470 14.050 14.200 14.230 4.808 0.453 12.700 13.300 13.890 13.900 14.080 1.281 -0.533 1.0520 14.743 7.593 7.128 16.141 6.082 10.056
VANMET_231 2015-09-29 01:45:00 231 5603.0 12.830 13.420 14.040 14.240 14.230 49.630 37.110 2.557 -0.196 14.510 13.830 12.190 10.950 0.207 0.232 0.269 0.532 0.00 0.00 0.00 0.8990 4.19 9.70 1 1 1 12.870 13.520 14.070 14.370 14.280 3.850 0.322 12.810 13.380 14.010 14.060 14.210 1.353 -0.657 1.1430 14.811 7.342 7.460 16.235 6.021 10.210
VANMET_231 2015-09-29 01:40:00 231 5603.0 12.800 13.390 14.070 14.300 14.260 49.030 37.280 2.349 -0.079 14.530 13.830 12.190 10.950 0.207 0.232 0.269 0.532 0.00 0.00 0.00 0.8570 3.74 9.60 1 1 1 12.840 13.420 14.110 14.430 14.350 4.222 0.344 12.750 13.370 14.040 14.110 14.260 1.538 -0.445 1.0060 14.782 7.234 7.534 16.298 6.073 10.222
VANMET_231 2015-09-29 01:35:00 231 5603.0 12.720 13.350 14.070 14.290 14.400 50.260 36.540 2.616 -0.370 14.550 13.830 12.190 10.950 0.207 0.232 0.269 0.532 0.00 0.00 0.00 0.7510 17.81 15.10 1 1 1 12.770 13.430 14.140 14.580 14.360 4.476 0.306 12.690 13.240 13.960 14.170 14.190 1.367 -0.908 0.9340 14.704 7.373 7.314 16.288 5.945 10.336
VANMET_231 2015-09-29 01:30:00 231 5603.0 12.790 13.340 14.010 14.270 14.230 51.100 36.650 2.923 -0.345 14.570 13.830 12.190 10.950 0.207 0.232 0.269 0.532 0.00 0.00 0.00 0.7530 15.21 13.23 1 1 1 12.830 13.400 14.060 14.380 14.320 4.274 0.038 12.720 13.270 13.950 14.040 14.210 1.491 -0.654 1.0320 14.772 7.536 7.223 16.267 5.956 10.305
VANMET_231 2015-09-29 01:25:00 231 5603.0 12.860 13.360 14.040 14.300 14.250 49.210 36.400 2.452 -0.409 14.580 13.830 12.190 10.950 0.207 0.232 0.269 0.532 0.00 0.00 0.00 0.8130 18.05 15.57 1 1 1 12.940 13.440 14.100 14.380 14.340 4.409 0.764 12.790 13.260 13.970 13.910 14.260 1.164 -0.753 1.0580 14.840 7.288 7.537 16.298 5.928 10.366
VANMET_231 2015-09-29 01:20:00 231 5603.0 12.960 13.490 14.160 14.400 14.390 47.690 36.240 2.107 -0.384 14.600 13.830 12.200 10.950 0.207 0.232 0.269 0.532 0.00 0.00 0.00 0.8500 13.30 14.40 1 1 1 12.990 13.580 14.230 14.600 14.440 3.615 0.217 12.920 13.420 14.090 14.170 14.340 1.041 -0.711 1.2020 14.937 7.110 7.814 16.404 5.939 10.459
VANMET_231 2015-09-29 01:15:00 231 5603.0 13.030 13.590 14.170 14.480 14.340 48.470 36.260 2.410 -0.304 14.620 13.820 12.200 10.950 0.207 0.232 0.269 0.532 0.00 0.00 0.00 0.8980 21.11 22.44 1 1 1 13.110 13.720 14.280 14.540 14.580 3.868 0.375 12.970 13.480 14.110 14.080 14.400 1.207 -0.879 1.3460 15.006 7.266 7.733 16.489 5.974 10.510
VANMET_231 2015-09-29 01:10:00 231 5603.0 13.120 13.730 14.360 14.620 14.630 46.680 35.390 1.953 -0.515 14.630 13.820 12.200 10.950 0.207 0.232 0.269 0.532 0.00 0.00 0.00 0.8400 15.01 14.16 1 1 1 13.150 13.770 14.390 14.860 14.650 3.508 0.052 13.100 13.690 14.290 14.400 14.570 0.970 -0.915 1.1960 15.094 7.032 8.048 16.639 5.883 10.751
VANMET_231 2015-09-29 01:05:00 231 5603.0 13.070 13.750 14.390 14.590 14.710 46.390 35.290 1.825 -0.572 14.650 13.820 12.200 10.950 0.207 0.232 0.269 0.532 0.00 0.00 0.00 0.9440 13.72 12.28 1 1 1 13.150 13.840 14.460 14.920 14.630 3.363 -0.273 12.970 13.690 14.330 14.450 14.530 0.623 -0.889 1.3720 15.045 6.968 8.066 16.607 5.858 10.746
VANMET_231 2015-09-29 01:00:00 231 5603.0 12.830 13.500 14.170 14.390 14.650 46.770 35.950 1.723 -0.502 14.670 13.820 12.200 10.950 0.207 0.232 0.269 0.532 0.00 0.00 0.00 0.7610 21.17 12.63 1 1 1 12.950 13.700 14.360 14.950 14.520 3.164 0.332 12.760 13.280 13.970 14.180 14.280 0.964 -0.947 1.1630 14.811 6.917 7.884 16.394 5.888 10.500
VANMET_231 2015-09-29 00:55:00 231 5603.0 12.880 13.330 13.980 14.280 14.250 52.060 37.450 3.274 -0.042 14.690 13.820 12.200 10.950 0.207 0.232 0.269 0.532 0.00 0.00 0.00 0.8420 16.24 22.65 1 1 1 12.950 13.410 14.030 14.510 14.300 4.432 0.512 12.810 13.260 13.960 14.100 14.250 1.623 -0.387 1.1110 14.859 7.726 7.124 16.277 6.089 10.182
VANMET_231 2015-09-29 00:50:00 231 5603.0 12.990 13.430 14.040 14.330 14.270 48.040 36.800 2.239 -0.243 14.700 13.820 12.200 10.950 0.207 0.232 0.269 0.532 0.00 0.00 0.00 0.7940 23.65 22.11 1 1 1 13.070 13.520 14.130 14.610 14.410 3.663 0.874 12.930 13.350 13.960 14.000 14.240 1.175 -0.739 1.1300 14.967 7.178 7.777 16.330 6.001 10.321
VANMET_231 2015-09-29 00:45:00 231 5603.0 13.120 13.570 14.170 14.430 14.470 47.460 35.790 2.181 -0.533 14.720 13.820 12.200 10.950 0.207 0.232 0.269 0.532 0.00 0.00 0.00 0.6000 8.57 27.80 1 1 1 13.160 13.650 14.240 14.870 14.480 4.130 0.427 13.090 13.470 14.110 14.200 14.390 0.637 -1.047 1.1830 15.094 7.148 7.931 16.436 5.875 10.554
VANMET_231 2015-09-29 00:40:00 231 5603.0 13.240 13.730 14.300 14.500 14.450 45.260 34.770 1.632 -0.860 14.740 13.820 12.200 10.950 0.207 0.232 0.269 0.532 0.00 0.00 0.00 0.6540 7.69 12.02 1 1 1 13.280 13.810 14.360 14.630 14.540 3.602 -0.291 13.190 13.580 14.170 14.220 14.430 0.274 -1.140 1.0000 15.213 6.872 8.328 16.511 5.736 10.770
VANMET_231 2015-09-29 00:35:00 231 5603.0 13.290 13.800 14.370 14.520 14.600 43.020 33.670 0.961 -1.280 14.760 13.810 12.200 10.950 0.207 0.232 0.269 0.532 0.00 0.00 0.00 0.9410 10.21 14.04 1 1 1 13.310 13.840 14.400 14.690 14.570 2.902 -1.055 13.260 13.750 14.330 14.420 14.470 -0.098 -1.463 1.2410 15.263 6.548 8.697 16.532 5.562 10.966
VANMET_231 2015-09-29 00:30:00 231 5603.0 13.270 13.770 14.330 14.470 14.480 42.440 33.530 0.770 -1.384 14.770 13.810 12.200 10.950 0.207 0.232 0.269 0.532 0.00 0.00 0.00 0.9650 12.66 11.73 1 1 1 13.300 13.820 14.370 14.640 14.500 2.672 -1.183 13.240 13.710 14.300 14.340 14.440 -0.259 -1.533 1.2150 15.243 6.459 8.774 16.479 5.519 10.953
VANMET_231 2015-09-29 00:25:00 231 5603.0 13.240 13.760 14.330 14.470 14.520 41.440 33.320 0.415 -1.464 14.790 13.810 12.200 10.950 0.207 0.232 0.269 0.532 0.00 0.00 0.00 0.9970 10.21 8.39 1 1 1 13.290 13.800 14.360 14.650 14.510 2.182 -1.193 13.200 13.720 14.310 14.380 14.450 -0.576 -1.665 1.2810 15.213 6.295 8.909 16.479 5.487 10.988
VANMET_231 2015-09-29 00:20:00 231 5603.0 13.200 13.730 14.300 14.460 14.470 41.300 32.860 0.334 -1.666 14.810 13.810 12.200 10.950 0.207 0.232 0.269 0.532 0.00 0.00 0.00 1.0320 14.02 10.69 1 1 1 13.250 13.750 14.330 14.550 14.490 1.888 -1.427 13.140 13.700 14.280 14.390 14.440 -0.418 -1.837 1.1960 15.173 6.258 8.907 16.468 5.406 11.057
VANMET_231 2015-09-29 00:15:00 231 5603.0 13.070 13.680 14.310 14.450 14.540 43.310 33.130 0.870 -1.560 14.820 13.800 12.200 10.950 0.207 0.232 0.269 0.532 0.00 0.00 0.00 1.0470 9.31 9.96 1 1 1 13.140 13.710 14.340 14.770 14.470 1.978 -1.250 12.960 13.660 14.280 14.410 14.420 -0.222 -1.746 1.3850 15.045 6.505 8.529 16.457 5.448 11.005
VANMET_231 2015-09-29 00:10:00 231 5603.0 12.820 13.440 14.140 14.350 14.560 43.930 33.210 0.830 -1.624 14.840 13.800 12.200 10.950 0.207 0.232 0.269 0.532 0.00 0.00 0.00 1.0090 12.85 17.57 1 1 1 12.930 13.650 14.270 14.890 14.450 2.552 -1.193 12.760 13.270 13.960 14.230 14.210 -0.239 -1.941 1.2350 14.801 6.487 8.299 16.351 5.423 10.921
VANMET_231 2015-09-29 00:05:00 231 5603.0 12.840 13.360 14.010 14.250 14.250 46.640 33.710 1.669 -1.507 14.860 13.800 12.200 10.950 0.207 0.232 0.269 0.532 0.00 0.00 0.00 1.0230 0.57 12.87 1 1 1 12.880 13.450 14.080 14.430 14.300 3.481 -0.454 12.790 13.270 13.950 13.990 14.190 0.115 -1.837 1.1890 14.820 6.891 7.908 16.246 5.470 10.769
VANMET_231 2015-09-29 00:00:00 231 5603.0 12.820 13.380 14.020 14.250 14.330 47.330 34.050 1.850 -1.369 14.870 13.800 12.200 10.950 0.207 0.232 0.269 0.532 0.00 0.00 0.00 0.8260 8.24 17.26 1 1 1 12.860 13.450 14.080 14.560 14.300 3.923 -0.286 12.770 13.340 13.970 14.030 14.210 0.195 -1.770 1.0710 14.801 6.981 7.796 16.246 5.525 10.714
VANMET_231 2015-09-28 23:55:00 231 5603.0 12.800 13.360 13.980 14.250 14.210 48.620 34.780 2.216 -1.076 14.890 13.790 12.200 10.950 0.207 0.232 0.269 0.532 0.00 0.00 0.00 0.7610 16.91 12.95 1 1 1 12.830 13.440 14.040 14.440 14.280 4.082 -0.189 12.760 13.310 13.940 13.930 14.230 0.797 -1.568 0.9930 14.782 7.166 7.595 16.246 5.646 10.596
VANMET_231 2015-09-28 23:50:00 231 5603.0 12.890 13.440 14.140 14.370 14.260 48.460 35.190 2.265 -0.817 14.910 13.790 12.200 10.950 0.207 0.232 0.269 0.532 0.00 0.00 0.00 0.8550 0.62 13.37 1 1 1 12.950 13.580 14.260 14.680 14.420 3.679 -0.093 12.810 13.370 14.000 14.030 14.290 0.910 -1.322 1.2410 14.869 7.191 7.663 16.372 5.754 10.611
VANMET_231 2015-09-28 23:45:00 231 5603.0 12.960 13.520 14.150 14.310 14.450 46.080 34.670 1.636 -1.071 14.920 13.790 12.200 10.950 0.207 0.232 0.269 0.532 0.00 0.00 0.00 0.8800 6.53 9.61 1 1 1 12.990 13.570 14.250 14.740 14.370 3.039 -0.511 12.930 13.490 14.090 14.230 14.260 0.516 -1.455 1.0980 14.937 6.874 8.054 16.309 5.648 10.655
VANMET_231 2015-09-28 23:40:00 231 5603.0 12.930 13.510 14.120 14.300 14.330 46.990 35.540 1.883 -0.741 14.940 13.780 12.200 10.950 0.207 0.232 0.269 0.532 0.00 0.00 0.00 0.8900 2.60 4.84 1 1 1 12.960 13.540 14.140 14.550 14.320 3.501 -0.087 12.900 13.450 14.100 14.170 14.270 0.776 -1.096 1.1890 14.908 6.997 7.903 16.298 5.786 10.506
VANMET_231 2015-09-28 23:35:00 231 5603.0 12.920 13.540 14.120 14.290 14.410 46.440 35.460 1.706 -0.775 14.960 13.780 12.200 10.950 0.207 0.232 0.269 0.532 0.00 0.00 0.00 0.7910 4.12 8.23 1 1 1 12.970 13.590 14.180 14.540 14.320 2.977 -0.349 12.870 13.430 14.000 14.160 14.240 0.539 -1.013 0.9280 14.898 6.909 7.980 16.288 5.772 10.512
VANMET_231 2015-09-28 23:30:00 231 5603.0 12.980 13.490 14.070 14.330 14.180 48.910 36.350 2.474 -0.401 14.970 13.770 12.200 10.950 0.207 0.232 0.269 0.532 0.00 0.00 0.00 0.8040 10.99 12.41 1 1 1 13.050 13.650 14.220 14.490 14.410 4.370 0.054 12.890 13.390 13.990 14.000 14.250 1.163 -0.802 1.0000 14.957 7.299 7.641 16.330 5.932 10.394
VANMET_231 2015-09-28 23:25:00 231 5603.0 12.970 13.530 14.140 14.320 14.410 47.120 36.660 1.957 -0.299 14.990 13.770 12.200 10.950 0.207 0.232 0.269 0.532 0.00 0.00 0.00 0.8180 17.98 12.25 1 1 1 13.020 13.630 14.240 14.610 14.410 3.979 0.178 12.930 13.390 14.020 14.100 14.210 1.202 -0.648 0.9670 14.947 7.034 7.904 16.320 5.976 10.337
VANMET_231 2015-09-28 23:20:00 231 5603.0 13.060 13.510 14.050 14.190 14.310 49.000 37.910 2.597 0.055 15.010 13.760 12.200 10.950 0.207 0.232 0.269 0.532 0.00 0.00 0.00 0.8260 21.82 11.42 1 1 1 13.120 13.540 14.080 14.510 14.230 3.757 0.409 13.020 13.460 14.010 14.140 14.150 1.630 -0.204 1.0580 15.035 7.363 7.668 16.183 6.132 10.048
VANMET_231 2015-09-28 23:15:00 231 5603.0 13.070 13.570 14.080 14.200 14.230 48.140 39.670 2.356 0.687 15.020 13.760 12.210 10.950 0.207 0.232 0.269 0.532 0.00 0.00 0.00 0.7650 11.13 8.37 1 1 1 13.110 13.610 14.140 14.390 14.240 3.060 0.933 12.970 13.520 14.030 14.060 14.160 1.861 0.414 0.9340 15.045 7.238 7.802 16.193 6.420 9.769
VANMET_231 2015-09-28 23:10:00 231 5603.0 12.910 13.430 13.990 14.150 14.120 50.190 41.050 2.787 1.121 15.040 13.750 12.210 10.950 0.207 0.232 0.269 0.532 0.00 0.00 0.00 0.7260 8.73 4.88 1 1 1 12.960 13.500 14.050 14.270 14.210 4.367 1.774 12.880 13.400 13.950 14.000 14.110 1.997 0.577 0.8820 14.889 7.464 7.416 16.141 6.624 9.515
VANMET_231 2015-09-28 23:05:00 231 5603.0 12.830 13.380 14.040 14.240 14.220 53.160 42.100 3.530 1.550 15.060 13.750 12.210 10.950 0.207 0.232 0.269 0.532 0.00 0.00 0.00 0.7440 6.89 14.80 1 1 1 12.880 13.450 14.050 14.310 14.260 4.700 1.798 12.790 13.320 14.020 14.140 14.220 2.912 1.340 0.8890 14.811 7.867 6.937 16.235 6.832 9.400
VANMET_231 2015-09-28 23:00:00 231 5603.0 12.840 13.370 14.030 14.260 14.270 53.150 42.040 3.536 1.545 15.070 13.740 12.210 10.950 0.207 0.232 0.269 0.532 0.00 0.00 0.00 0.8480 6.24 9.33 1 1 1 12.890 13.440 14.110 14.520 14.310 4.966 2.197 12.800 13.330 14.000 14.030 14.230 2.630 1.256 1.0580 14.820 7.870 6.943 16.256 6.830 9.422
VANMET_231 2015-09-28 22:55:00 231 5603.0 12.820 13.450 14.130 14.320 14.390 51.620 41.700 3.110 1.490 15.090 13.740 12.210 10.950 0.207 0.232 0.269 0.532 0.00 0.00 0.00 0.7500 14.18 20.54 1 1 1 12.880 13.490 14.160 14.620 14.350 3.753 1.848 12.750 13.380 14.100 14.230 14.290 2.626 1.292 1.0000 14.801 7.637 7.161 16.320 6.803 9.514
VANMET_231 2015-09-28 22:50:00 231 5603.0 12.680 13.330 14.100 14.280 14.420 53.140 41.970 3.393 1.546 15.100 13.730 12.210 10.950 0.207 0.232 0.269 0.532 0.00 0.00 0.00 0.7980 356.70 13.72 1 1 1 12.760 13.420 14.140 14.530 14.320 4.117 1.710 12.620 13.250 14.030 14.280 14.200 2.972 1.404 1.0980 14.666 7.791 6.872 16.277 6.830 9.446
VANMET_231 2015-09-28 22:45:00 231 5603.0 12.670 13.240 13.910 14.120 14.270 53.560 42.710 3.492 1.646 15.120 13.730 12.210 10.950 0.207 0.232 0.269 0.532 0.00 0.00 0.00 0.7810 5.51 19.76 1 1 1 12.710 13.270 14.010 14.450 14.220 3.909 1.892 12.580 13.150 13.760 14.000 14.000 2.408 1.436 1.0190 14.656 7.846 6.806 16.110 6.879 9.229
VANMET_231 2015-09-28 22:40:00 231 5603.0 12.570 13.160 13.790 14.040 14.000 53.760 43.080 3.452 1.692 15.130 13.720 12.210 10.950 0.207 0.232 0.269 0.532 0.00 0.00 0.00 0.9070 6.26 16.63 1 1 1 12.620 13.240 13.880 14.220 14.120 4.427 1.913 12.530 13.080 13.730 13.760 14.000 2.396 1.481 1.1170 14.560 7.824 6.733 16.026 6.902 9.122
VANMET_231 2015-09-28 22:35:00 231 5603.0 12.610 13.210 13.870 14.070 14.130 51.340 41.450 2.833 1.181 15.150 13.710 12.210 10.950 0.207 0.232 0.269 0.532 0.00 0.00 0.00 0.8360 5.13 14.13 1 1 1 12.640 13.250 13.900 14.280 14.100 3.910 1.444 12.580 13.150 13.810 14.000 14.030 2.073 0.956 1.0520 14.599 7.488 7.104 16.057 6.653 9.402
VANMET_231 2015-09-28 22:30:00 231 5603.0 12.480 13.100 13.740 13.920 14.150 50.550 41.250 2.495 0.980 15.160 13.710 12.210 10.950 0.207 0.232 0.269 0.532 0.00 0.00 0.00 0.9930 18.49 19.50 1 1 1 12.600 13.230 13.850 14.320 14.040 3.699 1.317 12.370 12.890 13.500 13.680 13.740 1.722 0.829 1.4050 14.475 7.310 7.158 15.902 6.557 9.342
VANMET_231 2015-09-28 22:25:00 231 5603.0 12.330 12.790 13.380 13.630 13.740 51.430 41.870 2.597 0.926 15.180 13.700 12.210 10.950 0.207 0.232 0.269 0.532 0.00 0.00 0.00 0.9900 11.27 9.68 1 1 1 12.370 12.940 13.530 14.110 13.760 3.953 1.097 12.300 12.710 13.300 13.430 13.580 1.834 0.812 1.2220 14.333 7.363 6.961 15.605 6.532 9.071
VANMET_231 2015-09-28 22:20:00 231 5603.0 12.360 12.780 13.400 13.700 13.680 55.840 42.750 3.785 1.274 15.190 13.690 12.210 10.950 0.207 0.232 0.269 0.532 0.00 0.00 0.00 1.0190 23.10 27.45 1 1 1 12.400 12.840 13.470 14.100 13.770 5.191 1.870 12.330 12.730 13.340 13.400 13.640 2.251 0.848 1.3590 14.361 8.010 6.342 15.676 6.698 8.975
VANMET_231 2015-09-28 22:15:00 231 5603.0 12.390 12.750 13.340 13.690 13.520 56.990 44.470 4.104 1.810 15.210 13.690 12.210 10.950 0.207 0.232 0.269 0.532 0.00 0.00 0.00 1.0700 7.47 26.12 1 1 1 12.450 12.880 13.470 14.170 13.800 5.159 2.750 12.320 12.660 13.230 13.160 13.590 2.862 0.584 1.4830 14.389 8.192 6.189 15.666 6.961 8.699
VANMET_231 2015-09-28 22:10:00 231 5603.0 12.440 12.920 13.510 13.810 13.780 55.490 43.240 3.777 1.528 15.220 13.680 12.210 10.950 0.207 0.232 0.269 0.532 0.00 0.00 0.00 0.9640 9.72 22.82 1 1 1 12.460 12.980 13.570 13.960 13.840 5.069 2.439 12.410 12.850 13.440 13.530 13.780 2.974 1.025 1.4770 14.437 8.005 6.426 15.789 6.821 8.962
VANMET_231 2015-09-28 22:05:00 231 5603.0 12.460 12.940 13.500 13.790 13.810 55.220 43.660 3.725 1.646 15.230 13.670 12.210 10.950 0.207 0.232 0.269 0.532 0.00 0.00 0.00 0.9300 20.80 23.45 1 1 1 12.490 13.010 13.580 14.210 13.840 4.932 2.612 12.420 12.870 13.420 13.540 13.750 2.808 0.683 1.6270 14.456 7.976 6.473 15.768 6.879 8.884
VANMET_231 2015-09-28 22:00:00 231 5603.0 12.480 12.960 13.580 13.880 13.800 56.480 43.970 4.059 1.824 15.250 13.660 12.210 10.950 0.207 0.232 0.269 0.532 0.00 0.00 0.00 0.9180 11.88 27.83 1 1 1 12.520 13.030 13.680 14.210 13.920 5.227 2.439 12.440 12.880 13.460 13.460 13.800 3.055 1.037 1.5750 14.475 8.166 6.299 15.861 6.968 8.887
VANMET_231 2015-09-28 21:55:00 231 5603.0 12.320 12.780 13.420 13.620 13.910 55.290 43.870 3.609 1.556 15.260 13.660 12.210 10.950 0.207 0.232 0.269 0.532 0.00 0.00 0.00 1.0080 19.08 17.52 1 1 1 12.450 12.990 13.670 14.320 13.870 4.979 2.561 12.230 12.610 13.220 13.550 13.470 2.619 1.042 1.5420 14.323 7.911 6.404 15.595 6.835 8.753
VANMET_231 2015-09-28 21:50:00 231 5603.0 12.240 12.620 13.220 13.460 13.470 57.980 45.460 4.213 1.908 15.280 13.650 12.210 10.950 0.207 0.232 0.269 0.532 0.00 0.00 0.00 1.0210 16.70 15.33 1 1 1 12.260 12.650 13.260 13.760 13.500 5.201 2.480 12.220 12.580 13.170 13.240 13.430 3.094 1.073 1.3260 14.248 8.255 5.987 15.433 7.010 8.417
VANMET_231 2015-09-28 21:45:00 231 5603.0 12.320 12.680 13.280 13.470 13.410 59.120 45.820 4.564 2.033 15.290 13.640 12.210 10.950 0.207 0.232 0.269 0.532 0.00 0.00 0.00 0.9200 12.32 20.41 1 1 1 12.390 12.750 13.330 13.730 13.550 5.546 2.687 12.250 12.610 13.190 13.170 13.410 3.191 0.582 1.1690 14.323 8.461 5.855 15.443 7.073 8.367
VANMET_231 2015-09-28 21:40:00 231 5603.0 12.440 12.800 13.380 13.600 13.600 55.750 44.400 3.839 1.702 15.300 13.630 12.210 10.950 0.207 0.232 0.269 0.532 0.00 0.00 0.00 1.0400 22.00 13.87 1 1 1 12.490 12.870 13.460 13.890 13.660 5.170 3.047 12.380 12.740 13.280 13.340 13.540 1.960 0.787 1.4310 14.437 8.041 6.388 15.574 6.907 8.659
VANMET_231 2015-09-28 21:35:00 231 5603.0 12.530 12.890 13.420 13.670 13.660 56.220 43.440 4.040 1.473 15.310 13.620 12.210 10.950 0.207 0.232 0.269 0.532 0.00 0.00 0.00 0.8720 18.90 17.65 1 1 1 12.570 12.990 13.510 14.000 13.720 5.028 1.823 12.480 12.790 13.340 13.450 13.610 2.879 1.022 1.1690 14.522 8.155 6.358 15.646 6.794 8.849
VANMET_231 2015-09-28 21:30:00 231 5603.0 12.560 12.900 13.440 13.690 13.810 54.490 43.110 3.617 1.386 15.320 13.610 12.210 10.950 0.207 0.232 0.269 0.532 0.00 0.00 0.00 0.7090 22.00 12.41 1 1 1 12.610 12.980 13.500 13.950 13.720 5.287 2.061 12.520 12.860 13.410 13.620 13.670 2.298 1.192 0.9280 14.551 7.916 6.622 15.666 6.752 8.912
VANMET_231 2015-09-28 21:25:00 231 5603.0 12.650 12.960 13.500 13.730 13.770 55.400 44.030 3.940 1.713 15.330 13.600 12.210 10.950 0.207 0.232 0.269 0.532 0.00 0.00 0.00 0.8770 17.71 25.57 1 1 1 12.670 13.010 13.550 14.050 13.770 4.857 2.711 12.610 12.870 13.430 13.450 13.690 2.865 0.868 1.2540 14.637 8.098 6.528 15.707 6.913 8.791
VANMET_231 2015-09-28 21:20:00 231 5603.0 12.680 13.000 13.520 13.730 13.830 55.630 45.380 4.038 2.139 15.350 13.590 12.210 10.950 0.207 0.232 0.269 0.532 0.00 0.00 0.00 0.9430 16.46 13.60 1 1 1 12.700 13.020 13.540 13.990 13.760 5.229 2.873 12.650 12.980 13.490 13.640 13.710 3.276 1.454 1.5810 14.666 8.154 6.507 15.707 7.127 8.579
VANMET_231 2015-09-28 21:15:00 231 5603.0 12.700 13.020 13.560 13.810 13.860 54.450 45.050 3.746 2.103 15.360 13.580 12.220 10.950 0.207 0.232 0.269 0.532 0.00 0.00 0.00 0.8600 10.01 39.79 1 1 1 12.760 13.060 13.580 14.050 13.840 4.703 2.779 12.670 12.990 13.530 13.630 13.760 2.683 1.742 1.3130 14.685 7.988 6.689 15.789 7.108 8.676
VANMET_231 2015-09-28 21:10:00 231 5603.0 12.790 13.110 13.630 13.840 13.870 55.630 45.350 4.136 2.224 15.370 13.570 12.220 10.950 0.207 0.232 0.269 0.532 0.00 0.00 0.00 0.9800 3.10 32.92 1 1 1 12.820 13.190 13.700 14.050 13.890 4.943 3.311 12.740 13.030 13.560 13.610 13.800 3.181 1.310 1.2940 14.772 8.210 6.554 15.819 7.170 8.645
VANMET_231 2015-09-28 21:05:00 231 5603.0 12.640 13.060 13.580 13.770 13.980 55.010 45.340 3.825 2.152 15.380 13.560 12.220 10.950 0.207 0.232 0.269 0.532 0.00 0.00 0.00 1.0150 4.15 20.28 1 1 1 12.790 13.250 13.740 14.750 13.900 5.200 3.529 12.540 12.880 13.430 13.500 13.670 2.089 0.983 1.5610 14.627 8.033 6.581 15.748 7.133 8.608
VANMET_231 2015-09-28 21:00:00 231 5603.0 12.580 12.910 13.490 13.750 13.800 57.080 45.680 4.307 2.242 15.380 13.550 12.220 10.950 0.207 0.232 0.269 0.532 0.00 0.00 0.00 0.9980 15.24 22.68 1 1 1 12.600 12.960 13.530 14.000 13.810 5.064 3.947 12.550 12.840 13.420 13.530 13.680 2.952 1.326 1.3590 14.570 8.310 6.253 15.727 7.179 8.543
VANMET_231 2015-09-28 20:55:00 231 5603.0 12.600 12.960 13.550 13.740 13.740 56.640 45.770 4.215 2.260 15.390 13.540 12.220 10.950 0.207 0.232 0.269 0.531 0.00 0.00 0.00 1.0480 2.32 22.61 1 1 1 12.630 13.040 13.640 14.050 13.780 5.078 3.500 12.570 12.930 13.480 13.530 13.690 3.023 1.307 1.8230 14.589 8.256 6.326 15.717 7.188 8.523
VANMET_231 2015-09-28 20:50:00 231 5603.0 12.540 12.870 13.430 13.540 13.780 55.070 44.750 3.761 1.764 15.400 13.530 12.220 10.950 0.207 0.232 0.269 0.531 0.00 0.00 0.00 1.0880 3.16 25.49 1 1 1 12.570 12.990 13.600 14.160 13.680 4.661 2.567 12.500 12.820 13.330 13.550 13.460 2.782 1.171 1.4110 14.532 7.996 6.529 15.514 6.938 8.571
VANMET_231 2015-09-28 20:45:00 231 5603.0 12.610 12.910 13.390 13.530 13.560 56.860 45.250 4.284 1.916 15.410 13.520 12.220 10.950 0.207 0.232 0.269 0.531 0.00 0.00 0.00 1.0230 10.39 18.27 1 1 1 12.660 12.990 13.450 13.740 13.580 5.478 2.751 12.560 12.800 13.300 13.330 13.470 3.180 1.512 1.2410 14.599 8.296 6.298 15.504 7.014 8.488
VANMET_231 2015-09-28 20:40:00 231 5603.0 12.630 12.960 13.400 13.550 13.600 55.470 45.130 3.940 1.896 15.420 13.510 12.220 10.950 0.207 0.232 0.269 0.531 0.00 0.00 0.00 1.0060 4.71 15.09 1 1 1 12.670 13.010 13.450 13.790 13.610 5.162 2.654 12.590 12.900 13.360 13.440 13.520 2.817 1.370 1.5090 14.618 8.098 6.509 15.524 7.004 8.518
VANMET_231 2015-09-28 20:35:00 231 5603.0 12.670 12.970 13.470 13.660 13.700 55.500 44.110 3.988 1.668 15.420 13.500 12.220 10.950 0.207 0.232 0.269 0.531 0.00 0.00 0.00 0.9180 7.95 19.48 1 1 1 12.710 13.000 13.520 13.860 13.690 5.265 2.368 12.640 12.950 13.410 13.490 13.590 2.735 1.144 1.2540 14.656 8.125 6.522 15.635 6.890 8.739
VANMET_231 2015-09-28 20:30:00 231 5603.0 12.770 13.020 13.540 13.730 13.780 54.710 43.590 3.885 1.570 15.430 13.490 12.220 10.950 0.207 0.232 0.269 0.531 0.00 0.00 0.00 0.8800 10.91 11.53 1 1 1 12.830 13.050 13.570 13.840 13.790 4.986 1.953 12.700 12.970 13.510 13.580 13.680 2.872 1.159 1.2410 14.753 8.067 6.681 15.707 6.842 8.860
VANMET_231 2015-09-28 20:25:00 231 5603.0 12.900 13.180 13.700 13.890 13.880 54.200 44.020 3.867 1.855 15.430 13.480 12.220 10.950 0.207 0.232 0.269 0.531 0.00 0.00 0.00 0.8780 10.55 20.39 1 1 1 12.940 13.300 13.800 14.320 13.950 5.316 2.348 12.850 13.070 13.580 13.540 13.810 3.123 1.210 1.5750 14.879 8.056 6.814 15.871 6.983 8.885
VANMET_231 2015-09-28 20:20:00 231 5603.0 12.870 13.240 13.750 13.940 14.050 53.830 43.550 3.745 1.752 15.440 13.470 12.220 10.950 0.207 0.232 0.269 0.531 0.00 0.00 0.00 0.8840 9.69 19.22 1 1 1 12.890 13.280 13.790 14.320 13.990 5.144 2.318 12.850 13.180 13.700 13.940 13.880 2.637 0.925 1.1560 14.850 7.987 6.856 15.923 6.932 8.988
VANMET_231 2015-09-28 20:15:00 231 5603.0 12.900 13.240 13.790 14.000 14.070 54.040 43.550 3.824 1.802 15.450 13.450 12.220 10.950 0.207 0.232 0.269 0.531 0.00 0.00 0.00 0.9250 3.65 12.72 1 1 1 12.950 13.270 13.830 14.230 14.020 5.269 2.186 12.870 13.210 13.750 13.870 13.950 2.928 1.509 1.2020 14.879 8.032 6.838 15.985 6.957 9.023
VANMET_231 2015-09-28 20:10:00 231 5603.0 12.910 13.240 13.770 13.980 14.120 53.340 43.510 3.655 1.773 15.450 13.440 12.220 10.950 0.208 0.232 0.269 0.531 0.00 0.00 0.00 0.8820 12.97 20.05 1 1 1 12.960 13.290 13.830 14.420 14.020 5.123 2.653 12.890 13.180 13.710 13.740 13.960 2.809 1.228 1.3980 14.889 7.937 6.947 15.964 6.942 9.018
VANMET_231 2015-09-28 20:05:00 231 5603.0 13.010 13.310 13.850 14.080 13.990 55.380 44.430 4.278 2.151 15.450 13.430 12.220 10.950 0.207 0.232 0.269 0.531 0.00 0.00 0.00 0.9860 6.84 21.53 1 1 1 13.050 13.420 13.960 14.240 14.160 5.372 3.212 12.960 13.220 13.760 13.810 13.990 3.424 1.575 1.3520 14.986 8.293 6.687 16.068 7.133 8.929
VANMET_231 2015-09-28 20:00:00 231 5603.0 13.030 13.440 13.990 14.160 14.290 52.500 42.360 3.533 1.562 15.450 13.420 12.220 10.950 0.208 0.232 0.269 0.531 0.00 0.00 0.00 0.8760 7.96 22.93 1 1 1 13.060 13.480 14.030 14.560 14.200 4.751 2.102 13.000 13.400 13.940 14.110 14.080 2.418 1.012 1.2410 15.006 7.869 7.128 16.151 6.838 9.310
VANMET_231 2015-09-28 19:55:00 231 5603.0 12.980 13.380 13.900 14.090 14.200 52.590 42.220 3.510 1.455 15.450 13.410 12.220 10.950 0.207 0.232 0.269 0.531 0.00 0.00 0.00 0.8720 7.30 12.83 1 1 1 13.020 13.450 13.950 14.340 14.110 5.158 1.684 12.950 13.280 13.830 14.040 14.070 2.609 1.294 1.0390 14.957 7.856 7.091 16.078 6.786 9.290
VANMET_231 2015-09-28 19:50:00 231 5603.0 13.100 13.390 13.900 14.130 14.040 55.830 42.940 4.472 1.729 15.450 13.390 12.220 10.950 0.208 0.232 0.269 0.531 0.00 0.00 0.00 1.0850 5.90 14.25 1 1 1 13.170 13.500 13.990 14.270 14.220 5.670 2.538 13.020 13.290 13.820 13.900 14.070 3.074 1.187 1.4830 15.075 8.406 6.658 16.120 6.920 9.198
VANMET_231 2015-09-28 19:45:00 231 5603.0 13.220 13.590 14.120 14.380 14.260 53.130 41.940 3.880 1.621 15.450 13.380 12.220 10.950 0.208 0.232 0.269 0.531 0.00 0.00 0.00 0.9530 5.55 15.34 1 1 1 13.280 13.640 14.180 14.460 14.480 5.288 2.763 13.160 13.470 13.990 13.960 14.240 2.609 1.329 1.2150 15.193 8.064 7.121 16.383 6.867 9.512
VANMET_231 2015-09-28 19:40:00 231 5603.0 13.320 13.680 14.250 14.490 14.530 51.980 40.720 3.654 1.310 15.450 13.370 12.220 10.950 0.208 0.232 0.269 0.531 0.00 0.00 0.00 0.9740 7.42 12.03 1 1 1 13.350 13.750 14.320 14.790 14.510 4.961 1.608 13.280 13.620 14.180 14.330 14.460 2.387 1.061 1.3260 15.293 7.936 7.344 16.500 6.715 9.781
VANMET_231 2015-09-28 19:35:00 231 5603.0 13.380 13.760 14.350 14.500 14.570 52.310 41.240 3.798 1.495 15.450 13.360 12.220 10.950 0.208 0.232 0.269 0.531 0.00 0.00 0.00 0.9990 9.35 18.42 1 1 1 13.420 13.810 14.420 14.740 14.540 5.335 2.071 13.300 13.700 14.300 14.380 14.470 2.373 0.947 1.3650 15.353 8.017 7.322 16.511 6.805 9.702
VANMET_231 2015-09-28 19:30:00 231 5603.0 13.530 13.870 14.400 14.520 14.610 51.220 40.950 3.648 1.419 15.450 13.340 12.220 10.950 0.208 0.232 0.269 0.531 0.00 0.00 0.00 0.9540 10.06 16.38 1 1 1 13.570 13.940 14.420 14.760 14.540 4.963 1.659 13.460 13.760 14.340 14.430 14.480 2.368 1.167 1.1890 15.504 7.933 7.563 16.532 6.768 9.762
VANMET_231 2015-09-28 19:25:00 231 5603.0 13.520 13.980 14.470 14.610 14.650 49.710 41.570 3.221 1.713 15.440 13.330 12.220 10.950 0.208 0.232 0.269 0.531 0.00 0.00 0.00 0.9430 7.52 8.91 1 1 1 13.540 14.020 14.540 14.910 14.670 4.625 2.063 13.490 13.940 14.410 14.540 14.550 2.708 1.505 1.1690 15.494 7.697 7.792 16.628 6.913 9.716
VANMET_231 2015-09-28 19:20:00 231 5603.0 13.490 13.960 14.470 14.660 14.670 50.270 41.160 3.344 1.619 15.440 13.320 12.220 10.950 0.208 0.232 0.269 0.531 0.00 0.00 0.00 0.8810 5.39 9.51 1 1 1 13.510 14.010 14.540 14.870 14.740 4.665 1.898 13.460 13.920 14.440 14.510 14.610 2.407 1.352 1.0450 15.463 7.764 7.690 16.682 6.866 9.816
VANMET_231 2015-09-28 19:15:00 231 5603.0 13.550 14.020 14.530 14.700 14.760 51.520 40.740 3.742 1.513 15.430 13.300 12.220 10.950 0.208 0.232 0.269 0.531 0.00 0.00 0.00 0.9110 22.35 18.47 1 1 1 13.590 14.080 14.560 14.880 14.750 5.539 1.781 13.500 13.990 14.500 14.630 14.670 2.637 1.211 1.2540 15.524 7.986 7.526 16.725 6.814 9.911
VANMET_231 2015-09-28 19:10:00 231 5603.0 13.550 14.050 14.550 14.730 14.790 49.880 40.490 3.293 1.451 15.420 13.290 12.220 10.950 0.208 0.232 0.269 0.531 0.00 0.00 0.00 0.8570 24.32 16.40 1 1 1 13.570 14.090 14.570 14.880 14.760 5.042 1.661 13.530 13.980 14.510 14.670 14.700 2.539 1.204 1.1300 15.524 7.736 7.781 16.758 6.784 9.973
VANMET_231 2015-09-28 19:05:00 231 5603.0 13.610 14.020 14.560 14.700 14.780 50.720 40.650 3.586 1.475 15.420 13.280 12.220 10.950 0.208 0.232 0.269 0.531 0.00 0.00 0.00 0.8790 32.79 19.12 1 1 1 13.670 14.060 14.620 14.990 14.730 5.197 2.048 13.570 13.920 14.480 14.430 14.660 2.420 1.285 1.2090 15.585 7.898 7.680 16.725 6.795 9.926
VANMET_231 2015-09-28 19:00:00 231 5603.0 13.790 14.150 14.660 14.780 14.810 50.930 40.720 3.806 1.574 15.410 13.270 12.220 10.950 0.208 0.232 0.269 0.531 0.00 0.00 0.00 0.9640 25.09 22.14 1 1 1 13.930 14.300 14.750 14.910 14.880 5.282 2.145 13.680 14.040 14.580 14.690 14.710 2.954 1.291 1.4240 15.768 8.022 7.737 16.812 6.844 9.966
VANMET_231 2015-09-28 18:55:00 231 5603.0 14.020 14.370 14.800 14.910 14.960 49.220 40.310 3.538 1.549 15.400 13.250 12.220 10.950 0.208 0.232 0.269 0.531 0.00 0.00 0.00 0.9830 14.39 8.70 1 1 1 14.110 14.400 14.820 15.100 14.930 5.098 1.766 13.900 14.320 14.760 14.870 14.880 2.799 1.387 1.1690 16.005 7.872 8.128 16.953 6.832 10.119
VANMET_231 2015-09-28 18:50:00 231 5603.0 14.120 14.370 14.790 14.890 14.910 46.680 40.720 2.884 1.671 15.380 13.240 12.220 10.950 0.208 0.232 0.269 0.531 0.00 0.00 0.00 0.8860 8.80 2.29 1 1 1 14.150 14.400 14.820 14.970 14.930 4.355 1.867 14.090 14.320 14.770 14.870 14.860 2.516 1.506 1.1430 16.110 7.515 8.590 16.932 6.892 10.037
VANMET_231 2015-09-28 18:45:00 231 5603.0 14.130 14.360 14.790 14.930 14.910 46.260 40.950 2.773 1.788 15.370 13.230 12.220 10.950 0.208 0.232 0.269 0.531 0.00 0.00 0.00 0.7600 5.11 2.04 1 1 1 14.150 14.430 14.810 14.940 14.960 2.939 1.902 14.120 14.310 14.780 14.880 14.890 2.602 1.661 0.8490 16.120 7.456 8.663 16.975 6.950 10.024
VANMET_231 2015-09-28 18:40:00 231 5603.0 14.150 14.480 14.860 15.000 15.000 46.470 40.290 2.851 1.626 15.360 13.210 12.220 10.950 0.208 0.232 0.269 0.531 0.00 0.00 0.00 0.8960 8.63 1.70 1 1 1 14.170 14.530 14.920 15.060 15.060 3.123 1.682 14.120 14.430 14.810 14.910 14.960 2.718 1.571 1.0710 16.141 7.498 8.640 17.052 6.869 10.182
VANMET_231 2015-09-28 18:35:00 231 5603.0 14.170 14.570 14.990 15.160 15.090 46.000 39.580 2.726 1.520 15.340 13.200 12.220 10.950 0.208 0.232 0.269 0.531 0.00 0.00 0.00 0.9180 7.49 2.79 1 1 1 14.190 14.600 15.060 15.160 15.230 3.110 1.646 14.150 14.530 14.930 15.000 15.070 2.410 1.444 1.1170 16.162 7.431 8.727 17.228 6.817 10.409
VANMET_231 2015-09-28 18:30:00 231 5603.0 14.160 14.610 15.090 15.260 15.210 47.230 39.440 3.091 1.556 15.320 13.190 12.220 10.950 0.208 0.232 0.269 0.531 0.00 0.00 0.00 0.9350 9.84 5.53 1 1 1 14.200 14.640 15.130 15.310 15.330 3.926 1.746 14.130 14.580 15.060 15.090 15.220 2.624 1.417 1.2740 16.151 7.626 8.523 17.339 6.835 10.501
VANMET_231 2015-09-28 18:25:00 231 5603.0 14.130 14.650 15.170 15.300 15.330 46.360 38.920 2.801 1.406 15.300 13.170 12.230 10.950 0.208 0.232 0.269 0.531 0.00 0.00 0.00 0.8280 10.86 11.17 1 1 1 14.190 14.690 15.220 15.470 15.360 3.947 1.764 14.090 14.590 15.090 15.150 15.210 2.260 1.240 1.0650 16.120 7.471 8.647 17.384 6.762 10.618
VANMET_231 2015-09-28 18:20:00 231 5603.0 14.190 14.720 15.190 15.280 15.310 47.370 38.670 3.162 1.302 15.280 13.160 12.230 10.950 0.208 0.232 0.269 0.531 0.00 0.00 0.00 0.9630 7.60 5.19 1 1 1 14.240 14.820 15.260 15.470 15.330 3.716 1.457 14.130 14.600 15.090 15.130 15.200 2.626 1.103 1.1300 16.183 7.665 8.517 17.362 6.711 10.648
VANMET_231 2015-09-28 18:15:00 231 5603.0 14.220 14.750 15.220 15.290 15.390 44.610 37.450 2.340 0.869 15.260 13.150 12.230 10.950 0.208 0.232 0.269 0.531 0.00 0.00 0.00 0.8710 358.20 10.45 1 1 1 14.240 14.810 15.260 15.490 15.320 2.761 1.066 14.200 14.680 15.180 15.320 15.270 1.789 0.662 1.0520 16.214 7.230 8.981 17.373 6.505 10.867
VANMET_231 2015-09-28 18:10:00 231 5603.0 14.300 14.730 15.230 15.360 15.410 44.380 36.240 2.338 0.469 15.240 13.130 12.230 10.950 0.208 0.232 0.269 0.531 0.00 0.00 0.00 0.7840 1.30 9.07 1 1 1 14.370 14.780 15.260 15.570 15.420 2.768 0.695 14.240 14.670 15.170 15.320 15.290 1.793 0.234 1.0130 16.298 7.229 9.065 17.451 6.319 11.127
VANMET_231 2015-09-28 18:05:00 231 5603.0 14.400 14.860 15.360 15.530 15.460 43.050 35.120 2.006 0.192 15.220 13.120 12.230 10.950 0.208 0.232 0.269 0.531 0.00 0.00 0.00 0.8150 5.64 3.21 1 1 1 14.430 14.920 15.460 15.540 15.650 2.344 0.384 14.360 14.790 15.270 15.340 15.440 1.614 0.086 1.0450 16.404 7.059 9.342 17.642 6.194 11.446
VANMET_231 2015-09-28 18:00:00 231 5603.0 14.500 15.030 15.620 15.780 15.750 43.670 34.370 2.296 0.118 15.190 13.110 12.230 10.950 0.208 0.232 0.269 0.531 0.00 0.00 0.00 0.7120 0.59 6.30 1 1 1 14.580 15.120 15.720 16.050 15.870 2.804 0.361 14.420 14.930 15.470 15.550 15.650 1.821 -0.133 0.9280 16.511 7.207 9.300 17.927 6.160 11.766
VANMET_231 2015-09-28 17:55:00 231 5603.0 14.600 15.180 15.770 15.950 15.910 43.130 34.100 2.212 0.152 15.160 13.100 12.230 10.950 0.208 0.232 0.269 0.531 0.17 0.00 0.00 0.6600 345.50 22.15 1 1 1 14.660 15.260 15.890 16.080 16.050 3.047 0.291 14.570 15.120 15.660 15.770 15.860 1.781 0.002 0.8230 16.618 7.164 9.450 18.123 6.176 11.943
VANMET_231 2015-09-28 17:50:00 231 5603.0 14.730 15.300 15.890 16.050 16.160 44.140 33.840 2.650 0.142 15.140 13.090 12.230 10.950 0.208 0.232 0.269 0.531 1.82 0.00 0.00 0.6460 342.90 21.27 1 1 1 14.820 15.340 15.920 16.320 16.070 3.831 0.411 14.630 15.270 15.830 16.020 16.030 1.682 -0.045 0.9670 16.758 7.391 9.361 18.239 6.171 12.067
VANMET_231 2015-09-28 17:45:00 231 5603.0 14.910 15.430 15.910 16.170 16.020 43.560 34.390 2.634 0.463 15.110 13.070 12.230 10.950 0.208 0.232 0.269 0.531 4.72 0.00 0.00 0.7090 352.00 16.52 1 1 1 15.020 15.510 15.970 16.260 16.290 3.061 0.779 14.830 15.340 15.830 15.840 16.050 2.111 0.145 0.8300 16.953 7.383 9.568 18.379 6.317 12.059
VANMET_231 2015-09-28 17:40:00 231 5603.0 15.070 15.670 16.170 16.490 16.190 42.620 33.710 2.471 0.473 15.070 13.060 12.230 10.950 0.208 0.232 0.269 0.531 7.20 0.00 0.00 0.6510 352.00 15.80 1 1 1 15.130 15.800 16.340 16.460 16.660 3.192 0.598 15.010 15.530 15.990 16.040 16.320 2.097 0.342 0.9730 17.129 7.298 9.829 18.758 6.321 12.435
VANMET_231 2015-09-28 17:35:00 231 5603.0 15.130 15.820 16.380 16.750 16.470 42.230 33.110 2.392 0.453 15.040 13.050 12.230 10.940 0.208 0.232 0.269 0.531 9.01 0.00 0.00 0.5940 349.10 14.82 1 1 1 15.180 15.880 16.480 16.590 16.930 3.107 0.604 15.090 15.780 16.340 16.370 16.670 1.609 0.240 0.7840 17.195 7.257 9.934 19.071 6.312 12.756
VANMET_231 2015-09-28 17:30:00 231 5603.0 15.280 16.010 16.690 17.250 16.610 42.740 32.210 2.692 0.505 15.010 13.040 12.230 10.940 0.208 0.232 0.269 0.531 11.23 0.00 0.00 0.5440 349.10 17.17 1 1 1 15.340 16.120 16.890 16.770 17.580 4.299 0.623 15.190 15.880 16.500 16.440 16.950 1.796 0.375 0.6860 17.362 7.413 9.941 19.684 6.336 13.344
VANMET_231 2015-09-28 17:25:00 231 5603.0 15.430 16.290 17.240 17.890 17.120 43.100 30.840 2.953 0.462 14.970 13.030 12.230 10.940 0.208 0.232 0.269 0.531 12.45 0.00 0.00 0.3760 321.90 36.85 1 1 1 15.510 16.480 17.510 18.010 18.050 4.043 0.681 15.350 16.130 16.920 16.690 17.600 2.098 -0.354 0.6990 17.530 7.552 9.974 20.495 6.316 14.175
VANMET_231 2015-09-28 17:20:00 231 5603.0 15.580 16.370 17.340 18.030 17.510 42.670 29.700 2.943 0.060 14.940 13.010 12.230 10.940 0.208 0.232 0.269 0.531 25.45 0.00 0.00 0.4500 296.00 22.01 1 1 1 15.750 16.440 17.470 17.930 18.100 4.077 0.545 15.490 16.310 17.270 16.930 17.970 1.553 -0.714 0.9080 17.699 7.547 10.147 20.677 6.135 14.536
VANMET_231 2015-09-28 17:15:00 231 5603.0 15.910 16.680 17.590 18.350 17.380 42.590 30.140 3.210 0.547 14.900 13.000 12.230 10.940 0.208 0.232 0.269 0.531 32.06 0.00 0.00 0.2900 274.00 36.87 1 1 1 16.130 16.940 17.870 17.840 18.580 4.943 0.999 15.750 16.430 17.330 16.940 18.120 1.735 -0.292 1.0780 18.077 7.691 10.378 21.096 6.355 14.738
VANMET_231 2015-09-28 17:10:00 231 5603.0 16.300 17.250 18.030 18.730 18.000 42.240 28.810 3.433 0.240 14.860 12.990 12.230 10.940 0.208 0.232 0.269 0.531 95.10 0.00 0.00 0.4410 257.90 46.29 1 1 1 16.480 17.440 18.140 18.820 18.840 5.730 0.942 16.130 16.980 17.860 17.490 18.600 1.962 -1.123 1.0260 18.532 7.813 10.704 21.604 6.215 15.380
VANMET_231 2015-09-28 17:05:00 231 5603.0 16.680 17.600 18.320 18.910 18.300 40.430 28.920 3.169 0.452 14.820 12.980 12.230 10.940 0.208 0.232 0.269 0.531 112.10 0.00 0.00 0.4640 320.40 20.40 1 1 1 16.800 17.690 18.400 18.610 18.950 3.836 0.909 16.480 17.460 18.150 17.950 18.860 2.355 -0.743 0.9280 18.986 7.669 11.310 21.849 6.312 15.530
VANMET_231 2015-09-28 17:00:00 231 5603.0 16.800 17.530 18.190 18.700 18.470 38.900 28.610 2.713 0.109 14.780 12.970 12.230 10.940 0.208 0.232 0.269 0.531 131.20 0.00 0.00 0.5940 300.00 39.19 1 1 1 16.970 17.790 18.420 18.940 18.850 4.361 1.126 16.660 17.380 18.100 18.090 18.640 -0.733 -1.740 1.8880 19.131 7.424 11.689 21.564 6.156 15.394
VANMET_231 2015-09-28 16:55:00 231 5603.0 17.260 17.610 18.170 18.790 18.080 39.660 30.840 3.399 1.224 14.740 12.960 12.230 10.940 0.208 0.232 0.269 0.531 136.90 0.00 0.00 0.5330 333.30 29.69 1 1 1 17.580 17.850 18.410 18.530 19.090 5.849 2.441 17.000 17.480 18.050 17.800 18.640 1.056 -1.027 0.8430 19.697 7.795 11.885 21.685 6.674 14.998
VANMET_231 2015-09-28 16:50:00 231 5603.0 18.030 18.470 19.010 19.600 18.560 40.630 30.080 4.439 1.548 14.700 12.950 12.230 10.940 0.208 0.232 0.269 0.531 39.35 0.00 0.00 0.5900 312.80 47.65 1 1 1 18.390 19.000 19.450 19.330 19.980 6.141 3.574 17.630 17.920 18.470 17.780 19.120 3.216 -0.808 1.4050 20.677 8.387 12.276 22.808 6.831 15.947
VANMET_231 2015-09-28 16:45:00 231 5603.0 18.850 19.620 19.810 20.440 19.440 36.250 26.270 3.492 0.413 14.660 12.940 12.230 10.940 0.208 0.232 0.269 0.531 31.67 0.00 0.00 0.7450 257.00 40.69 1 1 1 19.190 20.290 20.190 19.870 20.890 5.746 2.393 18.450 19.030 19.470 18.860 20.020 1.146 -1.595 1.8230 21.767 7.846 13.876 24.025 6.294 17.713
VANMET_231 2015-09-28 16:40:00 231 5603.0 19.610 20.970 20.490 21.120 19.710 34.760 25.710 3.569 0.603 14.610 12.930 12.230 10.940 0.208 0.232 0.269 0.531 126.10 0.00 0.00 1.0770 231.10 30.16 1 1 1 20.040 21.590 20.820 19.930 21.270 6.026 3.745 19.250 20.380 20.220 19.440 20.890 0.763 -2.084 2.9990 22.822 7.889 14.889 25.051 6.381 18.610
VANMET_231 2015-09-28 16:35:00 231 5603.0 20.180 21.670 21.030 21.240 20.110 31.060 25.200 2.443 0.454 14.570 12.920 12.230 10.940 0.208 0.232 0.269 0.531 211.00 0.00 0.00 0.7420 189.20 58.69 1 1 1 20.250 21.760 21.230 20.520 21.320 5.804 4.098 20.060 21.520 20.840 19.740 21.160 -0.939 -2.470 1.9340 23.642 7.283 16.299 25.236 6.313 18.877
VANMET_231 2015-09-28 16:30:00 231 5603.0 20.350 21.230 21.180 21.440 20.200 30.270 25.140 2.302 0.652 14.530 12.910 12.230 10.940 0.208 0.232 0.269 0.531 212.60 0.00 0.00 1.4050 253.80 37.04 1 1 1 20.730 21.450 21.300 20.520 21.750 4.009 2.897 20.070 21.120 21.050 19.770 21.290 -0.178 -0.680 2.6850 23.892 7.210 16.660 25.547 6.404 19.125
VANMET_231 2015-09-28 16:25:00 231 5603.0 21.310 21.970 21.940 22.130 20.540 31.590 26.310 3.730 1.883 14.480 12.900 12.230 10.940 0.208 0.232 0.269 0.531 173.40 0.00 0.00 0.6470 245.40 19.32 1 1 1 21.710 22.480 22.420 20.890 22.360 5.886 2.938 20.810 21.330 21.380 19.990 21.800 1.502 -0.255 1.3200 25.345 7.979 17.338 26.646 6.997 19.636
VANMET_231 2015-09-28 16:20:00 231 5603.0 22.070 22.800 22.570 22.540 20.890 28.440 25.040 2.853 1.521 14.440 12.890 12.230 10.940 0.208 0.232 0.269 0.531 240.10 0.00 0.00 1.2560 236.00 49.42 1 1 1 22.500 23.090 22.820 21.090 22.820 6.457 3.579 21.780 22.520 22.450 20.620 22.350 0.281 -0.100 2.1690 26.549 7.499 18.999 27.319 6.818 20.478
VANMET_231 2015-09-28 16:15:00 231 5603.0 22.900 23.530 23.010 22.680 21.310 27.120 25.910 2.941 2.148 14.390 12.890 12.230 10.940 0.208 0.232 0.269 0.531 266.70 0.00 0.00 0.7050 212.90 58.53 1 1 1 23.010 23.760 23.130 21.590 22.820 5.614 3.336 22.570 23.200 22.910 20.820 22.530 1.567 0.699 1.8230 27.922 7.546 20.349 27.552 7.131 20.413
VANMET_231 2015-09-28 16:10:00 231 5603.0 23.010 23.230 22.640 22.370 21.590 25.680 25.550 2.288 1.697 14.350 12.880 12.230 10.940 0.208 0.232 0.269 0.531 282.70 0.00 0.00 1.1250 194.70 39.54 1 1 1 23.170 23.530 22.870 21.730 22.490 3.836 2.977 22.920 23.060 22.500 21.400 22.300 0.731 0.971 2.3130 28.108 7.203 20.890 27.038 6.905 20.130
VANMET_231 2015-09-28 16:05:00 231 5603.0 23.410 23.310 22.650 22.560 21.420 27.170 24.990 3.399 1.539 14.300 12.870 12.230 10.940 0.208 0.232 0.269 0.531 298.20 0.00 0.00 1.6130 225.30 30.23 1 1 1 23.720 23.670 22.960 21.590 22.830 6.153 3.738 23.220 23.100 22.510 21.170 22.400 1.343 0.537 2.6590 28.795 7.795 20.971 27.352 6.827 20.517
VANMET_231 2015-09-28 16:00:00 231 5603.0 24.120 24.090 23.330 23.090 21.610 26.150 26.160 3.471 2.604 14.250 12.860 12.230 10.940 0.208 0.232 0.269 0.531 314.70 0.00 0.00 0.9650 240.60 24.03 1 1 1 24.380 24.640 23.660 22.050 23.190 5.556 5.329 23.740 23.620 22.950 21.080 22.860 1.565 0.491 1.7180 30.051 7.834 22.193 28.244 7.367 20.856
VANMET_231 2015-09-28 15:55:00 231 5603.0 24.480 24.620 23.730 23.350 21.950 24.870 25.190 3.086 2.318 14.210 12.860 12.230 10.940 0.208 0.232 0.269 0.531 331.10 0.00 0.00 0.9320 191.90 37.10 1 1 1 24.840 24.940 23.930 22.020 23.470 5.008 3.726 24.230 24.350 23.580 21.840 23.230 1.528 0.889 1.6920 30.706 7.624 23.069 28.691 7.218 21.464
VANMET_231 2015-09-28 15:50:00 231 5603.0 24.700 24.860 23.740 23.260 22.270 24.530 25.270 3.097 2.298 14.160 12.850 12.230 10.940 0.208 0.232 0.269 0.532 346.90 0.00 0.00 0.7450 217.30 50.04 1 1 1 24.890 25.190 23.970 22.540 23.440 4.081 3.284 24.550 24.550 23.490 21.830 23.090 1.821 1.140 1.4310 31.112 7.630 23.480 28.536 7.208 21.325
VANMET_231 2015-09-28 15:45:00 231 5603.0 24.910 24.970 23.760 23.350 22.350 23.900 24.850 2.909 2.130 14.110 12.840 12.230 10.940 0.208 0.232 0.269 0.532 362.30 0.00 0.00 1.1190 189.20 31.32 1 1 1 25.100 25.300 24.000 22.530 23.440 3.949 3.164 24.550 24.470 23.410 22.090 23.080 1.686 0.705 2.6330 31.504 7.529 23.975 28.691 7.122 21.561
VANMET_231 2015-09-28 15:40:00 231 5603.0 25.010 24.880 23.770 23.350 22.190 27.560 27.260 4.993 3.419 14.060 12.840 12.230 10.940 0.208 0.232 0.269 0.532 378.30 0.00 0.00 0.7500 183.90 31.09 1 1 1 25.070 25.050 23.850 22.410 23.520 6.569 5.706 24.920 24.730 23.620 21.880 23.210 3.047 1.172 1.2480 31.693 8.718 22.958 28.691 7.806 20.870
VANMET_231 2015-09-28 15:35:00 231 5603.0 25.140 25.280 24.170 23.720 22.270 27.470 28.540 5.068 4.398 14.010 12.830 12.230 10.940 0.208 0.232 0.269 0.532 396.10 0.00 0.00 1.2020 218.90 35.70 1 1 1 25.360 25.840 24.500 22.560 23.880 6.801 5.932 24.910 24.790 23.890 21.970 23.530 3.414 2.552 2.7830 31.939 8.764 23.165 29.338 8.363 20.965
VANMET_231 2015-09-28 15:30:00 231 5603.0 24.920 25.310 24.190 23.640 22.490 27.200 27.190 4.729 3.635 13.960 12.830 12.230 10.940 0.208 0.232 0.269 0.532 421.10 0.00 0.00 0.8070 196.10 25.57 1 1 1 25.180 25.660 24.390 22.810 23.750 6.712 5.958 24.640 25.000 24.050 22.060 23.510 2.460 2.218 1.7640 31.523 8.559 22.949 29.197 7.926 21.258
VANMET_231 2015-09-28 15:25:00 231 5603.0 24.500 24.620 23.810 23.500 22.460 26.300 26.270 3.892 3.028 13.920 12.820 12.230 10.940 0.208 0.232 0.269 0.532 446.70 0.00 0.00 0.9870 238.40 37.29 1 1 1 24.750 24.920 24.050 22.680 23.680 5.932 4.319 24.350 24.470 23.610 22.300 23.360 2.168 1.473 2.8420 30.743 8.071 22.657 28.952 7.592 21.346
VANMET_231 2015-09-28 15:20:00 231 5603.0 24.760 24.900 24.050 23.590 22.450 27.330 27.680 4.675 3.855 13.870 12.820 12.230 10.940 0.208 0.232 0.269 0.532 458.50 0.00 0.00 0.9890 214.10 36.38 1 1 1 24.810 24.980 24.110 22.700 23.680 6.590 5.636 24.670 24.800 23.940 22.240 23.450 3.121 2.915 1.8230 31.224 8.527 22.690 29.109 8.050 21.052
VANMET_231 2015-09-28 15:15:00 231 5603.0 24.620 24.830 23.970 23.560 22.570 25.240 25.510 3.428 2.669 13.810 12.810 12.230 10.940 0.208 0.232 0.269 0.532 470.10 0.00 0.00 1.0820 226.40 32.84 1 1 1 24.670 24.920 24.100 22.740 23.620 4.709 4.114 24.530 24.750 23.870 22.420 23.520 1.815 1.351 1.7640 30.964 7.811 23.149 29.057 7.401 21.644
VANMET_231 2015-09-28 15:10:00 231 5603.0 24.650 24.600 23.850 23.440 22.520 25.030 25.180 3.304 2.384 13.760 12.810 12.230 10.940 0.208 0.232 0.269 0.532 474.10 0.00 0.00 0.8570 195.20 46.76 1 1 1 24.730 24.810 23.970 22.780 23.520 5.600 4.245 24.570 24.420 23.720 22.320 23.360 1.617 1.186 1.6990 31.019 7.742 23.255 28.847 7.252 21.584
VANMET_231 2015-09-28 15:05:00 231 5603.0 24.640 24.840 24.070 23.640 22.620 28.510 28.090 5.154 4.066 13.710 12.800 12.230 10.940 0.208 0.232 0.269 0.532 488.60 0.00 0.00 1.1840 216.80 40.59 1 1 1 24.790 25.170 24.340 22.760 23.810 6.878 6.494 24.470 24.600 23.830 22.320 23.510 2.872 1.888 3.0640 31.001 8.817 22.163 29.197 8.170 20.995
VANMET_231 2015-09-28 15:00:00 231 5603.0 24.400 24.480 23.750 23.210 22.590 27.000 28.170 4.201 3.780 13.660 12.800 12.230 10.940 0.208 0.232 0.269 0.532 485.00 0.00 0.00 0.9560 212.30 58.00 1 1 1 24.590 24.800 24.040 22.920 23.500 5.996 5.646 24.170 24.160 23.510 22.360 22.990 2.943 2.164 2.0250 30.559 8.248 22.308 28.450 8.007 20.435
VANMET_231 2015-09-28 14:55:00 231 5603.0 24.150 23.940 23.360 22.850 22.360 25.790 26.450 3.321 2.588 13.610 12.800 12.230 10.940 0.209 0.232 0.269 0.532 414.70 0.00 0.00 0.7350 185.60 38.09 1 1 1 24.250 24.090 23.510 22.680 22.960 5.111 3.966 24.090 23.810 23.230 22.080 22.750 1.507 1.577 1.8160 30.105 7.752 22.341 27.837 7.359 20.474
VANMET_231 2015-09-28 14:50:00 231 5603.0 24.120 23.810 23.240 22.810 22.260 25.580 25.440 3.190 2.007 13.560 12.790 12.230 10.940 0.209 0.232 0.269 0.532 411.20 0.00 0.00 0.8040 183.70 38.44 1 1 1 24.200 23.960 23.370 22.630 22.890 4.333 3.367 24.070 23.730 23.120 21.950 22.760 1.651 0.910 1.6660 30.051 7.680 22.364 27.770 7.060 20.705
VANMET_231 2015-09-28 14:45:00 231 5603.0 23.820 23.380 22.940 22.630 22.030 27.480 27.420 3.938 2.871 13.510 12.790 12.230 10.940 0.209 0.232 0.269 0.532 430.30 0.00 0.00 0.8390 199.30 35.96 1 1 1 24.020 23.770 23.240 22.480 22.850 5.374 4.989 23.730 23.160 22.730 21.750 22.510 1.878 0.777 1.7640 29.515 8.097 21.404 27.468 7.508 19.937
VANMET_231 2015-09-28 14:40:00 231 5603.0 23.960 23.460 22.980 22.720 22.130 27.200 27.110 3.918 2.819 13.460 12.790 12.240 10.940 0.209 0.232 0.269 0.532 287.60 0.00 0.00 0.7320 209.90 36.63 1 1 1 24.250 23.620 23.050 22.320 22.840 6.277 4.077 23.830 23.350 22.870 21.910 22.600 2.535 1.731 1.6660 29.764 8.085 21.668 27.619 7.481 20.131
VANMET_231 2015-09-28 14:35:00 231 5603.0 24.710 24.180 23.520 23.240 22.550 23.990 23.840 2.716 1.450 13.410 12.790 12.240 10.940 0.209 0.232 0.269 0.532 439.20 0.00 0.00 1.9160 237.50 33.14 1 1 1 25.040 24.730 24.050 22.800 23.610 6.753 4.287 24.320 23.680 23.060 22.340 22.900 0.647 0.180 3.4760 31.131 7.426 23.662 28.501 6.783 21.707
VANMET_231 2015-09-28 14:30:00 231 5603.0 24.920 24.760 24.030 23.520 22.790 27.770 28.770 5.047 4.326 13.360 12.790 12.240 10.940 0.209 0.232 0.269 0.532 423.40 0.00 0.00 0.6660 187.60 37.20 1 1 1 25.020 24.920 24.140 23.000 23.570 6.424 6.170 24.870 24.530 23.910 22.540 23.460 3.986 2.218 1.5550 31.523 8.751 22.769 28.987 8.321 20.647
VANMET_231 2015-09-28 14:25:00 231 5603.0 24.750 24.420 23.840 23.430 23.010 26.510 27.020 4.182 3.357 13.310 12.780 12.240 10.940 0.209 0.232 0.269 0.532 564.50 0.00 0.00 0.9320 235.40 66.71 1 1 1 24.880 24.660 24.050 23.470 23.550 6.556 5.216 24.670 24.100 23.550 22.590 23.290 1.710 1.486 1.8620 31.205 8.237 22.933 28.830 7.771 21.040
VANMET_231 2015-09-28 14:20:00 231 5603.0 25.010 24.660 24.090 23.690 23.320 25.630 25.960 3.928 3.026 13.260 12.780 12.240 10.940 0.209 0.232 0.269 0.532 580.40 0.00 0.00 1.6840 236.30 25.20 1 1 1 25.100 24.960 24.420 23.810 23.820 6.739 4.742 24.810 24.260 23.610 22.820 23.340 2.069 1.552 3.0050 31.693 8.091 23.570 29.285 7.591 21.682
VANMET_231 2015-09-28 14:15:00 231 5603.0 24.920 24.760 24.250 23.790 23.420 26.250 26.310 4.218 3.300 13.210 12.780 12.240 10.940 0.209 0.232 0.269 0.532 589.30 0.00 0.00 1.3880 239.80 33.13 1 1 1 25.090 24.940 24.430 23.930 23.950 6.523 5.094 24.810 24.540 24.050 23.020 23.650 2.021 1.596 2.3450 31.523 8.258 23.248 29.461 7.740 21.710
VANMET_231 2015-09-28 14:10:00 231 5603.0 24.710 24.680 24.280 23.890 23.130 27.290 27.450 4.586 3.981 13.160 12.780 12.240 10.940 0.209 0.232 0.269 0.532 596.50 0.00 0.00 1.0580 265.60 26.95 1 1 1 24.900 24.860 24.390 23.390 23.980 6.601 5.857 24.590 24.540 24.190 22.960 23.850 2.615 2.232 1.6330 31.131 8.474 22.635 29.639 8.121 21.503
VANMET_231 2015-09-28 14:05:00 231 5603.0 24.820 24.910 24.470 23.820 23.370 28.920 29.380 5.467 4.841 13.120 12.780 12.240 10.940 0.209 0.233 0.269 0.532 604.30 0.00 0.00 0.9460 206.40 35.68 1 1 1 24.970 25.220 24.730 23.900 24.030 8.700 7.194 24.640 24.510 24.090 22.680 23.530 2.590 2.206 1.7120 31.336 9.011 22.273 29.515 8.626 20.843
VANMET_231 2015-09-28 14:00:00 231 5603.0 24.600 24.360 23.970 23.460 22.670 26.510 27.620 4.107 3.723 13.070 12.780 12.240 10.940 0.209 0.233 0.269 0.532 614.80 0.00 0.00 0.7570 171.10 31.91 1 1 1 24.670 24.600 24.170 23.080 23.580 5.354 5.108 24.520 24.230 23.800 22.280 23.340 2.702 2.442 1.2150 30.927 8.194 22.728 28.882 7.975 20.905
VANMET_231 2015-09-28 13:55:00 231 5603.0 24.640 24.020 23.690 23.340 22.730 27.120 27.850 4.420 3.717 13.020 12.780 12.240 10.940 0.209 0.233 0.269 0.532 624.20 0.00 0.00 1.1970 185.90 29.80 1 1 1 24.850 24.190 23.840 22.890 23.440 8.160 6.301 24.570 23.880 23.570 22.600 23.260 2.728 2.334 3.0250 31.001 8.376 22.593 28.674 7.972 20.688
VANMET_231 2015-09-28 13:50:00 231 5603.0 24.680 24.380 23.960 23.560 23.020 28.180 28.310 5.029 4.137 12.980 12.780 12.240 10.940 0.209 0.233 0.269 0.532 631.50 0.00 0.00 1.0000 181.20 53.79 1 1 1 24.830 24.510 24.080 23.590 23.650 7.369 6.358 24.450 24.210 23.720 22.400 23.330 3.171 2.401 2.0320 31.075 8.740 22.318 29.057 8.211 20.831
VANMET_231 2015-09-28 13:45:00 231 5603.0 24.590 24.170 23.870 23.660 22.960 27.150 27.390 4.386 3.739 12.930 12.790 12.240 10.940 0.209 0.233 0.269 0.532 638.90 0.00 0.00 1.2770 221.50 30.71 1 1 1 24.750 24.470 24.140 23.510 23.820 7.127 5.647 24.360 23.750 23.550 22.310 23.500 2.189 2.041 2.6530 30.908 8.356 22.517 29.232 7.984 21.225
VANMET_231 2015-09-28 13:40:00 231 5603.0 24.610 24.230 23.990 23.620 23.140 28.690 28.590 5.219 4.313 12.890 12.790 12.240 10.940 0.209 0.233 0.269 0.532 644.80 0.00 0.00 0.8520 179.70 35.84 1 1 1 24.720 24.390 24.130 23.350 23.770 6.999 6.905 24.490 23.980 23.740 22.810 23.510 2.580 2.407 1.5420 30.945 8.857 22.067 29.162 8.313 20.824
VANMET_231 2015-09-28 13:35:00 231 5603.0 24.440 24.150 23.720 23.330 22.940 27.100 27.800 4.245 3.669 12.850 12.790 12.240 10.940 0.209 0.233 0.269 0.532 651.90 0.00 0.00 1.3660 212.60 25.51 1 1 1 24.570 24.350 23.970 23.390 23.550 6.110 5.933 24.300 23.900 23.460 22.440 23.200 2.617 2.042 2.7110 30.632 8.274 22.331 28.657 7.945 20.690
VANMET_231 2015-09-28 13:30:00 231 5603.0 24.320 24.090 23.690 23.330 22.680 26.650 26.960 3.934 3.268 12.810 12.790 12.240 10.940 0.209 0.233 0.269 0.532 657.70 0.00 0.00 1.0840 171.30 30.56 1 1 1 24.460 24.300 23.820 22.880 23.390 5.469 4.388 24.280 23.950 23.560 22.410 23.260 2.354 1.981 2.3260 30.413 8.095 22.308 28.657 7.723 20.931
VANMET_231 2015-09-28 13:25:00 231 5603.0 24.290 24.080 23.780 23.370 22.860 28.670 29.540 4.960 4.583 12.770 12.790 12.240 10.940 0.209 0.233 0.269 0.532 662.10 0.00 0.00 0.9970 166.90 27.51 1 1 1 24.340 24.190 23.900 23.030 23.540 6.636 6.156 24.250 23.940 23.660 22.630 23.200 3.446 3.266 1.7770 30.359 8.698 21.655 28.726 8.472 20.240
VANMET_231 2015-09-28 13:20:00 231 5603.0 24.300 23.840 23.390 22.980 22.220 27.200 28.800 4.199 3.876 12.730 12.790 12.240 10.940 0.209 0.233 0.269 0.532 667.70 0.00 0.00 0.7320 172.50 48.79 1 1 1 24.440 24.130 23.690 22.990 23.160 6.322 6.121 24.230 23.670 23.230 21.900 22.860 2.854 2.469 1.5420 30.377 8.247 22.114 28.057 8.062 19.977
VANMET_231 2015-09-28 13:15:00 231 5603.0 24.420 23.860 23.450 23.110 22.080 25.070 25.990 3.161 2.566 12.690 12.800 12.240 10.940 0.209 0.233 0.269 0.532 674.30 0.00 0.00 0.5880 117.90 48.91 1 1 1 24.480 24.070 23.630 22.580 23.280 4.635 3.574 24.360 23.700 23.310 21.750 22.990 2.201 1.948 1.2610 30.596 7.664 22.925 28.278 7.347 20.929
VANMET_231 2015-09-28 13:10:00 231 5603.0 24.320 24.040 23.730 23.290 22.900 27.870 28.040 4.566 3.744 12.650 12.800 12.240 10.940 0.209 0.233 0.269 0.532 680.30 0.00 0.00 1.1220 199.30 27.49 1 1 1 24.460 24.250 23.860 23.240 23.380 5.956 5.799 24.040 23.860 23.530 22.570 23.100 2.854 1.951 1.8820 30.413 8.462 21.937 28.587 7.987 20.572
VANMET_231 2015-09-28 13:05:00 231 5603.0 24.020 23.620 23.390 23.130 22.630 27.030 27.830 3.864 3.526 12.620 12.800 12.240 10.940 0.209 0.233 0.269 0.532 686.70 0.00 0.00 1.1770 203.70 39.64 1 1 1 24.200 24.000 23.730 23.320 23.310 6.382 6.319 23.890 23.400 23.160 22.150 23.030 2.391 2.349 2.0120 29.871 8.055 21.797 28.313 7.865 20.433
VANMET_231 2015-09-28 13:00:00 231 5603.0 24.230 23.910 23.720 23.440 22.860 28.180 28.700 4.653 4.239 12.580 12.810 12.240 10.940 0.209 0.233 0.269 0.532 691.60 0.00 0.00 1.3110 260.70 47.71 1 1 1 24.430 24.150 23.920 23.200 23.600 6.313 6.207 24.030 23.710 23.560 22.470 23.320 3.321 3.233 2.3320 30.250 8.514 21.725 28.847 8.270 20.568
VANMET_231 2015-09-28 12:55:00 231 5603.0 24.390 24.140 24.070 23.780 22.960 28.150 27.970 4.766 4.150 12.550 12.810 12.240 10.940 0.209 0.233 0.269 0.532 695.60 0.00 0.00 1.1530 263.70 34.99 1 1 1 24.500 24.310 24.210 23.300 23.870 6.623 6.208 24.270 23.940 23.860 22.220 23.640 2.625 2.360 1.8100 30.541 8.581 21.944 29.444 8.218 21.208
VANMET_231 2015-09-28 12:50:00 231 5603.0 24.310 24.040 24.010 23.730 22.790 27.090 27.990 4.154 4.133 12.520 12.810 12.250 10.940 0.209 0.233 0.269 0.532 701.60 0.00 0.00 0.7520 232.70 53.33 1 1 1 24.420 24.240 24.150 23.280 23.860 5.902 5.870 24.200 23.760 23.820 22.260 23.620 2.585 1.877 1.5290 30.395 8.221 22.161 29.355 8.209 21.139
VANMET_231 2015-09-28 12:45:00 231 5603.0 24.090 23.720 23.560 23.130 22.900 28.910 29.880 4.897 4.545 12.480 12.820 12.250 10.940 0.209 0.233 0.269 0.532 710.90 0.00 0.00 0.7220 217.10 54.99 1 1 1 24.370 24.150 24.040 23.580 23.590 6.713 6.564 23.740 23.170 23.030 21.970 22.760 3.365 2.876 1.2740 29.997 8.660 21.325 28.313 8.449 19.853
VANMET_231 2015-09-28 12:40:00 231 5603.0 23.950 23.340 23.150 22.840 22.130 27.260 28.440 3.922 3.576 12.450 12.820 12.250 10.940 0.209 0.233 0.269 0.532 718.70 0.00 0.00 0.9630 175.30 48.71 1 1 1 24.070 23.520 23.300 22.530 22.930 6.142 5.560 23.750 23.000 22.880 21.780 22.760 2.149 1.792 1.6990 29.746 8.088 21.637 27.820 7.893 19.908
VANMET_231 2015-09-28 12:35:00 231 5603.0 23.900 23.440 23.140 22.790 22.240 26.460 26.950 3.468 2.801 12.430 12.830 12.250 10.940 0.209 0.233 0.269 0.532 718.20 0.00 0.00 0.8560 214.90 29.93 1 1 1 24.040 23.650 23.320 22.670 22.830 4.875 4.035 23.760 23.260 23.010 21.700 22.720 1.923 1.900 1.9600 29.657 7.833 21.810 27.736 7.471 20.261
VANMET_231 2015-09-28 12:30:00 231 5603.0 23.520 23.250 23.050 22.580 22.450 29.060 28.960 4.473 3.625 12.400 12.830 12.250 10.940 0.209 0.233 0.269 0.532 716.70 0.00 0.00 0.8810 174.10 55.33 1 1 1 23.760 23.410 23.190 22.770 22.820 6.874 5.714 23.180 23.090 22.860 22.190 22.330 2.787 2.341 1.8360 28.987 8.407 20.563 27.385 7.920 19.454
VANMET_231 2015-09-28 12:25:00 231 5603.0 23.000 22.800 22.580 22.150 21.840 27.920 27.730 3.475 2.651 12.370 12.830 12.250 10.940 0.209 0.233 0.269 0.532 720.30 0.00 0.00 0.8150 208.50 34.00 1 1 1 23.150 23.070 22.820 22.500 22.300 4.863 4.067 22.870 22.620 22.300 21.310 21.810 2.334 1.527 1.4900 28.091 7.837 20.248 26.679 7.392 19.281
VANMET_231 2015-09-28 12:20:00 231 5603.0 22.740 22.500 22.220 21.780 21.470 28.040 28.640 3.291 2.781 12.350 12.840 12.250 10.940 0.209 0.233 0.269 0.532 726.80 0.00 0.00 0.8990 113.20 47.52 1 1 1 22.850 22.620 22.350 21.810 21.850 5.475 4.719 22.670 22.350 22.110 21.170 21.680 1.732 1.516 1.6990 27.652 7.735 19.899 26.084 7.460 18.613
VANMET_231 2015-09-28 12:15:00 231 5603.0 22.380 22.070 21.740 21.300 21.130 29.510 30.660 3.718 3.338 12.320 12.840 12.250 10.940 0.209 0.233 0.269 0.532 735.30 0.00 0.00 0.9550 106.60 46.44 1 1 1 22.680 22.460 22.130 21.510 21.630 5.125 4.436 22.170 21.720 21.380 20.710 21.060 2.510 2.205 2.1490 27.055 7.972 19.071 25.329 7.761 17.563
VANMET_231 2015-09-28 12:10:00 231 5603.0 22.120 21.880 21.640 21.170 20.730 28.950 29.620 3.238 2.750 12.300 12.850 12.250 10.940 0.209 0.233 0.269 0.532 623.50 0.00 0.00 0.9700 94.00 40.88 1 1 1 22.220 22.020 21.790 20.950 21.260 4.111 3.442 21.990 21.790 21.490 20.550 21.080 2.288 2.035 1.8490 26.630 7.706 18.921 25.128 7.444 17.685
VANMET_231 2015-09-28 12:05:00 231 5603.0 21.730 21.510 21.320 20.940 20.740 29.030 29.690 2.937 2.570 12.280 12.850 12.250 10.940 0.209 0.233 0.269 0.532 738.90 0.00 0.00 1.1270 82.70 39.15 1 1 1 21.950 21.810 21.540 21.020 21.090 4.514 3.916 21.600 21.280 21.120 20.430 20.800 2.001 1.536 2.1430 26.004 7.544 18.455 24.776 7.349 17.420
VANMET_231 2015-09-28 12:00:00 231 5603.0 21.650 21.420 21.200 20.740 20.590 29.790 30.790 3.230 2.908 12.260 12.860 12.250 10.940 0.209 0.233 0.269 0.532 738.80 0.00 0.00 1.1500 73.76 32.55 1 1 1 21.810 21.600 21.350 20.740 20.880 4.589 4.064 21.340 21.190 20.980 20.420 20.500 2.177 1.605 1.9860 25.877 7.702 18.169 24.473 7.528 16.938
VANMET_231 2015-09-28 11:55:00 231 5603.0 21.140 20.840 20.590 20.170 20.150 29.570 30.360 2.693 2.218 12.240 12.870 12.250 10.940 0.209 0.233 0.269 0.532 615.80 0.00 0.00 1.1680 61.30 38.01 1 1 1 21.320 21.160 20.930 20.500 20.420 3.531 3.304 21.070 20.640 20.400 19.830 20.030 1.748 1.282 2.3980 25.082 7.414 17.665 23.627 7.167 16.454
VANMET_231 2015-09-28 11:50:00 231 5603.0 21.130 20.750 20.490 20.160 20.010 29.040 30.140 2.432 2.118 12.220 12.870 12.250 10.950 0.209 0.233 0.269 0.532 707.20 0.00 0.00 1.2980 50.77 37.53 1 1 1 21.200 20.920 20.650 20.430 20.290 3.449 3.141 21.070 20.630 20.390 19.780 20.090 1.777 1.378 2.5350 25.066 7.277 17.787 23.613 7.116 16.496
VANMET_231 2015-09-28 11:45:00 231 5603.0 20.970 20.600 20.400 20.080 19.880 29.570 30.620 2.532 2.262 12.210 12.880 12.250 10.950 0.209 0.233 0.269 0.532 727.50 0.00 0.00 1.3600 62.76 34.23 1 1 1 21.050 20.700 20.550 20.040 20.150 4.420 4.397 20.850 20.460 20.220 19.690 20.000 1.558 0.992 2.5020 24.821 7.329 17.482 23.496 7.190 16.302
VANMET_231 2015-09-28 11:40:00 231 5603.0 20.680 20.420 20.240 19.900 19.890 30.200 30.780 2.580 2.175 12.190 12.880 12.250 10.950 0.210 0.233 0.269 0.532 721.90 0.00 0.00 1.2700 52.41 43.64 1 1 1 20.820 20.700 20.540 20.440 20.160 3.945 3.394 20.590 20.180 19.960 19.470 19.750 1.431 1.062 2.5740 24.383 7.354 17.019 23.236 7.145 16.084
VANMET_231 2015-09-28 11:35:00 231 5603.0 20.570 20.280 20.090 19.730 19.610 30.400 31.260 2.584 2.243 12.180 12.890 12.250 10.950 0.210 0.233 0.269 0.532 716.50 0.00 0.00 0.9970 49.49 54.22 1 1 1 20.710 20.470 20.300 19.890 19.900 4.315 3.857 20.460 20.020 19.840 19.350 19.550 1.450 1.438 2.5020 24.218 7.357 16.856 22.992 7.180 15.805
VANMET_231 2015-09-28 11:30:00 231 5603.0 20.550 20.220 19.990 19.590 19.440 29.280 30.400 2.024 1.737 12.170 12.890 12.250 10.950 0.210 0.233 0.269 0.532 715.80 0.00 0.00 1.1760 62.90 63.74 1 1 1 20.670 20.480 20.260 20.010 19.730 3.958 2.873 20.460 19.970 19.810 19.040 19.480 0.794 0.893 1.8290 24.188 7.068 17.106 22.793 6.924 15.864
VANMET_231 2015-09-28 11:25:00 231 5603.0 20.260 19.990 19.800 19.490 19.360 30.210 31.040 2.237 1.941 12.160 12.900 12.250 10.950 0.210 0.233 0.269 0.532 716.00 0.00 0.00 1.6580 75.82 32.77 1 1 1 20.440 20.210 19.960 19.580 19.600 3.176 3.214 20.120 19.730 19.530 19.120 19.340 1.619 0.936 2.6390 23.759 7.177 16.582 22.652 7.026 15.621
VANMET_231 2015-09-28 11:20:00 231 5603.0 20.320 19.900 19.720 19.490 19.220 29.920 30.970 2.149 1.909 12.150 12.910 12.250 10.950 0.210 0.233 0.269 0.532 713.40 0.00 0.00 1.3640 56.29 48.90 1 1 1 20.510 20.230 19.990 19.480 19.640 3.532 3.656 20.160 19.730 19.590 19.070 19.390 1.537 1.129 2.3520 23.847 7.132 16.712 22.652 7.010 15.637
VANMET_231 2015-09-28 11:15:00 231 5603.0 20.300 20.290 20.120 19.660 19.540 31.310 31.930 2.765 2.473 12.140 12.910 12.260 10.950 0.210 0.233 0.269 0.532 712.00 0.00 0.00 1.0560 42.61 54.97 1 1 1 20.500 20.410 20.310 19.960 19.830 4.276 4.287 20.030 20.050 19.830 19.200 19.360 1.916 1.635 1.7380 23.818 7.452 16.361 22.893 7.299 15.583
VANMET_231 2015-09-28 11:10:00 231 5603.0 19.740 19.640 19.480 19.090 19.170 32.320 32.640 2.704 2.281 12.130 12.920 12.260 10.950 0.210 0.233 0.269 0.532 699.20 0.00 0.00 1.5200 53.70 51.70 1 1 1 20.000 20.020 19.790 19.450 19.290 4.701 4.233 19.580 19.330 19.190 19.000 18.840 1.305 0.869 3.1820 23.007 7.420 15.571 22.095 7.199 14.883
VANMET_231 2015-09-28 11:05:00 231 5603.0 19.560 19.180 19.000 18.690 18.690 32.400 33.560 2.588 2.306 12.130 12.920 12.260 10.950 0.210 0.233 0.269 0.532 701.10 0.00 0.00 1.2560 50.12 47.18 1 1 1 19.610 19.380 19.260 19.130 18.870 4.570 4.852 19.500 19.090 18.890 18.410 18.590 1.327 0.777 2.7240 22.751 7.359 15.380 21.550 7.212 14.318
VANMET_231 2015-09-28 11:00:00 231 5603.0 19.620 19.240 19.020 18.700 18.590 30.900 31.770 1.990 1.572 12.120 12.930 12.260 10.950 0.210 0.233 0.269 0.532 698.90 0.00 0.00 1.7240 67.17 37.35 1 1 1 19.680 19.390 19.130 18.820 18.760 3.671 3.129 19.560 19.090 18.840 18.290 18.620 1.063 0.518 2.6720 22.836 7.051 15.780 21.564 6.843 14.713
VANMET_231 2015-09-28 10:55:00 231 5603.0 19.540 19.100 18.890 18.520 18.420 32.810 33.950 2.751 2.338 12.120 12.940 12.260 10.950 0.210 0.233 0.269 0.532 689.70 0.00 0.00 0.8830 76.08 62.48 1 1 1 19.640 19.330 19.120 18.720 18.690 4.494 3.624 19.460 18.890 18.630 18.230 18.320 1.582 1.054 2.2340 22.723 7.444 15.267 21.322 7.229 14.083
VANMET_231 2015-09-28 10:50:00 231 5603.0 19.450 19.050 18.860 18.490 18.300 32.010 32.980 2.331 1.911 12.120 12.940 12.260 10.950 0.210 0.233 0.269 0.532 684.50 0.00 0.00 1.5210 45.52 43.16 1 1 1 19.550 19.160 18.990 18.620 18.550 3.938 3.846 19.230 18.890 18.630 18.130 18.380 1.448 0.651 2.9140 22.596 7.225 15.363 21.282 7.011 14.263
VANMET_231 2015-09-28 10:45:00 231 5603.0 18.970 18.700 18.600 18.220 18.030 33.030 33.490 2.336 1.871 12.120 12.950 12.260 10.950 0.210 0.233 0.269 0.532 679.30 0.00 0.00 0.7540 35.24 73.83 1 1 1 19.170 18.990 18.900 18.360 18.490 4.333 5.015 18.850 18.540 18.390 17.750 17.970 0.910 0.645 1.7900 21.930 7.228 14.687 20.925 6.991 13.917
VANMET_231 2015-09-28 10:40:00 231 5603.0 18.690 18.390 18.140 17.750 17.660 34.030 35.270 2.515 2.179 12.120 12.960 12.260 10.950 0.210 0.233 0.269 0.532 675.80 0.00 0.00 1.1040 98.50 57.63 1 1 1 18.830 18.700 18.470 17.970 17.990 4.428 4.639 18.580 18.160 17.920 17.360 17.600 1.300 0.817 2.8810 21.550 7.320 14.217 20.316 7.147 13.150
VANMET_231 2015-09-28 10:35:00 231 5603.0 18.440 18.080 17.900 17.570 17.420 32.560 33.510 1.695 1.330 12.120 12.960 12.260 10.950 0.210 0.233 0.269 0.532 668.80 0.00 0.00 1.5220 88.00 52.04 1 1 1 18.590 18.310 18.050 17.580 17.670 2.573 2.343 18.380 17.940 17.780 17.340 17.480 0.866 0.639 2.2870 21.216 6.904 14.308 20.086 6.725 13.355
VANMET_231 2015-09-28 10:30:00 231 5603.0 18.470 18.040 17.780 17.390 17.310 34.300 35.100 2.432 1.820 12.120 12.970 12.260 10.950 0.210 0.233 0.269 0.532 661.20 0.00 0.00 1.4940 74.04 34.89 1 1 1 18.520 18.110 17.910 17.680 17.500 4.067 3.256 18.390 17.930 17.660 17.180 17.300 1.542 0.999 2.8680 21.256 7.277 13.965 19.859 6.966 12.889
VANMET_231 2015-09-28 10:25:00 231 5603.0 18.270 17.910 17.620 17.240 17.160 34.140 35.430 2.206 1.808 12.120 12.980 12.260 10.950 0.210 0.233 0.269 0.532 652.30 0.00 0.00 1.5490 73.99 25.74 1 1 1 18.410 18.090 17.800 17.700 17.390 3.740 3.535 18.100 17.720 17.430 16.900 17.090 1.282 0.639 3.2600 20.991 7.161 13.824 19.672 6.960 12.702
VANMET_231 2015-09-28 10:20:00 231 5603.0 18.010 17.740 17.560 17.180 16.960 35.220 36.030 2.400 1.968 12.130 12.980 12.260 10.950 0.210 0.233 0.269 0.532 647.80 0.00 0.00 1.3620 109.10 41.45 1 1 1 18.130 17.910 17.720 17.150 17.270 4.179 4.578 17.780 17.510 17.390 16.760 17.030 1.448 0.192 3.2600 20.651 7.261 13.378 19.597 7.040 12.537
VANMET_231 2015-09-28 10:15:00 231 5603.0 17.690 17.370 17.140 16.810 16.740 33.560 34.810 1.454 1.180 12.130 12.990 12.260 10.950 0.210 0.233 0.269 0.532 643.10 0.00 0.00 1.5760 72.46 52.16 1 1 1 17.780 17.540 17.390 16.950 16.990 2.551 2.735 17.630 17.170 16.890 16.470 16.640 0.471 0.099 3.4370 20.239 6.785 13.447 19.143 6.653 12.480
VANMET_231 2015-09-28 10:10:00 231 5603.0 17.640 17.350 17.130 16.810 16.610 33.690 34.270 1.453 0.960 12.140 13.000 12.260 10.950 0.210 0.233 0.269 0.532 636.40 0.00 0.00 1.5770 60.84 48.05 1 1 1 17.750 17.590 17.360 16.960 16.940 3.695 2.830 17.550 17.170 16.960 16.380 16.680 0.469 0.172 2.8220 20.175 6.785 13.378 19.143 6.548 12.583
VANMET_231 2015-09-28 10:05:00 231 5603.0 17.550 17.360 17.190 16.840 16.810 35.430 36.260 2.062 1.762 12.140 13.000 12.260 10.950 0.210 0.233 0.269 0.532 626.90 0.00 0.00 1.2770 60.92 46.54 1 1 1 17.790 17.660 17.460 17.100 17.030 3.890 3.634 17.310 17.120 16.940 16.470 16.650 0.477 -0.018 2.3520 20.061 7.087 12.953 19.180 6.937 12.225
VANMET_231 2015-09-28 10:00:00 231 5603.0 17.220 16.980 16.810 16.530 16.350 34.640 35.300 1.463 1.106 12.150 13.010 12.260 10.950 0.210 0.233 0.269 0.532 616.40 0.00 0.00 1.0920 56.23 38.60 1 1 1 17.280 17.070 16.910 16.530 16.610 3.740 3.629 17.180 16.900 16.750 16.170 16.490 0.096 -0.201 1.9730 19.647 6.790 12.841 18.806 6.617 12.167
VANMET_231 2015-09-28 09:55:00 231 5603.0 17.200 17.030 16.850 16.530 16.450 34.790 35.140 1.520 1.071 12.160 13.020 12.260 10.950 0.210 0.233 0.269 0.532 605.40 0.00 0.00 1.5080 44.84 28.97 1 1 1 17.290 17.170 16.980 16.780 16.600 2.948 2.175 17.020 16.920 16.740 16.250 16.420 0.610 0.105 2.6460 19.622 6.817 12.796 18.806 6.601 12.197
VANMET_231 2015-09-28 09:50:00 231 5603.0 16.830 16.710 16.530 16.220 16.150 35.830 36.330 1.593 1.249 12.160 13.020 12.260 10.950 0.210 0.233 0.269 0.532 592.50 0.00 0.00 1.4310 29.31 48.01 1 1 1 16.980 16.940 16.760 16.530 16.400 4.140 2.678 16.640 16.490 16.340 15.780 16.010 0.532 0.000 3.2730 19.168 6.853 12.300 18.438 6.686 11.740
VANMET_231 2015-09-28 09:45:00 231 5603.0 16.450 16.320 16.180 15.870 15.830 35.230 35.750 1.041 0.727 12.170 13.030 12.270 10.950 0.210 0.233 0.269 0.532 582.70 0.00 0.00 1.5590 36.83 33.73 1 1 1 16.610 16.480 16.330 16.090 15.990 1.925 1.611 16.360 16.060 15.940 15.580 15.750 -0.162 -0.408 3.1100 18.710 6.586 12.119 18.031 6.439 11.585
VANMET_231 2015-09-28 09:40:00 231 5603.0 16.170 16.090 15.920 15.660 15.430 35.440 35.770 0.872 0.547 12.180 13.040 12.270 10.950 0.210 0.233 0.269 0.532 572.10 0.00 0.00 1.3780 38.92 51.30 1 1 1 16.330 16.210 16.030 15.630 15.730 1.746 1.245 15.960 15.990 15.850 15.300 15.620 -0.237 -0.587 2.9470 18.379 6.506 11.866 17.790 6.355 11.427
VANMET_231 2015-09-28 09:35:00 231 5603.0 15.800 15.860 15.850 15.710 15.340 35.430 34.550 0.542 0.121 12.190 13.040 12.270 10.950 0.210 0.233 0.269 0.532 561.20 0.00 0.00 1.4700 37.65 38.24 1 1 1 15.940 15.980 16.000 15.530 15.840 1.868 1.142 15.640 15.750 15.750 15.190 15.630 -0.110 -0.562 2.6330 17.950 6.353 11.590 17.847 6.162 11.681
VANMET_231 2015-09-28 09:30:00 231 5603.0 15.540 15.760 15.950 15.820 15.380 37.890 35.330 1.217 0.510 12.200 13.050 12.270 10.950 0.210 0.233 0.269 0.532 548.40 0.00 0.00 0.9150 35.26 57.65 1 1 1 15.640 15.880 16.060 15.620 15.950 3.574 2.290 15.430 15.630 15.770 15.200 15.700 -0.079 -0.428 2.1490 17.654 6.670 10.965 17.973 6.338 11.623
VANMET_231 2015-09-28 09:25:00 231 5603.0 15.380 15.740 15.870 15.680 15.300 39.030 36.400 1.502 0.794 12.210 13.060 12.270 10.950 0.210 0.233 0.269 0.532 536.00 0.00 0.00 0.9020 8.89 65.67 1 1 1 15.440 15.880 16.040 15.530 15.810 2.744 2.329 15.280 15.580 15.770 15.050 15.560 -0.188 -0.475 2.0190 17.474 6.809 10.654 17.813 6.470 11.329
VANMET_231 2015-09-28 09:20:00 231 5603.0 15.120 15.660 15.650 15.420 15.080 39.610 36.310 1.472 0.537 12.220 13.060 12.270 10.950 0.210 0.234 0.269 0.532 525.20 0.00 0.00 1.2460 359.60 44.60 1 1 1 15.250 15.760 15.740 15.280 15.530 3.187 2.124 15.000 15.500 15.570 14.900 15.270 0.440 -0.342 1.9860 17.184 6.794 10.377 17.518 6.351 11.157
VANMET_231 2015-09-28 09:15:00 231 5603.0 14.980 15.340 15.350 15.080 14.830 41.340 38.840 1.904 1.140 12.240 13.070 12.270 10.950 0.210 0.234 0.269 0.532 515.50 0.00 0.00 1.0700 3.53 63.47 1 1 1 15.070 15.470 15.550 15.150 15.260 4.151 3.480 14.880 15.160 15.130 14.560 14.870 0.060 -0.785 1.5290 17.030 7.008 9.990 17.140 6.633 10.483
VANMET_231 2015-09-28 09:10:00 231 5603.0 14.520 14.910 14.940 14.570 14.470 40.450 38.220 1.204 0.484 12.250 13.080 12.270 10.950 0.210 0.234 0.269 0.531 529.50 0.00 0.00 0.8230 27.02 61.40 1 1 1 14.870 15.160 15.150 14.810 14.810 4.090 2.308 14.200 14.530 14.610 14.180 14.330 -0.303 -0.725 1.8950 16.532 6.664 9.845 16.586 6.326 10.247
VANMET_231 2015-09-28 09:05:00 231 5603.0 14.040 14.210 14.230 14.000 13.930 39.890 38.810 0.598 0.190 12.260 13.080 12.270 10.950 0.210 0.234 0.269 0.531 528.90 0.00 0.00 1.1690 27.31 50.53 1 1 1 14.180 14.530 14.590 14.440 14.320 2.418 1.695 13.910 13.900 13.940 13.550 13.830 -0.654 -0.976 2.3260 16.026 6.379 9.633 15.985 6.193 9.781
VANMET_231 2015-09-28 09:00:00 231 5603.0 14.000 13.980 14.020 13.890 13.540 42.010 39.980 1.265 0.490 12.270 13.090 12.270 10.950 0.210 0.234 0.269 0.531 348.00 0.00 0.00 1.2170 351.80 50.20 1 1 1 14.130 14.250 14.280 13.740 14.060 3.524 2.065 13.880 13.810 13.870 13.360 13.780 -0.448 -0.855 3.1750 15.985 6.693 9.269 15.871 6.329 9.526
VANMET_231 2015-09-28 08:55:00 231 5603.0 13.960 14.130 14.230 14.080 13.760 42.260 39.430 1.317 0.473 12.280 13.100 12.270 10.950 0.210 0.234 0.269 0.531 354.90 0.00 0.00 1.1180 1.68 45.10 1 1 1 14.130 14.330 14.340 14.010 14.120 2.917 1.845 13.840 13.960 14.140 13.550 14.040 -0.156 -0.895 2.3590 15.943 6.719 9.206 16.068 6.321 9.732
VANMET_231 2015-09-28 08:50:00 231 5603.0 13.860 14.170 14.380 14.190 13.960 38.770 36.180 0.059 -0.601 12.300 13.100 12.270 10.950 0.210 0.234 0.269 0.532 329.90 0.00 0.00 1.0910 353.50 72.13 1 1 1 13.890 14.240 14.460 14.030 14.230 1.250 0.444 13.820 14.110 14.250 13.850 14.090 -0.705 -1.289 2.3450 15.840 6.134 9.699 16.183 5.846 10.328
VANMET_231 2015-09-28 08:45:00 231 5603.0 13.920 14.210 14.330 14.080 13.710 43.030 39.790 1.507 0.585 12.310 13.110 12.270 10.950 0.210 0.234 0.269 0.532 443.40 0.00 0.00 0.7530 322.40 52.57 1 1 1 14.010 14.360 14.450 13.870 14.190 3.367 2.435 13.860 14.030 14.100 13.290 13.890 -0.292 -0.730 1.7050 15.902 6.811 9.059 16.068 6.373 9.674
VANMET_231 2015-09-28 08:40:00 231 5603.0 14.100 14.180 14.130 13.850 13.510 42.200 40.470 1.408 0.617 12.320 13.120 12.270 10.950 0.210 0.234 0.269 0.531 412.10 0.00 0.00 1.0790 0.46 45.94 1 1 1 14.140 14.240 14.200 13.730 13.940 3.305 2.414 14.040 13.980 14.080 13.270 13.750 -0.474 -0.785 2.6660 16.089 6.763 9.299 15.830 6.388 9.423
VANMET_231 2015-09-28 08:35:00 231 5603.0 13.970 14.100 14.020 13.740 13.460 39.350 37.730 0.359 -0.425 12.330 13.120 12.270 10.950 0.210 0.234 0.269 0.531 394.90 0.00 0.00 1.2250 28.83 60.43 1 1 1 14.080 14.250 14.120 13.650 13.810 1.835 0.942 13.860 13.940 13.880 13.180 13.570 -0.775 -1.136 2.7570 15.954 6.269 9.676 15.717 5.921 9.787
VANMET_231 2015-09-28 08:30:00 231 5603.0 13.810 13.920 13.860 13.540 13.120 42.490 40.090 1.250 0.216 12.350 13.130 12.270 10.950 0.210 0.234 0.269 0.531 379.90 0.00 0.00 1.1080 15.71 53.81 1 1 1 13.880 14.060 14.010 13.260 13.620 3.432 2.037 13.700 13.840 13.770 12.960 13.460 -0.284 -0.783 2.4960 15.789 6.686 9.080 15.514 6.204 9.294
VANMET_231 2015-09-28 08:25:00 231 5603.0 13.660 13.920 13.810 13.460 13.070 41.500 40.080 0.786 0.145 12.360 13.140 12.270 10.950 0.210 0.234 0.269 0.531 343.70 0.00 0.00 0.7440 346.60 45.36 1 1 1 13.740 14.060 13.930 13.220 13.550 2.792 1.800 13.580 13.830 13.690 12.930 13.290 -1.267 -0.984 1.5420 15.635 6.466 9.147 15.433 6.173 9.247
VANMET_231 2015-09-28 08:20:00 231 5603.0 13.210 13.560 13.430 12.980 12.880 41.030 39.750 0.246 -0.394 12.370 13.140 12.270 10.950 0.210 0.234 0.269 0.531 394.30 0.00 0.00 1.1050 28.06 39.98 1 1 1 13.540 13.810 13.640 13.080 13.240 2.101 1.222 12.880 13.180 13.160 12.610 12.760 -0.686 -1.220 2.3060 15.183 6.218 8.954 14.957 5.935 9.012
VANMET_231 2015-09-28 08:15:00 231 5603.0 12.620 12.790 12.810 12.500 12.150 49.910 47.230 2.435 1.549 12.390 13.150 12.270 10.950 0.210 0.234 0.269 0.531 396.20 0.00 0.00 0.6630 5.18 55.34 1 1 1 12.870 13.150 13.140 12.540 12.760 3.794 2.641 12.460 12.510 12.560 11.770 12.290 0.201 -0.823 1.2540 14.608 7.279 7.317 14.494 6.832 7.648
VANMET_231 2015-09-28 08:10:00 231 5603.0 12.410 12.690 12.650 12.290 12.050 46.770 43.510 1.320 0.211 12.400 13.160 12.270 10.950 0.210 0.234 0.269 0.531 242.80 0.00 0.00 0.9210 30.69 49.69 1 1 1 12.500 12.780 12.720 12.260 12.320 2.970 1.884 12.280 12.600 12.590 11.760 12.260 -0.489 -1.201 2.3190 14.408 6.720 7.669 14.295 6.202 8.075
VANMET_231 2015-09-28 08:05:00 231 5603.0 11.930 12.170 12.190 11.950 11.920 46.560 43.480 0.832 -0.096 12.420 13.160 12.270 10.950 0.210 0.234 0.269 0.531 338.10 0.00 0.00 1.4550 10.39 32.73 1 1 1 12.240 12.600 12.580 12.230 12.240 2.465 1.838 11.700 11.830 11.910 11.730 11.760 -0.630 -1.197 2.4570 13.960 6.488 7.460 13.978 6.065 7.901
VANMET_231 2015-09-28 08:00:00 231 5603.0 11.610 11.790 11.860 11.670 11.800 43.850 41.350 -0.290 -1.027 12.430 13.170 12.280 10.950 0.210 0.234 0.269 0.531 184.40 0.00 0.00 1.3530 336.80 67.12 1 1 1 11.730 11.880 11.950 11.900 11.760 1.641 0.438 11.540 11.700 11.790 11.690 11.600 -1.356 -1.831 2.7700 13.668 5.980 7.675 13.722 5.666 8.048
VANMET_231 2015-09-28 07:55:00 231 5603.0 11.390 11.630 11.670 11.510 11.650 44.130 41.960 -0.385 -0.970 12.440 13.180 12.280 10.950 0.210 0.234 0.270 0.531 122.90 0.00 0.00 1.1680 28.90 69.99 1 1 1 11.540 11.750 11.790 11.820 11.590 0.738 0.035 11.330 11.560 11.590 11.460 11.450 -1.054 -1.469 1.8750 13.470 5.939 7.526 13.578 5.690 7.881
VANMET_231 2015-09-28 07:50:00 231 5603.0 11.380 11.520 11.590 11.550 11.380 47.790 44.800 0.684 -0.047 12.460 13.180 12.280 10.950 0.210 0.234 0.270 0.531 161.90 0.00 0.00 1.1450 16.22 43.59 1 1 1 11.430 11.680 11.670 11.640 11.570 2.653 1.884 11.340 11.360 11.500 11.100 11.520 -0.373 -1.040 1.8230 13.461 6.419 7.028 13.614 6.087 7.515
VANMET_231 2015-09-28 07:45:00 231 5603.0 11.320 11.540 11.710 11.590 11.530 46.950 43.170 0.381 -0.522 12.470 13.190 12.280 10.950 0.210 0.234 0.270 0.531 97.60 0.00 0.00 1.1150 5.29 56.23 1 1 1 11.360 11.640 11.810 11.890 11.630 1.875 1.117 11.230 11.450 11.600 11.240 11.530 -1.137 -1.518 2.7510 13.408 6.279 7.113 13.650 5.880 7.757
VANMET_231 2015-09-28 07:40:00 231 5603.0 11.190 11.610 11.790 11.570 11.800 46.530 42.110 0.155 -0.872 12.490 13.190 12.280 10.950 0.210 0.234 0.269 0.531 71.02 0.00 0.00 0.8640 1.42 55.84 1 1 1 11.260 11.680 11.850 12.010 11.610 1.157 0.454 11.040 11.510 11.710 11.460 11.470 -0.794 -1.427 2.1760 13.293 6.177 7.108 13.632 5.731 7.891
VANMET_231 2015-09-28 07:35:00 231 5603.0 11.070 11.650 11.600 11.440 11.320 48.850 44.190 0.707 -0.342 12.500 13.200 12.280 10.950 0.210 0.234 0.269 0.531 135.80 0.00 0.00 1.1610 348.00 42.22 1 1 1 11.170 11.900 11.810 11.870 11.570 2.114 1.216 11.010 11.530 11.470 10.930 11.340 -0.539 -1.519 2.0650 13.187 6.429 6.745 13.515 5.957 7.543
VANMET_231 2015-09-28 07:30:00 231 5603.0 11.060 11.700 11.700 11.480 11.420 48.470 43.750 0.592 -0.432 12.520 13.210 12.280 10.950 0.210 0.234 0.269 0.531 151.40 0.00 0.00 1.3960 13.91 43.41 1 1 1 11.160 11.880 11.820 11.620 11.560 1.788 0.966 10.920 11.570 11.600 11.260 11.430 -0.487 -1.477 2.3450 13.179 6.376 6.791 13.551 5.918 7.622
VANMET_231 2015-09-28 07:25:00 231 5603.0 10.730 11.500 11.570 11.410 11.390 47.020 42.270 -0.125 -0.968 12.530 13.210 12.280 10.950 0.210 0.234 0.269 0.531 196.70 0.00 0.00 1.3550 21.72 50.09 1 1 1 10.870 11.630 11.680 11.680 11.490 1.285 0.277 10.510 11.160 11.350 11.130 11.270 -1.296 -1.825 2.1690 12.892 6.052 6.830 13.488 5.691 7.787
VANMET_231 2015-09-28 07:20:00 231 5603.0 10.320 10.880 11.150 11.050 11.110 48.290 42.260 -0.133 -1.283 12.550 13.220 12.280 10.950 0.210 0.234 0.270 0.531 159.10 0.00 0.00 1.5350 9.84 26.24 1 1 1 10.510 11.120 11.330 11.420 11.240 1.177 -0.597 10.060 10.480 10.820 10.640 10.850 -1.236 -1.889 3.6590 12.545 6.049 6.487 13.170 5.561 7.604
VANMET_231 2015-09-28 07:15:00 231 5603.0 10.070 10.450 10.760 10.770 10.690 50.870 44.330 0.342 -0.904 12.560 13.230 12.280 10.950 0.210 0.234 0.270 0.531 130.20 0.00 0.00 1.3880 11.63 20.93 1 1 1 10.090 10.540 10.880 10.910 10.900 1.962 0.788 10.010 10.350 10.650 10.420 10.670 -1.237 -1.942 2.1560 12.336 6.261 6.061 12.927 5.717 7.196
VANMET_231 2015-09-28 07:10:00 231 5603.0 9.960 10.180 10.470 10.490 10.510 49.390 44.270 -0.158 -1.170 12.580 13.230 12.280 10.950 0.210 0.234 0.270 0.531 103.30 0.00 0.00 0.9300 21.18 34.87 1 1 1 10.010 10.330 10.640 10.910 10.640 1.253 -0.029 9.940 10.090 10.390 10.180 10.390 -1.106 -1.853 2.0250 12.246 6.038 6.198 12.688 5.607 7.071
VANMET_231 2015-09-28 07:05:00 231 5603.0 9.910 10.270 10.560 10.480 10.770 47.780 43.060 -0.665 -1.557 12.590 13.240 12.280 10.950 0.210 0.234 0.270 0.531 49.20 0.00 0.00 1.4860 357.90 25.98 1 1 1 10.020 10.380 10.630 10.950 10.560 1.164 -0.051 9.700 10.160 10.460 10.390 10.350 -1.716 -2.214 2.3590 12.205 5.818 6.373 12.679 5.449 7.220
VANMET_231 2015-09-28 07:00:00 231 5603.0 9.640 10.070 10.370 10.310 10.630 48.330 42.880 -0.750 -1.758 12.610 13.240 12.280 10.950 0.210 0.234 0.270 0.531 36.61 0.00 0.00 1.3040 354.90 40.73 1 1 1 9.700 10.190 10.440 11.010 10.350 0.469 -0.433 9.490 9.980 10.260 10.260 10.240 -1.677 -2.291 2.2020 11.986 5.782 6.193 12.536 5.369 7.161
VANMET_231 2015-09-28 06:55:00 231 5603.0 9.430 9.860 10.230 10.240 10.450 49.470 44.070 -0.625 -1.456 12.620 13.250 12.280 10.950 0.210 0.234 0.270 0.531 31.02 0.00 0.00 1.1800 28.99 46.12 1 1 1 9.510 10.000 10.340 10.720 10.290 0.916 -0.529 9.310 9.750 10.140 10.060 10.150 -1.463 -1.976 1.7380 11.818 5.836 5.971 12.478 5.490 6.979
VANMET_231 2015-09-28 06:50:00 231 5603.0 9.270 9.630 10.010 9.990 10.320 51.670 44.720 -0.170 -1.480 12.640 13.260 12.280 10.950 0.210 0.234 0.270 0.531 28.38 0.00 0.00 0.8330 17.21 41.69 1 1 1 9.320 9.690 10.130 10.570 10.120 0.637 -0.699 9.160 9.510 9.850 10.000 9.840 -1.412 -2.112 1.7380 11.691 6.033 5.650 12.271 5.480 6.783
VANMET_231 2015-09-28 06:45:00 231 5603.0 9.150 9.480 9.860 9.930 9.910 52.440 46.300 -0.078 -1.069 12.650 13.260 12.280 10.950 0.210 0.234 0.270 0.531 29.16 0.00 0.00 1.1810 18.49 35.88 1 1 1 9.180 9.580 9.970 10.190 10.000 0.821 -0.221 9.110 9.420 9.770 9.740 9.840 -1.022 -1.965 1.6790 11.597 6.073 5.515 12.221 5.649 6.563
VANMET_231 2015-09-28 06:40:00 231 5603.0 9.150 9.500 9.940 9.960 9.970 51.420 44.660 -0.344 -1.521 12.670 13.270 12.280 10.950 0.210 0.234 0.270 0.531 29.52 0.00 0.00 1.3150 18.95 23.04 1 1 1 9.180 9.560 10.020 10.150 10.010 0.396 -1.103 9.120 9.430 9.840 9.780 9.930 -1.199 -2.011 2.3260 11.597 5.957 5.634 12.246 5.464 6.777
VANMET_231 2015-09-28 06:35:00 231 5603.0 9.120 9.640 10.080 9.990 10.150 51.840 44.320 -0.262 -1.598 12.690 13.270 12.280 10.950 0.210 0.234 0.270 0.531 29.36 0.00 0.00 1.0730 0.68 23.05 1 1 1 9.200 9.750 10.160 10.390 10.050 0.706 -0.843 8.940 9.500 9.950 9.920 9.890 -1.487 -2.249 2.5150 11.573 5.992 5.574 12.271 5.433 6.832
VANMET_231 2015-09-28 06:30:00 231 5603.0 8.720 9.210 9.640 9.650 9.960 52.470 44.900 -0.475 -1.733 12.700 13.280 12.280 10.950 0.210 0.234 0.270 0.531 27.18 0.00 0.00 1.7480 6.64 40.91 1 1 1 8.930 9.560 9.990 10.380 9.870 1.130 -0.754 8.560 8.910 9.340 9.360 9.480 -1.478 -2.163 2.6460 11.264 5.900 5.354 11.994 5.379 6.609
VANMET_231 2015-09-28 06:25:00 231 5603.0 8.550 8.910 9.340 9.440 9.520 55.550 47.170 0.155 -1.258 12.720 13.280 12.280 10.950 0.210 0.234 0.270 0.531 22.91 0.00 0.00 1.0610 0.91 35.98 1 1 1 8.580 8.940 9.380 9.810 9.500 0.926 -0.377 8.510 8.830 9.270 9.160 9.380 -1.130 -2.204 1.7770 11.135 6.177 4.950 11.826 5.571 6.247
VANMET_231 2015-09-28 06:20:00 231 5603.0 8.390 8.820 9.290 9.290 9.630 54.800 46.300 -0.181 -1.650 12.730 13.290 12.280 10.950 0.210 0.234 0.270 0.531 14.40 0.00 0.00 1.0510 354.40 29.38 1 1 1 8.550 8.980 9.440 9.970 9.450 0.839 -0.726 8.280 8.680 9.140 9.270 9.130 -1.402 -2.268 1.6860 11.015 6.028 4.979 11.707 5.412 6.286
VANMET_231 2015-09-28 06:15:00 231 5603.0 8.430 8.580 9.060 9.200 9.060 58.080 48.830 0.663 -1.005 12.750 13.300 12.290 10.950 0.210 0.234 0.270 0.531 7.80 0.00 0.00 0.9390 20.69 26.19 1 1 1 8.580 8.790 9.240 9.350 9.360 1.701 -0.008 8.290 8.480 8.960 8.790 9.110 -1.114 -1.836 1.3000 11.045 6.409 4.630 11.636 5.675 5.954
VANMET_231 2015-09-28 06:10:00 231 5603.0 8.580 8.810 9.300 9.430 9.350 56.380 47.680 0.385 -1.131 12.770 13.300 12.290 10.950 0.210 0.234 0.270 0.531 3.44 0.00 0.00 0.9100 331.80 41.20 1 1 1 8.640 8.940 9.430 9.800 9.540 1.731 0.195 8.530 8.680 9.150 8.940 9.330 -1.093 -2.106 1.3650 11.158 6.281 4.867 11.818 5.623 6.183
VANMET_231 2015-09-28 06:05:00 231 5603.0 8.580 8.950 9.470 9.530 9.670 52.670 45.420 -0.550 -1.686 12.780 13.310 12.290 10.950 0.210 0.234 0.270 0.531 0.85 0.00 0.00 0.9240 335.60 37.00 1 1 1 8.630 9.020 9.550 10.020 9.600 0.352 -0.921 8.490 8.840 9.340 9.430 9.450 -1.387 -2.350 1.4700 11.158 5.868 5.281 11.897 5.398 6.494
VANMET_231 2015-09-28 06:00:00 231 5603.0 8.420 8.690 9.180 9.290 9.340 55.950 46.050 0.131 -1.716 12.800 13.310 12.290 10.950 0.210 0.234 0.270 0.531 0.43 0.00 0.00 1.1580 320.60 25.34 1 1 1 8.480 8.890 9.420 9.900 9.430 1.450 -1.148 8.380 8.600 9.090 9.060 9.240 -1.064 -2.229 1.9730 11.038 6.166 4.862 11.707 5.386 6.316
VANMET_231 2015-09-28 05:55:00 231 5603.0 8.520 8.800 9.250 9.340 9.250 56.480 48.000 0.351 -1.107 12.810 13.320 12.290 10.950 0.210 0.234 0.270 0.531 0.00 0.00 0.00 0.9610 343.60 30.62 1 1 1 8.590 8.890 9.390 9.530 9.510 1.352 0.167 8.470 8.720 9.140 9.010 9.280 -0.867 -1.796 1.8100 11.113 6.266 4.836 11.746 5.633 6.108
VANMET_231 2015-09-28 05:50:00 231 5603.0 8.600 8.900 9.420 9.500 9.520 55.510 45.630 0.189 -1.652 12.830 13.320 12.290 10.950 0.210 0.234 0.270 0.531 0.00 0.00 0.00 1.2270 348.20 31.58 1 1 1 8.660 9.010 9.550 9.800 9.560 1.488 -0.782 8.560 8.810 9.280 9.280 9.420 -0.761 -2.321 2.0910 11.173 6.192 4.971 11.873 5.411 6.456
VANMET_231 2015-09-28 05:45:00 231 5603.0 8.620 8.920 9.380 9.490 9.570 55.190 46.470 0.111 -1.417 12.850 13.330 12.290 10.950 0.210 0.234 0.270 0.531 0.00 0.00 0.00 1.0230 343.20 27.95 1 1 1 8.640 9.000 9.460 9.870 9.550 1.710 0.057 8.590 8.800 9.260 9.220 9.420 -0.903 -2.178 1.5610 11.188 6.157 5.014 11.865 5.506 6.352
VANMET_231 2015-09-28 05:40:00 231 5603.0 8.620 8.850 9.300 9.450 9.310 56.840 48.270 0.539 -0.940 12.860 13.330 12.290 10.950 0.210 0.234 0.270 0.531 0.00 0.00 0.00 1.0420 340.70 36.37 1 1 1 8.680 9.020 9.510 9.770 9.610 1.817 0.422 8.550 8.740 9.200 9.000 9.350 -1.087 -2.275 1.9530 11.188 6.352 4.829 11.833 5.702 6.121
VANMET_231 2015-09-28 05:35:00 231 5603.0 8.620 8.900 9.370 9.500 9.540 54.080 45.850 -0.152 -1.594 12.880 13.340 12.290 10.950 0.210 0.234 0.270 0.531 0.00 0.00 0.00 1.0450 343.80 26.50 1 1 1 8.700 9.040 9.520 9.900 9.580 1.269 -0.817 8.550 8.830 9.290 9.300 9.440 -1.200 -2.058 1.7970 11.188 6.041 5.138 11.873 5.435 6.429
VANMET_231 2015-09-28 05:30:00 231 5603.0 8.800 9.110 9.600 9.730 9.710 55.600 46.440 0.390 -1.207 12.900 13.340 12.290 10.950 0.210 0.234 0.270 0.531 0.00 0.00 0.00 0.8740 9.78 26.68 1 1 1 8.840 9.250 9.740 10.470 9.810 1.504 -0.678 8.710 8.930 9.430 9.370 9.610 -1.515 -2.282 1.1430 11.326 6.283 5.029 12.058 5.592 6.458
VANMET_231 2015-09-28 05:25:00 231 5603.0 8.910 9.200 9.680 9.800 9.670 53.670 45.130 0.026 -1.523 12.910 13.350 12.290 10.950 0.210 0.234 0.270 0.531 0.00 0.00 0.00 0.9390 2.86 32.12 1 1 1 9.020 9.400 9.880 10.010 9.930 0.703 -0.945 8.810 9.080 9.560 9.430 9.700 -1.096 -2.143 1.5880 11.410 6.119 5.286 12.115 5.463 6.648
VANMET_231 2015-09-28 05:20:00 231 5603.0 9.020 9.470 9.940 9.940 10.160 51.190 43.420 -0.527 -1.921 12.930 13.350 12.290 10.950 0.210 0.234 0.270 0.531 0.00 0.00 0.00 1.3240 347.50 35.63 1 1 1 9.050 9.540 9.990 10.460 10.000 0.221 -1.655 8.990 9.350 9.840 9.830 9.850 -1.581 -2.270 2.2870 11.495 5.877 5.611 12.229 5.305 6.919
VANMET_231 2015-09-28 05:15:00 231 5603.0 8.930 9.370 9.800 9.720 9.980 50.930 44.050 -0.681 -1.928 12.950 13.360 12.290 10.950 0.210 0.234 0.270 0.531 0.00 0.00 0.00 1.5770 340.40 26.25 1 1 1 9.030 9.510 9.930 10.420 9.870 0.598 -1.084 8.750 9.060 9.440 9.410 9.530 -1.516 -2.329 2.7310 11.426 5.812 5.607 12.050 5.302 6.742
VANMET_231 2015-09-28 05:10:00 231 5603.0 8.650 9.060 9.480 9.540 9.710 53.620 46.470 -0.236 -1.373 12.960 13.360 12.290 10.950 0.210 0.234 0.270 0.531 0.00 0.00 0.00 1.0720 343.20 28.15 1 1 1 8.780 9.200 9.570 10.010 9.600 0.654 -0.936 8.440 8.810 9.330 9.500 9.430 -1.521 -2.140 2.2410 11.211 6.004 5.200 11.905 5.524 6.373
VANMET_231 2015-09-28 05:05:00 231 5603.0 8.500 8.880 9.390 9.520 9.440 55.450 46.040 0.086 -1.513 12.980 13.370 12.290 10.950 0.210 0.234 0.270 0.531 0.00 0.00 0.00 1.2620 354.50 37.56 1 1 1 8.560 9.010 9.540 9.800 9.640 1.098 -0.910 8.430 8.780 9.270 9.120 9.410 -1.226 -2.158 2.1230 11.098 6.146 4.944 11.889 5.467 6.415
VANMET_231 2015-09-28 05:00:00 231 5603.0 8.400 8.980 9.480 9.480 9.740 53.680 44.980 -0.456 -1.861 13.000 13.370 12.290 10.950 0.210 0.234 0.270 0.531 0.00 0.00 0.00 1.2600 357.30 18.95 1 1 1 8.570 9.090 9.570 9.960 9.620 0.466 -1.392 8.120 8.650 9.230 9.370 9.250 -1.507 -2.164 1.9010 11.023 5.908 5.106 11.857 5.328 6.524
VANMET_231 2015-09-28 04:55:00 231 5603.0 8.160 8.630 9.160 9.210 9.350 57.970 48.220 0.372 -1.171 13.020 13.380 12.290 10.950 0.210 0.234 0.270 0.531 0.00 0.00 0.00 0.9510 350.50 55.01 1 1 1 8.210 8.680 9.220 9.660 9.240 1.559 -0.298 8.080 8.550 9.090 9.130 9.180 -1.233 -1.925 1.7840 10.844 6.275 4.558 11.644 5.607 6.029
VANMET_231 2015-09-28 04:50:00 231 5603.0 8.100 8.510 8.940 9.030 9.140 59.000 49.380 0.568 -1.014 13.030 13.380 12.290 10.950 0.210 0.234 0.270 0.531 0.00 0.00 0.00 1.1040 24.30 47.17 1 1 1 8.120 8.570 9.100 9.380 9.150 1.325 -0.267 8.080 8.460 8.870 8.920 8.960 -0.720 -2.006 1.9080 10.800 6.365 4.428 11.503 5.672 5.823
VANMET_231 2015-09-28 04:45:00 231 5603.0 8.190 8.680 9.130 9.100 9.160 58.840 50.040 0.599 -0.774 13.050 13.380 12.290 10.950 0.210 0.234 0.270 0.531 0.00 0.00 0.00 0.9470 343.10 42.77 1 1 1 8.290 9.010 9.430 9.990 9.230 2.056 0.613 8.010 8.400 8.870 8.550 8.940 -1.321 -2.133 2.3650 10.867 6.379 4.473 11.558 5.772 5.774
VANMET_231 2015-09-28 04:40:00 231 5603.0 7.831 8.140 8.650 8.770 8.800 59.880 50.970 0.510 -0.824 13.070 13.390 12.290 10.950 0.210 0.234 0.270 0.531 0.00 0.00 0.00 1.0200 352.90 47.83 1 1 1 7.943 8.420 8.910 9.450 8.900 1.549 0.222 7.720 7.945 8.470 8.260 8.670 -1.223 -1.962 2.1100 10.604 6.338 4.254 11.303 5.751 5.542
VANMET_231 2015-09-28 04:35:00 231 5603.0 7.927 8.150 8.680 8.890 8.700 59.890 50.460 0.615 -0.842 13.080 13.390 12.290 10.950 0.210 0.234 0.270 0.531 0.00 0.00 0.00 0.8630 335.00 46.30 1 1 1 8.050 8.360 8.870 8.970 9.050 1.406 -0.209 7.856 8.060 8.600 8.420 8.800 -0.409 -1.437 1.4240 10.674 6.387 4.281 11.395 5.744 5.645
VANMET_231 2015-09-28 04:30:00 231 5603.0 8.010 8.380 8.950 9.100 8.990 57.770 48.560 0.190 -1.175 13.100 13.400 12.300 10.950 0.210 0.234 0.270 0.531 0.00 0.00 0.00 0.8440 338.30 34.49 1 1 1 8.090 8.510 9.090 9.530 9.160 1.168 -0.127 7.923 8.210 8.810 8.640 9.040 -0.962 -2.033 1.3790 10.734 6.193 4.533 11.558 5.605 5.945
VANMET_231 2015-09-28 04:25:00 231 5603.0 8.010 8.360 8.950 9.140 8.830 58.290 48.080 0.312 -1.273 13.120 13.400 12.300 10.950 0.210 0.234 0.270 0.531 0.00 0.00 0.00 0.8270 318.40 39.67 1 1 1 8.090 8.450 9.020 9.260 9.220 1.321 -0.166 7.970 8.260 8.840 8.420 9.090 -1.108 -2.078 1.6140 10.734 6.248 4.477 11.589 5.565 6.017
VANMET_231 2015-09-28 04:20:00 231 5603.0 7.852 8.410 9.000 9.050 9.270 57.540 47.210 -0.017 -1.604 13.140 13.410 12.300 10.950 0.210 0.234 0.270 0.531 0.00 0.00 0.00 0.9300 329.10 38.25 1 1 1 8.090 8.760 9.330 9.910 9.240 0.943 -0.645 7.684 8.130 8.690 8.850 8.880 -1.404 -2.275 2.0970 10.619 6.100 4.509 11.519 5.431 6.081
VANMET_231 2015-09-28 04:15:00 231 5603.0 7.776 8.220 8.780 8.990 8.730 60.010 48.670 0.493 -1.248 13.150 13.410 12.300 10.950 0.210 0.234 0.270 0.531 0.00 0.00 0.00 0.8770 340.20 45.44 1 1 1 7.813 8.380 8.960 9.140 9.110 1.528 0.143 7.730 8.080 8.660 8.390 8.910 -0.667 -1.955 1.9340 10.564 6.330 4.225 11.472 5.575 5.889
VANMET_231 2015-09-28 04:10:00 231 5603.0 7.689 8.270 8.830 8.970 9.050 57.770 46.910 -0.116 -1.762 13.170 13.410 12.300 10.950 0.210 0.234 0.270 0.531 0.00 0.00 0.00 1.0030 323.00 28.22 1 1 1 7.823 8.470 9.030 9.550 9.090 1.243 -1.076 7.508 7.947 8.560 8.580 8.830 -1.314 -2.340 1.7250 10.502 6.056 4.435 11.457 5.368 6.082
VANMET_231 2015-09-28 04:05:00 231 5603.0 7.469 7.866 8.510 8.790 8.630 59.810 48.470 0.159 -1.486 13.190 13.420 12.300 10.950 0.210 0.234 0.270 0.531 0.00 0.00 0.00 0.8250 311.60 52.19 1 1 1 7.521 8.100 8.680 9.180 8.890 1.204 -0.051 7.431 7.685 8.330 8.060 8.740 -0.852 -2.231 1.5880 10.345 6.179 4.158 11.318 5.478 5.832
VANMET_231 2015-09-28 04:00:00 231 5603.0 7.677 8.090 8.780 9.100 8.610 61.580 47.530 0.754 -1.476 13.210 13.420 12.300 10.950 0.210 0.234 0.270 0.531 0.00 0.00 0.00 0.9360 308.60 57.51 1 1 1 7.793 8.360 8.980 9.320 9.210 1.546 -0.331 7.501 7.720 8.400 7.918 8.920 -0.902 -2.482 1.6070 10.493 6.451 4.032 11.558 5.482 6.064
VANMET_231 2015-09-28 03:55:00 231 5603.0 7.696 8.390 8.930 9.000 9.070 58.480 47.270 0.054 -1.641 13.220 13.430 12.300 10.950 0.210 0.234 0.270 0.531 0.00 0.00 0.00 0.7950 315.40 53.77 1 1 1 7.850 8.640 9.110 9.740 9.110 1.573 -0.337 7.481 8.250 8.810 8.630 8.790 -1.528 -2.574 1.4180 10.507 6.132 4.362 11.480 5.416 6.053
VANMET_231 2015-09-28 03:50:00 231 5603.0 7.456 7.912 8.390 8.520 8.540 59.430 49.020 0.062 -1.585 13.240 13.430 12.300 10.950 0.210 0.234 0.270 0.531 0.00 0.00 0.00 0.7980 290.60 63.81 1 1 1 7.501 8.230 8.760 9.270 8.730 0.865 -0.706 7.405 7.738 8.200 8.050 8.430 -1.054 -2.663 1.2280 10.336 6.135 4.193 11.113 5.438 5.665
VANMET_231 2015-09-28 03:45:00 231 5603.0 7.385 7.756 8.240 8.350 8.580 60.070 49.700 0.134 -1.554 13.260 13.430 12.300 10.950 0.210 0.234 0.270 0.531 0.00 0.00 0.00 0.4740 330.00 72.86 1 1 1 7.521 8.010 8.480 9.330 8.510 1.216 -0.498 7.261 7.462 7.974 7.799 8.210 -1.657 -2.850 1.1370 10.286 6.168 4.107 10.985 5.451 5.526
VANMET_231 2015-09-28 03:40:00 231 5603.0 7.515 7.806 8.290 8.460 8.250 61.140 50.720 0.505 -1.180 13.280 13.440 12.300 10.950 0.210 0.234 0.270 0.531 0.00 0.00 0.00 0.7450 323.50 67.23 1 1 1 7.647 7.990 8.420 8.840 8.600 1.670 0.506 7.364 7.582 8.080 7.820 8.320 -0.981 -2.186 1.1960 10.378 6.336 4.033 11.068 5.603 5.454
VANMET_231 2015-09-28 03:35:00 231 5603.0 7.599 8.130 8.620 8.660 8.990 56.870 48.010 -0.424 -1.743 13.290 13.440 12.300 10.950 0.210 0.234 0.270 0.531 0.00 0.00 0.00 0.6490 349.30 80.70 1 1 1 7.707 8.370 8.860 9.860 8.800 0.784 -0.572 7.445 7.874 8.410 8.290 8.450 -1.943 -2.711 1.1560 10.438 5.922 4.502 11.219 5.375 5.833
VANMET_231 2015-09-28 03:30:00 231 5603.0 7.526 7.802 8.360 8.530 8.370 60.400 49.770 0.341 -1.368 13.310 13.440 12.300 10.950 0.210 0.234 0.270 0.531 0.00 0.00 0.00 0.7160 341.70 50.44 1 1 1 7.634 7.943 8.440 8.700 8.620 1.587 -0.526 7.425 7.678 8.260 8.030 8.420 -0.862 -2.312 2.0650 10.386 6.261 4.113 11.120 5.526 5.586
VANMET_231 2015-09-28 03:25:00 231 5603.0 7.705 8.090 8.560 8.640 8.730 57.490 48.130 -0.167 -1.718 13.330 13.450 12.300 10.950 0.210 0.234 0.270 0.531 0.00 0.00 0.00 0.3610 318.00 68.76 1 1 1 7.757 8.240 8.690 9.340 8.670 0.808 -0.663 7.631 7.970 8.470 8.400 8.600 -1.608 -2.279 0.7640 10.513 6.034 4.469 11.204 5.385 5.811
VANMET_231 2015-09-28 03:20:00 231 5603.0 7.524 7.898 8.420 8.540 8.430 59.390 50.310 0.105 -1.218 13.350 13.450 12.300 10.950 0.210 0.234 0.270 0.531 0.00 0.00 0.00 0.7310 333.10 57.60 1 1 1 7.644 8.090 8.580 8.930 8.640 1.236 0.265 7.445 7.726 8.250 7.965 8.440 -1.604 -2.391 1.6990 10.384 6.155 4.217 11.128 5.587 5.529
VANMET_231 2015-09-28 03:15:00 231 5603.0 7.566 7.999 8.540 8.710 8.610 59.550 48.870 0.187 -1.456 13.360 13.450 12.300 10.950 0.210 0.234 0.270 0.531 0.00 0.00 0.00 0.7010 273.10 69.03 1 1 1 7.614 8.140 8.660 9.380 8.800 1.252 -0.096 7.478 7.872 8.420 8.140 8.650 -1.212 -2.866 1.4630 10.414 6.191 4.212 11.257 5.490 5.756
VANMET_231 2015-09-28 03:10:00 231 5603.0 7.565 7.909 8.490 8.760 8.380 60.430 48.480 0.398 -1.504 13.380 13.450 12.300 10.950 0.210 0.234 0.270 0.531 0.00 0.00 0.00 0.6100 300.70 50.25 1 1 1 7.674 8.190 8.770 9.130 8.910 0.905 -0.989 7.451 7.734 8.280 8.090 8.600 -0.921 -2.489 1.1430 10.413 6.287 4.121 11.295 5.471 5.819
VANMET_231 2015-09-28 03:05:00 231 5603.0 7.507 7.948 8.490 8.690 8.830 57.380 47.200 -0.381 -1.936 13.400 13.460 12.300 10.950 0.210 0.234 0.270 0.531 0.00 0.00 0.00 0.5210 291.10 55.61 1 1 1 7.654 8.280 8.820 9.610 8.880 1.043 -1.003 7.444 7.750 8.290 8.270 8.580 -1.817 -2.614 1.2540 10.372 5.941 4.421 11.242 5.299 5.936
VANMET_231 2015-09-28 03:00:00 231 5603.0 7.489 7.820 8.400 8.610 8.560 60.780 49.850 0.400 -1.268 13.420 13.460 12.300 10.950 0.210 0.234 0.270 0.531 0.00 0.00 0.00 0.5030 272.00 69.45 1 1 1 7.550 7.953 8.530 8.890 8.690 1.799 -0.345 7.415 7.706 8.320 8.290 8.550 -0.802 -2.421 1.4180 10.359 6.288 4.063 11.181 5.567 5.607
VANMET_231 2015-09-28 02:55:00 231 5603.0 7.564 7.973 8.520 8.670 8.640 60.340 50.350 0.373 -1.081 13.440 13.460 12.310 10.950 0.210 0.234 0.270 0.531 0.00 0.00 0.00 0.6940 305.90 80.20 1 1 1 7.617 8.130 8.640 9.200 8.700 1.236 -0.012 7.494 7.764 8.340 8.010 8.580 -0.690 -2.117 1.2540 10.413 6.276 4.130 11.226 5.644 5.574
VANMET_231 2015-09-28 02:50:00 231 5603.0 7.642 7.876 8.420 8.590 8.340 61.430 50.820 0.690 -1.030 13.450 13.470 12.310 10.950 0.210 0.234 0.270 0.531 0.00 0.00 0.00 0.4800 316.50 71.50 1 1 1 7.787 8.070 8.640 8.910 8.690 1.442 0.271 7.491 7.656 8.240 8.110 8.510 -1.488 -2.137 0.9340 10.468 6.421 4.038 11.166 5.665 5.491
VANMET_231 2015-09-28 02:45:00 231 5603.0 7.801 8.110 8.530 8.590 8.790 59.560 50.610 0.415 -1.088 13.470 13.470 12.310 10.950 0.210 0.234 0.270 0.531 0.00 0.00 0.00 0.5490 353.00 50.91 1 1 1 7.830 8.210 8.760 9.260 8.690 1.681 0.045 7.774 8.030 8.450 8.520 8.540 -1.202 -2.023 0.9930 10.582 6.295 4.280 11.166 5.641 5.515
VANMET_231 2015-09-28 02:40:00 231 5603.0 7.817 8.170 8.600 8.730 8.840 59.170 50.780 0.340 -0.908 13.490 13.470 12.310 10.950 0.210 0.234 0.270 0.531 0.00 0.00 0.00 0.4930 1.83 62.56 1 1 1 7.867 8.290 8.710 9.370 8.780 1.211 -0.128 7.751 8.070 8.460 8.260 8.630 -1.361 -2.090 1.1500 10.594 6.261 4.326 11.272 5.716 5.548
VANMET_231 2015-09-28 02:35:00 231 5603.0 7.755 7.949 8.410 8.560 8.740 58.180 49.920 0.047 -1.291 13.510 13.470 12.310 10.950 0.210 0.234 0.270 0.531 0.00 0.00 0.00 0.7020 22.64 56.11 1 1 1 7.784 8.110 8.550 9.120 8.670 1.056 -0.725 7.707 7.777 8.240 8.110 8.460 -1.203 -2.060 1.5030 10.549 6.129 4.412 11.143 5.557 5.580
VANMET_231 2015-09-28 02:30:00 231 5603.0 7.972 8.070 8.530 8.770 8.300 59.580 50.340 0.583 -0.985 13.530 13.470 12.310 10.950 0.210 0.234 0.270 0.531 0.00 0.00 0.00 0.6970 355.90 57.19 1 1 1 8.130 8.320 8.790 8.610 8.990 1.500 -0.011 7.790 7.827 8.290 8.080 8.540 -0.100 -1.466 1.7570 10.707 6.372 4.328 11.303 5.684 5.613
VANMET_231 2015-09-28 02:25:00 231 5603.0 8.070 8.500 8.990 9.070 9.010 56.950 47.500 0.032 -1.518 13.540 13.480 12.310 10.950 0.210 0.234 0.270 0.531 0.00 0.00 0.00 0.9190 347.80 49.28 1 1 1 8.220 8.720 9.200 9.700 9.200 1.693 0.021 7.880 8.330 8.770 8.210 8.870 -1.684 -2.562 1.4900 10.778 6.122 4.640 11.534 5.465 6.055
VANMET_231 2015-09-28 02:20:00 231 5603.0 7.850 8.230 8.690 8.870 8.770 57.360 48.500 -0.053 -1.403 13.560 13.480 12.310 10.950 0.210 0.234 0.270 0.531 0.00 0.00 0.00 0.6610 356.80 50.75 1 1 1 7.887 8.330 8.780 9.020 8.890 0.649 -0.676 7.784 8.150 8.630 8.520 8.830 -1.446 -2.249 1.4500 10.618 6.084 4.527 11.379 5.512 5.860
VANMET_231 2015-09-28 02:15:00 231 5603.0 7.690 8.140 8.680 8.870 8.870 59.370 48.950 0.269 -1.276 13.580 13.480 12.310 10.950 0.210 0.234 0.270 0.531 0.00 0.00 0.00 0.7570 344.40 40.18 1 1 1 7.807 8.350 8.830 9.250 8.950 1.177 -0.338 7.617 8.030 8.620 8.510 8.810 -1.524 -2.301 1.4440 10.503 6.228 4.267 11.379 5.563 5.809
VANMET_231 2015-09-28 02:10:00 231 5603.0 7.618 8.060 8.660 8.800 8.910 60.850 49.870 0.545 -1.088 13.600 13.480 12.310 10.950 0.210 0.234 0.270 0.531 0.00 0.00 0.00 0.5630 349.80 44.14 1 1 1 7.651 8.110 8.700 9.200 8.850 1.079 -0.384 7.571 8.020 8.630 8.710 8.720 -0.022 -1.553 1.5480 10.451 6.354 4.092 11.326 5.641 5.678
VANMET_231 2015-09-28 02:05:00 231 5603.0 7.641 8.000 8.530 8.640 8.820 61.680 50.640 0.750 -1.025 13.620 13.480 12.310 10.950 0.210 0.234 0.270 0.531 0.00 0.00 0.00 0.5510 32.84 45.75 1 1 1 7.704 8.100 8.630 9.270 8.690 1.716 -0.040 7.581 7.940 8.470 8.320 8.610 -0.244 -1.968 1.6460 10.468 6.449 4.011 11.204 5.667 5.530
VANMET_231 2015-09-28 02:00:00 231 5603.0 7.700 7.972 8.500 8.670 8.660 62.770 51.460 1.050 -0.775 13.630 13.480 12.310 10.950 0.210 0.234 0.270 0.531 0.00 0.00 0.00 0.4480 352.90 47.98 1 1 1 7.747 8.030 8.560 9.060 8.740 1.761 0.021 7.664 7.922 8.450 8.430 8.630 0.042 -1.501 0.9470 10.510 6.591 3.913 11.226 5.772 5.449
VANMET_231 2015-09-28 01:55:00 231 5603.0 7.804 8.150 8.690 8.820 8.860 61.860 51.370 0.944 -0.657 13.650 13.490 12.310 10.950 0.210 0.234 0.270 0.531 0.00 0.00 0.00 0.5010 44.11 36.45 1 1 1 7.836 8.240 8.770 9.320 8.850 1.899 -0.147 7.747 8.020 8.560 8.540 8.750 0.124 -1.374 1.6790 10.585 6.540 4.037 11.341 5.822 5.515
VANMET_231 2015-09-28 01:50:00 231 5603.0 7.808 8.270 8.720 8.820 9.120 60.450 50.070 0.631 -1.010 13.670 13.490 12.310 10.950 0.210 0.234 0.270 0.531 0.00 0.00 0.00 0.3520 40.51 46.38 1 1 1 7.826 8.370 8.770 9.460 8.860 1.454 -0.521 7.773 8.200 8.630 8.850 8.780 -0.504 -1.770 1.2150 10.588 6.394 4.187 11.341 5.673 5.663
VANMET_231 2015-09-28 01:45:00 231 5603.0 7.718 8.150 8.570 8.670 8.820 63.470 52.660 1.220 -0.471 13.690 13.490 12.310 10.950 0.210 0.234 0.270 0.531 0.00 0.00 0.00 0.6640 19.65 40.05 1 1 1 7.783 8.290 8.690 9.060 8.780 1.891 0.443 7.693 8.040 8.470 8.610 8.600 -0.298 -1.816 2.0450 10.523 6.672 3.844 11.226 5.902 5.315
VANMET_231 2015-09-28 01:40:00 231 5603.0 7.725 8.140 8.600 8.690 8.760 62.880 53.540 1.096 -0.223 13.700 13.490 12.310 10.950 0.210 0.234 0.270 0.531 0.00 0.00 0.00 0.7280 56.37 68.74 1 1 1 7.750 8.260 8.710 9.230 8.730 2.152 1.003 7.684 8.030 8.480 8.400 8.600 0.081 -1.042 1.7710 10.528 6.612 3.908 11.242 6.009 5.223
VANMET_231 2015-09-28 01:35:00 231 5603.0 7.553 8.040 8.470 8.450 9.040 60.980 52.320 0.511 -0.762 13.720 13.490 12.310 10.950 0.210 0.234 0.270 0.531 0.00 0.00 0.00 0.6530 63.01 52.65 1 1 1 7.727 8.260 8.720 9.520 8.680 1.201 0.127 7.368 7.737 8.150 8.490 8.220 -0.217 -1.757 2.3590 10.405 6.339 4.060 11.060 5.777 5.274
VANMET_231 2015-09-28 01:30:00 231 5603.0 7.322 7.668 8.050 8.100 8.420 65.800 57.620 1.351 0.244 13.740 13.490 12.310 10.950 0.210 0.234 0.270 0.531 0.00 0.00 0.00 0.3950 35.28 54.76 1 1 1 7.371 7.750 8.170 8.720 8.210 1.981 0.833 7.248 7.573 7.947 8.210 8.020 0.677 -0.892 0.7640 10.242 6.735 3.503 10.800 6.217 4.577
VANMET_231 2015-09-28 01:25:00 231 5603.0 7.267 7.510 7.916 8.010 8.150 68.710 59.660 1.903 0.646 13.760 13.490 12.320 10.950 0.210 0.234 0.270 0.531 0.00 0.00 0.00 0.6080 60.83 45.64 1 1 1 7.295 7.573 7.945 8.260 8.040 2.266 1.182 7.245 7.465 7.900 8.020 7.989 1.531 0.053 1.2020 10.203 7.007 3.193 10.734 6.401 4.330
VANMET_231 2015-09-28 01:20:00 231 5603.0 7.436 7.545 7.957 8.100 7.938 68.450 59.800 2.012 0.754 13.780 13.490 12.320 10.950 0.210 0.234 0.270 0.531 0.00 0.00 0.00 0.7590 32.45 50.83 1 1 1 7.561 7.715 8.120 8.140 8.270 2.507 1.656 7.311 7.456 7.870 7.782 8.010 1.509 -0.653 1.1960 10.322 7.062 3.257 10.800 6.451 4.342
VANMET_231 2015-09-28 01:15:00 231 5603.0 7.648 7.920 8.360 8.530 8.390 65.900 57.620 1.677 0.633 13.790 13.490 12.320 10.950 0.210 0.234 0.270 0.531 0.00 0.00 0.00 0.6680 21.54 69.10 1 1 1 7.690 8.040 8.520 8.740 8.660 2.509 1.928 7.580 7.716 8.120 7.960 8.270 0.919 -0.431 1.3980 10.473 6.895 3.571 11.120 6.395 4.713
VANMET_231 2015-09-28 01:10:00 231 5603.0 7.614 8.010 8.560 8.770 8.590 62.990 51.520 1.019 -0.665 13.810 13.490 12.320 10.950 0.210 0.234 0.270 0.531 0.00 0.00 0.00 0.6340 3.29 47.46 1 1 1 7.643 8.120 8.730 8.820 8.920 2.121 -0.005 7.580 7.934 8.470 8.370 8.660 0.239 -1.261 1.6200 10.448 6.576 3.867 11.303 5.818 5.480
VANMET_231 2015-09-28 01:05:00 231 5603.0 7.624 8.200 8.740 8.930 8.920 61.440 49.610 0.673 -1.040 13.830 13.490 12.320 10.950 0.210 0.234 0.270 0.531 0.00 0.00 0.00 0.7060 309.80 83.90 1 1 1 7.657 8.330 8.830 9.320 8.990 2.076 -0.018 7.597 8.110 8.670 8.660 8.880 -0.964 -1.812 1.3850 10.455 6.413 4.032 11.426 5.661 5.757
VANMET_231 2015-09-28 01:00:00 231 5603.0 7.599 8.200 8.810 8.990 8.950 59.440 47.770 0.200 -1.501 13.850 13.490 12.320 10.950 0.210 0.234 0.270 0.531 0.00 0.00 0.00 0.8340 246.00 41.83 1 1 1 7.627 8.340 8.940 9.590 9.050 0.937 -0.310 7.564 8.090 8.710 8.560 8.930 -0.797 -2.082 1.9800 10.438 6.197 4.233 11.472 5.472 5.992
VANMET_231 2015-09-28 00:55:00 231 5603.0 7.528 7.969 8.610 8.770 8.780 61.360 48.840 0.553 -1.403 13.860 13.490 12.320 10.950 0.210 0.234 0.270 0.531 0.00 0.00 0.00 0.6630 271.70 80.10 1 1 1 7.584 8.160 8.790 9.680 8.930 1.896 0.498 7.471 7.801 8.440 8.170 8.690 -1.381 -2.162 1.3920 10.387 6.358 4.014 11.303 5.512 5.782
VANMET_231 2015-09-28 00:50:00 231 5603.0 7.463 8.040 8.570 8.650 8.920 59.910 49.400 0.179 -1.358 13.880 13.490 12.320 10.950 0.210 0.234 0.270 0.531 0.00 0.00 0.00 0.6690 242.60 40.58 1 1 1 7.567 8.230 8.770 9.190 8.820 1.306 -0.354 7.378 7.828 8.330 8.520 8.410 -0.958 -2.085 1.4900 10.341 6.188 4.146 11.211 5.530 5.673
VANMET_231 2015-09-28 00:45:00 231 5603.0 7.317 7.710 8.220 8.400 8.480 63.310 51.300 0.804 -1.074 13.900 13.490 12.320 10.950 0.210 0.234 0.270 0.531 0.00 0.00 0.00 0.4990 245.10 69.92 1 1 1 7.361 7.840 8.300 8.730 8.450 1.802 -0.334 7.278 7.618 8.140 8.130 8.340 -0.222 -1.516 0.9540 10.238 6.475 3.756 11.023 5.647 5.368
VANMET_231 2015-09-28 00:40:00 231 5603.0 7.428 7.775 8.290 8.530 8.500 63.080 50.990 0.862 -1.032 13.920 13.490 12.320 10.950 0.210 0.234 0.270 0.531 0.00 0.00 0.00 0.4220 238.10 57.38 1 1 1 7.506 7.886 8.390 8.860 8.570 1.506 -0.381 7.360 7.705 8.220 8.310 8.450 0.296 -1.649 0.8620 10.316 6.502 3.809 11.120 5.664 5.450
VANMET_231 2015-09-28 00:35:00 231 5603.0 7.505 7.789 8.340 8.550 8.600 62.740 50.650 0.848 -1.102 13.930 13.490 12.320 10.950 0.210 0.234 0.270 0.531 0.00 0.00 0.00 0.3730 205.00 62.35 1 1 1 7.596 7.894 8.400 9.160 8.640 2.191 -0.570 7.440 7.702 8.260 8.230 8.490 -0.590 -1.714 0.9800 10.371 6.495 3.864 11.135 5.635 5.495
VANMET_231 2015-09-28 00:30:00 231 5603.0 7.680 8.050 8.590 8.830 8.560 62.110 51.360 0.881 -0.665 13.950 13.480 12.320 10.950 0.210 0.234 0.270 0.531 0.00 0.00 0.00 0.3890 236.00 50.64 1 1 1 7.782 8.250 8.770 8.950 8.960 1.935 0.183 7.590 7.853 8.400 8.260 8.680 -0.123 -1.405 0.7580 10.495 6.511 3.977 11.349 5.818 5.520
VANMET_231 2015-09-28 00:25:00 231 5603.0 7.691 8.290 8.800 8.920 9.140 59.170 47.550 0.207 -1.626 13.970 13.480 12.320 10.950 0.210 0.234 0.269 0.531 0.00 0.00 0.00 0.2470 226.30 40.30 1 1 1 7.776 8.420 8.880 9.720 8.980 1.762 -0.414 7.576 8.170 8.700 8.690 8.800 -1.273 -2.207 0.9600 10.503 6.200 4.289 11.418 5.422 5.989
VANMET_231 2015-09-28 00:20:00 231 5603.0 7.340 7.908 8.450 8.540 8.940 59.810 48.670 0.032 -1.654 13.980 13.480 12.320 10.950 0.210 0.234 0.269 0.531 0.00 0.00 0.00 0.3500 148.90 87.30 1 1 1 7.576 8.190 8.690 9.490 8.790 0.979 -1.077 7.191 7.662 8.240 8.500 8.390 -1.280 -2.181 0.8620 10.254 6.122 4.121 11.128 5.411 5.712
VANMET_231 2015-09-28 00:15:00 231 5603.0 7.146 7.547 8.090 8.290 8.380 62.090 51.030 0.370 -1.245 14.000 13.480 12.320 10.950 0.210 0.234 0.270 0.531 0.00 0.00 0.00 0.3650 128.90 88.20 1 1 1 7.180 7.679 8.230 8.890 8.380 1.480 -0.540 7.117 7.365 7.896 7.923 8.200 -0.736 -1.755 0.9870 10.119 6.274 3.836 10.941 5.576 5.358
VANMET_231 2015-09-28 00:10:00 231 5603.0 7.145 7.377 7.909 8.180 8.080 63.520 52.620 0.685 -0.928 14.020 13.480 12.320 10.950 0.211 0.234 0.270 0.531 0.00 0.00 0.00 0.3380 254.80 63.46 1 1 1 7.197 7.454 7.966 8.420 8.220 1.618 -0.116 7.091 7.305 7.834 7.721 8.160 -0.316 -1.519 0.9210 10.118 6.419 3.691 10.859 5.707 5.145
VANMET_231 2015-09-28 00:05:00 231 5603.0 7.278 7.559 8.110 8.320 8.160 65.160 53.650 1.171 -0.536 14.040 13.480 12.320 10.950 0.210 0.234 0.269 0.531 0.00 0.00 0.00 0.2070 276.20 59.99 1 1 1 7.382 7.655 8.170 8.510 8.380 1.928 0.318 7.197 7.447 7.989 7.796 8.220 0.640 -1.345 0.7250 10.211 6.648 3.557 10.963 5.874 5.081
VANMET_231 2015-09-28 00:00:00 231 5603.0 7.400 7.780 8.300 8.460 8.580 63.350 52.410 0.890 -0.734 14.050 13.470 12.330 10.950 0.211 0.234 0.269 0.531 0.00 0.00 0.00 0.2100 111.00 76.43 1 1 1 7.426 7.853 8.360 8.970 8.520 1.747 0.893 7.366 7.659 8.200 8.110 8.410 -0.373 -1.368 0.6470 10.296 6.515 3.774 11.068 5.789 5.267
VANMET_231 2015-09-27 23:55:00 231 5603.0 7.361 7.778 8.280 8.420 8.510 62.550 51.490 0.675 -1.001 14.070 13.470 12.330 10.950 0.210 0.234 0.269 0.531 0.00 0.00 0.00 0.3840 22.22 89.40 1 1 1 7.389 7.861 8.350 8.800 8.460 1.748 -0.176 7.325 7.685 8.210 8.220 8.380 -0.337 -1.763 0.8890 10.269 6.414 3.846 11.038 5.677 5.354
VANMET_231 2015-09-27 23:50:00 231 5603.0 7.390 7.714 8.230 8.440 8.480 63.650 52.150 0.946 -0.812 14.090 13.470 12.330 10.950 0.211 0.234 0.269 0.531 0.00 0.00 0.00 0.5310 96.70 43.03 1 1 1 7.419 7.876 8.360 9.090 8.510 1.900 0.295 7.352 7.553 8.090 8.080 8.370 -0.845 -2.001 1.5550 10.289 6.541 3.740 11.053 5.756 5.289
VANMET_231 2015-09-27 23:45:00 231 5603.0 7.511 7.735 8.270 8.550 8.330 64.620 52.290 1.276 -0.676 14.100 13.470 12.330 10.950 0.211 0.234 0.269 0.531 0.00 0.00 0.00 0.1950 87.90 44.35 1 1 1 7.571 7.851 8.360 8.710 8.620 1.812 0.680 7.422 7.584 8.110 7.856 8.430 -0.091 -1.549 0.6080 10.375 6.699 3.671 11.135 5.814 5.313
VANMET_231 2015-09-27 23:40:00 231 5603.0 7.618 7.854 8.400 8.710 8.550 61.250 50.910 0.629 -0.889 14.120 13.460 12.330 10.950 0.211 0.234 0.269 0.531 0.00 0.00 0.00 0.1730 183.30 59.13 1 1 1 7.731 7.938 8.530 8.830 8.860 1.956 -0.088 7.535 7.811 8.340 8.230 8.610 -0.548 -1.482 0.4700 10.451 6.393 4.050 11.257 5.724 5.526
VANMET_231 2015-09-27 23:35:00 231 5603.0 7.827 8.120 8.710 9.000 8.740 60.840 49.170 0.737 -1.093 14.130 13.460 12.330 10.950 0.211 0.234 0.269 0.531 0.00 0.00 0.00 0.1740 215.00 64.16 1 1 1 7.940 8.270 8.860 9.040 9.120 1.736 -0.476 7.708 7.976 8.560 8.390 8.860 0.088 -1.649 0.5290 10.601 6.443 4.151 11.480 5.639 5.835
VANMET_231 2015-09-27 23:30:00 231 5603.0 8.010 8.400 8.920 9.090 9.080 57.730 47.740 0.186 -1.414 14.150 13.460 12.330 10.950 0.211 0.234 0.269 0.531 0.00 0.00 0.00 0.5780 44.59 59.45 1 1 1 8.070 8.510 8.980 9.390 9.130 1.199 -0.284 7.947 8.280 8.810 8.610 9.030 -0.923 -2.210 1.2810 10.734 6.191 4.537 11.550 5.507 6.036
VANMET_231 2015-09-27 23:25:00 231 5603.0 8.040 8.530 9.020 9.130 9.280 56.400 47.010 -0.115 -1.589 14.170 13.450 12.330 10.950 0.211 0.234 0.269 0.531 0.00 0.00 0.00 0.4170 91.60 71.03 1 1 1 8.090 8.650 9.080 9.720 9.180 1.028 -0.735 7.947 8.410 8.840 8.860 8.950 -1.710 -2.584 2.7830 10.756 6.057 4.690 11.581 5.437 6.137
VANMET_231 2015-09-27 23:20:00 231 5603.0 8.010 8.310 8.730 8.930 8.890 59.210 50.310 0.534 -0.855 14.180 13.450 12.330 10.950 0.211 0.234 0.269 0.531 0.00 0.00 0.00 0.6300 33.40 60.90 1 1 1 8.100 8.390 8.810 9.190 9.020 1.565 0.234 7.950 8.240 8.650 8.590 8.870 -0.624 -1.768 1.6920 10.734 6.349 4.379 11.426 5.738 5.677
VANMET_231 2015-09-27 23:15:00 231 5603.0 8.230 8.550 9.000 9.180 8.990 60.880 49.870 1.124 -0.739 14.200 13.450 12.330 10.950 0.211 0.234 0.269 0.531 0.00 0.00 0.00 0.5570 53.72 50.55 1 1 1 8.300 8.700 9.150 9.430 9.280 2.221 -0.034 8.110 8.320 8.770 8.600 9.020 -0.421 -1.935 1.5420 10.896 6.626 4.263 11.620 5.787 5.825
VANMET_231 2015-09-27 23:10:00 231 5603.0 8.250 8.620 9.080 9.180 9.260 57.930 48.340 0.452 -1.170 14.210 13.440 12.330 10.950 0.211 0.234 0.269 0.531 0.00 0.00 0.00 0.6900 40.14 64.27 1 1 1 8.300 8.710 9.210 9.710 9.280 1.763 -0.057 8.200 8.490 8.970 8.950 9.090 -1.005 -1.996 1.5810 10.911 6.312 4.590 11.620 5.607 6.003
VANMET_231 2015-09-27 23:05:00 231 5603.0 8.290 8.800 9.170 9.140 9.470 56.180 48.120 0.060 -1.267 14.230 13.440 12.330 10.950 0.211 0.234 0.269 0.531 0.00 0.00 0.00 0.6320 52.91 56.39 1 1 1 8.350 8.910 9.240 9.970 9.190 1.007 -0.403 8.180 8.630 8.980 9.080 8.980 -1.593 -2.276 1.6140 10.941 6.135 4.794 11.589 5.567 6.012
VANMET_231 2015-09-27 23:00:00 231 5603.0 8.060 8.370 8.750 8.770 9.160 59.580 50.350 0.658 -0.992 14.250 13.430 12.330 10.950 0.211 0.234 0.269 0.531 0.00 0.00 0.00 0.6080 37.05 48.48 1 1 1 8.190 8.710 9.000 9.960 8.950 1.697 0.259 8.000 8.200 8.620 8.710 8.690 -1.211 -2.378 1.1890 10.771 6.407 4.354 11.303 5.681 5.612
VANMET_231 2015-09-27 22:55:00 231 5603.0 8.140 8.270 8.680 8.820 8.750 62.270 54.230 1.359 0.071 14.260 13.430 12.330 10.950 0.211 0.234 0.269 0.531 0.00 0.00 0.00 1.1950 23.51 30.21 1 1 1 8.280 8.400 8.820 9.050 8.990 1.950 0.755 8.030 8.180 8.580 8.530 8.700 -0.396 -1.661 2.7310 10.830 6.739 4.086 11.341 6.139 5.191
VANMET_231 2015-09-27 22:50:00 231 5603.0 8.350 8.510 8.920 9.080 9.080 59.640 51.260 0.955 -0.460 14.280 13.430 12.330 10.950 0.211 0.234 0.269 0.531 0.00 0.00 0.00 0.5920 28.46 53.29 1 1 1 8.450 8.590 9.000 9.370 9.160 1.899 0.741 8.280 8.410 8.810 8.750 8.980 -0.207 -1.651 1.1500 10.985 6.546 4.434 11.542 5.906 5.626
VANMET_231 2015-09-27 22:45:00 231 5603.0 8.560 8.740 9.170 9.300 9.170 58.840 50.600 0.967 -0.423 14.290 13.420 12.330 10.950 0.211 0.234 0.269 0.531 0.00 0.00 0.00 0.7890 22.93 45.43 1 1 1 8.650 8.860 9.330 9.460 9.410 1.973 0.187 8.460 8.610 9.010 9.010 9.180 -0.057 -1.371 1.8690 11.143 6.551 4.586 11.715 5.922 5.787
VANMET_231 2015-09-27 22:40:00 231 5603.0 8.630 8.900 9.370 9.410 9.500 57.070 48.570 0.600 -0.894 14.310 13.420 12.340 10.950 0.211 0.234 0.269 0.531 0.00 0.00 0.00 1.0380 34.72 35.04 1 1 1 8.690 9.030 9.490 9.910 9.500 1.397 0.492 8.550 8.780 9.250 9.190 9.270 -1.101 -1.871 2.4960 11.196 6.380 4.806 11.802 5.722 6.070
VANMET_231 2015-09-27 22:35:00 231 5603.0 8.610 8.830 9.250 9.260 9.270 58.860 50.660 1.022 -0.452 14.320 13.410 12.340 10.950 0.211 0.234 0.269 0.531 0.00 0.00 0.00 0.8290 32.15 35.52 1 1 1 8.660 8.960 9.360 9.690 9.310 1.893 0.505 8.560 8.730 9.180 9.050 9.200 0.178 -1.763 1.4570 11.181 6.577 4.600 11.683 5.910 5.764
VANMET_231 2015-09-27 22:30:00 231 5603.0 8.340 8.650 9.090 9.130 9.180 59.430 51.530 0.868 -0.354 14.340 13.410 12.340 10.950 0.211 0.234 0.269 0.531 0.00 0.00 0.00 1.0860 28.10 24.92 1 1 1 8.550 8.970 9.340 9.590 9.240 2.390 1.577 8.260 8.470 8.960 8.840 9.050 -1.438 -2.102 3.2080 10.978 6.505 4.454 11.581 5.952 5.613
VANMET_231 2015-09-27 22:25:00 231 5603.0 8.340 8.580 9.050 9.160 9.160 61.320 52.070 1.330 -0.179 14.350 13.400 12.340 10.950 0.211 0.234 0.269 0.531 0.00 0.00 0.00 0.9200 28.80 29.53 1 1 1 8.390 8.700 9.150 9.550 9.220 2.112 1.443 8.280 8.490 8.940 8.850 9.060 0.394 -1.527 1.6860 10.978 6.725 4.246 11.604 6.029 5.562
VANMET_231 2015-09-27 22:20:00 231 5603.0 8.350 8.550 9.000 9.080 9.170 60.950 52.010 1.251 -0.268 14.360 13.390 12.340 10.950 0.211 0.234 0.269 0.531 0.00 0.00 0.00 0.8150 14.18 47.79 1 1 1 8.360 8.760 9.180 9.610 9.150 2.400 1.111 8.320 8.440 8.860 8.840 9.020 0.046 -1.616 1.5750 10.985 6.687 4.290 11.542 5.990 5.539
VANMET_231 2015-09-27 22:15:00 231 5603.0 8.390 8.590 9.000 9.170 9.120 60.990 52.530 1.303 -0.041 14.380 13.390 12.340 10.950 0.211 0.234 0.269 0.531 0.00 0.00 0.00 0.9280 23.31 48.73 1 1 1 8.440 8.710 9.130 9.420 9.270 2.140 1.128 8.340 8.490 8.900 8.930 9.050 -0.299 -1.520 1.7120 11.015 6.712 4.297 11.612 6.090 5.512
VANMET_231 2015-09-27 22:10:00 231 5603.0 8.410 8.690 9.130 9.310 9.350 60.310 51.140 1.157 -0.275 14.390 13.380 12.340 10.950 0.211 0.234 0.269 0.531 0.00 0.00 0.00 0.5810 31.19 32.97 1 1 1 8.450 8.770 9.210 9.740 9.360 2.260 0.645 8.330 8.560 9.040 9.110 9.270 -0.756 -1.161 1.1240 11.030 6.642 4.378 11.722 5.987 5.728
VANMET_231 2015-09-27 22:05:00 231 5603.0 8.440 8.630 9.160 9.370 9.200 62.020 50.340 1.575 -0.431 14.400 13.380 12.340 10.950 0.211 0.234 0.269 0.531 0.00 0.00 0.00 0.9230 27.41 29.95 1 1 1 8.530 8.770 9.280 9.520 9.450 2.684 0.384 8.350 8.530 9.060 8.980 9.290 -0.242 -1.215 1.9080 11.053 6.844 4.198 11.770 5.919 5.845
VANMET_231 2015-09-27 22:00:00 231 5603.0 8.550 8.870 9.360 9.510 9.500 59.320 48.950 1.067 -0.692 14.420 13.370 12.340 10.950 0.211 0.234 0.269 0.531 0.00 0.00 0.00 0.8530 22.20 39.32 1 1 1 8.590 8.960 9.430 9.750 9.540 1.987 0.324 8.510 8.770 9.270 9.230 9.460 0.371 -1.580 1.8880 11.135 6.599 4.530 11.881 5.807 6.065
VANMET_231 2015-09-27 21:55:00 231 5603.0 8.480 8.810 9.300 9.430 9.430 59.730 49.620 1.086 -0.586 14.430 13.360 12.340 10.950 0.211 0.234 0.269 0.531 0.00 0.00 0.00 1.2870 23.31 33.55 1 1 1 8.540 8.940 9.440 9.910 9.510 2.029 0.563 8.420 8.720 9.180 9.200 9.330 -0.820 -1.963 2.5280 11.083 6.608 4.463 11.818 5.852 5.954
VANMET_231 2015-09-27 21:50:00 231 5603.0 8.410 8.840 9.330 9.370 9.560 59.590 49.250 0.985 -0.737 14.440 13.350 12.340 10.950 0.211 0.234 0.269 0.531 0.00 0.00 0.00 0.9680 32.76 40.33 1 1 1 8.550 9.050 9.540 10.190 9.530 1.892 0.423 8.290 8.700 9.170 9.210 9.270 -1.222 -1.842 2.0120 11.030 6.560 4.457 11.770 5.788 5.973
VANMET_231 2015-09-27 21:45:00 231 5603.0 8.230 8.580 9.010 9.060 9.340 61.010 51.390 1.153 -0.438 14.450 13.350 12.340 10.950 0.211 0.234 0.269 0.531 0.00 0.00 0.00 0.7990 32.59 28.52 1 1 1 8.260 8.790 9.280 9.740 9.240 2.088 0.172 8.210 8.530 8.920 9.130 8.990 -0.721 -1.523 2.2080 10.896 6.640 4.248 11.526 5.916 5.603
VANMET_231 2015-09-27 21:40:00 231 5603.0 8.240 8.470 8.880 8.960 9.170 62.860 53.510 1.574 0.022 14.470 13.340 12.340 10.950 0.211 0.234 0.269 0.531 0.00 0.00 0.00 0.6080 9.41 43.43 1 1 1 8.310 8.540 8.940 9.480 9.010 2.341 1.148 8.200 8.410 8.820 8.850 8.920 -0.232 -0.961 1.4370 10.904 6.844 4.050 11.449 6.118 5.323
VANMET_231 2015-09-27 21:35:00 231 5603.0 8.380 8.600 8.980 9.110 8.950 65.080 55.810 2.207 0.748 14.480 13.330 12.340 10.950 0.211 0.234 0.269 0.531 0.00 0.00 0.00 0.8910 5.32 31.57 1 1 1 8.450 8.770 9.130 9.390 9.230 2.883 2.008 8.310 8.450 8.860 8.660 8.970 1.603 -0.212 1.6790 11.008 7.161 3.844 11.565 6.448 5.111
VANMET_231 2015-09-27 21:30:00 231 5603.0 8.390 8.620 8.970 9.060 9.190 63.710 54.090 1.903 0.252 14.490 13.330 12.340 10.950 0.211 0.234 0.269 0.531 0.00 0.00 0.00 0.9570 11.34 33.73 1 1 1 8.410 8.790 9.140 9.670 9.170 2.778 2.093 8.350 8.550 8.900 8.750 9.010 0.491 -1.508 2.0510 11.015 7.007 3.997 11.526 6.221 5.292
VANMET_231 2015-09-27 21:25:00 231 5603.0 8.390 8.640 9.060 9.150 9.250 63.030 53.910 1.760 0.299 14.500 13.320 12.340 10.950 0.211 0.234 0.269 0.531 0.00 0.00 0.00 1.0240 14.26 40.77 1 1 1 8.410 8.700 9.140 9.500 9.200 2.947 1.491 8.360 8.570 8.970 8.940 9.100 0.024 -0.941 1.7970 11.015 6.936 4.072 11.597 6.242 5.345
VANMET_231 2015-09-27 21:20:00 231 5603.0 8.330 8.490 8.940 9.020 9.270 61.150 51.940 1.276 -0.338 14.510 13.310 12.340 10.950 0.211 0.234 0.269 0.531 0.00 0.00 0.00 0.9330 14.22 32.90 1 1 1 8.380 8.660 9.120 9.740 9.170 2.186 1.230 8.260 8.350 8.780 8.870 8.900 -0.048 -1.558 1.7310 10.970 6.699 4.262 11.495 5.959 5.525
VANMET_231 2015-09-27 21:15:00 231 5603.0 8.370 8.440 8.880 9.030 8.970 65.020 55.670 2.182 0.637 14.520 13.300 12.350 10.950 0.211 0.234 0.269 0.531 0.00 0.00 0.00 0.7760 37.05 23.38 1 1 1 8.440 8.550 8.990 9.210 9.140 2.843 1.571 8.310 8.370 8.790 8.860 8.920 1.094 -0.071 1.5290 11.000 7.149 3.848 11.503 6.397 5.099
VANMET_231 2015-09-27 21:10:00 231 5603.0 8.510 8.640 9.060 9.200 9.200 63.090 52.820 1.888 0.070 14.530 13.290 12.350 10.950 0.211 0.234 0.269 0.531 0.00 0.00 0.00 0.6900 18.63 32.00 1 1 1 8.580 8.720 9.110 9.370 9.240 3.124 1.309 8.430 8.550 8.990 8.970 9.140 0.987 -0.523 1.0260 11.105 7.000 4.099 11.636 6.139 5.490
VANMET_231 2015-09-27 21:05:00 231 5603.0 8.740 8.830 9.210 9.330 9.240 63.060 52.230 2.105 0.034 14.540 13.280 12.350 10.950 0.211 0.234 0.269 0.531 0.00 0.00 0.00 0.8650 14.94 22.09 1 1 1 8.870 8.970 9.330 9.370 9.430 2.846 0.856 8.630 8.690 9.100 9.160 9.250 1.432 -0.560 1.3980 11.280 7.109 4.167 11.738 6.123 5.607
VANMET_231 2015-09-27 21:00:00 231 5603.0 8.920 9.150 9.510 9.560 9.550 58.640 51.310 1.254 -0.002 14.550 13.280 12.350 10.950 0.211 0.234 0.269 0.531 0.00 0.00 0.00 0.9080 10.17 27.68 1 1 1 8.990 9.330 9.680 10.060 9.640 1.975 1.029 8.810 9.000 9.360 9.220 9.440 -0.348 -1.522 2.3000 11.418 6.688 4.722 11.921 6.107 5.805
VANMET_231 2015-09-27 20:55:00 231 5603.0 8.750 9.000 9.420 9.500 9.620 59.230 50.880 1.220 -0.171 14.560 13.270 12.350 10.950 0.211 0.234 0.269 0.531 0.00 0.00 0.00 1.1260 28.44 26.79 1 1 1 8.800 9.170 9.580 9.900 9.560 2.406 0.725 8.670 8.870 9.310 9.400 9.450 -0.382 -1.022 3.6000 11.287 6.672 4.602 11.873 6.032 5.832
VANMET_231 2015-09-27 20:50:00 231 5603.0 8.840 9.000 9.450 9.570 9.490 62.680 52.370 2.110 0.299 14.570 13.260 12.350 10.950 0.211 0.234 0.269 0.531 0.00 0.00 0.00 1.0670 33.01 36.26 1 1 1 8.920 9.120 9.550 9.620 9.650 2.746 1.248 8.740 8.900 9.340 9.380 9.460 1.276 -0.700 1.7380 11.356 7.112 4.238 11.929 6.242 5.682
VANMET_231 2015-09-27 20:45:00 231 5603.0 8.900 9.180 9.610 9.680 9.700 61.230 51.550 1.834 0.182 14.570 13.250 12.350 10.950 0.211 0.234 0.269 0.531 0.00 0.00 0.00 1.2570 33.55 45.22 1 1 1 8.920 9.230 9.680 9.900 9.700 2.789 1.554 8.860 9.120 9.560 9.410 9.660 0.668 -0.558 2.8490 11.402 6.973 4.421 12.018 6.189 5.823
VANMET_231 2015-09-27 20:40:00 231 5603.0 8.960 9.180 9.640 9.720 9.720 62.840 51.840 2.264 0.295 14.580 13.240 12.350 10.950 0.211 0.234 0.269 0.531 0.00 0.00 0.00 1.0390 12.49 22.12 1 1 1 9.060 9.290 9.740 9.990 9.780 3.022 1.318 8.870 9.090 9.550 9.430 9.650 1.402 -0.599 2.2280 11.449 7.191 4.254 12.050 6.240 5.803
VANMET_231 2015-09-27 20:35:00 231 5603.0 9.140 9.340 9.730 9.770 9.790 62.390 52.750 2.331 0.578 14.590 13.230 12.350 10.950 0.211 0.234 0.269 0.531 0.00 0.00 0.00 1.3370 38.24 38.68 1 1 1 9.200 9.450 9.810 10.020 9.840 3.373 1.900 9.040 9.250 9.640 9.570 9.710 0.616 -0.624 2.2340 11.589 7.225 4.359 12.091 6.370 5.713
VANMET_231 2015-09-27 20:30:00 231 5603.0 9.160 9.390 9.770 9.840 9.880 60.780 52.250 1.971 0.509 14.590 13.220 12.350 10.950 0.211 0.234 0.269 0.531 0.00 0.00 0.00 1.0420 17.67 37.50 1 1 1 9.220 9.460 9.830 10.220 9.870 3.252 1.846 9.100 9.250 9.660 9.480 9.800 0.418 -0.725 1.7440 11.604 7.041 4.551 12.148 6.338 5.801
VANMET_231 2015-09-27 20:25:00 231 5603.0 9.170 9.400 9.820 9.900 9.900 62.120 52.170 2.297 0.550 14.600 13.210 12.350 10.950 0.211 0.234 0.269 0.531 0.00 0.00 0.00 1.1030 11.69 31.71 1 1 1 9.220 9.470 9.870 10.090 9.930 2.913 1.403 9.120 9.280 9.700 9.630 9.870 1.342 -0.216 1.6140 11.612 7.208 4.399 12.197 6.357 5.834
VANMET_231 2015-09-27 20:20:00 231 5603.0 9.230 9.530 9.910 9.970 9.960 61.310 52.810 2.152 0.777 14.600 13.200 12.350 10.950 0.211 0.234 0.269 0.531 0.00 0.00 0.00 1.0590 22.54 31.41 1 1 1 9.270 9.610 9.990 10.230 10.040 3.527 1.645 9.170 9.430 9.830 9.680 9.910 0.698 -0.106 1.8030 11.659 7.133 4.511 12.254 6.462 5.783
VANMET_231 2015-09-27 20:15:00 231 5603.0 9.100 9.420 9.860 9.960 10.070 62.160 52.220 2.223 0.620 14.610 13.190 12.350 10.950 0.211 0.234 0.269 0.531 0.00 0.00 0.00 1.2230 35.26 32.88 1 1 1 9.200 9.560 10.010 10.400 10.060 3.117 1.537 9.010 9.270 9.720 9.840 9.870 0.498 -0.673 2.6130 11.558 7.170 4.373 12.246 6.389 5.851
VANMET_231 2015-09-27 20:10:00 231 5603.0 9.110 9.350 9.770 9.890 9.990 63.950 52.690 2.652 0.683 14.610 13.180 12.350 10.950 0.211 0.234 0.269 0.531 0.00 0.00 0.00 0.8900 20.25 41.25 1 1 1 9.140 9.380 9.810 10.140 9.950 3.603 1.722 9.080 9.310 9.720 9.830 9.820 1.639 -0.347 1.7120 11.565 7.392 4.169 12.189 6.418 5.766
VANMET_231 2015-09-27 20:05:00 231 5603.0 9.180 9.270 9.680 9.810 9.860 63.430 54.450 2.601 1.051 14.610 13.170 12.350 10.950 0.211 0.234 0.269 0.531 0.00 0.00 0.00 1.1340 19.03 34.48 1 1 1 9.250 9.340 9.760 10.200 9.900 3.391 2.809 9.130 9.210 9.610 9.620 9.750 1.417 -0.319 1.8750 11.620 7.365 4.249 12.123 6.591 5.522
VANMET_231 2015-09-27 20:00:00 231 5603.0 9.340 9.430 9.850 10.000 9.900 63.870 54.580 2.844 1.265 14.620 13.160 12.350 10.950 0.211 0.234 0.269 0.531 0.00 0.00 0.00 0.8340 28.05 30.66 1 1 1 9.420 9.520 9.940 10.140 10.100 3.595 2.212 9.270 9.310 9.730 9.620 9.900 1.726 -0.159 1.0980 11.746 7.494 4.244 12.279 6.693 5.577
VANMET_231 2015-09-27 19:55:00 231 5603.0 9.490 9.670 10.100 10.220 10.100 63.600 53.730 2.928 1.249 14.620 13.150 12.350 10.950 0.211 0.234 0.269 0.531 0.00 0.00 0.00 1.0340 38.12 36.20 1 1 1 9.520 9.810 10.250 10.400 10.290 3.921 2.085 9.430 9.520 9.960 9.880 10.110 1.728 0.094 1.9470 11.865 7.539 4.319 12.461 6.686 5.766
VANMET_231 2015-09-27 19:50:00 231 5603.0 9.530 9.790 10.230 10.260 10.430 60.090 52.000 2.170 0.840 14.620 13.140 12.350 10.950 0.211 0.234 0.269 0.531 0.00 0.00 0.00 1.2580 54.29 41.38 1 1 1 9.570 9.880 10.290 10.610 10.310 3.411 1.930 9.490 9.650 10.090 10.080 10.200 1.255 0.131 2.4300 11.897 7.142 4.748 12.494 6.491 5.997
VANMET_231 2015-09-27 19:45:00 231 5603.0 9.520 9.730 10.150 10.200 10.240 60.330 53.040 2.202 1.058 14.620 13.130 12.350 10.950 0.211 0.234 0.269 0.531 0.00 0.00 0.00 1.2850 38.21 38.48 1 1 1 9.570 9.830 10.250 10.720 10.270 3.289 1.834 9.470 9.590 9.980 9.950 10.120 0.731 -0.227 2.4890 11.889 7.159 4.717 12.444 6.594 5.844
VANMET_231 2015-09-27 19:40:00 231 5603.0 9.620 9.800 10.160 10.270 10.110 62.560 53.670 2.818 1.281 14.620 13.120 12.350 10.950 0.211 0.234 0.269 0.531 0.00 0.00 0.00 0.8670 17.31 41.08 1 1 1 9.690 10.020 10.340 10.590 10.380 4.007 2.168 9.510 9.610 9.990 9.790 10.130 1.803 0.413 2.1230 11.970 7.480 4.481 12.503 6.701 5.792
VANMET_231 2015-09-27 19:35:00 231 5603.0 9.600 9.870 10.230 10.290 10.270 60.810 52.740 2.407 1.062 14.610 13.110 12.350 10.950 0.211 0.234 0.269 0.531 0.00 0.00 0.00 1.6020 45.25 33.59 1 1 1 9.650 9.950 10.290 10.480 10.360 3.098 2.080 9.530 9.760 10.120 10.030 10.220 1.288 0.042 3.9070 11.953 7.264 4.685 12.519 6.596 5.917
VANMET_231 2015-09-27 19:30:00 231 5603.0 9.650 9.920 10.260 10.310 10.310 61.540 53.470 2.614 1.267 14.610 13.090 12.360 10.950 0.211 0.234 0.269 0.531 0.00 0.00 0.00 1.1480 29.21 39.87 1 1 1 9.690 10.020 10.390 10.680 10.380 3.847 2.476 9.610 9.780 10.100 9.910 10.210 1.225 0.236 1.9930 11.994 7.372 4.613 12.536 6.694 5.833
VANMET_231 2015-09-27 19:25:00 231 5603.0 9.490 9.870 10.250 10.290 10.470 60.560 52.710 2.234 1.050 14.610 13.080 12.360 10.950 0.211 0.234 0.269 0.531 0.00 0.00 0.00 1.3110 31.42 32.96 1 1 1 9.620 10.050 10.390 10.790 10.380 3.007 2.820 9.360 9.660 10.100 10.170 10.210 0.996 0.086 2.4500 11.865 7.175 4.680 12.519 6.591 5.920
VANMET_231 2015-09-27 19:20:00 231 5603.0 9.420 9.600 10.020 10.190 10.050 64.320 55.180 3.022 1.591 14.600 13.070 12.360 10.950 0.211 0.234 0.269 0.531 0.00 0.00 0.00 1.1160 39.43 31.35 1 1 1 9.530 9.720 10.120 10.360 10.290 3.690 3.113 9.360 9.490 9.910 9.730 10.080 1.728 0.579 2.5870 11.810 7.589 4.214 12.436 6.852 5.574
VANMET_231 2015-09-27 19:15:00 231 5603.0 9.570 9.870 10.300 10.410 10.320 64.820 53.980 3.281 1.495 14.600 13.060 12.360 10.950 0.211 0.234 0.269 0.531 0.00 0.00 0.00 1.2130 21.90 28.77 1 1 1 9.630 9.950 10.400 10.660 10.450 3.999 2.459 9.490 9.740 10.140 9.980 10.320 2.409 0.693 2.7640 11.929 7.730 4.197 12.620 6.805 5.808
VANMET_231 2015-09-27 19:10:00 231 5603.0 9.360 9.700 10.130 10.240 10.350 62.520 53.220 2.559 1.138 14.590 13.050 12.360 10.950 0.211 0.234 0.269 0.531 0.00 0.00 0.00 1.2980 31.48 31.86 1 1 1 9.480 9.880 10.330 10.670 10.400 3.549 2.353 9.290 9.590 9.990 10.090 10.140 1.152 0.180 2.3980 11.762 7.343 4.408 12.478 6.633 5.837
VANMET_231 2015-09-27 19:05:00 231 5603.0 9.300 9.580 9.980 10.150 10.200 65.310 55.100 3.119 1.536 14.580 13.040 12.360 10.950 0.211 0.234 0.269 0.531 0.00 0.00 0.00 1.3500 15.30 43.35 1 1 1 9.340 9.650 10.050 10.520 10.210 3.737 2.883 9.260 9.510 9.870 9.980 10.070 1.396 0.589 2.6660 11.715 7.642 4.064 12.403 6.825 5.569
VANMET_231 2015-09-27 19:00:00 231 5603.0 9.270 9.500 9.890 10.090 10.050 66.320 56.180 3.313 1.760 14.570 13.030 12.360 10.950 0.211 0.234 0.269 0.531 0.00 0.00 0.00 1.1350 21.69 38.24 1 1 1 9.320 9.560 9.930 10.390 10.120 3.846 2.649 9.220 9.450 9.850 9.860 10.060 1.363 1.030 2.0840 11.691 7.747 3.937 12.353 6.936 5.413
VANMET_231 2015-09-27 18:55:00 231 5603.0 9.370 9.620 10.040 10.230 10.130 65.770 55.650 3.295 1.753 14.560 13.020 12.360 10.950 0.211 0.234 0.269 0.531 0.00 0.00 0.00 0.9430 17.88 28.93 1 1 1 9.410 9.690 10.110 10.380 10.310 3.926 3.331 9.320 9.500 9.910 9.840 10.110 2.387 0.793 1.4700 11.770 7.737 4.029 12.469 6.932 5.530
VANMET_231 2015-09-27 18:50:00 231 5603.0 9.410 9.720 10.140 10.290 10.270 65.440 55.130 3.264 1.684 14.550 13.010 12.360 10.950 0.211 0.234 0.269 0.531 0.00 0.00 0.00 1.3440 14.19 30.08 1 1 1 9.450 9.790 10.200 10.510 10.330 3.792 2.881 9.350 9.660 10.100 10.110 10.220 2.157 0.909 2.5740 11.802 7.720 4.079 12.519 6.898 5.617
VANMET_231 2015-09-27 18:45:00 231 5603.0 9.430 9.630 10.030 10.260 10.110 66.470 55.280 3.500 1.687 14.530 13.000 12.360 10.950 0.211 0.234 0.269 0.531 0.00 0.00 0.00 1.0590 26.99 30.32 1 1 1 9.490 9.750 10.140 10.380 10.360 4.272 2.535 9.350 9.530 9.930 9.840 10.170 2.672 0.919 1.4770 11.818 7.850 3.962 12.494 6.900 5.587
VANMET_231 2015-09-27 18:40:00 231 5603.0 9.480 9.710 10.160 10.370 10.220 66.460 54.940 3.544 1.698 14.520 12.990 12.360 10.950 0.211 0.234 0.269 0.531 0.00 0.00 0.00 0.9720 31.40 30.85 1 1 1 9.550 9.790 10.280 10.460 10.460 4.216 3.192 9.430 9.630 10.090 10.040 10.300 2.069 0.419 1.9860 11.857 7.875 3.977 12.586 6.905 5.671
VANMET_231 2015-09-27 18:35:00 231 5603.0 9.600 9.860 10.350 10.540 10.460 65.910 55.360 3.541 1.959 14.500 12.970 12.360 10.950 0.211 0.234 0.269 0.531 0.00 0.00 0.00 1.0990 37.02 27.65 1 1 1 9.670 9.910 10.410 10.750 10.590 4.352 3.895 9.540 9.790 10.270 10.200 10.470 2.377 0.634 3.1560 11.953 7.873 4.075 12.730 7.035 5.683
VANMET_231 2015-09-27 18:30:00 231 5603.0 9.660 9.920 10.350 10.540 10.480 65.880 55.230 3.589 1.925 14.490 12.960 12.360 10.950 0.211 0.234 0.269 0.531 0.00 0.00 0.00 0.9660 36.19 29.87 1 1 1 9.710 9.990 10.430 10.840 10.590 4.524 3.472 9.630 9.830 10.260 10.120 10.470 2.534 0.631 2.4500 12.002 7.900 4.095 12.730 7.018 5.699
VANMET_231 2015-09-27 18:25:00 231 5603.0 9.670 9.870 10.370 10.560 10.490 65.250 54.990 3.466 1.886 14.470 12.950 12.360 10.950 0.211 0.234 0.269 0.531 0.00 0.00 0.00 1.0670 20.11 30.67 1 1 1 9.700 9.930 10.430 10.760 10.590 4.280 3.214 9.630 9.810 10.310 10.240 10.520 2.436 0.702 2.1230 12.010 7.832 4.173 12.747 6.999 5.737
VANMET_231 2015-09-27 18:20:00 231 5603.0 9.740 9.960 10.440 10.580 10.560 65.740 55.350 3.634 1.993 14.450 12.940 12.360 10.950 0.211 0.234 0.269 0.531 0.00 0.00 0.00 1.0